<?xml version="1.0" encoding="UTF-8" standalone="no" ?>
<gpx xmlns="http://www.topografix.com/GPX/1/1" xmlns:xsi="http://www.w3.org/2001/XMLSchema-instance" xsi:schemaLocation="http://www.topografix.com/GPX/1/1 http://www.topografix.com/GPX/1/1/gpx.xsd" version="1.1" creator="VisuGPX - https://www.visugpx.com">
  <metadata>
    <name>09- Urt Vieux Boucau les Bains 10/06/2023</name>
    <desc><![CDATA[

]]></desc>
  </metadata>
  <trk>
    <name><![CDATA[09- Urt Vieux Boucau les Bains 10/06/2023]]></name>
    <trkseg>
      <trkpt lat="43.49176" lon="-1.29676">
        <ele>43.400001525879</ele>
        <time>2023-06-10T05:39:31Z</time>
      </trkpt>
      <trkpt lat="43.49178" lon="-1.29683">
        <ele>43.799999237061</ele>
        <time>2023-06-10T05:39:40Z</time>
      </trkpt>
      <trkpt lat="43.49181" lon="-1.29693">
        <ele>43.799999237061</ele>
        <time>2023-06-10T05:39:43Z</time>
      </trkpt>
      <trkpt lat="43.49186" lon="-1.29718">
        <ele>43.799999237061</ele>
        <time>2023-06-10T05:39:51Z</time>
      </trkpt>
      <trkpt lat="43.49196" lon="-1.29738">
        <ele>44</ele>
        <time>2023-06-10T05:39:58Z</time>
      </trkpt>
      <trkpt lat="43.49209" lon="-1.29765">
        <ele>44.200000762939</ele>
        <time>2023-06-10T05:40:07Z</time>
      </trkpt>
      <trkpt lat="43.49225" lon="-1.29796">
        <ele>44.599998474121</ele>
        <time>2023-06-10T05:40:18Z</time>
      </trkpt>
      <trkpt lat="43.49244" lon="-1.29832">
        <ele>45</ele>
        <time>2023-06-10T05:40:30Z</time>
      </trkpt>
      <trkpt lat="43.49258" lon="-1.29847">
        <ele>45</ele>
        <time>2023-06-10T05:40:37Z</time>
      </trkpt>
      <trkpt lat="43.49281" lon="-1.29841">
        <ele>44.799999237061</ele>
        <time>2023-06-10T05:40:46Z</time>
      </trkpt>
      <trkpt lat="43.49301" lon="-1.29811">
        <ele>44.799999237061</ele>
        <time>2023-06-10T05:40:56Z</time>
      </trkpt>
      <trkpt lat="43.49318" lon="-1.29761">
        <ele>44.400001525879</ele>
        <time>2023-06-10T05:41:08Z</time>
      </trkpt>
      <trkpt lat="43.49334" lon="-1.29717">
        <ele>44</ele>
        <time>2023-06-10T05:41:17Z</time>
      </trkpt>
      <trkpt lat="43.49345" lon="-1.29681">
        <ele>43.400001525879</ele>
        <time>2023-06-10T05:41:24Z</time>
      </trkpt>
      <trkpt lat="43.49351" lon="-1.29654">
        <ele>43</ele>
        <time>2023-06-10T05:41:29Z</time>
      </trkpt>
      <trkpt lat="43.49354" lon="-1.29626">
        <ele>42.599998474121</ele>
        <time>2023-06-10T05:41:35Z</time>
      </trkpt>
      <trkpt lat="43.49366" lon="-1.29591">
        <ele>42.400001525879</ele>
        <time>2023-06-10T05:41:42Z</time>
      </trkpt>
      <trkpt lat="43.49386" lon="-1.29547">
        <ele>42.400001525879</ele>
        <time>2023-06-10T05:41:51Z</time>
      </trkpt>
      <trkpt lat="43.49394" lon="-1.29497">
        <ele>42.799999237061</ele>
        <time>2023-06-10T05:42:01Z</time>
      </trkpt>
      <trkpt lat="43.494" lon="-1.29451">
        <ele>42.799999237061</ele>
        <time>2023-06-10T05:42:10Z</time>
      </trkpt>
      <trkpt lat="43.49406" lon="-1.29418">
        <ele>42.799999237061</ele>
        <time>2023-06-10T05:42:17Z</time>
      </trkpt>
      <trkpt lat="43.49413" lon="-1.29383">
        <ele>42.799999237061</ele>
        <time>2023-06-10T05:42:24Z</time>
      </trkpt>
      <trkpt lat="43.49426" lon="-1.29329">
        <ele>42.599998474121</ele>
        <time>2023-06-10T05:42:34Z</time>
      </trkpt>
      <trkpt lat="43.49436" lon="-1.29283">
        <ele>42</ele>
        <time>2023-06-10T05:42:43Z</time>
      </trkpt>
      <trkpt lat="43.4944" lon="-1.29275">
        <ele>41.799999237061</ele>
        <time>2023-06-10T05:42:45Z</time>
      </trkpt>
      <trkpt lat="43.49443" lon="-1.29274">
        <ele>41.799999237061</ele>
        <time>2023-06-10T05:42:46Z</time>
      </trkpt>
      <trkpt lat="43.49446" lon="-1.29276">
        <ele>41.599998474121</ele>
        <time>2023-06-10T05:42:47Z</time>
      </trkpt>
      <trkpt lat="43.49448" lon="-1.29279">
        <ele>41.599998474121</ele>
        <time>2023-06-10T05:42:48Z</time>
      </trkpt>
      <trkpt lat="43.4945" lon="-1.29284">
        <ele>41.599998474121</ele>
        <time>2023-06-10T05:42:49Z</time>
      </trkpt>
      <trkpt lat="43.49451" lon="-1.29289">
        <ele>41.400001525879</ele>
        <time>2023-06-10T05:42:50Z</time>
      </trkpt>
      <trkpt lat="43.49452" lon="-1.29294">
        <ele>41.400001525879</ele>
        <time>2023-06-10T05:42:51Z</time>
      </trkpt>
      <trkpt lat="43.49452" lon="-1.29298">
        <ele>41.200000762939</ele>
        <time>2023-06-10T05:42:52Z</time>
      </trkpt>
      <trkpt lat="43.49453" lon="-1.29303">
        <ele>41.200000762939</ele>
        <time>2023-06-10T05:42:53Z</time>
      </trkpt>
      <trkpt lat="43.49455" lon="-1.29309">
        <ele>41</ele>
        <time>2023-06-10T05:42:54Z</time>
      </trkpt>
      <trkpt lat="43.49458" lon="-1.29314">
        <ele>41</ele>
        <time>2023-06-10T05:42:55Z</time>
      </trkpt>
      <trkpt lat="43.49462" lon="-1.29318">
        <ele>40.799999237061</ele>
        <time>2023-06-10T05:42:56Z</time>
      </trkpt>
      <trkpt lat="43.4947" lon="-1.29325">
        <ele>40.400001525879</ele>
        <time>2023-06-10T05:42:58Z</time>
      </trkpt>
      <trkpt lat="43.495" lon="-1.29346">
        <ele>38.799999237061</ele>
        <time>2023-06-10T05:43:04Z</time>
      </trkpt>
      <trkpt lat="43.49538" lon="-1.29373">
        <ele>36.599998474121</ele>
        <time>2023-06-10T05:43:11Z</time>
      </trkpt>
      <trkpt lat="43.49578" lon="-1.29396">
        <ele>34</ele>
        <time>2023-06-10T05:43:18Z</time>
      </trkpt>
      <trkpt lat="43.49584" lon="-1.29396">
        <ele>33.599998474121</ele>
        <time>2023-06-10T05:43:19Z</time>
      </trkpt>
      <trkpt lat="43.4959" lon="-1.29395">
        <ele>33.200000762939</ele>
        <time>2023-06-10T05:43:20Z</time>
      </trkpt>
      <trkpt lat="43.49595" lon="-1.29393">
        <ele>32.799999237061</ele>
        <time>2023-06-10T05:43:21Z</time>
      </trkpt>
      <trkpt lat="43.496" lon="-1.29391">
        <ele>32.599998474121</ele>
        <time>2023-06-10T05:43:22Z</time>
      </trkpt>
      <trkpt lat="43.49605" lon="-1.2939">
        <ele>32.200000762939</ele>
        <time>2023-06-10T05:43:23Z</time>
      </trkpt>
      <trkpt lat="43.4961" lon="-1.29391">
        <ele>31.799999237061</ele>
        <time>2023-06-10T05:43:24Z</time>
      </trkpt>
      <trkpt lat="43.49614" lon="-1.29393">
        <ele>31.60000038147</ele>
        <time>2023-06-10T05:43:25Z</time>
      </trkpt>
      <trkpt lat="43.49618" lon="-1.29396">
        <ele>31.200000762939</ele>
        <time>2023-06-10T05:43:26Z</time>
      </trkpt>
      <trkpt lat="43.49622" lon="-1.29401">
        <ele>30.799999237061</ele>
        <time>2023-06-10T05:43:27Z</time>
      </trkpt>
      <trkpt lat="43.49624" lon="-1.29408">
        <ele>30.60000038147</ele>
        <time>2023-06-10T05:43:28Z</time>
      </trkpt>
      <trkpt lat="43.49627" lon="-1.29416">
        <ele>30.200000762939</ele>
        <time>2023-06-10T05:43:29Z</time>
      </trkpt>
      <trkpt lat="43.49629" lon="-1.29425">
        <ele>30</ele>
        <time>2023-06-10T05:43:30Z</time>
      </trkpt>
      <trkpt lat="43.49648" lon="-1.29483">
        <ele>27.799999237061</ele>
        <time>2023-06-10T05:43:37Z</time>
      </trkpt>
      <trkpt lat="43.49651" lon="-1.29488">
        <ele>27.60000038147</ele>
        <time>2023-06-10T05:43:38Z</time>
      </trkpt>
      <trkpt lat="43.49655" lon="-1.29493">
        <ele>27</ele>
        <time>2023-06-10T05:43:39Z</time>
      </trkpt>
      <trkpt lat="43.49659" lon="-1.29498">
        <ele>27</ele>
        <time>2023-06-10T05:43:40Z</time>
      </trkpt>
      <trkpt lat="43.49664" lon="-1.29501">
        <ele>26.39999961853</ele>
        <time>2023-06-10T05:43:41Z</time>
      </trkpt>
      <trkpt lat="43.49669" lon="-1.29504">
        <ele>26.200000762939</ele>
        <time>2023-06-10T05:43:42Z</time>
      </trkpt>
      <trkpt lat="43.49674" lon="-1.29507">
        <ele>25.799999237061</ele>
        <time>2023-06-10T05:43:43Z</time>
      </trkpt>
      <trkpt lat="43.49679" lon="-1.29509">
        <ele>25.60000038147</ele>
        <time>2023-06-10T05:43:44Z</time>
      </trkpt>
      <trkpt lat="43.49696" lon="-1.29516">
        <ele>24.60000038147</ele>
        <time>2023-06-10T05:43:47Z</time>
      </trkpt>
      <trkpt lat="43.497" lon="-1.29521">
        <ele>24.39999961853</ele>
        <time>2023-06-10T05:43:48Z</time>
      </trkpt>
      <trkpt lat="43.49737" lon="-1.2956">
        <ele>22.200000762939</ele>
        <time>2023-06-10T05:43:56Z</time>
      </trkpt>
      <trkpt lat="43.49774" lon="-1.29604">
        <ele>19.60000038147</ele>
        <time>2023-06-10T05:44:04Z</time>
      </trkpt>
      <trkpt lat="43.49813" lon="-1.29645">
        <ele>16.60000038147</ele>
        <time>2023-06-10T05:44:12Z</time>
      </trkpt>
      <trkpt lat="43.49833" lon="-1.29665">
        <ele>15.199999809265</ele>
        <time>2023-06-10T05:44:16Z</time>
      </trkpt>
      <trkpt lat="43.49839" lon="-1.29668">
        <ele>15</ele>
        <time>2023-06-10T05:44:17Z</time>
      </trkpt>
      <trkpt lat="43.49861" lon="-1.29683">
        <ele>13.60000038147</ele>
        <time>2023-06-10T05:44:21Z</time>
      </trkpt>
      <trkpt lat="43.49866" lon="-1.29688">
        <ele>13.39999961853</ele>
        <time>2023-06-10T05:44:22Z</time>
      </trkpt>
      <trkpt lat="43.4987" lon="-1.29694">
        <ele>13</ele>
        <time>2023-06-10T05:44:23Z</time>
      </trkpt>
      <trkpt lat="43.49873" lon="-1.297">
        <ele>12.60000038147</ele>
        <time>2023-06-10T05:44:24Z</time>
      </trkpt>
      <trkpt lat="43.49876" lon="-1.29706">
        <ele>12.39999961853</ele>
        <time>2023-06-10T05:44:25Z</time>
      </trkpt>
      <trkpt lat="43.49879" lon="-1.29711">
        <ele>12</ele>
        <time>2023-06-10T05:44:26Z</time>
      </trkpt>
      <trkpt lat="43.49881" lon="-1.29718">
        <ele>11.60000038147</ele>
        <time>2023-06-10T05:44:27Z</time>
      </trkpt>
      <trkpt lat="43.49882" lon="-1.29725">
        <ele>11.199999809265</ele>
        <time>2023-06-10T05:44:28Z</time>
      </trkpt>
      <trkpt lat="43.49894" lon="-1.2978">
        <ele>8.8000001907349</ele>
        <time>2023-06-10T05:44:35Z</time>
      </trkpt>
      <trkpt lat="43.49903" lon="-1.29809">
        <ele>7.4000000953674</ele>
        <time>2023-06-10T05:44:40Z</time>
      </trkpt>
      <trkpt lat="43.49905" lon="-1.29813">
        <ele>7.1999998092651</ele>
        <time>2023-06-10T05:44:41Z</time>
      </trkpt>
      <trkpt lat="43.49907" lon="-1.29815">
        <ele>7</ele>
        <time>2023-06-10T05:44:42Z</time>
      </trkpt>
      <trkpt lat="43.4991" lon="-1.29816">
        <ele>6.8000001907349</ele>
        <time>2023-06-10T05:44:43Z</time>
      </trkpt>
      <trkpt lat="43.49914" lon="-1.29816">
        <ele>6.5999999046326</ele>
        <time>2023-06-10T05:44:44Z</time>
      </trkpt>
      <trkpt lat="43.49918" lon="-1.29816">
        <ele>6.4000000953674</ele>
        <time>2023-06-10T05:44:45Z</time>
      </trkpt>
      <trkpt lat="43.49922" lon="-1.29816">
        <ele>6.4000000953674</ele>
        <time>2023-06-10T05:44:46Z</time>
      </trkpt>
      <trkpt lat="43.49925" lon="-1.29815">
        <ele>6.4000000953674</ele>
        <time>2023-06-10T05:44:47Z</time>
      </trkpt>
      <trkpt lat="43.49928" lon="-1.29815">
        <ele>6.1999998092651</ele>
        <time>2023-06-10T05:44:48Z</time>
      </trkpt>
      <trkpt lat="43.49931" lon="-1.29814">
        <ele>6.1999998092651</ele>
        <time>2023-06-10T05:44:49Z</time>
      </trkpt>
      <trkpt lat="43.49948" lon="-1.2981">
        <ele>6</ele>
        <time>2023-06-10T05:44:54Z</time>
      </trkpt>
      <trkpt lat="43.49952" lon="-1.29807">
        <ele>6</ele>
        <time>2023-06-10T05:44:55Z</time>
      </trkpt>
      <trkpt lat="43.49955" lon="-1.29803">
        <ele>6</ele>
        <time>2023-06-10T05:44:56Z</time>
      </trkpt>
      <trkpt lat="43.49959" lon="-1.298">
        <ele>6</ele>
        <time>2023-06-10T05:44:57Z</time>
      </trkpt>
      <trkpt lat="43.49963" lon="-1.29798">
        <ele>5.8000001907349</ele>
        <time>2023-06-10T05:44:58Z</time>
      </trkpt>
      <trkpt lat="43.49968" lon="-1.29796">
        <ele>5.8000001907349</ele>
        <time>2023-06-10T05:44:59Z</time>
      </trkpt>
      <trkpt lat="43.49972" lon="-1.29794">
        <ele>5.5999999046326</ele>
        <time>2023-06-10T05:45:00Z</time>
      </trkpt>
      <trkpt lat="43.49976" lon="-1.29791">
        <ele>5.5999999046326</ele>
        <time>2023-06-10T05:45:01Z</time>
      </trkpt>
      <trkpt lat="43.49991" lon="-1.29782">
        <ele>5</ele>
        <time>2023-06-10T05:45:07Z</time>
      </trkpt>
      <trkpt lat="43.49993" lon="-1.29781">
        <ele>5</ele>
        <time>2023-06-10T05:45:08Z</time>
      </trkpt>
      <trkpt lat="43.49994" lon="-1.29781">
        <ele>5</ele>
        <time>2023-06-10T05:45:09Z</time>
      </trkpt>
      <trkpt lat="43.49996" lon="-1.29782">
        <ele>5</ele>
        <time>2023-06-10T05:45:10Z</time>
      </trkpt>
      <trkpt lat="43.49997" lon="-1.29783">
        <ele>4.8000001907349</ele>
        <time>2023-06-10T05:45:15Z</time>
      </trkpt>
      <trkpt lat="43.49996" lon="-1.29784">
        <ele>4.5999999046326</ele>
        <time>2023-06-10T05:45:30Z</time>
      </trkpt>
      <trkpt lat="43.49996" lon="-1.29784">
        <ele>4.4000000953674</ele>
        <time>2023-06-10T05:45:57Z</time>
      </trkpt>
      <trkpt lat="43.49995" lon="-1.29784">
        <ele>4.1999998092651</ele>
        <time>2023-06-10T05:46:43Z</time>
      </trkpt>
      <trkpt lat="43.49995" lon="-1.29784">
        <ele>4</ele>
        <time>2023-06-10T05:47:28Z</time>
      </trkpt>
      <trkpt lat="43.49996" lon="-1.29785">
        <ele>4</ele>
        <time>2023-06-10T05:47:46Z</time>
      </trkpt>
      <trkpt lat="43.49996" lon="-1.29792">
        <ele>4</ele>
        <time>2023-06-10T05:47:57Z</time>
      </trkpt>
      <trkpt lat="43.49998" lon="-1.29793">
        <ele>4</ele>
        <time>2023-06-10T05:48:09Z</time>
      </trkpt>
      <trkpt lat="43.49999" lon="-1.29794">
        <ele>4</ele>
        <time>2023-06-10T05:48:36Z</time>
      </trkpt>
      <trkpt lat="43.50001" lon="-1.29796">
        <ele>4</ele>
        <time>2023-06-10T05:49:09Z</time>
      </trkpt>
      <trkpt lat="43.50002" lon="-1.29798">
        <ele>4</ele>
        <time>2023-06-10T05:49:10Z</time>
      </trkpt>
      <trkpt lat="43.50003" lon="-1.29799">
        <ele>4</ele>
        <time>2023-06-10T05:49:11Z</time>
      </trkpt>
      <trkpt lat="43.50007" lon="-1.29801">
        <ele>4</ele>
        <time>2023-06-10T05:49:19Z</time>
      </trkpt>
      <trkpt lat="43.50007" lon="-1.298">
        <ele>4.1999998092651</ele>
        <time>2023-06-10T05:49:45Z</time>
      </trkpt>
      <trkpt lat="43.50009" lon="-1.29803">
        <ele>4.1999998092651</ele>
        <time>2023-06-10T05:50:06Z</time>
      </trkpt>
      <trkpt lat="43.50013" lon="-1.29813">
        <ele>4.1999998092651</ele>
        <time>2023-06-10T05:50:13Z</time>
      </trkpt>
      <trkpt lat="43.50025" lon="-1.29835">
        <ele>4.1999998092651</ele>
        <time>2023-06-10T05:50:21Z</time>
      </trkpt>
      <trkpt lat="43.50045" lon="-1.29874">
        <ele>4.4000000953674</ele>
        <time>2023-06-10T05:50:32Z</time>
      </trkpt>
      <trkpt lat="43.50061" lon="-1.2991">
        <ele>4.4000000953674</ele>
        <time>2023-06-10T05:50:42Z</time>
      </trkpt>
      <trkpt lat="43.50074" lon="-1.29941">
        <ele>4.4000000953674</ele>
        <time>2023-06-10T05:50:49Z</time>
      </trkpt>
      <trkpt lat="43.50084" lon="-1.29996">
        <ele>4.4000000953674</ele>
        <time>2023-06-10T05:51:00Z</time>
      </trkpt>
      <trkpt lat="43.50088" lon="-1.30041">
        <ele>4.5999999046326</ele>
        <time>2023-06-10T05:51:09Z</time>
      </trkpt>
      <trkpt lat="43.50095" lon="-1.30096">
        <ele>4.8000001907349</ele>
        <time>2023-06-10T05:51:20Z</time>
      </trkpt>
      <trkpt lat="43.50098" lon="-1.30136">
        <ele>4.8000001907349</ele>
        <time>2023-06-10T05:51:28Z</time>
      </trkpt>
      <trkpt lat="43.50101" lon="-1.30164">
        <ele>4.8000001907349</ele>
        <time>2023-06-10T05:51:34Z</time>
      </trkpt>
      <trkpt lat="43.50101" lon="-1.30194">
        <ele>5</ele>
        <time>2023-06-10T05:51:41Z</time>
      </trkpt>
      <trkpt lat="43.50104" lon="-1.3024">
        <ele>5</ele>
        <time>2023-06-10T05:51:49Z</time>
      </trkpt>
      <trkpt lat="43.50106" lon="-1.30279">
        <ele>5</ele>
        <time>2023-06-10T05:51:56Z</time>
      </trkpt>
      <trkpt lat="43.50111" lon="-1.30342">
        <ele>5</ele>
        <time>2023-06-10T05:52:08Z</time>
      </trkpt>
      <trkpt lat="43.50115" lon="-1.30404">
        <ele>5</ele>
        <time>2023-06-10T05:52:20Z</time>
      </trkpt>
      <trkpt lat="43.50117" lon="-1.30449">
        <ele>5</ele>
        <time>2023-06-10T05:52:29Z</time>
      </trkpt>
      <trkpt lat="43.50117" lon="-1.30503">
        <ele>5</ele>
        <time>2023-06-10T05:52:39Z</time>
      </trkpt>
      <trkpt lat="43.50119" lon="-1.30577">
        <ele>5</ele>
        <time>2023-06-10T05:52:53Z</time>
      </trkpt>
      <trkpt lat="43.5012" lon="-1.30638">
        <ele>5</ele>
        <time>2023-06-10T05:53:05Z</time>
      </trkpt>
      <trkpt lat="43.5012" lon="-1.30663">
        <ele>5.1999998092651</ele>
        <time>2023-06-10T05:53:10Z</time>
      </trkpt>
      <trkpt lat="43.50121" lon="-1.30702">
        <ele>5.1999998092651</ele>
        <time>2023-06-10T05:53:17Z</time>
      </trkpt>
      <trkpt lat="43.50119" lon="-1.30729">
        <ele>5.1999998092651</ele>
        <time>2023-06-10T05:53:23Z</time>
      </trkpt>
      <trkpt lat="43.50112" lon="-1.30777">
        <ele>5.1999998092651</ele>
        <time>2023-06-10T05:53:32Z</time>
      </trkpt>
      <trkpt lat="43.50107" lon="-1.30851">
        <ele>5.1999998092651</ele>
        <time>2023-06-10T05:53:45Z</time>
      </trkpt>
      <trkpt lat="43.50107" lon="-1.30902">
        <ele>5.1999998092651</ele>
        <time>2023-06-10T05:53:54Z</time>
      </trkpt>
      <trkpt lat="43.5011" lon="-1.30931">
        <ele>5.1999998092651</ele>
        <time>2023-06-10T05:54:00Z</time>
      </trkpt>
      <trkpt lat="43.50107" lon="-1.30951">
        <ele>5.1999998092651</ele>
        <time>2023-06-10T05:54:05Z</time>
      </trkpt>
      <trkpt lat="43.50106" lon="-1.30994">
        <ele>5.1999998092651</ele>
        <time>2023-06-10T05:54:13Z</time>
      </trkpt>
      <trkpt lat="43.50105" lon="-1.31023">
        <ele>5</ele>
        <time>2023-06-10T05:54:19Z</time>
      </trkpt>
      <trkpt lat="43.50105" lon="-1.31058">
        <ele>5</ele>
        <time>2023-06-10T05:54:25Z</time>
      </trkpt>
      <trkpt lat="43.50103" lon="-1.31063">
        <ele>5</ele>
        <time>2023-06-10T05:54:26Z</time>
      </trkpt>
      <trkpt lat="43.50099" lon="-1.31066">
        <ele>5</ele>
        <time>2023-06-10T05:54:27Z</time>
      </trkpt>
      <trkpt lat="43.50095" lon="-1.31067">
        <ele>5</ele>
        <time>2023-06-10T05:54:28Z</time>
      </trkpt>
      <trkpt lat="43.50091" lon="-1.31067">
        <ele>5</ele>
        <time>2023-06-10T05:54:29Z</time>
      </trkpt>
      <trkpt lat="43.50087" lon="-1.31066">
        <ele>4.8000001907349</ele>
        <time>2023-06-10T05:54:30Z</time>
      </trkpt>
      <trkpt lat="43.50083" lon="-1.31065">
        <ele>4.8000001907349</ele>
        <time>2023-06-10T05:54:31Z</time>
      </trkpt>
      <trkpt lat="43.50079" lon="-1.31064">
        <ele>4.8000001907349</ele>
        <time>2023-06-10T05:54:32Z</time>
      </trkpt>
      <trkpt lat="43.50046" lon="-1.31068">
        <ele>4.8000001907349</ele>
        <time>2023-06-10T05:54:41Z</time>
      </trkpt>
      <trkpt lat="43.50041" lon="-1.31094">
        <ele>5</ele>
        <time>2023-06-10T05:54:46Z</time>
      </trkpt>
      <trkpt lat="43.5004" lon="-1.31126">
        <ele>5</ele>
        <time>2023-06-10T05:54:53Z</time>
      </trkpt>
      <trkpt lat="43.50038" lon="-1.31178">
        <ele>5</ele>
        <time>2023-06-10T05:55:02Z</time>
      </trkpt>
      <trkpt lat="43.50034" lon="-1.31245">
        <ele>5</ele>
        <time>2023-06-10T05:55:14Z</time>
      </trkpt>
      <trkpt lat="43.5003" lon="-1.31307">
        <ele>5.1999998092651</ele>
        <time>2023-06-10T05:55:25Z</time>
      </trkpt>
      <trkpt lat="43.50026" lon="-1.31351">
        <ele>5.1999998092651</ele>
        <time>2023-06-10T05:55:34Z</time>
      </trkpt>
      <trkpt lat="43.50026" lon="-1.31379">
        <ele>5.1999998092651</ele>
        <time>2023-06-10T05:55:40Z</time>
      </trkpt>
      <trkpt lat="43.50027" lon="-1.31411">
        <ele>5.1999998092651</ele>
        <time>2023-06-10T05:55:46Z</time>
      </trkpt>
      <trkpt lat="43.50037" lon="-1.31435">
        <ele>5.1999998092651</ele>
        <time>2023-06-10T05:55:52Z</time>
      </trkpt>
      <trkpt lat="43.50037" lon="-1.31438">
        <ele>5.1999998092651</ele>
        <time>2023-06-10T05:55:53Z</time>
      </trkpt>
      <trkpt lat="43.50036" lon="-1.31441">
        <ele>5.1999998092651</ele>
        <time>2023-06-10T05:55:54Z</time>
      </trkpt>
      <trkpt lat="43.50035" lon="-1.31443">
        <ele>5.1999998092651</ele>
        <time>2023-06-10T05:55:55Z</time>
      </trkpt>
      <trkpt lat="43.50034" lon="-1.31447">
        <ele>5.1999998092651</ele>
        <time>2023-06-10T05:55:56Z</time>
      </trkpt>
      <trkpt lat="43.50033" lon="-1.31451">
        <ele>5.1999998092651</ele>
        <time>2023-06-10T05:55:57Z</time>
      </trkpt>
      <trkpt lat="43.50031" lon="-1.31455">
        <ele>5.1999998092651</ele>
        <time>2023-06-10T05:55:58Z</time>
      </trkpt>
      <trkpt lat="43.50025" lon="-1.31467">
        <ele>5.1999998092651</ele>
        <time>2023-06-10T05:56:01Z</time>
      </trkpt>
      <trkpt lat="43.50023" lon="-1.31491">
        <ele>5.4000000953674</ele>
        <time>2023-06-10T05:56:07Z</time>
      </trkpt>
      <trkpt lat="43.50026" lon="-1.31524">
        <ele>5.4000000953674</ele>
        <time>2023-06-10T05:56:14Z</time>
      </trkpt>
      <trkpt lat="43.50029" lon="-1.31558">
        <ele>5.4000000953674</ele>
        <time>2023-06-10T05:56:20Z</time>
      </trkpt>
      <trkpt lat="43.50025" lon="-1.3159">
        <ele>5.1999998092651</ele>
        <time>2023-06-10T05:56:26Z</time>
      </trkpt>
      <trkpt lat="43.50016" lon="-1.31618">
        <ele>5.1999998092651</ele>
        <time>2023-06-10T05:56:32Z</time>
      </trkpt>
      <trkpt lat="43.50005" lon="-1.31646">
        <ele>5</ele>
        <time>2023-06-10T05:56:38Z</time>
      </trkpt>
      <trkpt lat="43.49988" lon="-1.31669">
        <ele>4.8000001907349</ele>
        <time>2023-06-10T05:56:44Z</time>
      </trkpt>
      <trkpt lat="43.49969" lon="-1.3169">
        <ele>4.8000001907349</ele>
        <time>2023-06-10T05:56:50Z</time>
      </trkpt>
      <trkpt lat="43.49954" lon="-1.31708">
        <ele>4.8000001907349</ele>
        <time>2023-06-10T05:56:55Z</time>
      </trkpt>
      <trkpt lat="43.49935" lon="-1.31737">
        <ele>5</ele>
        <time>2023-06-10T05:57:02Z</time>
      </trkpt>
      <trkpt lat="43.49923" lon="-1.31769">
        <ele>4.8000001907349</ele>
        <time>2023-06-10T05:57:09Z</time>
      </trkpt>
      <trkpt lat="43.4992" lon="-1.31773">
        <ele>4.8000001907349</ele>
        <time>2023-06-10T05:57:10Z</time>
      </trkpt>
      <trkpt lat="43.49906" lon="-1.31798">
        <ele>4.8000001907349</ele>
        <time>2023-06-10T05:57:16Z</time>
      </trkpt>
      <trkpt lat="43.49887" lon="-1.31829">
        <ele>5</ele>
        <time>2023-06-10T05:57:22Z</time>
      </trkpt>
      <trkpt lat="43.49872" lon="-1.31861">
        <ele>5</ele>
        <time>2023-06-10T05:57:29Z</time>
      </trkpt>
      <trkpt lat="43.49855" lon="-1.31882">
        <ele>5</ele>
        <time>2023-06-10T05:57:35Z</time>
      </trkpt>
      <trkpt lat="43.4985" lon="-1.31887">
        <ele>5</ele>
        <time>2023-06-10T05:57:41Z</time>
      </trkpt>
      <trkpt lat="43.49846" lon="-1.31892">
        <ele>5</ele>
        <time>2023-06-10T05:57:58Z</time>
      </trkpt>
      <trkpt lat="43.49845" lon="-1.31895">
        <ele>5</ele>
        <time>2023-06-10T05:58:19Z</time>
      </trkpt>
      <trkpt lat="43.49846" lon="-1.31893">
        <ele>5</ele>
        <time>2023-06-10T05:58:59Z</time>
      </trkpt>
      <trkpt lat="43.49846" lon="-1.31892">
        <ele>5</ele>
        <time>2023-06-10T05:59:19Z</time>
      </trkpt>
      <trkpt lat="43.49844" lon="-1.31896">
        <ele>5</ele>
        <time>2023-06-10T05:59:37Z</time>
      </trkpt>
      <trkpt lat="43.49842" lon="-1.31896">
        <ele>5</ele>
        <time>2023-06-10T05:59:59Z</time>
      </trkpt>
      <trkpt lat="43.49843" lon="-1.31895">
        <ele>5</ele>
        <time>2023-06-10T06:00:19Z</time>
      </trkpt>
      <trkpt lat="43.4984" lon="-1.31899">
        <ele>5</ele>
        <time>2023-06-10T06:00:36Z</time>
      </trkpt>
      <trkpt lat="43.49841" lon="-1.31898">
        <ele>5</ele>
        <time>2023-06-10T06:00:54Z</time>
      </trkpt>
      <trkpt lat="43.49839" lon="-1.31903">
        <ele>5</ele>
        <time>2023-06-10T06:01:08Z</time>
      </trkpt>
      <trkpt lat="43.4984" lon="-1.31923">
        <ele>5.1999998092651</ele>
        <time>2023-06-10T06:01:15Z</time>
      </trkpt>
      <trkpt lat="43.49839" lon="-1.31941">
        <ele>5.4000000953674</ele>
        <time>2023-06-10T06:01:20Z</time>
      </trkpt>
      <trkpt lat="43.49841" lon="-1.31964">
        <ele>5.4000000953674</ele>
        <time>2023-06-10T06:01:26Z</time>
      </trkpt>
      <trkpt lat="43.49838" lon="-1.31992">
        <ele>5.4000000953674</ele>
        <time>2023-06-10T06:01:33Z</time>
      </trkpt>
      <trkpt lat="43.49837" lon="-1.32">
        <ele>5.4000000953674</ele>
        <time>2023-06-10T06:01:35Z</time>
      </trkpt>
      <trkpt lat="43.49837" lon="-1.32004">
        <ele>5.4000000953674</ele>
        <time>2023-06-10T06:01:36Z</time>
      </trkpt>
      <trkpt lat="43.49837" lon="-1.32007">
        <ele>5.4000000953674</ele>
        <time>2023-06-10T06:01:37Z</time>
      </trkpt>
      <trkpt lat="43.49837" lon="-1.3201">
        <ele>5.5999999046326</ele>
        <time>2023-06-10T06:01:38Z</time>
      </trkpt>
      <trkpt lat="43.49837" lon="-1.32013">
        <ele>5.5999999046326</ele>
        <time>2023-06-10T06:01:39Z</time>
      </trkpt>
      <trkpt lat="43.49834" lon="-1.32034">
        <ele>5.5999999046326</ele>
        <time>2023-06-10T06:01:45Z</time>
      </trkpt>
      <trkpt lat="43.49834" lon="-1.32038">
        <ele>5.5999999046326</ele>
        <time>2023-06-10T06:01:46Z</time>
      </trkpt>
      <trkpt lat="43.49834" lon="-1.32042">
        <ele>5.5999999046326</ele>
        <time>2023-06-10T06:01:47Z</time>
      </trkpt>
      <trkpt lat="43.49833" lon="-1.32047">
        <ele>5.5999999046326</ele>
        <time>2023-06-10T06:01:48Z</time>
      </trkpt>
      <trkpt lat="43.49834" lon="-1.32052">
        <ele>5.5999999046326</ele>
        <time>2023-06-10T06:01:49Z</time>
      </trkpt>
      <trkpt lat="43.49834" lon="-1.32056">
        <ele>5.5999999046326</ele>
        <time>2023-06-10T06:01:50Z</time>
      </trkpt>
      <trkpt lat="43.49834" lon="-1.3206">
        <ele>5.5999999046326</ele>
        <time>2023-06-10T06:01:51Z</time>
      </trkpt>
      <trkpt lat="43.49834" lon="-1.32064">
        <ele>5.8000001907349</ele>
        <time>2023-06-10T06:01:52Z</time>
      </trkpt>
      <trkpt lat="43.49831" lon="-1.32105">
        <ele>5.8000001907349</ele>
        <time>2023-06-10T06:02:00Z</time>
      </trkpt>
      <trkpt lat="43.49827" lon="-1.32154">
        <ele>5.8000001907349</ele>
        <time>2023-06-10T06:02:08Z</time>
      </trkpt>
      <trkpt lat="43.49827" lon="-1.32192">
        <ele>5.8000001907349</ele>
        <time>2023-06-10T06:02:15Z</time>
      </trkpt>
      <trkpt lat="43.49823" lon="-1.32238">
        <ele>5.8000001907349</ele>
        <time>2023-06-10T06:02:23Z</time>
      </trkpt>
      <trkpt lat="43.49819" lon="-1.32296">
        <ele>5.8000001907349</ele>
        <time>2023-06-10T06:02:34Z</time>
      </trkpt>
      <trkpt lat="43.49816" lon="-1.32337">
        <ele>5.8000001907349</ele>
        <time>2023-06-10T06:02:42Z</time>
      </trkpt>
      <trkpt lat="43.49809" lon="-1.32386">
        <ele>5.8000001907349</ele>
        <time>2023-06-10T06:02:51Z</time>
      </trkpt>
      <trkpt lat="43.49801" lon="-1.32432">
        <ele>5.8000001907349</ele>
        <time>2023-06-10T06:03:01Z</time>
      </trkpt>
      <trkpt lat="43.49802" lon="-1.32446">
        <ele>5.8000001907349</ele>
        <time>2023-06-10T06:03:05Z</time>
      </trkpt>
      <trkpt lat="43.49803" lon="-1.32448">
        <ele>5.8000001907349</ele>
        <time>2023-06-10T06:03:06Z</time>
      </trkpt>
      <trkpt lat="43.49805" lon="-1.32449">
        <ele>5.5999999046326</ele>
        <time>2023-06-10T06:03:07Z</time>
      </trkpt>
      <trkpt lat="43.49812" lon="-1.32466">
        <ele>5.8000001907349</ele>
        <time>2023-06-10T06:03:15Z</time>
      </trkpt>
      <trkpt lat="43.49821" lon="-1.32497">
        <ele>6.1999998092651</ele>
        <time>2023-06-10T06:03:23Z</time>
      </trkpt>
      <trkpt lat="43.49822" lon="-1.32545">
        <ele>6.5999999046326</ele>
        <time>2023-06-10T06:03:33Z</time>
      </trkpt>
      <trkpt lat="43.49821" lon="-1.32592">
        <ele>6.4000000953674</ele>
        <time>2023-06-10T06:03:42Z</time>
      </trkpt>
      <trkpt lat="43.49818" lon="-1.32641">
        <ele>6.1999998092651</ele>
        <time>2023-06-10T06:03:52Z</time>
      </trkpt>
      <trkpt lat="43.49818" lon="-1.32695">
        <ele>6.1999998092651</ele>
        <time>2023-06-10T06:04:03Z</time>
      </trkpt>
      <trkpt lat="43.49822" lon="-1.3274">
        <ele>6.1999998092651</ele>
        <time>2023-06-10T06:04:13Z</time>
      </trkpt>
      <trkpt lat="43.49822" lon="-1.32766">
        <ele>6.1999998092651</ele>
        <time>2023-06-10T06:04:19Z</time>
      </trkpt>
      <trkpt lat="43.49824" lon="-1.32797">
        <ele>6.1999998092651</ele>
        <time>2023-06-10T06:04:25Z</time>
      </trkpt>
      <trkpt lat="43.49823" lon="-1.32826">
        <ele>6.1999998092651</ele>
        <time>2023-06-10T06:04:31Z</time>
      </trkpt>
      <trkpt lat="43.49824" lon="-1.32863">
        <ele>6.1999998092651</ele>
        <time>2023-06-10T06:04:38Z</time>
      </trkpt>
      <trkpt lat="43.49818" lon="-1.32905">
        <ele>6.1999998092651</ele>
        <time>2023-06-10T06:04:47Z</time>
      </trkpt>
      <trkpt lat="43.49818" lon="-1.32931">
        <ele>6.1999998092651</ele>
        <time>2023-06-10T06:04:53Z</time>
      </trkpt>
      <trkpt lat="43.49819" lon="-1.3294">
        <ele>6.1999998092651</ele>
        <time>2023-06-10T06:04:55Z</time>
      </trkpt>
      <trkpt lat="43.49818" lon="-1.32945">
        <ele>6.1999998092651</ele>
        <time>2023-06-10T06:04:56Z</time>
      </trkpt>
      <trkpt lat="43.49817" lon="-1.32973">
        <ele>6.4000000953674</ele>
        <time>2023-06-10T06:05:02Z</time>
      </trkpt>
      <trkpt lat="43.49817" lon="-1.32978">
        <ele>6.4000000953674</ele>
        <time>2023-06-10T06:05:03Z</time>
      </trkpt>
      <trkpt lat="43.49816" lon="-1.32983">
        <ele>6.4000000953674</ele>
        <time>2023-06-10T06:05:04Z</time>
      </trkpt>
      <trkpt lat="43.49815" lon="-1.32987">
        <ele>6.4000000953674</ele>
        <time>2023-06-10T06:05:05Z</time>
      </trkpt>
      <trkpt lat="43.49814" lon="-1.32992">
        <ele>6.4000000953674</ele>
        <time>2023-06-10T06:05:06Z</time>
      </trkpt>
      <trkpt lat="43.49812" lon="-1.32997">
        <ele>6.4000000953674</ele>
        <time>2023-06-10T06:05:07Z</time>
      </trkpt>
      <trkpt lat="43.49805" lon="-1.33022">
        <ele>6.4000000953674</ele>
        <time>2023-06-10T06:05:13Z</time>
      </trkpt>
      <trkpt lat="43.49794" lon="-1.33047">
        <ele>6.5999999046326</ele>
        <time>2023-06-10T06:05:19Z</time>
      </trkpt>
      <trkpt lat="43.49783" lon="-1.33083">
        <ele>6.5999999046326</ele>
        <time>2023-06-10T06:05:26Z</time>
      </trkpt>
      <trkpt lat="43.4978" lon="-1.33107">
        <ele>6.5999999046326</ele>
        <time>2023-06-10T06:05:31Z</time>
      </trkpt>
      <trkpt lat="43.49778" lon="-1.33121">
        <ele>6.5999999046326</ele>
        <time>2023-06-10T06:05:34Z</time>
      </trkpt>
      <trkpt lat="43.49778" lon="-1.33126">
        <ele>6.5999999046326</ele>
        <time>2023-06-10T06:05:35Z</time>
      </trkpt>
      <trkpt lat="43.49777" lon="-1.33131">
        <ele>6.5999999046326</ele>
        <time>2023-06-10T06:05:36Z</time>
      </trkpt>
      <trkpt lat="43.49777" lon="-1.33137">
        <ele>6.5999999046326</ele>
        <time>2023-06-10T06:05:37Z</time>
      </trkpt>
      <trkpt lat="43.49777" lon="-1.33141">
        <ele>6.5999999046326</ele>
        <time>2023-06-10T06:05:38Z</time>
      </trkpt>
      <trkpt lat="43.49777" lon="-1.33145">
        <ele>6.5999999046326</ele>
        <time>2023-06-10T06:05:39Z</time>
      </trkpt>
      <trkpt lat="43.49777" lon="-1.33148">
        <ele>6.5999999046326</ele>
        <time>2023-06-10T06:05:40Z</time>
      </trkpt>
      <trkpt lat="43.49778" lon="-1.33153">
        <ele>6.5999999046326</ele>
        <time>2023-06-10T06:05:41Z</time>
      </trkpt>
      <trkpt lat="43.49779" lon="-1.33158">
        <ele>6.5999999046326</ele>
        <time>2023-06-10T06:05:42Z</time>
      </trkpt>
      <trkpt lat="43.49779" lon="-1.33163">
        <ele>6.5999999046326</ele>
        <time>2023-06-10T06:05:43Z</time>
      </trkpt>
      <trkpt lat="43.49778" lon="-1.33167">
        <ele>6.8000001907349</ele>
        <time>2023-06-10T06:05:44Z</time>
      </trkpt>
      <trkpt lat="43.49778" lon="-1.33171">
        <ele>6.8000001907349</ele>
        <time>2023-06-10T06:05:45Z</time>
      </trkpt>
      <trkpt lat="43.49778" lon="-1.3318">
        <ele>6.8000001907349</ele>
        <time>2023-06-10T06:05:47Z</time>
      </trkpt>
      <trkpt lat="43.4978" lon="-1.33213">
        <ele>6.8000001907349</ele>
        <time>2023-06-10T06:05:54Z</time>
      </trkpt>
      <trkpt lat="43.4978" lon="-1.33243">
        <ele>6.8000001907349</ele>
        <time>2023-06-10T06:06:01Z</time>
      </trkpt>
      <trkpt lat="43.49779" lon="-1.33252">
        <ele>6.8000001907349</ele>
        <time>2023-06-10T06:06:03Z</time>
      </trkpt>
      <trkpt lat="43.4977" lon="-1.33273">
        <ele>6.8000001907349</ele>
        <time>2023-06-10T06:06:08Z</time>
      </trkpt>
      <trkpt lat="43.4977" lon="-1.33278">
        <ele>6.8000001907349</ele>
        <time>2023-06-10T06:06:09Z</time>
      </trkpt>
      <trkpt lat="43.4977" lon="-1.33282">
        <ele>6.8000001907349</ele>
        <time>2023-06-10T06:06:10Z</time>
      </trkpt>
      <trkpt lat="43.49769" lon="-1.33287">
        <ele>6.8000001907349</ele>
        <time>2023-06-10T06:06:11Z</time>
      </trkpt>
      <trkpt lat="43.49768" lon="-1.33292">
        <ele>6.8000001907349</ele>
        <time>2023-06-10T06:06:12Z</time>
      </trkpt>
      <trkpt lat="43.49766" lon="-1.33298">
        <ele>6.8000001907349</ele>
        <time>2023-06-10T06:06:13Z</time>
      </trkpt>
      <trkpt lat="43.49766" lon="-1.33304">
        <ele>6.8000001907349</ele>
        <time>2023-06-10T06:06:14Z</time>
      </trkpt>
      <trkpt lat="43.49761" lon="-1.33326">
        <ele>6.8000001907349</ele>
        <time>2023-06-10T06:06:19Z</time>
      </trkpt>
      <trkpt lat="43.49756" lon="-1.33362">
        <ele>6.8000001907349</ele>
        <time>2023-06-10T06:06:25Z</time>
      </trkpt>
      <trkpt lat="43.49753" lon="-1.33393">
        <ele>6.8000001907349</ele>
        <time>2023-06-10T06:06:31Z</time>
      </trkpt>
      <trkpt lat="43.49748" lon="-1.33424">
        <ele>6.8000001907349</ele>
        <time>2023-06-10T06:06:38Z</time>
      </trkpt>
      <trkpt lat="43.49752" lon="-1.33456">
        <ele>6.8000001907349</ele>
        <time>2023-06-10T06:06:45Z</time>
      </trkpt>
      <trkpt lat="43.49755" lon="-1.33487">
        <ele>6.8000001907349</ele>
        <time>2023-06-10T06:06:51Z</time>
      </trkpt>
      <trkpt lat="43.49755" lon="-1.3351">
        <ele>6.8000001907349</ele>
        <time>2023-06-10T06:06:55Z</time>
      </trkpt>
      <trkpt lat="43.49756" lon="-1.33515">
        <ele>6.8000001907349</ele>
        <time>2023-06-10T06:06:56Z</time>
      </trkpt>
      <trkpt lat="43.49758" lon="-1.3356">
        <ele>6.5999999046326</ele>
        <time>2023-06-10T06:07:04Z</time>
      </trkpt>
      <trkpt lat="43.4976" lon="-1.33597">
        <ele>6.5999999046326</ele>
        <time>2023-06-10T06:07:11Z</time>
      </trkpt>
      <trkpt lat="43.49763" lon="-1.33626">
        <ele>6.5999999046326</ele>
        <time>2023-06-10T06:07:17Z</time>
      </trkpt>
      <trkpt lat="43.49766" lon="-1.33662">
        <ele>6.5999999046326</ele>
        <time>2023-06-10T06:07:23Z</time>
      </trkpt>
      <trkpt lat="43.49762" lon="-1.337">
        <ele>6.4000000953674</ele>
        <time>2023-06-10T06:07:30Z</time>
      </trkpt>
      <trkpt lat="43.4976" lon="-1.33758">
        <ele>6.4000000953674</ele>
        <time>2023-06-10T06:07:40Z</time>
      </trkpt>
      <trkpt lat="43.49762" lon="-1.33792">
        <ele>6.4000000953674</ele>
        <time>2023-06-10T06:07:47Z</time>
      </trkpt>
      <trkpt lat="43.49762" lon="-1.33796">
        <ele>6.4000000953674</ele>
        <time>2023-06-10T06:07:48Z</time>
      </trkpt>
      <trkpt lat="43.49764" lon="-1.33829">
        <ele>6.4000000953674</ele>
        <time>2023-06-10T06:07:55Z</time>
      </trkpt>
      <trkpt lat="43.49767" lon="-1.33863">
        <ele>6.1999998092651</ele>
        <time>2023-06-10T06:08:02Z</time>
      </trkpt>
      <trkpt lat="43.49772" lon="-1.33888">
        <ele>6.1999998092651</ele>
        <time>2023-06-10T06:08:08Z</time>
      </trkpt>
      <trkpt lat="43.49773" lon="-1.33919">
        <ele>6</ele>
        <time>2023-06-10T06:08:14Z</time>
      </trkpt>
      <trkpt lat="43.49772" lon="-1.33968">
        <ele>6</ele>
        <time>2023-06-10T06:08:22Z</time>
      </trkpt>
      <trkpt lat="43.49776" lon="-1.34001">
        <ele>6</ele>
        <time>2023-06-10T06:08:29Z</time>
      </trkpt>
      <trkpt lat="43.49779" lon="-1.34024">
        <ele>6.1999998092651</ele>
        <time>2023-06-10T06:08:35Z</time>
      </trkpt>
      <trkpt lat="43.49783" lon="-1.34038">
        <ele>6.1999998092651</ele>
        <time>2023-06-10T06:08:38Z</time>
      </trkpt>
      <trkpt lat="43.49784" lon="-1.34044">
        <ele>6.1999998092651</ele>
        <time>2023-06-10T06:08:39Z</time>
      </trkpt>
      <trkpt lat="43.49784" lon="-1.34049">
        <ele>6.1999998092651</ele>
        <time>2023-06-10T06:08:40Z</time>
      </trkpt>
      <trkpt lat="43.49792" lon="-1.34095">
        <ele>6</ele>
        <time>2023-06-10T06:08:49Z</time>
      </trkpt>
      <trkpt lat="43.49797" lon="-1.34122">
        <ele>6</ele>
        <time>2023-06-10T06:08:55Z</time>
      </trkpt>
      <trkpt lat="43.49804" lon="-1.34147">
        <ele>6</ele>
        <time>2023-06-10T06:09:00Z</time>
      </trkpt>
      <trkpt lat="43.49808" lon="-1.34176">
        <ele>6</ele>
        <time>2023-06-10T06:09:06Z</time>
      </trkpt>
      <trkpt lat="43.49807" lon="-1.34181">
        <ele>6</ele>
        <time>2023-06-10T06:09:07Z</time>
      </trkpt>
      <trkpt lat="43.49808" lon="-1.34185">
        <ele>6</ele>
        <time>2023-06-10T06:09:08Z</time>
      </trkpt>
      <trkpt lat="43.49809" lon="-1.3419">
        <ele>6</ele>
        <time>2023-06-10T06:09:09Z</time>
      </trkpt>
      <trkpt lat="43.4981" lon="-1.34196">
        <ele>6</ele>
        <time>2023-06-10T06:09:10Z</time>
      </trkpt>
      <trkpt lat="43.4981" lon="-1.34202">
        <ele>6</ele>
        <time>2023-06-10T06:09:11Z</time>
      </trkpt>
      <trkpt lat="43.49811" lon="-1.34218">
        <ele>5.8000001907349</ele>
        <time>2023-06-10T06:09:14Z</time>
      </trkpt>
      <trkpt lat="43.49812" lon="-1.34222">
        <ele>5.8000001907349</ele>
        <time>2023-06-10T06:09:15Z</time>
      </trkpt>
      <trkpt lat="43.49814" lon="-1.34227">
        <ele>5.8000001907349</ele>
        <time>2023-06-10T06:09:16Z</time>
      </trkpt>
      <trkpt lat="43.49815" lon="-1.34231">
        <ele>5.8000001907349</ele>
        <time>2023-06-10T06:09:17Z</time>
      </trkpt>
      <trkpt lat="43.49815" lon="-1.34237">
        <ele>5.8000001907349</ele>
        <time>2023-06-10T06:09:18Z</time>
      </trkpt>
      <trkpt lat="43.49815" lon="-1.34243">
        <ele>5.8000001907349</ele>
        <time>2023-06-10T06:09:19Z</time>
      </trkpt>
      <trkpt lat="43.49815" lon="-1.34247">
        <ele>5.8000001907349</ele>
        <time>2023-06-10T06:09:20Z</time>
      </trkpt>
      <trkpt lat="43.49818" lon="-1.34281">
        <ele>5.8000001907349</ele>
        <time>2023-06-10T06:09:27Z</time>
      </trkpt>
      <trkpt lat="43.49815" lon="-1.34306">
        <ele>5.8000001907349</ele>
        <time>2023-06-10T06:09:32Z</time>
      </trkpt>
      <trkpt lat="43.49811" lon="-1.3434">
        <ele>5.8000001907349</ele>
        <time>2023-06-10T06:09:38Z</time>
      </trkpt>
      <trkpt lat="43.49813" lon="-1.3437">
        <ele>5.8000001907349</ele>
        <time>2023-06-10T06:09:44Z</time>
      </trkpt>
      <trkpt lat="43.49812" lon="-1.3442">
        <ele>5.5999999046326</ele>
        <time>2023-06-10T06:09:52Z</time>
      </trkpt>
      <trkpt lat="43.49807" lon="-1.3446">
        <ele>5.5999999046326</ele>
        <time>2023-06-10T06:09:59Z</time>
      </trkpt>
      <trkpt lat="43.49805" lon="-1.34506">
        <ele>5.5999999046326</ele>
        <time>2023-06-10T06:10:07Z</time>
      </trkpt>
      <trkpt lat="43.49802" lon="-1.34546">
        <ele>5.4000000953674</ele>
        <time>2023-06-10T06:10:15Z</time>
      </trkpt>
      <trkpt lat="43.498" lon="-1.34575">
        <ele>5.1999998092651</ele>
        <time>2023-06-10T06:10:21Z</time>
      </trkpt>
      <trkpt lat="43.49802" lon="-1.34606">
        <ele>5.1999998092651</ele>
        <time>2023-06-10T06:10:27Z</time>
      </trkpt>
      <trkpt lat="43.49805" lon="-1.34647">
        <ele>5.1999998092651</ele>
        <time>2023-06-10T06:10:34Z</time>
      </trkpt>
      <trkpt lat="43.49806" lon="-1.34675">
        <ele>5.1999998092651</ele>
        <time>2023-06-10T06:10:39Z</time>
      </trkpt>
      <trkpt lat="43.49805" lon="-1.34714">
        <ele>5.1999998092651</ele>
        <time>2023-06-10T06:10:47Z</time>
      </trkpt>
      <trkpt lat="43.49808" lon="-1.3477">
        <ele>5.1999998092651</ele>
        <time>2023-06-10T06:10:56Z</time>
      </trkpt>
      <trkpt lat="43.49808" lon="-1.34802">
        <ele>5.4000000953674</ele>
        <time>2023-06-10T06:11:03Z</time>
      </trkpt>
      <trkpt lat="43.49809" lon="-1.34848">
        <ele>5.8000001907349</ele>
        <time>2023-06-10T06:11:12Z</time>
      </trkpt>
      <trkpt lat="43.49802" lon="-1.34877">
        <ele>6.5999999046326</ele>
        <time>2023-06-10T06:11:19Z</time>
      </trkpt>
      <trkpt lat="43.49796" lon="-1.34904">
        <ele>6.1999998092651</ele>
        <time>2023-06-10T06:11:24Z</time>
      </trkpt>
      <trkpt lat="43.49797" lon="-1.3491">
        <ele>6</ele>
        <time>2023-06-10T06:11:25Z</time>
      </trkpt>
      <trkpt lat="43.49799" lon="-1.34921">
        <ele>5.4000000953674</ele>
        <time>2023-06-10T06:11:27Z</time>
      </trkpt>
      <trkpt lat="43.49798" lon="-1.34927">
        <ele>5.4000000953674</ele>
        <time>2023-06-10T06:11:28Z</time>
      </trkpt>
      <trkpt lat="43.49786" lon="-1.34957">
        <ele>4.8000001907349</ele>
        <time>2023-06-10T06:11:35Z</time>
      </trkpt>
      <trkpt lat="43.49767" lon="-1.34985">
        <ele>6.4000000953674</ele>
        <time>2023-06-10T06:11:45Z</time>
      </trkpt>
      <trkpt lat="43.4974" lon="-1.35023">
        <ele>7</ele>
        <time>2023-06-10T06:11:56Z</time>
      </trkpt>
      <trkpt lat="43.49716" lon="-1.35064">
        <ele>6.1999998092651</ele>
        <time>2023-06-10T06:12:03Z</time>
      </trkpt>
      <trkpt lat="43.49689" lon="-1.35107">
        <ele>5.4000000953674</ele>
        <time>2023-06-10T06:12:12Z</time>
      </trkpt>
      <trkpt lat="43.49675" lon="-1.3514">
        <ele>5.4000000953674</ele>
        <time>2023-06-10T06:12:19Z</time>
      </trkpt>
      <trkpt lat="43.49651" lon="-1.3519">
        <ele>5.4000000953674</ele>
        <time>2023-06-10T06:12:29Z</time>
      </trkpt>
      <trkpt lat="43.49627" lon="-1.35244">
        <ele>5.4000000953674</ele>
        <time>2023-06-10T06:12:40Z</time>
      </trkpt>
      <trkpt lat="43.49609" lon="-1.35298">
        <ele>5.5999999046326</ele>
        <time>2023-06-10T06:12:50Z</time>
      </trkpt>
      <trkpt lat="43.49587" lon="-1.35365">
        <ele>5.4000000953674</ele>
        <time>2023-06-10T06:13:03Z</time>
      </trkpt>
      <trkpt lat="43.49564" lon="-1.35434">
        <ele>5.4000000953674</ele>
        <time>2023-06-10T06:13:17Z</time>
      </trkpt>
      <trkpt lat="43.49546" lon="-1.35489">
        <ele>5.1999998092651</ele>
        <time>2023-06-10T06:13:28Z</time>
      </trkpt>
      <trkpt lat="43.49533" lon="-1.35547">
        <ele>5.1999998092651</ele>
        <time>2023-06-10T06:13:39Z</time>
      </trkpt>
      <trkpt lat="43.49532" lon="-1.35604">
        <ele>5.1999998092651</ele>
        <time>2023-06-10T06:13:49Z</time>
      </trkpt>
      <trkpt lat="43.49541" lon="-1.35686">
        <ele>5.1999998092651</ele>
        <time>2023-06-10T06:14:04Z</time>
      </trkpt>
      <trkpt lat="43.49547" lon="-1.35745">
        <ele>5.1999998092651</ele>
        <time>2023-06-10T06:14:15Z</time>
      </trkpt>
      <trkpt lat="43.49552" lon="-1.35819">
        <ele>5.8000001907349</ele>
        <time>2023-06-10T06:14:29Z</time>
      </trkpt>
      <trkpt lat="43.49548" lon="-1.35899">
        <ele>6.1999998092651</ele>
        <time>2023-06-10T06:14:44Z</time>
      </trkpt>
      <trkpt lat="43.4954" lon="-1.35955">
        <ele>7</ele>
        <time>2023-06-10T06:14:55Z</time>
      </trkpt>
      <trkpt lat="43.4952" lon="-1.36009">
        <ele>7.4000000953674</ele>
        <time>2023-06-10T06:15:06Z</time>
      </trkpt>
      <trkpt lat="43.49493" lon="-1.36071">
        <ele>7</ele>
        <time>2023-06-10T06:15:18Z</time>
      </trkpt>
      <trkpt lat="43.49462" lon="-1.36139">
        <ele>6.5999999046326</ele>
        <time>2023-06-10T06:15:31Z</time>
      </trkpt>
      <trkpt lat="43.49437" lon="-1.36195">
        <ele>6</ele>
        <time>2023-06-10T06:15:42Z</time>
      </trkpt>
      <trkpt lat="43.49416" lon="-1.3626">
        <ele>6</ele>
        <time>2023-06-10T06:15:55Z</time>
      </trkpt>
      <trkpt lat="43.49389" lon="-1.36343">
        <ele>6</ele>
        <time>2023-06-10T06:16:12Z</time>
      </trkpt>
      <trkpt lat="43.49371" lon="-1.36419">
        <ele>6</ele>
        <time>2023-06-10T06:16:27Z</time>
      </trkpt>
      <trkpt lat="43.49358" lon="-1.36478">
        <ele>6.1999998092651</ele>
        <time>2023-06-10T06:16:39Z</time>
      </trkpt>
      <trkpt lat="43.49341" lon="-1.365">
        <ele>6</ele>
        <time>2023-06-10T06:16:45Z</time>
      </trkpt>
      <trkpt lat="43.49335" lon="-1.36507">
        <ele>6</ele>
        <time>2023-06-10T06:16:47Z</time>
      </trkpt>
      <trkpt lat="43.49333" lon="-1.36512">
        <ele>6</ele>
        <time>2023-06-10T06:16:48Z</time>
      </trkpt>
      <trkpt lat="43.49331" lon="-1.36517">
        <ele>6</ele>
        <time>2023-06-10T06:16:49Z</time>
      </trkpt>
      <trkpt lat="43.4933" lon="-1.36522">
        <ele>6</ele>
        <time>2023-06-10T06:16:50Z</time>
      </trkpt>
      <trkpt lat="43.49328" lon="-1.36527">
        <ele>5.8000001907349</ele>
        <time>2023-06-10T06:16:51Z</time>
      </trkpt>
      <trkpt lat="43.49327" lon="-1.36532">
        <ele>5.8000001907349</ele>
        <time>2023-06-10T06:16:52Z</time>
      </trkpt>
      <trkpt lat="43.49306" lon="-1.36599">
        <ele>5.5999999046326</ele>
        <time>2023-06-10T06:17:05Z</time>
      </trkpt>
      <trkpt lat="43.4929" lon="-1.36667">
        <ele>5.5999999046326</ele>
        <time>2023-06-10T06:17:18Z</time>
      </trkpt>
      <trkpt lat="43.49278" lon="-1.36721">
        <ele>5.5999999046326</ele>
        <time>2023-06-10T06:17:29Z</time>
      </trkpt>
      <trkpt lat="43.49273" lon="-1.36754">
        <ele>5.8000001907349</ele>
        <time>2023-06-10T06:17:37Z</time>
      </trkpt>
      <trkpt lat="43.49276" lon="-1.36766">
        <ele>5.8000001907349</ele>
        <time>2023-06-10T06:17:40Z</time>
      </trkpt>
      <trkpt lat="43.49279" lon="-1.36769">
        <ele>5.8000001907349</ele>
        <time>2023-06-10T06:17:41Z</time>
      </trkpt>
      <trkpt lat="43.49292" lon="-1.36774">
        <ele>5.5999999046326</ele>
        <time>2023-06-10T06:17:45Z</time>
      </trkpt>
      <trkpt lat="43.49319" lon="-1.36782">
        <ele>5.1999998092651</ele>
        <time>2023-06-10T06:17:53Z</time>
      </trkpt>
      <trkpt lat="43.49338" lon="-1.36798">
        <ele>5.5999999046326</ele>
        <time>2023-06-10T06:18:00Z</time>
      </trkpt>
      <trkpt lat="43.49341" lon="-1.36831">
        <ele>6.1999998092651</ele>
        <time>2023-06-10T06:18:07Z</time>
      </trkpt>
      <trkpt lat="43.49337" lon="-1.36887">
        <ele>6.5999999046326</ele>
        <time>2023-06-10T06:18:18Z</time>
      </trkpt>
      <trkpt lat="43.49338" lon="-1.36938">
        <ele>6.8000001907349</ele>
        <time>2023-06-10T06:18:28Z</time>
      </trkpt>
      <trkpt lat="43.49352" lon="-1.36994">
        <ele>6.8000001907349</ele>
        <time>2023-06-10T06:18:40Z</time>
      </trkpt>
      <trkpt lat="43.49358" lon="-1.37016">
        <ele>6.8000001907349</ele>
        <time>2023-06-10T06:18:44Z</time>
      </trkpt>
      <trkpt lat="43.4937" lon="-1.37085">
        <ele>6.5999999046326</ele>
        <time>2023-06-10T06:18:57Z</time>
      </trkpt>
      <trkpt lat="43.49381" lon="-1.37147">
        <ele>6.5999999046326</ele>
        <time>2023-06-10T06:19:09Z</time>
      </trkpt>
      <trkpt lat="43.49388" lon="-1.3721">
        <ele>6.5999999046326</ele>
        <time>2023-06-10T06:19:21Z</time>
      </trkpt>
      <trkpt lat="43.49385" lon="-1.37269">
        <ele>6.8000001907349</ele>
        <time>2023-06-10T06:19:32Z</time>
      </trkpt>
      <trkpt lat="43.49383" lon="-1.37334">
        <ele>6.8000001907349</ele>
        <time>2023-06-10T06:19:44Z</time>
      </trkpt>
      <trkpt lat="43.49375" lon="-1.37399">
        <ele>6.8000001907349</ele>
        <time>2023-06-10T06:19:56Z</time>
      </trkpt>
      <trkpt lat="43.49371" lon="-1.37457">
        <ele>7</ele>
        <time>2023-06-10T06:20:07Z</time>
      </trkpt>
      <trkpt lat="43.49369" lon="-1.37521">
        <ele>7</ele>
        <time>2023-06-10T06:20:19Z</time>
      </trkpt>
      <trkpt lat="43.49367" lon="-1.37541">
        <ele>7</ele>
        <time>2023-06-10T06:20:23Z</time>
      </trkpt>
      <trkpt lat="43.4935" lon="-1.37548">
        <ele>7</ele>
        <time>2023-06-10T06:20:27Z</time>
      </trkpt>
      <trkpt lat="43.49303" lon="-1.37553">
        <ele>6</ele>
        <time>2023-06-10T06:20:37Z</time>
      </trkpt>
      <trkpt lat="43.49263" lon="-1.37557">
        <ele>5.5999999046326</ele>
        <time>2023-06-10T06:20:47Z</time>
      </trkpt>
      <trkpt lat="43.49236" lon="-1.3756">
        <ele>5.5999999046326</ele>
        <time>2023-06-10T06:20:55Z</time>
      </trkpt>
      <trkpt lat="43.49207" lon="-1.37569">
        <ele>5.4000000953674</ele>
        <time>2023-06-10T06:21:05Z</time>
      </trkpt>
      <trkpt lat="43.49205" lon="-1.3761">
        <ele>5.4000000953674</ele>
        <time>2023-06-10T06:21:15Z</time>
      </trkpt>
      <trkpt lat="43.49196" lon="-1.37629">
        <ele>5.4000000953674</ele>
        <time>2023-06-10T06:21:21Z</time>
      </trkpt>
      <trkpt lat="43.49191" lon="-1.37634">
        <ele>5.4000000953674</ele>
        <time>2023-06-10T06:21:23Z</time>
      </trkpt>
      <trkpt lat="43.49191" lon="-1.37643">
        <ele>5.5999999046326</ele>
        <time>2023-06-10T06:21:27Z</time>
      </trkpt>
      <trkpt lat="43.49193" lon="-1.37645">
        <ele>5.5999999046326</ele>
        <time>2023-06-10T06:21:28Z</time>
      </trkpt>
      <trkpt lat="43.49196" lon="-1.37646">
        <ele>5.5999999046326</ele>
        <time>2023-06-10T06:21:29Z</time>
      </trkpt>
      <trkpt lat="43.49199" lon="-1.37647">
        <ele>5.5999999046326</ele>
        <time>2023-06-10T06:21:30Z</time>
      </trkpt>
      <trkpt lat="43.4921" lon="-1.37665">
        <ele>6</ele>
        <time>2023-06-10T06:21:35Z</time>
      </trkpt>
      <trkpt lat="43.49221" lon="-1.37714">
        <ele>6</ele>
        <time>2023-06-10T06:21:45Z</time>
      </trkpt>
      <trkpt lat="43.49236" lon="-1.37744">
        <ele>6.4000000953674</ele>
        <time>2023-06-10T06:21:54Z</time>
      </trkpt>
      <trkpt lat="43.49249" lon="-1.3778">
        <ele>8</ele>
        <time>2023-06-10T06:22:04Z</time>
      </trkpt>
      <trkpt lat="43.49258" lon="-1.3779">
        <ele>8</ele>
        <time>2023-06-10T06:22:07Z</time>
      </trkpt>
      <trkpt lat="43.49262" lon="-1.37794">
        <ele>8</ele>
        <time>2023-06-10T06:22:08Z</time>
      </trkpt>
      <trkpt lat="43.49266" lon="-1.37796">
        <ele>8</ele>
        <time>2023-06-10T06:22:09Z</time>
      </trkpt>
      <trkpt lat="43.4927" lon="-1.37799">
        <ele>8</ele>
        <time>2023-06-10T06:22:10Z</time>
      </trkpt>
      <trkpt lat="43.49274" lon="-1.378">
        <ele>7.8000001907349</ele>
        <time>2023-06-10T06:22:11Z</time>
      </trkpt>
      <trkpt lat="43.49312" lon="-1.37808">
        <ele>7</ele>
        <time>2023-06-10T06:22:20Z</time>
      </trkpt>
      <trkpt lat="43.49328" lon="-1.37812">
        <ele>7</ele>
        <time>2023-06-10T06:22:24Z</time>
      </trkpt>
      <trkpt lat="43.49331" lon="-1.37817">
        <ele>7</ele>
        <time>2023-06-10T06:22:25Z</time>
      </trkpt>
      <trkpt lat="43.49332" lon="-1.37822">
        <ele>6.8000001907349</ele>
        <time>2023-06-10T06:22:26Z</time>
      </trkpt>
      <trkpt lat="43.49333" lon="-1.37828">
        <ele>6.8000001907349</ele>
        <time>2023-06-10T06:22:27Z</time>
      </trkpt>
      <trkpt lat="43.49333" lon="-1.37834">
        <ele>6.8000001907349</ele>
        <time>2023-06-10T06:22:28Z</time>
      </trkpt>
      <trkpt lat="43.49332" lon="-1.37884">
        <ele>6.4000000953674</ele>
        <time>2023-06-10T06:22:37Z</time>
      </trkpt>
      <trkpt lat="43.49331" lon="-1.37937">
        <ele>6.1999998092651</ele>
        <time>2023-06-10T06:22:47Z</time>
      </trkpt>
      <trkpt lat="43.49333" lon="-1.37999">
        <ele>6.1999998092651</ele>
        <time>2023-06-10T06:22:58Z</time>
      </trkpt>
      <trkpt lat="43.49337" lon="-1.38055">
        <ele>6.1999998092651</ele>
        <time>2023-06-10T06:23:08Z</time>
      </trkpt>
      <trkpt lat="43.49347" lon="-1.38116">
        <ele>6</ele>
        <time>2023-06-10T06:23:20Z</time>
      </trkpt>
      <trkpt lat="43.49355" lon="-1.38169">
        <ele>6</ele>
        <time>2023-06-10T06:23:31Z</time>
      </trkpt>
      <trkpt lat="43.49365" lon="-1.38238">
        <ele>6</ele>
        <time>2023-06-10T06:23:45Z</time>
      </trkpt>
      <trkpt lat="43.49368" lon="-1.38289">
        <ele>6</ele>
        <time>2023-06-10T06:23:55Z</time>
      </trkpt>
      <trkpt lat="43.49369" lon="-1.3833">
        <ele>6</ele>
        <time>2023-06-10T06:24:03Z</time>
      </trkpt>
      <trkpt lat="43.49377" lon="-1.38373">
        <ele>5.8000001907349</ele>
        <time>2023-06-10T06:24:12Z</time>
      </trkpt>
      <trkpt lat="43.49384" lon="-1.38411">
        <ele>6</ele>
        <time>2023-06-10T06:24:20Z</time>
      </trkpt>
      <trkpt lat="43.49386" lon="-1.38466">
        <ele>6</ele>
        <time>2023-06-10T06:24:31Z</time>
      </trkpt>
      <trkpt lat="43.49387" lon="-1.38512">
        <ele>6</ele>
        <time>2023-06-10T06:24:40Z</time>
      </trkpt>
      <trkpt lat="43.49378" lon="-1.38536">
        <ele>5.8000001907349</ele>
        <time>2023-06-10T06:24:45Z</time>
      </trkpt>
      <trkpt lat="43.49379" lon="-1.38577">
        <ele>5.8000001907349</ele>
        <time>2023-06-10T06:24:53Z</time>
      </trkpt>
      <trkpt lat="43.49382" lon="-1.38645">
        <ele>5.8000001907349</ele>
        <time>2023-06-10T06:25:06Z</time>
      </trkpt>
      <trkpt lat="43.49385" lon="-1.38714">
        <ele>5.5999999046326</ele>
        <time>2023-06-10T06:25:19Z</time>
      </trkpt>
      <trkpt lat="43.49388" lon="-1.38778">
        <ele>5.5999999046326</ele>
        <time>2023-06-10T06:25:31Z</time>
      </trkpt>
      <trkpt lat="43.49387" lon="-1.3884">
        <ele>5.5999999046326</ele>
        <time>2023-06-10T06:25:43Z</time>
      </trkpt>
      <trkpt lat="43.49376" lon="-1.38925">
        <ele>5.5999999046326</ele>
        <time>2023-06-10T06:25:59Z</time>
      </trkpt>
      <trkpt lat="43.49365" lon="-1.38999">
        <ele>5.5999999046326</ele>
        <time>2023-06-10T06:26:13Z</time>
      </trkpt>
      <trkpt lat="43.49357" lon="-1.39057">
        <ele>5.8000001907349</ele>
        <time>2023-06-10T06:26:24Z</time>
      </trkpt>
      <trkpt lat="43.49352" lon="-1.39114">
        <ele>5.8000001907349</ele>
        <time>2023-06-10T06:26:35Z</time>
      </trkpt>
      <trkpt lat="43.49348" lon="-1.39141">
        <ele>6.1999998092651</ele>
        <time>2023-06-10T06:26:42Z</time>
      </trkpt>
      <trkpt lat="43.49339" lon="-1.39151">
        <ele>6.5999999046326</ele>
        <time>2023-06-10T06:26:49Z</time>
      </trkpt>
      <trkpt lat="43.49339" lon="-1.39151">
        <ele>7.4000000953674</ele>
        <time>2023-06-10T06:26:57Z</time>
      </trkpt>
      <trkpt lat="43.49337" lon="-1.39154">
        <ele>7.8000001907349</ele>
        <time>2023-06-10T06:27:07Z</time>
      </trkpt>
      <trkpt lat="43.49337" lon="-1.39155">
        <ele>8</ele>
        <time>2023-06-10T06:27:23Z</time>
      </trkpt>
      <trkpt lat="43.49336" lon="-1.39158">
        <ele>8</ele>
        <time>2023-06-10T06:27:45Z</time>
      </trkpt>
      <trkpt lat="43.49331" lon="-1.39159">
        <ele>8.1999998092651</ele>
        <time>2023-06-10T06:27:56Z</time>
      </trkpt>
      <trkpt lat="43.4932" lon="-1.39165">
        <ele>9</ele>
        <time>2023-06-10T06:28:08Z</time>
      </trkpt>
      <trkpt lat="43.49314" lon="-1.39171">
        <ele>9.8000001907349</ele>
        <time>2023-06-10T06:28:20Z</time>
      </trkpt>
      <trkpt lat="43.49311" lon="-1.39173">
        <ele>9.8000001907349</ele>
        <time>2023-06-10T06:28:25Z</time>
      </trkpt>
      <trkpt lat="43.49295" lon="-1.39186">
        <ele>10</ele>
        <time>2023-06-10T06:28:36Z</time>
      </trkpt>
      <trkpt lat="43.4929" lon="-1.39191">
        <ele>9.8000001907349</ele>
        <time>2023-06-10T06:28:40Z</time>
      </trkpt>
      <trkpt lat="43.49291" lon="-1.39194">
        <ele>9.6000003814697</ele>
        <time>2023-06-10T06:28:41Z</time>
      </trkpt>
      <trkpt lat="43.49292" lon="-1.39199">
        <ele>9.6000003814697</ele>
        <time>2023-06-10T06:28:42Z</time>
      </trkpt>
      <trkpt lat="43.49306" lon="-1.39228">
        <ele>8.3999996185303</ele>
        <time>2023-06-10T06:28:50Z</time>
      </trkpt>
      <trkpt lat="43.49308" lon="-1.39232">
        <ele>8.1999998092651</ele>
        <time>2023-06-10T06:28:56Z</time>
      </trkpt>
      <trkpt lat="43.49308" lon="-1.39232">
        <ele>8</ele>
        <time>2023-06-10T06:29:13Z</time>
      </trkpt>
      <trkpt lat="43.49308" lon="-1.39232">
        <ele>8</ele>
        <time>2023-06-10T06:29:35Z</time>
      </trkpt>
      <trkpt lat="43.49308" lon="-1.39232">
        <ele>8</ele>
        <time>2023-06-10T06:29:52Z</time>
      </trkpt>
      <trkpt lat="43.49308" lon="-1.39231">
        <ele>7.8000001907349</ele>
        <time>2023-06-10T06:30:18Z</time>
      </trkpt>
      <trkpt lat="43.49307" lon="-1.39232">
        <ele>7.8000001907349</ele>
        <time>2023-06-10T06:30:59Z</time>
      </trkpt>
      <trkpt lat="43.49308" lon="-1.39231">
        <ele>7.8000001907349</ele>
        <time>2023-06-10T06:31:32Z</time>
      </trkpt>
      <trkpt lat="43.4931" lon="-1.39239">
        <ele>7.8000001907349</ele>
        <time>2023-06-10T06:32:02Z</time>
      </trkpt>
      <trkpt lat="43.49317" lon="-1.39257">
        <ele>8</ele>
        <time>2023-06-10T06:32:08Z</time>
      </trkpt>
      <trkpt lat="43.49334" lon="-1.39295">
        <ele>8.1999998092651</ele>
        <time>2023-06-10T06:32:18Z</time>
      </trkpt>
      <trkpt lat="43.49355" lon="-1.39345">
        <ele>8.3999996185303</ele>
        <time>2023-06-10T06:32:30Z</time>
      </trkpt>
      <trkpt lat="43.49374" lon="-1.39392">
        <ele>8.3999996185303</ele>
        <time>2023-06-10T06:32:41Z</time>
      </trkpt>
      <trkpt lat="43.49391" lon="-1.39436">
        <ele>8.3999996185303</ele>
        <time>2023-06-10T06:32:51Z</time>
      </trkpt>
      <trkpt lat="43.49408" lon="-1.39485">
        <ele>8.6000003814697</ele>
        <time>2023-06-10T06:33:02Z</time>
      </trkpt>
      <trkpt lat="43.49424" lon="-1.39516">
        <ele>8.3999996185303</ele>
        <time>2023-06-10T06:33:10Z</time>
      </trkpt>
      <trkpt lat="43.49443" lon="-1.39559">
        <ele>8.3999996185303</ele>
        <time>2023-06-10T06:33:20Z</time>
      </trkpt>
      <trkpt lat="43.49447" lon="-1.39588">
        <ele>8.6000003814697</ele>
        <time>2023-06-10T06:33:26Z</time>
      </trkpt>
      <trkpt lat="43.49445" lon="-1.39592">
        <ele>8.6000003814697</ele>
        <time>2023-06-10T06:33:27Z</time>
      </trkpt>
      <trkpt lat="43.49441" lon="-1.39595">
        <ele>8.6000003814697</ele>
        <time>2023-06-10T06:33:28Z</time>
      </trkpt>
      <trkpt lat="43.49437" lon="-1.39597">
        <ele>8.6000003814697</ele>
        <time>2023-06-10T06:33:29Z</time>
      </trkpt>
      <trkpt lat="43.49433" lon="-1.39598">
        <ele>8.6000003814697</ele>
        <time>2023-06-10T06:33:30Z</time>
      </trkpt>
      <trkpt lat="43.49429" lon="-1.39597">
        <ele>8.6000003814697</ele>
        <time>2023-06-10T06:33:31Z</time>
      </trkpt>
      <trkpt lat="43.49425" lon="-1.39596">
        <ele>8.3999996185303</ele>
        <time>2023-06-10T06:33:32Z</time>
      </trkpt>
      <trkpt lat="43.49389" lon="-1.39583">
        <ele>8.1999998092651</ele>
        <time>2023-06-10T06:33:41Z</time>
      </trkpt>
      <trkpt lat="43.49353" lon="-1.3957">
        <ele>8</ele>
        <time>2023-06-10T06:33:51Z</time>
      </trkpt>
      <trkpt lat="43.49351" lon="-1.3957">
        <ele>8.1999998092651</ele>
        <time>2023-06-10T06:33:56Z</time>
      </trkpt>
      <trkpt lat="43.49346" lon="-1.39567">
        <ele>8.3999996185303</ele>
        <time>2023-06-10T06:34:03Z</time>
      </trkpt>
      <trkpt lat="43.49327" lon="-1.39557">
        <ele>8.6000003814697</ele>
        <time>2023-06-10T06:34:09Z</time>
      </trkpt>
      <trkpt lat="43.49275" lon="-1.39538">
        <ele>7.8000001907349</ele>
        <time>2023-06-10T06:34:21Z</time>
      </trkpt>
      <trkpt lat="43.49235" lon="-1.39522">
        <ele>7.5999999046326</ele>
        <time>2023-06-10T06:34:31Z</time>
      </trkpt>
      <trkpt lat="43.4919" lon="-1.39501">
        <ele>7.5999999046326</ele>
        <time>2023-06-10T06:34:43Z</time>
      </trkpt>
      <trkpt lat="43.49149" lon="-1.39478">
        <ele>7.5999999046326</ele>
        <time>2023-06-10T06:34:54Z</time>
      </trkpt>
      <trkpt lat="43.49118" lon="-1.39481">
        <ele>7.5999999046326</ele>
        <time>2023-06-10T06:35:02Z</time>
      </trkpt>
      <trkpt lat="43.49096" lon="-1.39504">
        <ele>7.5999999046326</ele>
        <time>2023-06-10T06:35:09Z</time>
      </trkpt>
      <trkpt lat="43.49082" lon="-1.39555">
        <ele>7.5999999046326</ele>
        <time>2023-06-10T06:35:19Z</time>
      </trkpt>
      <trkpt lat="43.49059" lon="-1.39626">
        <ele>7.8000001907349</ele>
        <time>2023-06-10T06:35:33Z</time>
      </trkpt>
      <trkpt lat="43.49034" lon="-1.39689">
        <ele>8</ele>
        <time>2023-06-10T06:35:46Z</time>
      </trkpt>
      <trkpt lat="43.49013" lon="-1.39733">
        <ele>8</ele>
        <time>2023-06-10T06:35:56Z</time>
      </trkpt>
      <trkpt lat="43.48994" lon="-1.39776">
        <ele>8</ele>
        <time>2023-06-10T06:36:06Z</time>
      </trkpt>
      <trkpt lat="43.48993" lon="-1.39801">
        <ele>8.6000003814697</ele>
        <time>2023-06-10T06:36:13Z</time>
      </trkpt>
      <trkpt lat="43.48993" lon="-1.39803">
        <ele>8.8000001907349</ele>
        <time>2023-06-10T06:36:14Z</time>
      </trkpt>
      <trkpt lat="43.48994" lon="-1.39804">
        <ele>8.8000001907349</ele>
        <time>2023-06-10T06:36:15Z</time>
      </trkpt>
      <trkpt lat="43.48995" lon="-1.39806">
        <ele>8.8000001907349</ele>
        <time>2023-06-10T06:36:17Z</time>
      </trkpt>
      <trkpt lat="43.48997" lon="-1.39806">
        <ele>8.8000001907349</ele>
        <time>2023-06-10T06:36:18Z</time>
      </trkpt>
      <trkpt lat="43.48998" lon="-1.39805">
        <ele>8.8000001907349</ele>
        <time>2023-06-10T06:36:19Z</time>
      </trkpt>
      <trkpt lat="43.49" lon="-1.39805">
        <ele>8.8000001907349</ele>
        <time>2023-06-10T06:36:20Z</time>
      </trkpt>
      <trkpt lat="43.49003" lon="-1.39806">
        <ele>8.8000001907349</ele>
        <time>2023-06-10T06:36:21Z</time>
      </trkpt>
      <trkpt lat="43.49006" lon="-1.39808">
        <ele>8.8000001907349</ele>
        <time>2023-06-10T06:36:22Z</time>
      </trkpt>
      <trkpt lat="43.49032" lon="-1.39829">
        <ele>8.3999996185303</ele>
        <time>2023-06-10T06:36:32Z</time>
      </trkpt>
      <trkpt lat="43.49038" lon="-1.39832">
        <ele>8.3999996185303</ele>
        <time>2023-06-10T06:36:34Z</time>
      </trkpt>
      <trkpt lat="43.49039" lon="-1.39835">
        <ele>8.3999996185303</ele>
        <time>2023-06-10T06:36:35Z</time>
      </trkpt>
      <trkpt lat="43.49039" lon="-1.39839">
        <ele>8.3999996185303</ele>
        <time>2023-06-10T06:36:36Z</time>
      </trkpt>
      <trkpt lat="43.49038" lon="-1.39843">
        <ele>8.3999996185303</ele>
        <time>2023-06-10T06:36:37Z</time>
      </trkpt>
      <trkpt lat="43.49038" lon="-1.39846">
        <ele>8.3999996185303</ele>
        <time>2023-06-10T06:36:38Z</time>
      </trkpt>
      <trkpt lat="43.49038" lon="-1.3985">
        <ele>8.1999998092651</ele>
        <time>2023-06-10T06:36:39Z</time>
      </trkpt>
      <trkpt lat="43.4904" lon="-1.39853">
        <ele>8.1999998092651</ele>
        <time>2023-06-10T06:36:40Z</time>
      </trkpt>
      <trkpt lat="43.49041" lon="-1.39857">
        <ele>8.1999998092651</ele>
        <time>2023-06-10T06:36:41Z</time>
      </trkpt>
      <trkpt lat="43.49043" lon="-1.3986">
        <ele>8.1999998092651</ele>
        <time>2023-06-10T06:36:42Z</time>
      </trkpt>
      <trkpt lat="43.49046" lon="-1.39863">
        <ele>8.1999998092651</ele>
        <time>2023-06-10T06:36:43Z</time>
      </trkpt>
      <trkpt lat="43.49067" lon="-1.39886">
        <ele>8.1999998092651</ele>
        <time>2023-06-10T06:36:51Z</time>
      </trkpt>
      <trkpt lat="43.49099" lon="-1.39923">
        <ele>8.1999998092651</ele>
        <time>2023-06-10T06:37:03Z</time>
      </trkpt>
      <trkpt lat="43.49132" lon="-1.39962">
        <ele>8.1999998092651</ele>
        <time>2023-06-10T06:37:16Z</time>
      </trkpt>
      <trkpt lat="43.4915" lon="-1.39989">
        <ele>8.1999998092651</ele>
        <time>2023-06-10T06:37:24Z</time>
      </trkpt>
      <trkpt lat="43.49145" lon="-1.40019">
        <ele>8.1999998092651</ele>
        <time>2023-06-10T06:37:30Z</time>
      </trkpt>
      <trkpt lat="43.49142" lon="-1.40053">
        <ele>8</ele>
        <time>2023-06-10T06:37:38Z</time>
      </trkpt>
      <trkpt lat="43.49142" lon="-1.40056">
        <ele>8</ele>
        <time>2023-06-10T06:37:39Z</time>
      </trkpt>
      <trkpt lat="43.49144" lon="-1.40059">
        <ele>8.1999998092651</ele>
        <time>2023-06-10T06:37:40Z</time>
      </trkpt>
      <trkpt lat="43.49146" lon="-1.4006">
        <ele>8.1999998092651</ele>
        <time>2023-06-10T06:37:41Z</time>
      </trkpt>
      <trkpt lat="43.49149" lon="-1.4006">
        <ele>8.1999998092651</ele>
        <time>2023-06-10T06:37:42Z</time>
      </trkpt>
      <trkpt lat="43.49151" lon="-1.4006">
        <ele>8.1999998092651</ele>
        <time>2023-06-10T06:37:43Z</time>
      </trkpt>
      <trkpt lat="43.49178" lon="-1.40062">
        <ele>8.1999998092651</ele>
        <time>2023-06-10T06:37:51Z</time>
      </trkpt>
      <trkpt lat="43.49224" lon="-1.40068">
        <ele>8.1999998092651</ele>
        <time>2023-06-10T06:38:04Z</time>
      </trkpt>
      <trkpt lat="43.4926" lon="-1.40083">
        <ele>8.1999998092651</ele>
        <time>2023-06-10T06:38:15Z</time>
      </trkpt>
      <trkpt lat="43.49273" lon="-1.40106">
        <ele>8.3999996185303</ele>
        <time>2023-06-10T06:38:21Z</time>
      </trkpt>
      <trkpt lat="43.49289" lon="-1.4016">
        <ele>8.6000003814697</ele>
        <time>2023-06-10T06:38:32Z</time>
      </trkpt>
      <trkpt lat="43.49287" lon="-1.40202">
        <ele>8.3999996185303</ele>
        <time>2023-06-10T06:38:40Z</time>
      </trkpt>
      <trkpt lat="43.49271" lon="-1.40241">
        <ele>8.3999996185303</ele>
        <time>2023-06-10T06:38:49Z</time>
      </trkpt>
      <trkpt lat="43.49257" lon="-1.40279">
        <ele>8.3999996185303</ele>
        <time>2023-06-10T06:38:58Z</time>
      </trkpt>
      <trkpt lat="43.4926" lon="-1.40301">
        <ele>8.3999996185303</ele>
        <time>2023-06-10T06:39:02Z</time>
      </trkpt>
      <trkpt lat="43.49254" lon="-1.40354">
        <ele>8.1999998092651</ele>
        <time>2023-06-10T06:39:12Z</time>
      </trkpt>
      <trkpt lat="43.49242" lon="-1.40403">
        <ele>8.1999998092651</ele>
        <time>2023-06-10T06:39:22Z</time>
      </trkpt>
      <trkpt lat="43.49232" lon="-1.4046">
        <ele>8.1999998092651</ele>
        <time>2023-06-10T06:39:33Z</time>
      </trkpt>
      <trkpt lat="43.49234" lon="-1.40494">
        <ele>8.1999998092651</ele>
        <time>2023-06-10T06:39:40Z</time>
      </trkpt>
      <trkpt lat="43.49236" lon="-1.40496">
        <ele>8.1999998092651</ele>
        <time>2023-06-10T06:39:41Z</time>
      </trkpt>
      <trkpt lat="43.4924" lon="-1.40497">
        <ele>8.1999998092651</ele>
        <time>2023-06-10T06:39:42Z</time>
      </trkpt>
      <trkpt lat="43.49243" lon="-1.40497">
        <ele>8.1999998092651</ele>
        <time>2023-06-10T06:39:43Z</time>
      </trkpt>
      <trkpt lat="43.49275" lon="-1.40493">
        <ele>8.1999998092651</ele>
        <time>2023-06-10T06:39:52Z</time>
      </trkpt>
      <trkpt lat="43.49286" lon="-1.40503">
        <ele>8.1999998092651</ele>
        <time>2023-06-10T06:39:56Z</time>
      </trkpt>
      <trkpt lat="43.49307" lon="-1.40512">
        <ele>8.3999996185303</ele>
        <time>2023-06-10T06:40:02Z</time>
      </trkpt>
      <trkpt lat="43.49322" lon="-1.40524">
        <ele>8.6000003814697</ele>
        <time>2023-06-10T06:40:06Z</time>
      </trkpt>
      <trkpt lat="43.49324" lon="-1.40528">
        <ele>8.6000003814697</ele>
        <time>2023-06-10T06:40:07Z</time>
      </trkpt>
      <trkpt lat="43.49327" lon="-1.40533">
        <ele>8.6000003814697</ele>
        <time>2023-06-10T06:40:08Z</time>
      </trkpt>
      <trkpt lat="43.49336" lon="-1.40572">
        <ele>8.6000003814697</ele>
        <time>2023-06-10T06:40:16Z</time>
      </trkpt>
      <trkpt lat="43.49323" lon="-1.4061">
        <ele>8.6000003814697</ele>
        <time>2023-06-10T06:40:24Z</time>
      </trkpt>
      <trkpt lat="43.49295" lon="-1.40672">
        <ele>8.6000003814697</ele>
        <time>2023-06-10T06:40:37Z</time>
      </trkpt>
      <trkpt lat="43.49293" lon="-1.40677">
        <ele>8.6000003814697</ele>
        <time>2023-06-10T06:40:38Z</time>
      </trkpt>
      <trkpt lat="43.49292" lon="-1.40683">
        <ele>8.6000003814697</ele>
        <time>2023-06-10T06:40:39Z</time>
      </trkpt>
      <trkpt lat="43.49292" lon="-1.40689">
        <ele>8.6000003814697</ele>
        <time>2023-06-10T06:40:40Z</time>
      </trkpt>
      <trkpt lat="43.49293" lon="-1.40694">
        <ele>8.6000003814697</ele>
        <time>2023-06-10T06:40:41Z</time>
      </trkpt>
      <trkpt lat="43.49294" lon="-1.407">
        <ele>8.6000003814697</ele>
        <time>2023-06-10T06:40:42Z</time>
      </trkpt>
      <trkpt lat="43.49296" lon="-1.40705">
        <ele>8.6000003814697</ele>
        <time>2023-06-10T06:40:43Z</time>
      </trkpt>
      <trkpt lat="43.49298" lon="-1.40709">
        <ele>8.6000003814697</ele>
        <time>2023-06-10T06:40:44Z</time>
      </trkpt>
      <trkpt lat="43.49301" lon="-1.40714">
        <ele>8.6000003814697</ele>
        <time>2023-06-10T06:40:45Z</time>
      </trkpt>
      <trkpt lat="43.49304" lon="-1.40718">
        <ele>8.6000003814697</ele>
        <time>2023-06-10T06:40:46Z</time>
      </trkpt>
      <trkpt lat="43.49334" lon="-1.40753">
        <ele>8.6000003814697</ele>
        <time>2023-06-10T06:40:56Z</time>
      </trkpt>
      <trkpt lat="43.49368" lon="-1.40765">
        <ele>8.6000003814697</ele>
        <time>2023-06-10T06:41:05Z</time>
      </trkpt>
      <trkpt lat="43.49406" lon="-1.40779">
        <ele>8.8000001907349</ele>
        <time>2023-06-10T06:41:15Z</time>
      </trkpt>
      <trkpt lat="43.49421" lon="-1.40812">
        <ele>8.8000001907349</ele>
        <time>2023-06-10T06:41:22Z</time>
      </trkpt>
      <trkpt lat="43.49422" lon="-1.40822">
        <ele>8.8000001907349</ele>
        <time>2023-06-10T06:41:24Z</time>
      </trkpt>
      <trkpt lat="43.49421" lon="-1.40827">
        <ele>8.8000001907349</ele>
        <time>2023-06-10T06:41:25Z</time>
      </trkpt>
      <trkpt lat="43.49418" lon="-1.40832">
        <ele>8.8000001907349</ele>
        <time>2023-06-10T06:41:26Z</time>
      </trkpt>
      <trkpt lat="43.49415" lon="-1.40835">
        <ele>8.8000001907349</ele>
        <time>2023-06-10T06:41:27Z</time>
      </trkpt>
      <trkpt lat="43.49412" lon="-1.40838">
        <ele>8.8000001907349</ele>
        <time>2023-06-10T06:41:28Z</time>
      </trkpt>
      <trkpt lat="43.49385" lon="-1.40872">
        <ele>8.8000001907349</ele>
        <time>2023-06-10T06:41:37Z</time>
      </trkpt>
      <trkpt lat="43.49353" lon="-1.4093">
        <ele>8.8000001907349</ele>
        <time>2023-06-10T06:41:50Z</time>
      </trkpt>
      <trkpt lat="43.4932" lon="-1.40979">
        <ele>8.8000001907349</ele>
        <time>2023-06-10T06:42:02Z</time>
      </trkpt>
      <trkpt lat="43.49291" lon="-1.41022">
        <ele>8.8000001907349</ele>
        <time>2023-06-10T06:42:13Z</time>
      </trkpt>
      <trkpt lat="43.49262" lon="-1.41067">
        <ele>8.8000001907349</ele>
        <time>2023-06-10T06:42:24Z</time>
      </trkpt>
      <trkpt lat="43.49234" lon="-1.41113">
        <ele>8.6000003814697</ele>
        <time>2023-06-10T06:42:35Z</time>
      </trkpt>
      <trkpt lat="43.49213" lon="-1.41171">
        <ele>8.6000003814697</ele>
        <time>2023-06-10T06:42:47Z</time>
      </trkpt>
      <trkpt lat="43.49196" lon="-1.4122">
        <ele>8.6000003814697</ele>
        <time>2023-06-10T06:42:57Z</time>
      </trkpt>
      <trkpt lat="43.49195" lon="-1.41226">
        <ele>8.6000003814697</ele>
        <time>2023-06-10T06:42:58Z</time>
      </trkpt>
      <trkpt lat="43.49196" lon="-1.41231">
        <ele>8.6000003814697</ele>
        <time>2023-06-10T06:42:59Z</time>
      </trkpt>
      <trkpt lat="43.49197" lon="-1.41237">
        <ele>8.6000003814697</ele>
        <time>2023-06-10T06:43:00Z</time>
      </trkpt>
      <trkpt lat="43.49198" lon="-1.41242">
        <ele>8.6000003814697</ele>
        <time>2023-06-10T06:43:01Z</time>
      </trkpt>
      <trkpt lat="43.4921" lon="-1.41308">
        <ele>8.8000001907349</ele>
        <time>2023-06-10T06:43:13Z</time>
      </trkpt>
      <trkpt lat="43.49208" lon="-1.41365">
        <ele>8.8000001907349</ele>
        <time>2023-06-10T06:43:23Z</time>
      </trkpt>
      <trkpt lat="43.49201" lon="-1.41421">
        <ele>9</ele>
        <time>2023-06-10T06:43:33Z</time>
      </trkpt>
      <trkpt lat="43.49194" lon="-1.41487">
        <ele>9</ele>
        <time>2023-06-10T06:43:45Z</time>
      </trkpt>
      <trkpt lat="43.49187" lon="-1.41557">
        <ele>9</ele>
        <time>2023-06-10T06:43:58Z</time>
      </trkpt>
      <trkpt lat="43.49178" lon="-1.41637">
        <ele>9</ele>
        <time>2023-06-10T06:44:13Z</time>
      </trkpt>
      <trkpt lat="43.49163" lon="-1.4169">
        <ele>9</ele>
        <time>2023-06-10T06:44:23Z</time>
      </trkpt>
      <trkpt lat="43.49152" lon="-1.4175">
        <ele>9</ele>
        <time>2023-06-10T06:44:34Z</time>
      </trkpt>
      <trkpt lat="43.49136" lon="-1.41809">
        <ele>9</ele>
        <time>2023-06-10T06:44:45Z</time>
      </trkpt>
      <trkpt lat="43.49116" lon="-1.41866">
        <ele>9</ele>
        <time>2023-06-10T06:44:56Z</time>
      </trkpt>
      <trkpt lat="43.49108" lon="-1.41916">
        <ele>8.8000001907349</ele>
        <time>2023-06-10T06:45:06Z</time>
      </trkpt>
      <trkpt lat="43.4911" lon="-1.41918">
        <ele>8.8000001907349</ele>
        <time>2023-06-10T06:45:07Z</time>
      </trkpt>
      <trkpt lat="43.49112" lon="-1.4192">
        <ele>8.8000001907349</ele>
        <time>2023-06-10T06:45:08Z</time>
      </trkpt>
      <trkpt lat="43.49123" lon="-1.41938">
        <ele>8.8000001907349</ele>
        <time>2023-06-10T06:45:13Z</time>
      </trkpt>
      <trkpt lat="43.49147" lon="-1.41983">
        <ele>8.8000001907349</ele>
        <time>2023-06-10T06:45:22Z</time>
      </trkpt>
      <trkpt lat="43.49164" lon="-1.42024">
        <ele>8.3999996185303</ele>
        <time>2023-06-10T06:45:31Z</time>
      </trkpt>
      <trkpt lat="43.49171" lon="-1.42054">
        <ele>8.6000003814697</ele>
        <time>2023-06-10T06:45:37Z</time>
      </trkpt>
      <trkpt lat="43.49181" lon="-1.42091">
        <ele>9</ele>
        <time>2023-06-10T06:45:44Z</time>
      </trkpt>
      <trkpt lat="43.49195" lon="-1.42154">
        <ele>8.8000001907349</ele>
        <time>2023-06-10T06:45:54Z</time>
      </trkpt>
      <trkpt lat="43.49205" lon="-1.42207">
        <ele>8.8000001907349</ele>
        <time>2023-06-10T06:46:03Z</time>
      </trkpt>
      <trkpt lat="43.49223" lon="-1.42282">
        <ele>8.8000001907349</ele>
        <time>2023-06-10T06:46:16Z</time>
      </trkpt>
      <trkpt lat="43.4924" lon="-1.42358">
        <ele>8.8000001907349</ele>
        <time>2023-06-10T06:46:30Z</time>
      </trkpt>
      <trkpt lat="43.49254" lon="-1.42402">
        <ele>8.8000001907349</ele>
        <time>2023-06-10T06:46:40Z</time>
      </trkpt>
      <trkpt lat="43.49254" lon="-1.42405">
        <ele>9</ele>
        <time>2023-06-10T06:46:41Z</time>
      </trkpt>
      <trkpt lat="43.49253" lon="-1.42408">
        <ele>9</ele>
        <time>2023-06-10T06:46:42Z</time>
      </trkpt>
      <trkpt lat="43.49252" lon="-1.42409">
        <ele>9</ele>
        <time>2023-06-10T06:46:43Z</time>
      </trkpt>
      <trkpt lat="43.4925" lon="-1.42411">
        <ele>9</ele>
        <time>2023-06-10T06:46:44Z</time>
      </trkpt>
      <trkpt lat="43.49247" lon="-1.42412">
        <ele>9.1999998092651</ele>
        <time>2023-06-10T06:46:45Z</time>
      </trkpt>
      <trkpt lat="43.49233" lon="-1.42428">
        <ele>9.6000003814697</ele>
        <time>2023-06-10T06:46:52Z</time>
      </trkpt>
      <trkpt lat="43.4923" lon="-1.42431">
        <ele>9.6000003814697</ele>
        <time>2023-06-10T06:46:53Z</time>
      </trkpt>
      <trkpt lat="43.49227" lon="-1.42432">
        <ele>9.6000003814697</ele>
        <time>2023-06-10T06:46:54Z</time>
      </trkpt>
      <trkpt lat="43.49193" lon="-1.42444">
        <ele>10</ele>
        <time>2023-06-10T06:47:04Z</time>
      </trkpt>
      <trkpt lat="43.49162" lon="-1.42453">
        <ele>10.199999809265</ele>
        <time>2023-06-10T06:47:13Z</time>
      </trkpt>
      <trkpt lat="43.49123" lon="-1.42465">
        <ele>10.199999809265</ele>
        <time>2023-06-10T06:47:24Z</time>
      </trkpt>
      <trkpt lat="43.49116" lon="-1.42464">
        <ele>10.199999809265</ele>
        <time>2023-06-10T06:47:26Z</time>
      </trkpt>
      <trkpt lat="43.49114" lon="-1.42462">
        <ele>10.199999809265</ele>
        <time>2023-06-10T06:47:27Z</time>
      </trkpt>
      <trkpt lat="43.49112" lon="-1.42459">
        <ele>10.199999809265</ele>
        <time>2023-06-10T06:47:28Z</time>
      </trkpt>
      <trkpt lat="43.4911" lon="-1.42457">
        <ele>10.199999809265</ele>
        <time>2023-06-10T06:47:29Z</time>
      </trkpt>
      <trkpt lat="43.49107" lon="-1.42457">
        <ele>10.199999809265</ele>
        <time>2023-06-10T06:47:30Z</time>
      </trkpt>
      <trkpt lat="43.49104" lon="-1.42458">
        <ele>10.199999809265</ele>
        <time>2023-06-10T06:47:31Z</time>
      </trkpt>
      <trkpt lat="43.49102" lon="-1.42461">
        <ele>10.199999809265</ele>
        <time>2023-06-10T06:47:32Z</time>
      </trkpt>
      <trkpt lat="43.49099" lon="-1.42464">
        <ele>10.199999809265</ele>
        <time>2023-06-10T06:47:33Z</time>
      </trkpt>
      <trkpt lat="43.49097" lon="-1.42466">
        <ele>10.199999809265</ele>
        <time>2023-06-10T06:47:34Z</time>
      </trkpt>
      <trkpt lat="43.49093" lon="-1.42468">
        <ele>10.199999809265</ele>
        <time>2023-06-10T06:47:35Z</time>
      </trkpt>
      <trkpt lat="43.4909" lon="-1.42468">
        <ele>10</ele>
        <time>2023-06-10T06:47:36Z</time>
      </trkpt>
      <trkpt lat="43.49086" lon="-1.42468">
        <ele>10</ele>
        <time>2023-06-10T06:47:37Z</time>
      </trkpt>
      <trkpt lat="43.4905" lon="-1.4247">
        <ele>10.199999809265</ele>
        <time>2023-06-10T06:47:46Z</time>
      </trkpt>
      <trkpt lat="43.49007" lon="-1.4247">
        <ele>10.199999809265</ele>
        <time>2023-06-10T06:47:57Z</time>
      </trkpt>
      <trkpt lat="43.48985" lon="-1.42479">
        <ele>10.199999809265</ele>
        <time>2023-06-10T06:48:03Z</time>
      </trkpt>
      <trkpt lat="43.48978" lon="-1.42504">
        <ele>10.199999809265</ele>
        <time>2023-06-10T06:48:08Z</time>
      </trkpt>
      <trkpt lat="43.48981" lon="-1.42569">
        <ele>10.39999961853</ele>
        <time>2023-06-10T06:48:20Z</time>
      </trkpt>
      <trkpt lat="43.48981" lon="-1.42636">
        <ele>10.39999961853</ele>
        <time>2023-06-10T06:48:32Z</time>
      </trkpt>
      <trkpt lat="43.48981" lon="-1.42679">
        <ele>10.39999961853</ele>
        <time>2023-06-10T06:48:40Z</time>
      </trkpt>
      <trkpt lat="43.48979" lon="-1.42728">
        <ele>10.39999961853</ele>
        <time>2023-06-10T06:48:49Z</time>
      </trkpt>
      <trkpt lat="43.48976" lon="-1.42783">
        <ele>10.60000038147</ele>
        <time>2023-06-10T06:48:59Z</time>
      </trkpt>
      <trkpt lat="43.48965" lon="-1.42846">
        <ele>10.60000038147</ele>
        <time>2023-06-10T06:49:10Z</time>
      </trkpt>
      <trkpt lat="43.48963" lon="-1.42857">
        <ele>10.39999961853</ele>
        <time>2023-06-10T06:49:12Z</time>
      </trkpt>
      <trkpt lat="43.48948" lon="-1.42911">
        <ele>10.39999961853</ele>
        <time>2023-06-10T06:49:22Z</time>
      </trkpt>
      <trkpt lat="43.48934" lon="-1.42971">
        <ele>10.39999961853</ele>
        <time>2023-06-10T06:49:33Z</time>
      </trkpt>
      <trkpt lat="43.48918" lon="-1.43038">
        <ele>10.39999961853</ele>
        <time>2023-06-10T06:49:45Z</time>
      </trkpt>
      <trkpt lat="43.48904" lon="-1.43103">
        <ele>10.60000038147</ele>
        <time>2023-06-10T06:49:57Z</time>
      </trkpt>
      <trkpt lat="43.4889" lon="-1.4315">
        <ele>10.800000190735</ele>
        <time>2023-06-10T06:50:06Z</time>
      </trkpt>
      <trkpt lat="43.4888" lon="-1.43185">
        <ele>11</ele>
        <time>2023-06-10T06:50:14Z</time>
      </trkpt>
      <trkpt lat="43.48878" lon="-1.43192">
        <ele>11</ele>
        <time>2023-06-10T06:50:16Z</time>
      </trkpt>
      <trkpt lat="43.48879" lon="-1.43195">
        <ele>11</ele>
        <time>2023-06-10T06:50:17Z</time>
      </trkpt>
      <trkpt lat="43.48881" lon="-1.43197">
        <ele>11</ele>
        <time>2023-06-10T06:50:18Z</time>
      </trkpt>
      <trkpt lat="43.48884" lon="-1.43199">
        <ele>11</ele>
        <time>2023-06-10T06:50:19Z</time>
      </trkpt>
      <trkpt lat="43.48887" lon="-1.432">
        <ele>11</ele>
        <time>2023-06-10T06:50:20Z</time>
      </trkpt>
      <trkpt lat="43.4889" lon="-1.43201">
        <ele>11</ele>
        <time>2023-06-10T06:50:21Z</time>
      </trkpt>
      <trkpt lat="43.48893" lon="-1.43203">
        <ele>11</ele>
        <time>2023-06-10T06:50:22Z</time>
      </trkpt>
      <trkpt lat="43.48896" lon="-1.43205">
        <ele>11</ele>
        <time>2023-06-10T06:50:23Z</time>
      </trkpt>
      <trkpt lat="43.48899" lon="-1.43208">
        <ele>11.199999809265</ele>
        <time>2023-06-10T06:50:24Z</time>
      </trkpt>
      <trkpt lat="43.48902" lon="-1.43211">
        <ele>11.199999809265</ele>
        <time>2023-06-10T06:50:25Z</time>
      </trkpt>
      <trkpt lat="43.48904" lon="-1.43214">
        <ele>11.199999809265</ele>
        <time>2023-06-10T06:50:26Z</time>
      </trkpt>
      <trkpt lat="43.48916" lon="-1.43234">
        <ele>11</ele>
        <time>2023-06-10T06:50:32Z</time>
      </trkpt>
      <trkpt lat="43.48916" lon="-1.43238">
        <ele>11</ele>
        <time>2023-06-10T06:50:33Z</time>
      </trkpt>
      <trkpt lat="43.48914" lon="-1.43271">
        <ele>11</ele>
        <time>2023-06-10T06:50:40Z</time>
      </trkpt>
      <trkpt lat="43.48893" lon="-1.43313">
        <ele>11.199999809265</ele>
        <time>2023-06-10T06:50:50Z</time>
      </trkpt>
      <trkpt lat="43.48869" lon="-1.43356">
        <ele>11.39999961853</ele>
        <time>2023-06-10T06:51:00Z</time>
      </trkpt>
      <trkpt lat="43.48842" lon="-1.43416">
        <ele>11.60000038147</ele>
        <time>2023-06-10T06:51:12Z</time>
      </trkpt>
      <trkpt lat="43.48809" lon="-1.43489">
        <ele>11.39999961853</ele>
        <time>2023-06-10T06:51:27Z</time>
      </trkpt>
      <trkpt lat="43.48783" lon="-1.4355">
        <ele>11.39999961853</ele>
        <time>2023-06-10T06:51:40Z</time>
      </trkpt>
      <trkpt lat="43.48763" lon="-1.43608">
        <ele>11.199999809265</ele>
        <time>2023-06-10T06:51:51Z</time>
      </trkpt>
      <trkpt lat="43.4874" lon="-1.43672">
        <ele>11.199999809265</ele>
        <time>2023-06-10T06:52:03Z</time>
      </trkpt>
      <trkpt lat="43.48708" lon="-1.43741">
        <ele>10.800000190735</ele>
        <time>2023-06-10T06:52:16Z</time>
      </trkpt>
      <trkpt lat="43.48674" lon="-1.43803">
        <ele>10.800000190735</ele>
        <time>2023-06-10T06:52:29Z</time>
      </trkpt>
      <trkpt lat="43.48645" lon="-1.4386">
        <ele>11.199999809265</ele>
        <time>2023-06-10T06:52:41Z</time>
      </trkpt>
      <trkpt lat="43.48623" lon="-1.4392">
        <ele>11.199999809265</ele>
        <time>2023-06-10T06:52:52Z</time>
      </trkpt>
      <trkpt lat="43.48599" lon="-1.43976">
        <ele>11.199999809265</ele>
        <time>2023-06-10T06:53:03Z</time>
      </trkpt>
      <trkpt lat="43.4858" lon="-1.44025">
        <ele>11.39999961853</ele>
        <time>2023-06-10T06:53:13Z</time>
      </trkpt>
      <trkpt lat="43.48556" lon="-1.44085">
        <ele>11.60000038147</ele>
        <time>2023-06-10T06:53:25Z</time>
      </trkpt>
      <trkpt lat="43.48523" lon="-1.44143">
        <ele>11.60000038147</ele>
        <time>2023-06-10T06:53:37Z</time>
      </trkpt>
      <trkpt lat="43.48493" lon="-1.44214">
        <ele>11.39999961853</ele>
        <time>2023-06-10T06:53:51Z</time>
      </trkpt>
      <trkpt lat="43.48472" lon="-1.4427">
        <ele>11.39999961853</ele>
        <time>2023-06-10T06:54:02Z</time>
      </trkpt>
      <trkpt lat="43.48454" lon="-1.44322">
        <ele>11.60000038147</ele>
        <time>2023-06-10T06:54:12Z</time>
      </trkpt>
      <trkpt lat="43.48432" lon="-1.44394">
        <ele>12.199999809265</ele>
        <time>2023-06-10T06:54:26Z</time>
      </trkpt>
      <trkpt lat="43.48426" lon="-1.44434">
        <ele>12.60000038147</ele>
        <time>2023-06-10T06:54:34Z</time>
      </trkpt>
      <trkpt lat="43.48424" lon="-1.44497">
        <ele>12.39999961853</ele>
        <time>2023-06-10T06:54:44Z</time>
      </trkpt>
      <trkpt lat="43.48426" lon="-1.44556">
        <ele>11.800000190735</ele>
        <time>2023-06-10T06:54:53Z</time>
      </trkpt>
      <trkpt lat="43.48428" lon="-1.44629">
        <ele>11.39999961853</ele>
        <time>2023-06-10T06:55:05Z</time>
      </trkpt>
      <trkpt lat="43.48429" lon="-1.44706">
        <ele>11.39999961853</ele>
        <time>2023-06-10T06:55:19Z</time>
      </trkpt>
      <trkpt lat="43.48431" lon="-1.44775">
        <ele>11.60000038147</ele>
        <time>2023-06-10T06:55:32Z</time>
      </trkpt>
      <trkpt lat="43.4843" lon="-1.44793">
        <ele>11.60000038147</ele>
        <time>2023-06-10T06:55:35Z</time>
      </trkpt>
      <trkpt lat="43.4843" lon="-1.44799">
        <ele>11.60000038147</ele>
        <time>2023-06-10T06:55:36Z</time>
      </trkpt>
      <trkpt lat="43.4843" lon="-1.44804">
        <ele>11.60000038147</ele>
        <time>2023-06-10T06:55:37Z</time>
      </trkpt>
      <trkpt lat="43.48429" lon="-1.44816">
        <ele>11.60000038147</ele>
        <time>2023-06-10T06:55:39Z</time>
      </trkpt>
      <trkpt lat="43.4843" lon="-1.44867">
        <ele>11.39999961853</ele>
        <time>2023-06-10T06:55:47Z</time>
      </trkpt>
      <trkpt lat="43.4843" lon="-1.44873">
        <ele>11.39999961853</ele>
        <time>2023-06-10T06:55:48Z</time>
      </trkpt>
      <trkpt lat="43.4843" lon="-1.44879">
        <ele>11.39999961853</ele>
        <time>2023-06-10T06:55:49Z</time>
      </trkpt>
      <trkpt lat="43.48426" lon="-1.44951">
        <ele>11</ele>
        <time>2023-06-10T06:56:00Z</time>
      </trkpt>
      <trkpt lat="43.48421" lon="-1.4503">
        <ele>11</ele>
        <time>2023-06-10T06:56:13Z</time>
      </trkpt>
      <trkpt lat="43.48409" lon="-1.45098">
        <ele>11</ele>
        <time>2023-06-10T06:56:24Z</time>
      </trkpt>
      <trkpt lat="43.48394" lon="-1.4518">
        <ele>11.199999809265</ele>
        <time>2023-06-10T06:56:38Z</time>
      </trkpt>
      <trkpt lat="43.48382" lon="-1.45248">
        <ele>11.199999809265</ele>
        <time>2023-06-10T06:56:50Z</time>
      </trkpt>
      <trkpt lat="43.48367" lon="-1.45325">
        <ele>11.199999809265</ele>
        <time>2023-06-10T06:57:03Z</time>
      </trkpt>
      <trkpt lat="43.48358" lon="-1.45382">
        <ele>11.199999809265</ele>
        <time>2023-06-10T06:57:13Z</time>
      </trkpt>
      <trkpt lat="43.48358" lon="-1.45447">
        <ele>11.39999961853</ele>
        <time>2023-06-10T06:57:24Z</time>
      </trkpt>
      <trkpt lat="43.48365" lon="-1.45508">
        <ele>11.60000038147</ele>
        <time>2023-06-10T06:57:34Z</time>
      </trkpt>
      <trkpt lat="43.48377" lon="-1.4558">
        <ele>11.60000038147</ele>
        <time>2023-06-10T06:57:46Z</time>
      </trkpt>
      <trkpt lat="43.48391" lon="-1.4564">
        <ele>11.800000190735</ele>
        <time>2023-06-10T06:57:57Z</time>
      </trkpt>
      <trkpt lat="43.48397" lon="-1.45655">
        <ele>12</ele>
        <time>2023-06-10T06:58:00Z</time>
      </trkpt>
      <trkpt lat="43.48399" lon="-1.4566">
        <ele>12</ele>
        <time>2023-06-10T06:58:01Z</time>
      </trkpt>
      <trkpt lat="43.48426" lon="-1.45704">
        <ele>12.800000190735</ele>
        <time>2023-06-10T06:58:11Z</time>
      </trkpt>
      <trkpt lat="43.48449" lon="-1.45759">
        <ele>12.60000038147</ele>
        <time>2023-06-10T06:58:21Z</time>
      </trkpt>
      <trkpt lat="43.48467" lon="-1.45822">
        <ele>12.199999809265</ele>
        <time>2023-06-10T06:58:32Z</time>
      </trkpt>
      <trkpt lat="43.48484" lon="-1.45865">
        <ele>12</ele>
        <time>2023-06-10T06:58:39Z</time>
      </trkpt>
      <trkpt lat="43.48507" lon="-1.4591">
        <ele>11.60000038147</ele>
        <time>2023-06-10T06:58:48Z</time>
      </trkpt>
      <trkpt lat="43.48534" lon="-1.45962">
        <ele>12.199999809265</ele>
        <time>2023-06-10T06:58:59Z</time>
      </trkpt>
      <trkpt lat="43.48536" lon="-1.45967">
        <ele>12.199999809265</ele>
        <time>2023-06-10T06:59:00Z</time>
      </trkpt>
      <trkpt lat="43.48556" lon="-1.46031">
        <ele>12.199999809265</ele>
        <time>2023-06-10T06:59:11Z</time>
      </trkpt>
      <trkpt lat="43.48586" lon="-1.46078">
        <ele>11.39999961853</ele>
        <time>2023-06-10T06:59:20Z</time>
      </trkpt>
      <trkpt lat="43.48621" lon="-1.46127">
        <ele>11</ele>
        <time>2023-06-10T06:59:31Z</time>
      </trkpt>
      <trkpt lat="43.48641" lon="-1.46167">
        <ele>11.39999961853</ele>
        <time>2023-06-10T06:59:40Z</time>
      </trkpt>
      <trkpt lat="43.48673" lon="-1.4623">
        <ele>12</ele>
        <time>2023-06-10T06:59:53Z</time>
      </trkpt>
      <trkpt lat="43.4868" lon="-1.46239">
        <ele>12</ele>
        <time>2023-06-10T06:59:55Z</time>
      </trkpt>
      <trkpt lat="43.48711" lon="-1.46278">
        <ele>11.60000038147</ele>
        <time>2023-06-10T07:00:04Z</time>
      </trkpt>
      <trkpt lat="43.48713" lon="-1.46282">
        <ele>11.39999961853</ele>
        <time>2023-06-10T07:00:08Z</time>
      </trkpt>
      <trkpt lat="43.48716" lon="-1.46282">
        <ele>11.39999961853</ele>
        <time>2023-06-10T07:00:23Z</time>
      </trkpt>
      <trkpt lat="43.48717" lon="-1.46282">
        <ele>11.39999961853</ele>
        <time>2023-06-10T07:00:42Z</time>
      </trkpt>
      <trkpt lat="43.48717" lon="-1.4628">
        <ele>11.39999961853</ele>
        <time>2023-06-10T07:01:01Z</time>
      </trkpt>
      <trkpt lat="43.48717" lon="-1.46278">
        <ele>11.39999961853</ele>
        <time>2023-06-10T07:01:17Z</time>
      </trkpt>
      <trkpt lat="43.4872" lon="-1.46277">
        <ele>11.39999961853</ele>
        <time>2023-06-10T07:01:36Z</time>
      </trkpt>
      <trkpt lat="43.48719" lon="-1.46277">
        <ele>11.39999961853</ele>
        <time>2023-06-10T07:01:54Z</time>
      </trkpt>
      <trkpt lat="43.4872" lon="-1.46277">
        <ele>11.39999961853</ele>
        <time>2023-06-10T07:02:13Z</time>
      </trkpt>
      <trkpt lat="43.48721" lon="-1.46279">
        <ele>11.39999961853</ele>
        <time>2023-06-10T07:02:34Z</time>
      </trkpt>
      <trkpt lat="43.4872" lon="-1.46281">
        <ele>11.39999961853</ele>
        <time>2023-06-10T07:02:52Z</time>
      </trkpt>
      <trkpt lat="43.4872" lon="-1.46283">
        <ele>11.39999961853</ele>
        <time>2023-06-10T07:03:05Z</time>
      </trkpt>
      <trkpt lat="43.48718" lon="-1.46289">
        <ele>11.39999961853</ele>
        <time>2023-06-10T07:03:18Z</time>
      </trkpt>
      <trkpt lat="43.48721" lon="-1.46296">
        <ele>11.39999961853</ele>
        <time>2023-06-10T07:03:21Z</time>
      </trkpt>
      <trkpt lat="43.4874" lon="-1.46316">
        <ele>11.39999961853</ele>
        <time>2023-06-10T07:03:29Z</time>
      </trkpt>
      <trkpt lat="43.48763" lon="-1.46351">
        <ele>11.800000190735</ele>
        <time>2023-06-10T07:03:39Z</time>
      </trkpt>
      <trkpt lat="43.48787" lon="-1.46392">
        <ele>12</ele>
        <time>2023-06-10T07:03:49Z</time>
      </trkpt>
      <trkpt lat="43.48791" lon="-1.46401">
        <ele>12</ele>
        <time>2023-06-10T07:03:51Z</time>
      </trkpt>
      <trkpt lat="43.48793" lon="-1.46407">
        <ele>12</ele>
        <time>2023-06-10T07:03:52Z</time>
      </trkpt>
      <trkpt lat="43.48798" lon="-1.46423">
        <ele>12</ele>
        <time>2023-06-10T07:03:55Z</time>
      </trkpt>
      <trkpt lat="43.48801" lon="-1.46429">
        <ele>12</ele>
        <time>2023-06-10T07:03:56Z</time>
      </trkpt>
      <trkpt lat="43.48818" lon="-1.46465">
        <ele>11.39999961853</ele>
        <time>2023-06-10T07:04:03Z</time>
      </trkpt>
      <trkpt lat="43.48841" lon="-1.46511">
        <ele>11.199999809265</ele>
        <time>2023-06-10T07:04:13Z</time>
      </trkpt>
      <trkpt lat="43.48857" lon="-1.46531">
        <ele>11.39999961853</ele>
        <time>2023-06-10T07:04:19Z</time>
      </trkpt>
      <trkpt lat="43.48876" lon="-1.46562">
        <ele>11.800000190735</ele>
        <time>2023-06-10T07:04:27Z</time>
      </trkpt>
      <trkpt lat="43.48894" lon="-1.46589">
        <ele>12</ele>
        <time>2023-06-10T07:04:34Z</time>
      </trkpt>
      <trkpt lat="43.48905" lon="-1.46611">
        <ele>12</ele>
        <time>2023-06-10T07:04:40Z</time>
      </trkpt>
      <trkpt lat="43.48928" lon="-1.46646">
        <ele>12</ele>
        <time>2023-06-10T07:04:50Z</time>
      </trkpt>
      <trkpt lat="43.48949" lon="-1.46669">
        <ele>12.39999961853</ele>
        <time>2023-06-10T07:04:59Z</time>
      </trkpt>
      <trkpt lat="43.48969" lon="-1.46697">
        <ele>12.800000190735</ele>
        <time>2023-06-10T07:05:07Z</time>
      </trkpt>
      <trkpt lat="43.48981" lon="-1.46703">
        <ele>13.199999809265</ele>
        <time>2023-06-10T07:05:12Z</time>
      </trkpt>
      <trkpt lat="43.49005" lon="-1.4672">
        <ele>13.60000038147</ele>
        <time>2023-06-10T07:05:20Z</time>
      </trkpt>
      <trkpt lat="43.49032" lon="-1.46738">
        <ele>14.39999961853</ele>
        <time>2023-06-10T07:05:29Z</time>
      </trkpt>
      <trkpt lat="43.49069" lon="-1.46764">
        <ele>14.60000038147</ele>
        <time>2023-06-10T07:05:40Z</time>
      </trkpt>
      <trkpt lat="43.49076" lon="-1.4677">
        <ele>14.60000038147</ele>
        <time>2023-06-10T07:05:42Z</time>
      </trkpt>
      <trkpt lat="43.4908" lon="-1.46774">
        <ele>14.39999961853</ele>
        <time>2023-06-10T07:05:43Z</time>
      </trkpt>
      <trkpt lat="43.49083" lon="-1.46779">
        <ele>14.39999961853</ele>
        <time>2023-06-10T07:05:44Z</time>
      </trkpt>
      <trkpt lat="43.49087" lon="-1.46784">
        <ele>14.199999809265</ele>
        <time>2023-06-10T07:05:45Z</time>
      </trkpt>
      <trkpt lat="43.4909" lon="-1.46789">
        <ele>14</ele>
        <time>2023-06-10T07:05:46Z</time>
      </trkpt>
      <trkpt lat="43.49093" lon="-1.46795">
        <ele>14</ele>
        <time>2023-06-10T07:05:47Z</time>
      </trkpt>
      <trkpt lat="43.49126" lon="-1.46864">
        <ele>12.60000038147</ele>
        <time>2023-06-10T07:05:59Z</time>
      </trkpt>
      <trkpt lat="43.49145" lon="-1.46902">
        <ele>11.800000190735</ele>
        <time>2023-06-10T07:06:08Z</time>
      </trkpt>
      <trkpt lat="43.49161" lon="-1.4692">
        <ele>11.39999961853</ele>
        <time>2023-06-10T07:06:15Z</time>
      </trkpt>
      <trkpt lat="43.49189" lon="-1.46935">
        <ele>11.39999961853</ele>
        <time>2023-06-10T07:06:23Z</time>
      </trkpt>
      <trkpt lat="43.49211" lon="-1.46974">
        <ele>11.39999961853</ele>
        <time>2023-06-10T07:06:32Z</time>
      </trkpt>
      <trkpt lat="43.4924" lon="-1.47031">
        <ele>11.199999809265</ele>
        <time>2023-06-10T07:06:45Z</time>
      </trkpt>
      <trkpt lat="43.49269" lon="-1.47089">
        <ele>11.199999809265</ele>
        <time>2023-06-10T07:06:59Z</time>
      </trkpt>
      <trkpt lat="43.49292" lon="-1.47144">
        <ele>11.199999809265</ele>
        <time>2023-06-10T07:07:12Z</time>
      </trkpt>
      <trkpt lat="43.49307" lon="-1.47186">
        <ele>11.199999809265</ele>
        <time>2023-06-10T07:07:23Z</time>
      </trkpt>
      <trkpt lat="43.49321" lon="-1.47229">
        <ele>11.199999809265</ele>
        <time>2023-06-10T07:07:34Z</time>
      </trkpt>
      <trkpt lat="43.4932" lon="-1.47233">
        <ele>11.199999809265</ele>
        <time>2023-06-10T07:07:35Z</time>
      </trkpt>
      <trkpt lat="43.49318" lon="-1.47237">
        <ele>11.199999809265</ele>
        <time>2023-06-10T07:07:36Z</time>
      </trkpt>
      <trkpt lat="43.49315" lon="-1.4724">
        <ele>11.199999809265</ele>
        <time>2023-06-10T07:07:37Z</time>
      </trkpt>
      <trkpt lat="43.49313" lon="-1.47242">
        <ele>11.199999809265</ele>
        <time>2023-06-10T07:07:38Z</time>
      </trkpt>
      <trkpt lat="43.49311" lon="-1.47244">
        <ele>11.199999809265</ele>
        <time>2023-06-10T07:07:39Z</time>
      </trkpt>
      <trkpt lat="43.49309" lon="-1.47247">
        <ele>11.199999809265</ele>
        <time>2023-06-10T07:07:40Z</time>
      </trkpt>
      <trkpt lat="43.49308" lon="-1.4725">
        <ele>11.39999961853</ele>
        <time>2023-06-10T07:07:41Z</time>
      </trkpt>
      <trkpt lat="43.49309" lon="-1.47252">
        <ele>11.39999961853</ele>
        <time>2023-06-10T07:07:42Z</time>
      </trkpt>
      <trkpt lat="43.4931" lon="-1.47255">
        <ele>11.39999961853</ele>
        <time>2023-06-10T07:07:43Z</time>
      </trkpt>
      <trkpt lat="43.49312" lon="-1.47258">
        <ele>11.39999961853</ele>
        <time>2023-06-10T07:07:44Z</time>
      </trkpt>
      <trkpt lat="43.49314" lon="-1.4726">
        <ele>11.60000038147</ele>
        <time>2023-06-10T07:07:45Z</time>
      </trkpt>
      <trkpt lat="43.49316" lon="-1.47262">
        <ele>11.60000038147</ele>
        <time>2023-06-10T07:07:46Z</time>
      </trkpt>
      <trkpt lat="43.49318" lon="-1.47264">
        <ele>11.800000190735</ele>
        <time>2023-06-10T07:07:47Z</time>
      </trkpt>
      <trkpt lat="43.49319" lon="-1.47267">
        <ele>11.800000190735</ele>
        <time>2023-06-10T07:07:48Z</time>
      </trkpt>
      <trkpt lat="43.49321" lon="-1.47268">
        <ele>11.800000190735</ele>
        <time>2023-06-10T07:07:49Z</time>
      </trkpt>
      <trkpt lat="43.49328" lon="-1.47279">
        <ele>13</ele>
        <time>2023-06-10T07:07:57Z</time>
      </trkpt>
      <trkpt lat="43.49329" lon="-1.47282">
        <ele>13.199999809265</ele>
        <time>2023-06-10T07:08:03Z</time>
      </trkpt>
      <trkpt lat="43.49329" lon="-1.47282">
        <ele>13.60000038147</ele>
        <time>2023-06-10T07:08:28Z</time>
      </trkpt>
      <trkpt lat="43.49326" lon="-1.47282">
        <ele>13.60000038147</ele>
        <time>2023-06-10T07:08:37Z</time>
      </trkpt>
      <trkpt lat="43.49324" lon="-1.47282">
        <ele>13.60000038147</ele>
        <time>2023-06-10T07:08:45Z</time>
      </trkpt>
      <trkpt lat="43.49323" lon="-1.47281">
        <ele>13.60000038147</ele>
        <time>2023-06-10T07:08:46Z</time>
      </trkpt>
      <trkpt lat="43.49322" lon="-1.4728">
        <ele>13.60000038147</ele>
        <time>2023-06-10T07:08:47Z</time>
      </trkpt>
      <trkpt lat="43.4932" lon="-1.47279">
        <ele>13.60000038147</ele>
        <time>2023-06-10T07:08:48Z</time>
      </trkpt>
      <trkpt lat="43.49318" lon="-1.47278">
        <ele>13.60000038147</ele>
        <time>2023-06-10T07:08:49Z</time>
      </trkpt>
      <trkpt lat="43.49314" lon="-1.47273">
        <ele>13.199999809265</ele>
        <time>2023-06-10T07:08:55Z</time>
      </trkpt>
      <trkpt lat="43.49312" lon="-1.47274">
        <ele>13</ele>
        <time>2023-06-10T07:09:08Z</time>
      </trkpt>
      <trkpt lat="43.49311" lon="-1.47275">
        <ele>12.800000190735</ele>
        <time>2023-06-10T07:09:13Z</time>
      </trkpt>
      <trkpt lat="43.49309" lon="-1.47275">
        <ele>12.800000190735</ele>
        <time>2023-06-10T07:09:14Z</time>
      </trkpt>
      <trkpt lat="43.49307" lon="-1.47277">
        <ele>12.800000190735</ele>
        <time>2023-06-10T07:09:15Z</time>
      </trkpt>
      <trkpt lat="43.49306" lon="-1.4728">
        <ele>12.800000190735</ele>
        <time>2023-06-10T07:09:16Z</time>
      </trkpt>
      <trkpt lat="43.49304" lon="-1.47283">
        <ele>12.800000190735</ele>
        <time>2023-06-10T07:09:17Z</time>
      </trkpt>
      <trkpt lat="43.49302" lon="-1.47285">
        <ele>12.800000190735</ele>
        <time>2023-06-10T07:09:18Z</time>
      </trkpt>
      <trkpt lat="43.49299" lon="-1.47288">
        <ele>12.800000190735</ele>
        <time>2023-06-10T07:09:19Z</time>
      </trkpt>
      <trkpt lat="43.49297" lon="-1.47289">
        <ele>12.800000190735</ele>
        <time>2023-06-10T07:09:20Z</time>
      </trkpt>
      <trkpt lat="43.49294" lon="-1.47291">
        <ele>12.800000190735</ele>
        <time>2023-06-10T07:09:21Z</time>
      </trkpt>
      <trkpt lat="43.4927" lon="-1.4731">
        <ele>12.800000190735</ele>
        <time>2023-06-10T07:09:30Z</time>
      </trkpt>
      <trkpt lat="43.49266" lon="-1.47329">
        <ele>12.60000038147</ele>
        <time>2023-06-10T07:09:37Z</time>
      </trkpt>
      <trkpt lat="43.49253" lon="-1.47346">
        <ele>12.60000038147</ele>
        <time>2023-06-10T07:09:44Z</time>
      </trkpt>
      <trkpt lat="43.49252" lon="-1.47349">
        <ele>12.60000038147</ele>
        <time>2023-06-10T07:09:45Z</time>
      </trkpt>
      <trkpt lat="43.49252" lon="-1.47352">
        <ele>12.60000038147</ele>
        <time>2023-06-10T07:09:46Z</time>
      </trkpt>
      <trkpt lat="43.49253" lon="-1.47362">
        <ele>12.60000038147</ele>
        <time>2023-06-10T07:09:49Z</time>
      </trkpt>
      <trkpt lat="43.49251" lon="-1.47365">
        <ele>12.60000038147</ele>
        <time>2023-06-10T07:09:50Z</time>
      </trkpt>
      <trkpt lat="43.49239" lon="-1.47395">
        <ele>12.800000190735</ele>
        <time>2023-06-10T07:10:00Z</time>
      </trkpt>
      <trkpt lat="43.49228" lon="-1.47411">
        <ele>13</ele>
        <time>2023-06-10T07:10:08Z</time>
      </trkpt>
      <trkpt lat="43.49224" lon="-1.47417">
        <ele>13.199999809265</ele>
        <time>2023-06-10T07:10:18Z</time>
      </trkpt>
      <trkpt lat="43.49213" lon="-1.47434">
        <ele>13</ele>
        <time>2023-06-10T07:10:32Z</time>
      </trkpt>
      <trkpt lat="43.4921" lon="-1.47434">
        <ele>12.800000190735</ele>
        <time>2023-06-10T07:10:39Z</time>
      </trkpt>
      <trkpt lat="43.49196" lon="-1.47433">
        <ele>12.800000190735</ele>
        <time>2023-06-10T07:10:44Z</time>
      </trkpt>
      <trkpt lat="43.4918" lon="-1.47437">
        <ele>12.39999961853</ele>
        <time>2023-06-10T07:10:48Z</time>
      </trkpt>
      <trkpt lat="43.49152" lon="-1.47452">
        <ele>12</ele>
        <time>2023-06-10T07:10:56Z</time>
      </trkpt>
      <trkpt lat="43.49122" lon="-1.4747">
        <ele>12</ele>
        <time>2023-06-10T07:11:06Z</time>
      </trkpt>
      <trkpt lat="43.491" lon="-1.4748">
        <ele>12.199999809265</ele>
        <time>2023-06-10T07:11:15Z</time>
      </trkpt>
      <trkpt lat="43.49089" lon="-1.47474">
        <ele>12.60000038147</ele>
        <time>2023-06-10T07:11:23Z</time>
      </trkpt>
      <trkpt lat="43.49086" lon="-1.47468">
        <ele>12.39999961853</ele>
        <time>2023-06-10T07:11:34Z</time>
      </trkpt>
      <trkpt lat="43.49088" lon="-1.4747">
        <ele>13.39999961853</ele>
        <time>2023-06-10T07:45:45Z</time>
      </trkpt>
      <trkpt lat="43.49092" lon="-1.47475">
        <ele>13.39999961853</ele>
        <time>2023-06-10T07:46:46Z</time>
      </trkpt>
      <trkpt lat="43.49095" lon="-1.4748">
        <ele>13.39999961853</ele>
        <time>2023-06-10T07:46:54Z</time>
      </trkpt>
      <trkpt lat="43.49102" lon="-1.47477">
        <ele>19.200000762939</ele>
        <time>2023-06-10T07:47:01Z</time>
      </trkpt>
      <trkpt lat="43.49102" lon="-1.47477">
        <ele>23.200000762939</ele>
        <time>2023-06-10T07:47:02Z</time>
      </trkpt>
      <trkpt lat="43.49104" lon="-1.47476">
        <ele>26.200000762939</ele>
        <time>2023-06-10T07:47:04Z</time>
      </trkpt>
      <trkpt lat="43.49105" lon="-1.47476">
        <ele>27</ele>
        <time>2023-06-10T07:47:06Z</time>
      </trkpt>
      <trkpt lat="43.49111" lon="-1.47474">
        <ele>27.200000762939</ele>
        <time>2023-06-10T07:47:15Z</time>
      </trkpt>
      <trkpt lat="43.49132" lon="-1.47462">
        <ele>27</ele>
        <time>2023-06-10T07:47:24Z</time>
      </trkpt>
      <trkpt lat="43.49157" lon="-1.47455">
        <ele>26.60000038147</ele>
        <time>2023-06-10T07:47:33Z</time>
      </trkpt>
      <trkpt lat="43.49185" lon="-1.47447">
        <ele>26.39999961853</ele>
        <time>2023-06-10T07:47:43Z</time>
      </trkpt>
      <trkpt lat="43.49203" lon="-1.47439">
        <ele>26.60000038147</ele>
        <time>2023-06-10T07:47:51Z</time>
      </trkpt>
      <trkpt lat="43.49214" lon="-1.47429">
        <ele>27</ele>
        <time>2023-06-10T07:48:00Z</time>
      </trkpt>
      <trkpt lat="43.49219" lon="-1.47429">
        <ele>27.39999961853</ele>
        <time>2023-06-10T07:48:05Z</time>
      </trkpt>
      <trkpt lat="43.4922" lon="-1.47429">
        <ele>27.39999961853</ele>
        <time>2023-06-10T07:48:06Z</time>
      </trkpt>
      <trkpt lat="43.49221" lon="-1.47428">
        <ele>27.39999961853</ele>
        <time>2023-06-10T07:48:07Z</time>
      </trkpt>
      <trkpt lat="43.49222" lon="-1.47427">
        <ele>27.799999237061</ele>
        <time>2023-06-10T07:48:15Z</time>
      </trkpt>
      <trkpt lat="43.49223" lon="-1.4743">
        <ele>28</ele>
        <time>2023-06-10T07:48:26Z</time>
      </trkpt>
      <trkpt lat="43.49222" lon="-1.47434">
        <ele>28</ele>
        <time>2023-06-10T07:48:29Z</time>
      </trkpt>
      <trkpt lat="43.49222" lon="-1.47436">
        <ele>28</ele>
        <time>2023-06-10T07:48:30Z</time>
      </trkpt>
      <trkpt lat="43.49222" lon="-1.47446">
        <ele>28</ele>
        <time>2023-06-10T07:48:34Z</time>
      </trkpt>
      <trkpt lat="43.49223" lon="-1.47447">
        <ele>28</ele>
        <time>2023-06-10T07:48:35Z</time>
      </trkpt>
      <trkpt lat="43.49224" lon="-1.47449">
        <ele>28</ele>
        <time>2023-06-10T07:48:36Z</time>
      </trkpt>
      <trkpt lat="43.49225" lon="-1.4745">
        <ele>28</ele>
        <time>2023-06-10T07:48:37Z</time>
      </trkpt>
      <trkpt lat="43.49227" lon="-1.47452">
        <ele>28</ele>
        <time>2023-06-10T07:48:38Z</time>
      </trkpt>
      <trkpt lat="43.49228" lon="-1.47453">
        <ele>27.799999237061</ele>
        <time>2023-06-10T07:48:39Z</time>
      </trkpt>
      <trkpt lat="43.4923" lon="-1.47454">
        <ele>27.799999237061</ele>
        <time>2023-06-10T07:48:40Z</time>
      </trkpt>
      <trkpt lat="43.49232" lon="-1.47455">
        <ele>27.60000038147</ele>
        <time>2023-06-10T07:48:41Z</time>
      </trkpt>
      <trkpt lat="43.49234" lon="-1.47455">
        <ele>27.60000038147</ele>
        <time>2023-06-10T07:48:42Z</time>
      </trkpt>
      <trkpt lat="43.49236" lon="-1.47456">
        <ele>27.60000038147</ele>
        <time>2023-06-10T07:48:43Z</time>
      </trkpt>
      <trkpt lat="43.49238" lon="-1.47457">
        <ele>27.39999961853</ele>
        <time>2023-06-10T07:48:44Z</time>
      </trkpt>
      <trkpt lat="43.49249" lon="-1.47464">
        <ele>27.200000762939</ele>
        <time>2023-06-10T07:48:52Z</time>
      </trkpt>
      <trkpt lat="43.49264" lon="-1.47471">
        <ele>27.200000762939</ele>
        <time>2023-06-10T07:49:00Z</time>
      </trkpt>
      <trkpt lat="43.49276" lon="-1.47479">
        <ele>27.200000762939</ele>
        <time>2023-06-10T07:49:06Z</time>
      </trkpt>
      <trkpt lat="43.49287" lon="-1.47479">
        <ele>27</ele>
        <time>2023-06-10T07:49:11Z</time>
      </trkpt>
      <trkpt lat="43.49294" lon="-1.47471">
        <ele>27</ele>
        <time>2023-06-10T07:49:18Z</time>
      </trkpt>
      <trkpt lat="43.49296" lon="-1.4747">
        <ele>27.200000762939</ele>
        <time>2023-06-10T07:49:19Z</time>
      </trkpt>
      <trkpt lat="43.49297" lon="-1.4747">
        <ele>27.200000762939</ele>
        <time>2023-06-10T07:49:20Z</time>
      </trkpt>
      <trkpt lat="43.49299" lon="-1.47471">
        <ele>27.200000762939</ele>
        <time>2023-06-10T07:49:21Z</time>
      </trkpt>
      <trkpt lat="43.493" lon="-1.47473">
        <ele>27.200000762939</ele>
        <time>2023-06-10T07:49:22Z</time>
      </trkpt>
      <trkpt lat="43.49302" lon="-1.47474">
        <ele>27.200000762939</ele>
        <time>2023-06-10T07:49:23Z</time>
      </trkpt>
      <trkpt lat="43.49304" lon="-1.47475">
        <ele>27.200000762939</ele>
        <time>2023-06-10T07:49:24Z</time>
      </trkpt>
      <trkpt lat="43.49305" lon="-1.47476">
        <ele>27.200000762939</ele>
        <time>2023-06-10T07:49:25Z</time>
      </trkpt>
      <trkpt lat="43.49307" lon="-1.47477">
        <ele>27.200000762939</ele>
        <time>2023-06-10T07:49:26Z</time>
      </trkpt>
      <trkpt lat="43.49308" lon="-1.47479">
        <ele>27.200000762939</ele>
        <time>2023-06-10T07:49:27Z</time>
      </trkpt>
      <trkpt lat="43.49308" lon="-1.47482">
        <ele>27.200000762939</ele>
        <time>2023-06-10T07:49:28Z</time>
      </trkpt>
      <trkpt lat="43.49307" lon="-1.47485">
        <ele>27.200000762939</ele>
        <time>2023-06-10T07:49:29Z</time>
      </trkpt>
      <trkpt lat="43.49306" lon="-1.47487">
        <ele>27.200000762939</ele>
        <time>2023-06-10T07:49:30Z</time>
      </trkpt>
      <trkpt lat="43.49305" lon="-1.47489">
        <ele>27.200000762939</ele>
        <time>2023-06-10T07:49:31Z</time>
      </trkpt>
      <trkpt lat="43.49304" lon="-1.47492">
        <ele>27.200000762939</ele>
        <time>2023-06-10T07:49:32Z</time>
      </trkpt>
      <trkpt lat="43.49304" lon="-1.47494">
        <ele>27.200000762939</ele>
        <time>2023-06-10T07:49:33Z</time>
      </trkpt>
      <trkpt lat="43.49305" lon="-1.47495">
        <ele>27.200000762939</ele>
        <time>2023-06-10T07:49:34Z</time>
      </trkpt>
      <trkpt lat="43.49307" lon="-1.47502">
        <ele>27</ele>
        <time>2023-06-10T07:49:42Z</time>
      </trkpt>
      <trkpt lat="43.49311" lon="-1.47518">
        <ele>26.60000038147</ele>
        <time>2023-06-10T08:35:43Z</time>
      </trkpt>
      <trkpt lat="43.4931" lon="-1.47519">
        <ele>26.60000038147</ele>
        <time>2023-06-10T08:36:14Z</time>
      </trkpt>
      <trkpt lat="43.49311" lon="-1.47519">
        <ele>26.60000038147</ele>
        <time>2023-06-10T08:36:59Z</time>
      </trkpt>
      <trkpt lat="43.49309" lon="-1.47517">
        <ele>26.60000038147</ele>
        <time>2023-06-10T08:37:10Z</time>
      </trkpt>
      <trkpt lat="43.49308" lon="-1.47515">
        <ele>26.60000038147</ele>
        <time>2023-06-10T08:37:24Z</time>
      </trkpt>
      <trkpt lat="43.49303" lon="-1.47504">
        <ele>26.60000038147</ele>
        <time>2023-06-10T08:37:30Z</time>
      </trkpt>
      <trkpt lat="43.49302" lon="-1.475">
        <ele>26.60000038147</ele>
        <time>2023-06-10T08:37:31Z</time>
      </trkpt>
      <trkpt lat="43.493" lon="-1.47497">
        <ele>26.60000038147</ele>
        <time>2023-06-10T08:37:32Z</time>
      </trkpt>
      <trkpt lat="43.49299" lon="-1.47495">
        <ele>26.200000762939</ele>
        <time>2023-06-10T08:37:33Z</time>
      </trkpt>
      <trkpt lat="43.49298" lon="-1.47493">
        <ele>25.200000762939</ele>
        <time>2023-06-10T08:37:34Z</time>
      </trkpt>
      <trkpt lat="43.49297" lon="-1.47491">
        <ele>24.200000762939</ele>
        <time>2023-06-10T08:37:35Z</time>
      </trkpt>
      <trkpt lat="43.49296" lon="-1.47489">
        <ele>23.799999237061</ele>
        <time>2023-06-10T08:37:36Z</time>
      </trkpt>
      <trkpt lat="43.49294" lon="-1.47486">
        <ele>23.60000038147</ele>
        <time>2023-06-10T08:37:37Z</time>
      </trkpt>
      <trkpt lat="43.49287" lon="-1.4747">
        <ele>23.39999961853</ele>
        <time>2023-06-10T08:37:44Z</time>
      </trkpt>
      <trkpt lat="43.49272" lon="-1.47454">
        <ele>23.39999961853</ele>
        <time>2023-06-10T08:37:52Z</time>
      </trkpt>
      <trkpt lat="43.49252" lon="-1.47449">
        <ele>23.39999961853</ele>
        <time>2023-06-10T08:38:01Z</time>
      </trkpt>
      <trkpt lat="43.49241" lon="-1.47434">
        <ele>23.60000038147</ele>
        <time>2023-06-10T08:38:08Z</time>
      </trkpt>
      <trkpt lat="43.49244" lon="-1.47415">
        <ele>24</ele>
        <time>2023-06-10T08:38:14Z</time>
      </trkpt>
      <trkpt lat="43.49258" lon="-1.47388">
        <ele>24.60000038147</ele>
        <time>2023-06-10T08:38:23Z</time>
      </trkpt>
      <trkpt lat="43.49269" lon="-1.47366">
        <ele>24.60000038147</ele>
        <time>2023-06-10T08:38:30Z</time>
      </trkpt>
      <trkpt lat="43.49272" lon="-1.47365">
        <ele>24.60000038147</ele>
        <time>2023-06-10T08:38:31Z</time>
      </trkpt>
      <trkpt lat="43.49288" lon="-1.47359">
        <ele>24.200000762939</ele>
        <time>2023-06-10T08:38:39Z</time>
      </trkpt>
      <trkpt lat="43.49309" lon="-1.4735">
        <ele>24.39999961853</ele>
        <time>2023-06-10T08:38:47Z</time>
      </trkpt>
      <trkpt lat="43.49328" lon="-1.47334">
        <ele>24.799999237061</ele>
        <time>2023-06-10T08:38:56Z</time>
      </trkpt>
      <trkpt lat="43.49329" lon="-1.47331">
        <ele>24.799999237061</ele>
        <time>2023-06-10T08:38:57Z</time>
      </trkpt>
      <trkpt lat="43.49329" lon="-1.47328">
        <ele>24.799999237061</ele>
        <time>2023-06-10T08:38:58Z</time>
      </trkpt>
      <trkpt lat="43.49329" lon="-1.47325">
        <ele>24.799999237061</ele>
        <time>2023-06-10T08:38:59Z</time>
      </trkpt>
      <trkpt lat="43.49329" lon="-1.47321">
        <ele>24.799999237061</ele>
        <time>2023-06-10T08:39:00Z</time>
      </trkpt>
      <trkpt lat="43.49329" lon="-1.47317">
        <ele>24.799999237061</ele>
        <time>2023-06-10T08:39:01Z</time>
      </trkpt>
      <trkpt lat="43.49329" lon="-1.47314">
        <ele>24.799999237061</ele>
        <time>2023-06-10T08:39:02Z</time>
      </trkpt>
      <trkpt lat="43.4933" lon="-1.47292">
        <ele>24.60000038147</ele>
        <time>2023-06-10T08:39:09Z</time>
      </trkpt>
      <trkpt lat="43.49334" lon="-1.47282">
        <ele>24.60000038147</ele>
        <time>2023-06-10T08:39:13Z</time>
      </trkpt>
      <trkpt lat="43.49336" lon="-1.47281">
        <ele>24.60000038147</ele>
        <time>2023-06-10T08:39:14Z</time>
      </trkpt>
      <trkpt lat="43.49338" lon="-1.47281">
        <ele>24.60000038147</ele>
        <time>2023-06-10T08:39:15Z</time>
      </trkpt>
      <trkpt lat="43.49341" lon="-1.4728">
        <ele>24.60000038147</ele>
        <time>2023-06-10T08:39:16Z</time>
      </trkpt>
      <trkpt lat="43.49343" lon="-1.47278">
        <ele>24.799999237061</ele>
        <time>2023-06-10T08:39:17Z</time>
      </trkpt>
      <trkpt lat="43.49345" lon="-1.47277">
        <ele>24.799999237061</ele>
        <time>2023-06-10T08:39:18Z</time>
      </trkpt>
      <trkpt lat="43.49346" lon="-1.47275">
        <ele>24.799999237061</ele>
        <time>2023-06-10T08:39:19Z</time>
      </trkpt>
      <trkpt lat="43.49347" lon="-1.47273">
        <ele>24.799999237061</ele>
        <time>2023-06-10T08:39:20Z</time>
      </trkpt>
      <trkpt lat="43.49361" lon="-1.47256">
        <ele>25.60000038147</ele>
        <time>2023-06-10T08:39:29Z</time>
      </trkpt>
      <trkpt lat="43.49381" lon="-1.4723">
        <ele>26.200000762939</ele>
        <time>2023-06-10T08:39:40Z</time>
      </trkpt>
      <trkpt lat="43.49403" lon="-1.47203">
        <ele>26.799999237061</ele>
        <time>2023-06-10T08:39:52Z</time>
      </trkpt>
      <trkpt lat="43.49421" lon="-1.47181">
        <ele>27.200000762939</ele>
        <time>2023-06-10T08:40:02Z</time>
      </trkpt>
      <trkpt lat="43.4944" lon="-1.47158">
        <ele>27.39999961853</ele>
        <time>2023-06-10T08:40:13Z</time>
      </trkpt>
      <trkpt lat="43.49464" lon="-1.47127">
        <ele>27.200000762939</ele>
        <time>2023-06-10T08:40:24Z</time>
      </trkpt>
      <trkpt lat="43.49493" lon="-1.4709">
        <ele>26.39999961853</ele>
        <time>2023-06-10T08:40:34Z</time>
      </trkpt>
      <trkpt lat="43.49513" lon="-1.47063">
        <ele>25.60000038147</ele>
        <time>2023-06-10T08:40:43Z</time>
      </trkpt>
      <trkpt lat="43.49531" lon="-1.47033">
        <ele>24.39999961853</ele>
        <time>2023-06-10T08:40:54Z</time>
      </trkpt>
      <trkpt lat="43.4953" lon="-1.47012">
        <ele>23.799999237061</ele>
        <time>2023-06-10T08:40:59Z</time>
      </trkpt>
      <trkpt lat="43.49519" lon="-1.46992">
        <ele>22.60000038147</ele>
        <time>2023-06-10T08:41:06Z</time>
      </trkpt>
      <trkpt lat="43.49516" lon="-1.46992">
        <ele>22.39999961853</ele>
        <time>2023-06-10T08:41:07Z</time>
      </trkpt>
      <trkpt lat="43.49514" lon="-1.46993">
        <ele>22.200000762939</ele>
        <time>2023-06-10T08:41:08Z</time>
      </trkpt>
      <trkpt lat="43.49512" lon="-1.46994">
        <ele>22.200000762939</ele>
        <time>2023-06-10T08:41:09Z</time>
      </trkpt>
      <trkpt lat="43.4951" lon="-1.46996">
        <ele>22</ele>
        <time>2023-06-10T08:41:10Z</time>
      </trkpt>
      <trkpt lat="43.49509" lon="-1.46998">
        <ele>22</ele>
        <time>2023-06-10T08:41:11Z</time>
      </trkpt>
      <trkpt lat="43.49491" lon="-1.4702">
        <ele>21.39999961853</ele>
        <time>2023-06-10T08:41:21Z</time>
      </trkpt>
      <trkpt lat="43.49489" lon="-1.47029">
        <ele>21.39999961853</ele>
        <time>2023-06-10T08:41:25Z</time>
      </trkpt>
      <trkpt lat="43.49489" lon="-1.47032">
        <ele>21.39999961853</ele>
        <time>2023-06-10T08:41:26Z</time>
      </trkpt>
      <trkpt lat="43.49491" lon="-1.47034">
        <ele>21.39999961853</ele>
        <time>2023-06-10T08:41:27Z</time>
      </trkpt>
      <trkpt lat="43.49492" lon="-1.47037">
        <ele>21.39999961853</ele>
        <time>2023-06-10T08:41:28Z</time>
      </trkpt>
      <trkpt lat="43.49493" lon="-1.47039">
        <ele>21.39999961853</ele>
        <time>2023-06-10T08:41:29Z</time>
      </trkpt>
      <trkpt lat="43.49507" lon="-1.47055">
        <ele>21.39999961853</ele>
        <time>2023-06-10T08:41:38Z</time>
      </trkpt>
      <trkpt lat="43.49507" lon="-1.47056">
        <ele>21.39999961853</ele>
        <time>2023-06-10T08:41:45Z</time>
      </trkpt>
      <trkpt lat="43.4951" lon="-1.47062">
        <ele>21.39999961853</ele>
        <time>2023-06-10T08:41:56Z</time>
      </trkpt>
      <trkpt lat="43.49519" lon="-1.47077">
        <ele>21.39999961853</ele>
        <time>2023-06-10T08:42:02Z</time>
      </trkpt>
      <trkpt lat="43.49529" lon="-1.47101">
        <ele>21.39999961853</ele>
        <time>2023-06-10T08:42:09Z</time>
      </trkpt>
      <trkpt lat="43.49543" lon="-1.47131">
        <ele>21.39999961853</ele>
        <time>2023-06-10T08:42:18Z</time>
      </trkpt>
      <trkpt lat="43.49554" lon="-1.4716">
        <ele>21.200000762939</ele>
        <time>2023-06-10T08:42:27Z</time>
      </trkpt>
      <trkpt lat="43.49553" lon="-1.4717">
        <ele>21.200000762939</ele>
        <time>2023-06-10T08:42:31Z</time>
      </trkpt>
      <trkpt lat="43.49552" lon="-1.47172">
        <ele>21.200000762939</ele>
        <time>2023-06-10T08:42:32Z</time>
      </trkpt>
      <trkpt lat="43.49553" lon="-1.47175">
        <ele>20.799999237061</ele>
        <time>2023-06-10T08:47:37Z</time>
      </trkpt>
      <trkpt lat="43.49554" lon="-1.47176">
        <ele>20.799999237061</ele>
        <time>2023-06-10T08:47:38Z</time>
      </trkpt>
      <trkpt lat="43.49556" lon="-1.47177">
        <ele>20.799999237061</ele>
        <time>2023-06-10T08:47:39Z</time>
      </trkpt>
      <trkpt lat="43.49558" lon="-1.47179">
        <ele>20.60000038147</ele>
        <time>2023-06-10T08:47:40Z</time>
      </trkpt>
      <trkpt lat="43.4956" lon="-1.47181">
        <ele>19.60000038147</ele>
        <time>2023-06-10T08:47:41Z</time>
      </trkpt>
      <trkpt lat="43.49561" lon="-1.47184">
        <ele>18.799999237061</ele>
        <time>2023-06-10T08:47:42Z</time>
      </trkpt>
      <trkpt lat="43.49562" lon="-1.47186">
        <ele>18.200000762939</ele>
        <time>2023-06-10T08:47:43Z</time>
      </trkpt>
      <trkpt lat="43.49564" lon="-1.47189">
        <ele>18</ele>
        <time>2023-06-10T08:47:44Z</time>
      </trkpt>
      <trkpt lat="43.49574" lon="-1.47217">
        <ele>18</ele>
        <time>2023-06-10T08:47:52Z</time>
      </trkpt>
      <trkpt lat="43.49589" lon="-1.47268">
        <ele>18.200000762939</ele>
        <time>2023-06-10T08:48:05Z</time>
      </trkpt>
      <trkpt lat="43.496" lon="-1.47298">
        <ele>18.60000038147</ele>
        <time>2023-06-10T08:48:13Z</time>
      </trkpt>
      <trkpt lat="43.49613" lon="-1.47332">
        <ele>18.799999237061</ele>
        <time>2023-06-10T08:48:22Z</time>
      </trkpt>
      <trkpt lat="43.49625" lon="-1.47371">
        <ele>19</ele>
        <time>2023-06-10T08:48:31Z</time>
      </trkpt>
      <trkpt lat="43.49637" lon="-1.47426">
        <ele>19</ele>
        <time>2023-06-10T08:48:42Z</time>
      </trkpt>
      <trkpt lat="43.49654" lon="-1.47493">
        <ele>19.200000762939</ele>
        <time>2023-06-10T08:48:56Z</time>
      </trkpt>
      <trkpt lat="43.49671" lon="-1.47562">
        <ele>19.60000038147</ele>
        <time>2023-06-10T08:49:10Z</time>
      </trkpt>
      <trkpt lat="43.49689" lon="-1.47632">
        <ele>19.39999961853</ele>
        <time>2023-06-10T08:49:24Z</time>
      </trkpt>
      <trkpt lat="43.49702" lon="-1.47686">
        <ele>19.39999961853</ele>
        <time>2023-06-10T08:49:35Z</time>
      </trkpt>
      <trkpt lat="43.49716" lon="-1.47748">
        <ele>19.200000762939</ele>
        <time>2023-06-10T08:49:48Z</time>
      </trkpt>
      <trkpt lat="43.4973" lon="-1.47807">
        <ele>19</ele>
        <time>2023-06-10T08:50:00Z</time>
      </trkpt>
      <trkpt lat="43.49743" lon="-1.47853">
        <ele>19</ele>
        <time>2023-06-10T08:50:09Z</time>
      </trkpt>
      <trkpt lat="43.49763" lon="-1.47912">
        <ele>18.799999237061</ele>
        <time>2023-06-10T08:50:22Z</time>
      </trkpt>
      <trkpt lat="43.49783" lon="-1.47971">
        <ele>18.60000038147</ele>
        <time>2023-06-10T08:50:35Z</time>
      </trkpt>
      <trkpt lat="43.49803" lon="-1.48026">
        <ele>18.39999961853</ele>
        <time>2023-06-10T08:50:47Z</time>
      </trkpt>
      <trkpt lat="43.49822" lon="-1.48075">
        <ele>18.39999961853</ele>
        <time>2023-06-10T08:50:58Z</time>
      </trkpt>
      <trkpt lat="43.49844" lon="-1.48124">
        <ele>18.200000762939</ele>
        <time>2023-06-10T08:51:09Z</time>
      </trkpt>
      <trkpt lat="43.4987" lon="-1.48179">
        <ele>18</ele>
        <time>2023-06-10T08:51:21Z</time>
      </trkpt>
      <trkpt lat="43.49879" lon="-1.48195">
        <ele>17.799999237061</ele>
        <time>2023-06-10T08:51:24Z</time>
      </trkpt>
      <trkpt lat="43.49885" lon="-1.48205">
        <ele>17.39999961853</ele>
        <time>2023-06-10T08:51:26Z</time>
      </trkpt>
      <trkpt lat="43.49899" lon="-1.48228">
        <ele>17.200000762939</ele>
        <time>2023-06-10T08:51:32Z</time>
      </trkpt>
      <trkpt lat="43.49902" lon="-1.48228">
        <ele>17.200000762939</ele>
        <time>2023-06-10T08:51:33Z</time>
      </trkpt>
      <trkpt lat="43.49905" lon="-1.48226">
        <ele>17.200000762939</ele>
        <time>2023-06-10T08:51:34Z</time>
      </trkpt>
      <trkpt lat="43.49938" lon="-1.48205">
        <ele>17.799999237061</ele>
        <time>2023-06-10T08:51:45Z</time>
      </trkpt>
      <trkpt lat="43.4994" lon="-1.48203">
        <ele>17.799999237061</ele>
        <time>2023-06-10T08:51:46Z</time>
      </trkpt>
      <trkpt lat="43.49942" lon="-1.48201">
        <ele>17.60000038147</ele>
        <time>2023-06-10T08:51:47Z</time>
      </trkpt>
      <trkpt lat="43.49943" lon="-1.48198">
        <ele>17.60000038147</ele>
        <time>2023-06-10T08:51:48Z</time>
      </trkpt>
      <trkpt lat="43.49943" lon="-1.48196">
        <ele>17.60000038147</ele>
        <time>2023-06-10T08:51:49Z</time>
      </trkpt>
      <trkpt lat="43.49943" lon="-1.48194">
        <ele>17.60000038147</ele>
        <time>2023-06-10T08:51:50Z</time>
      </trkpt>
      <trkpt lat="43.49943" lon="-1.48192">
        <ele>17.799999237061</ele>
        <time>2023-06-10T08:51:51Z</time>
      </trkpt>
      <trkpt lat="43.49944" lon="-1.48186">
        <ele>18.200000762939</ele>
        <time>2023-06-10T08:51:56Z</time>
      </trkpt>
      <trkpt lat="43.49944" lon="-1.48184">
        <ele>18.39999961853</ele>
        <time>2023-06-10T08:51:57Z</time>
      </trkpt>
      <trkpt lat="43.49945" lon="-1.48182">
        <ele>18.39999961853</ele>
        <time>2023-06-10T08:51:58Z</time>
      </trkpt>
      <trkpt lat="43.49945" lon="-1.48179">
        <ele>18.60000038147</ele>
        <time>2023-06-10T08:51:59Z</time>
      </trkpt>
      <trkpt lat="43.49945" lon="-1.48176">
        <ele>18.60000038147</ele>
        <time>2023-06-10T08:52:00Z</time>
      </trkpt>
      <trkpt lat="43.49944" lon="-1.48173">
        <ele>18.60000038147</ele>
        <time>2023-06-10T08:52:01Z</time>
      </trkpt>
      <trkpt lat="43.49943" lon="-1.48156">
        <ele>18.60000038147</ele>
        <time>2023-06-10T08:52:07Z</time>
      </trkpt>
      <trkpt lat="43.49946" lon="-1.48129">
        <ele>18.39999961853</ele>
        <time>2023-06-10T08:52:13Z</time>
      </trkpt>
      <trkpt lat="43.49961" lon="-1.48098">
        <ele>18.200000762939</ele>
        <time>2023-06-10T08:52:21Z</time>
      </trkpt>
      <trkpt lat="43.49973" lon="-1.48071">
        <ele>18.60000038147</ele>
        <time>2023-06-10T08:52:29Z</time>
      </trkpt>
      <trkpt lat="43.49985" lon="-1.4805">
        <ele>19.60000038147</ele>
        <time>2023-06-10T08:52:36Z</time>
      </trkpt>
      <trkpt lat="43.50001" lon="-1.48032">
        <ele>20.60000038147</ele>
        <time>2023-06-10T08:52:44Z</time>
      </trkpt>
      <trkpt lat="43.5002" lon="-1.48012">
        <ele>22</ele>
        <time>2023-06-10T08:52:54Z</time>
      </trkpt>
      <trkpt lat="43.50038" lon="-1.47997">
        <ele>22.799999237061</ele>
        <time>2023-06-10T08:53:03Z</time>
      </trkpt>
      <trkpt lat="43.50064" lon="-1.47972">
        <ele>23.60000038147</ele>
        <time>2023-06-10T08:53:15Z</time>
      </trkpt>
      <trkpt lat="43.50091" lon="-1.47947">
        <ele>23.799999237061</ele>
        <time>2023-06-10T08:53:26Z</time>
      </trkpt>
      <trkpt lat="43.50112" lon="-1.47928">
        <ele>23.39999961853</ele>
        <time>2023-06-10T08:53:33Z</time>
      </trkpt>
      <trkpt lat="43.50144" lon="-1.47905">
        <ele>22.60000038147</ele>
        <time>2023-06-10T08:53:42Z</time>
      </trkpt>
      <trkpt lat="43.50171" lon="-1.47892">
        <ele>22</ele>
        <time>2023-06-10T08:53:51Z</time>
      </trkpt>
      <trkpt lat="43.50179" lon="-1.47894">
        <ele>22</ele>
        <time>2023-06-10T08:53:55Z</time>
      </trkpt>
      <trkpt lat="43.50179" lon="-1.47896">
        <ele>22</ele>
        <time>2023-06-10T08:53:56Z</time>
      </trkpt>
      <trkpt lat="43.50179" lon="-1.479">
        <ele>22</ele>
        <time>2023-06-10T08:53:57Z</time>
      </trkpt>
      <trkpt lat="43.50178" lon="-1.47904">
        <ele>22</ele>
        <time>2023-06-10T08:53:58Z</time>
      </trkpt>
      <trkpt lat="43.50175" lon="-1.47909">
        <ele>22</ele>
        <time>2023-06-10T08:53:59Z</time>
      </trkpt>
      <trkpt lat="43.50172" lon="-1.47913">
        <ele>22</ele>
        <time>2023-06-10T08:54:00Z</time>
      </trkpt>
      <trkpt lat="43.50169" lon="-1.47917">
        <ele>22</ele>
        <time>2023-06-10T08:54:01Z</time>
      </trkpt>
      <trkpt lat="43.50165" lon="-1.4792">
        <ele>21.799999237061</ele>
        <time>2023-06-10T08:54:02Z</time>
      </trkpt>
      <trkpt lat="43.50161" lon="-1.47924">
        <ele>21.60000038147</ele>
        <time>2023-06-10T08:54:03Z</time>
      </trkpt>
      <trkpt lat="43.50158" lon="-1.47926">
        <ele>21.39999961853</ele>
        <time>2023-06-10T08:54:04Z</time>
      </trkpt>
      <trkpt lat="43.50154" lon="-1.47928">
        <ele>21.200000762939</ele>
        <time>2023-06-10T08:54:05Z</time>
      </trkpt>
      <trkpt lat="43.5015" lon="-1.4793">
        <ele>21</ele>
        <time>2023-06-10T08:54:06Z</time>
      </trkpt>
      <trkpt lat="43.50136" lon="-1.47938">
        <ele>20.200000762939</ele>
        <time>2023-06-10T08:54:09Z</time>
      </trkpt>
      <trkpt lat="43.50131" lon="-1.47942">
        <ele>20</ele>
        <time>2023-06-10T08:54:10Z</time>
      </trkpt>
      <trkpt lat="43.50114" lon="-1.47958">
        <ele>18.799999237061</ele>
        <time>2023-06-10T08:54:14Z</time>
      </trkpt>
      <trkpt lat="43.50099" lon="-1.4798">
        <ele>17.200000762939</ele>
        <time>2023-06-10T08:54:21Z</time>
      </trkpt>
      <trkpt lat="43.50098" lon="-1.47982">
        <ele>17.200000762939</ele>
        <time>2023-06-10T08:54:22Z</time>
      </trkpt>
      <trkpt lat="43.50098" lon="-1.47985">
        <ele>17</ele>
        <time>2023-06-10T08:54:23Z</time>
      </trkpt>
      <trkpt lat="43.50099" lon="-1.47988">
        <ele>17</ele>
        <time>2023-06-10T08:54:24Z</time>
      </trkpt>
      <trkpt lat="43.50116" lon="-1.48009">
        <ele>16.60000038147</ele>
        <time>2023-06-10T08:54:32Z</time>
      </trkpt>
      <trkpt lat="43.5014" lon="-1.48039">
        <ele>16.39999961853</ele>
        <time>2023-06-10T08:54:41Z</time>
      </trkpt>
      <trkpt lat="43.50174" lon="-1.48087">
        <ele>16.200000762939</ele>
        <time>2023-06-10T08:54:54Z</time>
      </trkpt>
      <trkpt lat="43.50188" lon="-1.48096">
        <ele>16.200000762939</ele>
        <time>2023-06-10T08:55:00Z</time>
      </trkpt>
      <trkpt lat="43.50201" lon="-1.48104">
        <ele>16.39999961853</ele>
        <time>2023-06-10T08:55:08Z</time>
      </trkpt>
      <trkpt lat="43.50202" lon="-1.48108">
        <ele>16.39999961853</ele>
        <time>2023-06-10T08:55:09Z</time>
      </trkpt>
      <trkpt lat="43.50212" lon="-1.48134">
        <ele>16.39999961853</ele>
        <time>2023-06-10T08:55:15Z</time>
      </trkpt>
      <trkpt lat="43.50236" lon="-1.48172">
        <ele>16</ele>
        <time>2023-06-10T08:55:24Z</time>
      </trkpt>
      <trkpt lat="43.50277" lon="-1.48228">
        <ele>15.800000190735</ele>
        <time>2023-06-10T08:55:38Z</time>
      </trkpt>
      <trkpt lat="43.50312" lon="-1.48277">
        <ele>15.60000038147</ele>
        <time>2023-06-10T08:55:51Z</time>
      </trkpt>
      <trkpt lat="43.50343" lon="-1.48317">
        <ele>15.800000190735</ele>
        <time>2023-06-10T08:56:02Z</time>
      </trkpt>
      <trkpt lat="43.50368" lon="-1.48347">
        <ele>15.800000190735</ele>
        <time>2023-06-10T08:56:11Z</time>
      </trkpt>
      <trkpt lat="43.5039" lon="-1.48376">
        <ele>15.800000190735</ele>
        <time>2023-06-10T08:56:19Z</time>
      </trkpt>
      <trkpt lat="43.50419" lon="-1.4841">
        <ele>15.800000190735</ele>
        <time>2023-06-10T08:56:29Z</time>
      </trkpt>
      <trkpt lat="43.5045" lon="-1.48442">
        <ele>15.800000190735</ele>
        <time>2023-06-10T08:56:39Z</time>
      </trkpt>
      <trkpt lat="43.50478" lon="-1.48466">
        <ele>15.800000190735</ele>
        <time>2023-06-10T08:56:48Z</time>
      </trkpt>
      <trkpt lat="43.50529" lon="-1.48504">
        <ele>15.60000038147</ele>
        <time>2023-06-10T08:57:03Z</time>
      </trkpt>
      <trkpt lat="43.5058" lon="-1.48533">
        <ele>15.39999961853</ele>
        <time>2023-06-10T08:57:17Z</time>
      </trkpt>
      <trkpt lat="43.50624" lon="-1.48554">
        <ele>15.39999961853</ele>
        <time>2023-06-10T08:57:29Z</time>
      </trkpt>
      <trkpt lat="43.50665" lon="-1.4857">
        <ele>15.39999961853</ele>
        <time>2023-06-10T08:57:41Z</time>
      </trkpt>
      <trkpt lat="43.50687" lon="-1.48582">
        <ele>15.60000038147</ele>
        <time>2023-06-10T08:57:48Z</time>
      </trkpt>
      <trkpt lat="43.50711" lon="-1.48592">
        <ele>15.60000038147</ele>
        <time>2023-06-10T08:57:55Z</time>
      </trkpt>
      <trkpt lat="43.50738" lon="-1.48599">
        <ele>15.800000190735</ele>
        <time>2023-06-10T08:58:03Z</time>
      </trkpt>
      <trkpt lat="43.50761" lon="-1.48614">
        <ele>15.800000190735</ele>
        <time>2023-06-10T08:58:10Z</time>
      </trkpt>
      <trkpt lat="43.50805" lon="-1.48633">
        <ele>15.60000038147</ele>
        <time>2023-06-10T08:58:22Z</time>
      </trkpt>
      <trkpt lat="43.50822" lon="-1.48642">
        <ele>15.39999961853</ele>
        <time>2023-06-10T08:58:29Z</time>
      </trkpt>
      <trkpt lat="43.50827" lon="-1.48643">
        <ele>15.39999961853</ele>
        <time>2023-06-10T08:58:35Z</time>
      </trkpt>
      <trkpt lat="43.50847" lon="-1.48651">
        <ele>15.199999809265</ele>
        <time>2023-06-10T08:58:42Z</time>
      </trkpt>
      <trkpt lat="43.5088" lon="-1.48666">
        <ele>15.39999961853</ele>
        <time>2023-06-10T08:58:52Z</time>
      </trkpt>
      <trkpt lat="43.50919" lon="-1.48682">
        <ele>15.199999809265</ele>
        <time>2023-06-10T08:59:03Z</time>
      </trkpt>
      <trkpt lat="43.50956" lon="-1.48696">
        <ele>15.39999961853</ele>
        <time>2023-06-10T08:59:13Z</time>
      </trkpt>
      <trkpt lat="43.50997" lon="-1.48708">
        <ele>15.199999809265</ele>
        <time>2023-06-10T08:59:24Z</time>
      </trkpt>
      <trkpt lat="43.51035" lon="-1.48717">
        <ele>15.199999809265</ele>
        <time>2023-06-10T08:59:34Z</time>
      </trkpt>
      <trkpt lat="43.5107" lon="-1.48721">
        <ele>15.199999809265</ele>
        <time>2023-06-10T08:59:44Z</time>
      </trkpt>
      <trkpt lat="43.51101" lon="-1.48724">
        <ele>15.199999809265</ele>
        <time>2023-06-10T08:59:53Z</time>
      </trkpt>
      <trkpt lat="43.51129" lon="-1.48716">
        <ele>15</ele>
        <time>2023-06-10T09:00:01Z</time>
      </trkpt>
      <trkpt lat="43.51147" lon="-1.48714">
        <ele>15</ele>
        <time>2023-06-10T09:00:09Z</time>
      </trkpt>
      <trkpt lat="43.51165" lon="-1.48714">
        <ele>15</ele>
        <time>2023-06-10T09:00:16Z</time>
      </trkpt>
      <trkpt lat="43.51188" lon="-1.48723">
        <ele>15.199999809265</ele>
        <time>2023-06-10T09:00:24Z</time>
      </trkpt>
      <trkpt lat="43.51213" lon="-1.4872">
        <ele>15.60000038147</ele>
        <time>2023-06-10T09:00:31Z</time>
      </trkpt>
      <trkpt lat="43.51242" lon="-1.48716">
        <ele>15.800000190735</ele>
        <time>2023-06-10T09:00:39Z</time>
      </trkpt>
      <trkpt lat="43.5127" lon="-1.48713">
        <ele>15.60000038147</ele>
        <time>2023-06-10T09:00:47Z</time>
      </trkpt>
      <trkpt lat="43.51306" lon="-1.48706">
        <ele>15.60000038147</ele>
        <time>2023-06-10T09:00:57Z</time>
      </trkpt>
      <trkpt lat="43.51322" lon="-1.48699">
        <ele>15.800000190735</ele>
        <time>2023-06-10T09:01:03Z</time>
      </trkpt>
      <trkpt lat="43.51347" lon="-1.48699">
        <ele>15.60000038147</ele>
        <time>2023-06-10T09:01:11Z</time>
      </trkpt>
      <trkpt lat="43.51366" lon="-1.48696">
        <ele>15.199999809265</ele>
        <time>2023-06-10T09:01:19Z</time>
      </trkpt>
      <trkpt lat="43.51369" lon="-1.48698">
        <ele>15.199999809265</ele>
        <time>2023-06-10T09:01:23Z</time>
      </trkpt>
      <trkpt lat="43.5137" lon="-1.487">
        <ele>15.199999809265</ele>
        <time>2023-06-10T09:01:24Z</time>
      </trkpt>
      <trkpt lat="43.51371" lon="-1.48702">
        <ele>15.199999809265</ele>
        <time>2023-06-10T09:01:25Z</time>
      </trkpt>
      <trkpt lat="43.51372" lon="-1.48704">
        <ele>15.199999809265</ele>
        <time>2023-06-10T09:01:26Z</time>
      </trkpt>
      <trkpt lat="43.51374" lon="-1.48705">
        <ele>15</ele>
        <time>2023-06-10T09:01:27Z</time>
      </trkpt>
      <trkpt lat="43.51376" lon="-1.48704">
        <ele>15</ele>
        <time>2023-06-10T09:01:28Z</time>
      </trkpt>
      <trkpt lat="43.51379" lon="-1.48704">
        <ele>15</ele>
        <time>2023-06-10T09:01:29Z</time>
      </trkpt>
      <trkpt lat="43.51414" lon="-1.48696">
        <ele>15</ele>
        <time>2023-06-10T09:01:39Z</time>
      </trkpt>
      <trkpt lat="43.51461" lon="-1.48687">
        <ele>15</ele>
        <time>2023-06-10T09:01:51Z</time>
      </trkpt>
      <trkpt lat="43.51506" lon="-1.48678">
        <ele>14.800000190735</ele>
        <time>2023-06-10T09:02:02Z</time>
      </trkpt>
      <trkpt lat="43.51562" lon="-1.48667">
        <ele>14.60000038147</ele>
        <time>2023-06-10T09:02:16Z</time>
      </trkpt>
      <trkpt lat="43.51601" lon="-1.4866">
        <ele>14.60000038147</ele>
        <time>2023-06-10T09:02:26Z</time>
      </trkpt>
      <trkpt lat="43.51647" lon="-1.48655">
        <ele>14.800000190735</ele>
        <time>2023-06-10T09:02:38Z</time>
      </trkpt>
      <trkpt lat="43.51695" lon="-1.48652">
        <ele>15.199999809265</ele>
        <time>2023-06-10T09:02:51Z</time>
      </trkpt>
      <trkpt lat="43.51741" lon="-1.48649">
        <ele>15.39999961853</ele>
        <time>2023-06-10T09:03:03Z</time>
      </trkpt>
      <trkpt lat="43.51786" lon="-1.48649">
        <ele>15.39999961853</ele>
        <time>2023-06-10T09:03:15Z</time>
      </trkpt>
      <trkpt lat="43.51826" lon="-1.48651">
        <ele>15</ele>
        <time>2023-06-10T09:03:25Z</time>
      </trkpt>
      <trkpt lat="43.51874" lon="-1.48652">
        <ele>14.60000038147</ele>
        <time>2023-06-10T09:03:37Z</time>
      </trkpt>
      <trkpt lat="43.519" lon="-1.48656">
        <ele>14.39999961853</ele>
        <time>2023-06-10T09:03:44Z</time>
      </trkpt>
      <trkpt lat="43.51902" lon="-1.48658">
        <ele>14.39999961853</ele>
        <time>2023-06-10T09:03:45Z</time>
      </trkpt>
      <trkpt lat="43.51904" lon="-1.48661">
        <ele>14.39999961853</ele>
        <time>2023-06-10T09:03:46Z</time>
      </trkpt>
      <trkpt lat="43.51907" lon="-1.48661">
        <ele>14.39999961853</ele>
        <time>2023-06-10T09:03:47Z</time>
      </trkpt>
      <trkpt lat="43.5191" lon="-1.4866">
        <ele>14.39999961853</ele>
        <time>2023-06-10T09:03:48Z</time>
      </trkpt>
      <trkpt lat="43.51912" lon="-1.48658">
        <ele>14.39999961853</ele>
        <time>2023-06-10T09:03:49Z</time>
      </trkpt>
      <trkpt lat="43.51913" lon="-1.48655">
        <ele>14.199999809265</ele>
        <time>2023-06-10T09:03:50Z</time>
      </trkpt>
      <trkpt lat="43.51914" lon="-1.48654">
        <ele>14.199999809265</ele>
        <time>2023-06-10T09:03:51Z</time>
      </trkpt>
      <trkpt lat="43.51915" lon="-1.48648">
        <ele>14</ele>
        <time>2023-06-10T09:03:54Z</time>
      </trkpt>
      <trkpt lat="43.51919" lon="-1.48646">
        <ele>14</ele>
        <time>2023-06-10T09:03:56Z</time>
      </trkpt>
      <trkpt lat="43.5194" lon="-1.48651">
        <ele>14</ele>
        <time>2023-06-10T09:04:03Z</time>
      </trkpt>
      <trkpt lat="43.51975" lon="-1.48673">
        <ele>14.199999809265</ele>
        <time>2023-06-10T09:04:14Z</time>
      </trkpt>
      <trkpt lat="43.52018" lon="-1.48698">
        <ele>14.199999809265</ele>
        <time>2023-06-10T09:04:27Z</time>
      </trkpt>
      <trkpt lat="43.5206" lon="-1.48725">
        <ele>14.199999809265</ele>
        <time>2023-06-10T09:04:39Z</time>
      </trkpt>
      <trkpt lat="43.52108" lon="-1.48751">
        <ele>14.199999809265</ele>
        <time>2023-06-10T09:04:52Z</time>
      </trkpt>
      <trkpt lat="43.52146" lon="-1.48777">
        <ele>14.199999809265</ele>
        <time>2023-06-10T09:05:03Z</time>
      </trkpt>
      <trkpt lat="43.52166" lon="-1.48816">
        <ele>14.199999809265</ele>
        <time>2023-06-10T09:05:12Z</time>
      </trkpt>
      <trkpt lat="43.52187" lon="-1.48862">
        <ele>14.199999809265</ele>
        <time>2023-06-10T09:05:23Z</time>
      </trkpt>
      <trkpt lat="43.52207" lon="-1.48892">
        <ele>14.60000038147</ele>
        <time>2023-06-10T09:05:31Z</time>
      </trkpt>
      <trkpt lat="43.52237" lon="-1.48918">
        <ele>14.800000190735</ele>
        <time>2023-06-10T09:05:40Z</time>
      </trkpt>
      <trkpt lat="43.52274" lon="-1.48936">
        <ele>14.800000190735</ele>
        <time>2023-06-10T09:05:50Z</time>
      </trkpt>
      <trkpt lat="43.52299" lon="-1.4896">
        <ele>14.800000190735</ele>
        <time>2023-06-10T09:05:58Z</time>
      </trkpt>
      <trkpt lat="43.52338" lon="-1.48996">
        <ele>14.60000038147</ele>
        <time>2023-06-10T09:06:10Z</time>
      </trkpt>
      <trkpt lat="43.52356" lon="-1.49021">
        <ele>14.60000038147</ele>
        <time>2023-06-10T09:06:17Z</time>
      </trkpt>
      <trkpt lat="43.52384" lon="-1.49066">
        <ele>14.39999961853</ele>
        <time>2023-06-10T09:06:28Z</time>
      </trkpt>
      <trkpt lat="43.52402" lon="-1.49103">
        <ele>14.39999961853</ele>
        <time>2023-06-10T09:06:36Z</time>
      </trkpt>
      <trkpt lat="43.52405" lon="-1.49107">
        <ele>14.39999961853</ele>
        <time>2023-06-10T09:06:37Z</time>
      </trkpt>
      <trkpt lat="43.52409" lon="-1.4911">
        <ele>14.39999961853</ele>
        <time>2023-06-10T09:06:38Z</time>
      </trkpt>
      <trkpt lat="43.52413" lon="-1.49113">
        <ele>14.39999961853</ele>
        <time>2023-06-10T09:06:39Z</time>
      </trkpt>
      <trkpt lat="43.52417" lon="-1.49115">
        <ele>14.199999809265</ele>
        <time>2023-06-10T09:06:40Z</time>
      </trkpt>
      <trkpt lat="43.52421" lon="-1.49116">
        <ele>14.199999809265</ele>
        <time>2023-06-10T09:06:41Z</time>
      </trkpt>
      <trkpt lat="43.52424" lon="-1.49117">
        <ele>14.199999809265</ele>
        <time>2023-06-10T09:06:42Z</time>
      </trkpt>
      <trkpt lat="43.52467" lon="-1.49134">
        <ele>13.800000190735</ele>
        <time>2023-06-10T09:06:53Z</time>
      </trkpt>
      <trkpt lat="43.5249" lon="-1.49151">
        <ele>13.39999961853</ele>
        <time>2023-06-10T09:06:59Z</time>
      </trkpt>
      <trkpt lat="43.52494" lon="-1.49152">
        <ele>13.39999961853</ele>
        <time>2023-06-10T09:07:00Z</time>
      </trkpt>
      <trkpt lat="43.52502" lon="-1.49155">
        <ele>13.39999961853</ele>
        <time>2023-06-10T09:07:02Z</time>
      </trkpt>
      <trkpt lat="43.52507" lon="-1.49155">
        <ele>13.39999961853</ele>
        <time>2023-06-10T09:07:03Z</time>
      </trkpt>
      <trkpt lat="43.52511" lon="-1.49154">
        <ele>13.39999961853</ele>
        <time>2023-06-10T09:07:04Z</time>
      </trkpt>
      <trkpt lat="43.52515" lon="-1.49153">
        <ele>13.199999809265</ele>
        <time>2023-06-10T09:07:05Z</time>
      </trkpt>
      <trkpt lat="43.52519" lon="-1.49151">
        <ele>13.199999809265</ele>
        <time>2023-06-10T09:07:06Z</time>
      </trkpt>
      <trkpt lat="43.52522" lon="-1.49149">
        <ele>13.199999809265</ele>
        <time>2023-06-10T09:07:07Z</time>
      </trkpt>
      <trkpt lat="43.52526" lon="-1.49146">
        <ele>13.199999809265</ele>
        <time>2023-06-10T09:07:08Z</time>
      </trkpt>
      <trkpt lat="43.5255" lon="-1.49127">
        <ele>13.199999809265</ele>
        <time>2023-06-10T09:07:15Z</time>
      </trkpt>
      <trkpt lat="43.52578" lon="-1.49119">
        <ele>13.39999961853</ele>
        <time>2023-06-10T09:07:23Z</time>
      </trkpt>
      <trkpt lat="43.52619" lon="-1.49113">
        <ele>13.60000038147</ele>
        <time>2023-06-10T09:07:34Z</time>
      </trkpt>
      <trkpt lat="43.52623" lon="-1.49112">
        <ele>13.60000038147</ele>
        <time>2023-06-10T09:07:35Z</time>
      </trkpt>
      <trkpt lat="43.52627" lon="-1.49112">
        <ele>13.60000038147</ele>
        <time>2023-06-10T09:07:36Z</time>
      </trkpt>
      <trkpt lat="43.52653" lon="-1.49109">
        <ele>13.39999961853</ele>
        <time>2023-06-10T09:07:43Z</time>
      </trkpt>
      <trkpt lat="43.52685" lon="-1.49094">
        <ele>13.800000190735</ele>
        <time>2023-06-10T09:07:52Z</time>
      </trkpt>
      <trkpt lat="43.52706" lon="-1.49088">
        <ele>14</ele>
        <time>2023-06-10T09:07:58Z</time>
      </trkpt>
      <trkpt lat="43.5273" lon="-1.49095">
        <ele>14.199999809265</ele>
        <time>2023-06-10T09:08:05Z</time>
      </trkpt>
      <trkpt lat="43.52765" lon="-1.491">
        <ele>14.800000190735</ele>
        <time>2023-06-10T09:08:16Z</time>
      </trkpt>
      <trkpt lat="43.52795" lon="-1.49102">
        <ele>15.199999809265</ele>
        <time>2023-06-10T09:08:25Z</time>
      </trkpt>
      <trkpt lat="43.52808" lon="-1.49107">
        <ele>15.39999961853</ele>
        <time>2023-06-10T09:08:29Z</time>
      </trkpt>
      <trkpt lat="43.5281" lon="-1.4911">
        <ele>15.39999961853</ele>
        <time>2023-06-10T09:08:30Z</time>
      </trkpt>
      <trkpt lat="43.52816" lon="-1.49136">
        <ele>15.39999961853</ele>
        <time>2023-06-10T09:08:36Z</time>
      </trkpt>
      <trkpt lat="43.52819" lon="-1.49163">
        <ele>15</ele>
        <time>2023-06-10T09:08:42Z</time>
      </trkpt>
      <trkpt lat="43.52827" lon="-1.49199">
        <ele>14.800000190735</ele>
        <time>2023-06-10T09:08:50Z</time>
      </trkpt>
      <trkpt lat="43.5283" lon="-1.492">
        <ele>14.60000038147</ele>
        <time>2023-06-10T09:08:51Z</time>
      </trkpt>
      <trkpt lat="43.52834" lon="-1.492">
        <ele>14.60000038147</ele>
        <time>2023-06-10T09:08:52Z</time>
      </trkpt>
      <trkpt lat="43.52837" lon="-1.49199">
        <ele>14.60000038147</ele>
        <time>2023-06-10T09:08:53Z</time>
      </trkpt>
      <trkpt lat="43.52841" lon="-1.49199">
        <ele>14.60000038147</ele>
        <time>2023-06-10T09:08:54Z</time>
      </trkpt>
      <trkpt lat="43.52891" lon="-1.49193">
        <ele>13.800000190735</ele>
        <time>2023-06-10T09:09:08Z</time>
      </trkpt>
      <trkpt lat="43.52933" lon="-1.49205">
        <ele>13.60000038147</ele>
        <time>2023-06-10T09:09:20Z</time>
      </trkpt>
      <trkpt lat="43.5297" lon="-1.49214">
        <ele>13.60000038147</ele>
        <time>2023-06-10T09:09:31Z</time>
      </trkpt>
      <trkpt lat="43.52996" lon="-1.49216">
        <ele>13.60000038147</ele>
        <time>2023-06-10T09:09:39Z</time>
      </trkpt>
      <trkpt lat="43.53029" lon="-1.49208">
        <ele>13.800000190735</ele>
        <time>2023-06-10T09:09:49Z</time>
      </trkpt>
      <trkpt lat="43.53048" lon="-1.49199">
        <ele>14.199999809265</ele>
        <time>2023-06-10T09:09:57Z</time>
      </trkpt>
      <trkpt lat="43.53064" lon="-1.49177">
        <ele>15</ele>
        <time>2023-06-10T09:10:04Z</time>
      </trkpt>
      <trkpt lat="43.53071" lon="-1.49169">
        <ele>15.39999961853</ele>
        <time>2023-06-10T09:10:09Z</time>
      </trkpt>
      <trkpt lat="43.53077" lon="-1.49158">
        <ele>15.800000190735</ele>
        <time>2023-06-10T09:10:17Z</time>
      </trkpt>
      <trkpt lat="43.53089" lon="-1.49135">
        <ele>16</ele>
        <time>2023-06-10T09:10:25Z</time>
      </trkpt>
      <trkpt lat="43.53103" lon="-1.49131">
        <ele>16.39999961853</ele>
        <time>2023-06-10T09:10:30Z</time>
      </trkpt>
      <trkpt lat="43.53127" lon="-1.4914">
        <ele>17.200000762939</ele>
        <time>2023-06-10T09:10:39Z</time>
      </trkpt>
      <trkpt lat="43.5314" lon="-1.49161">
        <ele>18.200000762939</ele>
        <time>2023-06-10T09:10:46Z</time>
      </trkpt>
      <trkpt lat="43.5315" lon="-1.4918">
        <ele>19.39999961853</ele>
        <time>2023-06-10T09:10:53Z</time>
      </trkpt>
      <trkpt lat="43.53158" lon="-1.49207">
        <ele>20.39999961853</ele>
        <time>2023-06-10T09:11:00Z</time>
      </trkpt>
      <trkpt lat="43.53161" lon="-1.49213">
        <ele>20.39999961853</ele>
        <time>2023-06-10T09:11:01Z</time>
      </trkpt>
      <trkpt lat="43.53166" lon="-1.49218">
        <ele>20.39999961853</ele>
        <time>2023-06-10T09:11:02Z</time>
      </trkpt>
      <trkpt lat="43.53171" lon="-1.49221">
        <ele>20.39999961853</ele>
        <time>2023-06-10T09:11:03Z</time>
      </trkpt>
      <trkpt lat="43.53176" lon="-1.49224">
        <ele>20.200000762939</ele>
        <time>2023-06-10T09:11:04Z</time>
      </trkpt>
      <trkpt lat="43.53182" lon="-1.49225">
        <ele>20</ele>
        <time>2023-06-10T09:11:05Z</time>
      </trkpt>
      <trkpt lat="43.53201" lon="-1.49229">
        <ele>19.39999961853</ele>
        <time>2023-06-10T09:11:08Z</time>
      </trkpt>
      <trkpt lat="43.53212" lon="-1.49229">
        <ele>18.799999237061</ele>
        <time>2023-06-10T09:11:10Z</time>
      </trkpt>
      <trkpt lat="43.53248" lon="-1.49232">
        <ele>17.39999961853</ele>
        <time>2023-06-10T09:11:17Z</time>
      </trkpt>
      <trkpt lat="43.53252" lon="-1.49234">
        <ele>17.200000762939</ele>
        <time>2023-06-10T09:11:18Z</time>
      </trkpt>
      <trkpt lat="43.53255" lon="-1.49237">
        <ele>17.200000762939</ele>
        <time>2023-06-10T09:11:19Z</time>
      </trkpt>
      <trkpt lat="43.53258" lon="-1.49241">
        <ele>17</ele>
        <time>2023-06-10T09:11:20Z</time>
      </trkpt>
      <trkpt lat="43.5326" lon="-1.49245">
        <ele>17</ele>
        <time>2023-06-10T09:11:21Z</time>
      </trkpt>
      <trkpt lat="43.53262" lon="-1.4925">
        <ele>16.799999237061</ele>
        <time>2023-06-10T09:11:22Z</time>
      </trkpt>
      <trkpt lat="43.53275" lon="-1.49274">
        <ele>16.799999237061</ele>
        <time>2023-06-10T09:11:28Z</time>
      </trkpt>
      <trkpt lat="43.53279" lon="-1.49274">
        <ele>16.799999237061</ele>
        <time>2023-06-10T09:11:29Z</time>
      </trkpt>
      <trkpt lat="43.53282" lon="-1.49273">
        <ele>16.799999237061</ele>
        <time>2023-06-10T09:11:30Z</time>
      </trkpt>
      <trkpt lat="43.53286" lon="-1.49273">
        <ele>16.799999237061</ele>
        <time>2023-06-10T09:11:31Z</time>
      </trkpt>
      <trkpt lat="43.53289" lon="-1.49272">
        <ele>16.799999237061</ele>
        <time>2023-06-10T09:11:32Z</time>
      </trkpt>
      <trkpt lat="43.53293" lon="-1.4927">
        <ele>16.799999237061</ele>
        <time>2023-06-10T09:11:33Z</time>
      </trkpt>
      <trkpt lat="43.53296" lon="-1.49267">
        <ele>16.799999237061</ele>
        <time>2023-06-10T09:11:34Z</time>
      </trkpt>
      <trkpt lat="43.53299" lon="-1.49264">
        <ele>16.60000038147</ele>
        <time>2023-06-10T09:11:35Z</time>
      </trkpt>
      <trkpt lat="43.53301" lon="-1.49261">
        <ele>16.60000038147</ele>
        <time>2023-06-10T09:11:36Z</time>
      </trkpt>
      <trkpt lat="43.53304" lon="-1.49257">
        <ele>16.39999961853</ele>
        <time>2023-06-10T09:11:37Z</time>
      </trkpt>
      <trkpt lat="43.53337" lon="-1.49221">
        <ele>15.39999961853</ele>
        <time>2023-06-10T09:11:46Z</time>
      </trkpt>
      <trkpt lat="43.53393" lon="-1.49169">
        <ele>14.199999809265</ele>
        <time>2023-06-10T09:11:59Z</time>
      </trkpt>
      <trkpt lat="43.53434" lon="-1.49129">
        <ele>13.60000038147</ele>
        <time>2023-06-10T09:12:11Z</time>
      </trkpt>
      <trkpt lat="43.5348" lon="-1.49085">
        <ele>13.60000038147</ele>
        <time>2023-06-10T09:12:25Z</time>
      </trkpt>
      <trkpt lat="43.53521" lon="-1.49045">
        <ele>13.39999961853</ele>
        <time>2023-06-10T09:12:38Z</time>
      </trkpt>
      <trkpt lat="43.53562" lon="-1.49007">
        <ele>13.199999809265</ele>
        <time>2023-06-10T09:12:51Z</time>
      </trkpt>
      <trkpt lat="43.53587" lon="-1.48983">
        <ele>13.199999809265</ele>
        <time>2023-06-10T09:12:59Z</time>
      </trkpt>
      <trkpt lat="43.53603" lon="-1.48976">
        <ele>13.199999809265</ele>
        <time>2023-06-10T09:13:04Z</time>
      </trkpt>
      <trkpt lat="43.53623" lon="-1.48969">
        <ele>13</ele>
        <time>2023-06-10T09:13:10Z</time>
      </trkpt>
      <trkpt lat="43.53655" lon="-1.48939">
        <ele>13.199999809265</ele>
        <time>2023-06-10T09:13:21Z</time>
      </trkpt>
      <trkpt lat="43.53657" lon="-1.48939">
        <ele>13.199999809265</ele>
        <time>2023-06-10T09:13:22Z</time>
      </trkpt>
      <trkpt lat="43.5366" lon="-1.4894">
        <ele>13.199999809265</ele>
        <time>2023-06-10T09:13:23Z</time>
      </trkpt>
      <trkpt lat="43.53663" lon="-1.48942">
        <ele>13.199999809265</ele>
        <time>2023-06-10T09:13:24Z</time>
      </trkpt>
      <trkpt lat="43.53666" lon="-1.48946">
        <ele>13.199999809265</ele>
        <time>2023-06-10T09:13:25Z</time>
      </trkpt>
      <trkpt lat="43.53669" lon="-1.48949">
        <ele>13.199999809265</ele>
        <time>2023-06-10T09:13:26Z</time>
      </trkpt>
      <trkpt lat="43.53671" lon="-1.48954">
        <ele>13.199999809265</ele>
        <time>2023-06-10T09:13:27Z</time>
      </trkpt>
      <trkpt lat="43.53691" lon="-1.48996">
        <ele>13.39999961853</ele>
        <time>2023-06-10T09:13:37Z</time>
      </trkpt>
      <trkpt lat="43.53709" lon="-1.49027">
        <ele>13.60000038147</ele>
        <time>2023-06-10T09:13:46Z</time>
      </trkpt>
      <trkpt lat="43.53729" lon="-1.49024">
        <ele>13.60000038147</ele>
        <time>2023-06-10T09:13:52Z</time>
      </trkpt>
      <trkpt lat="43.53758" lon="-1.48999">
        <ele>13.39999961853</ele>
        <time>2023-06-10T09:14:01Z</time>
      </trkpt>
      <trkpt lat="43.5379" lon="-1.48968">
        <ele>13.39999961853</ele>
        <time>2023-06-10T09:14:11Z</time>
      </trkpt>
      <trkpt lat="43.53834" lon="-1.48928">
        <ele>13.199999809265</ele>
        <time>2023-06-10T09:14:25Z</time>
      </trkpt>
      <trkpt lat="43.53871" lon="-1.48892">
        <ele>13</ele>
        <time>2023-06-10T09:14:37Z</time>
      </trkpt>
      <trkpt lat="43.53908" lon="-1.48856">
        <ele>13</ele>
        <time>2023-06-10T09:14:49Z</time>
      </trkpt>
      <trkpt lat="43.5394" lon="-1.48828">
        <ele>12.800000190735</ele>
        <time>2023-06-10T09:14:59Z</time>
      </trkpt>
      <trkpt lat="43.53947" lon="-1.48804">
        <ele>12.800000190735</ele>
        <time>2023-06-10T09:15:04Z</time>
      </trkpt>
      <trkpt lat="43.53938" lon="-1.48782">
        <ele>12.60000038147</ele>
        <time>2023-06-10T09:15:09Z</time>
      </trkpt>
      <trkpt lat="43.53917" lon="-1.48748">
        <ele>12.60000038147</ele>
        <time>2023-06-10T09:15:18Z</time>
      </trkpt>
      <trkpt lat="43.53917" lon="-1.48743">
        <ele>12.60000038147</ele>
        <time>2023-06-10T09:15:19Z</time>
      </trkpt>
      <trkpt lat="43.53918" lon="-1.48739">
        <ele>12.800000190735</ele>
        <time>2023-06-10T09:15:20Z</time>
      </trkpt>
      <trkpt lat="43.53921" lon="-1.48735">
        <ele>12.800000190735</ele>
        <time>2023-06-10T09:15:21Z</time>
      </trkpt>
      <trkpt lat="43.53924" lon="-1.48733">
        <ele>12.800000190735</ele>
        <time>2023-06-10T09:15:22Z</time>
      </trkpt>
      <trkpt lat="43.53928" lon="-1.48731">
        <ele>12.800000190735</ele>
        <time>2023-06-10T09:15:23Z</time>
      </trkpt>
      <trkpt lat="43.53932" lon="-1.48728">
        <ele>12.800000190735</ele>
        <time>2023-06-10T09:15:24Z</time>
      </trkpt>
      <trkpt lat="43.53935" lon="-1.48725">
        <ele>13</ele>
        <time>2023-06-10T09:15:25Z</time>
      </trkpt>
      <trkpt lat="43.53938" lon="-1.48722">
        <ele>13</ele>
        <time>2023-06-10T09:15:26Z</time>
      </trkpt>
      <trkpt lat="43.53966" lon="-1.48695">
        <ele>12.800000190735</ele>
        <time>2023-06-10T09:15:35Z</time>
      </trkpt>
      <trkpt lat="43.54011" lon="-1.48651">
        <ele>12.800000190735</ele>
        <time>2023-06-10T09:15:49Z</time>
      </trkpt>
      <trkpt lat="43.54044" lon="-1.48619">
        <ele>13</ele>
        <time>2023-06-10T09:15:59Z</time>
      </trkpt>
      <trkpt lat="43.54084" lon="-1.48582">
        <ele>12.60000038147</ele>
        <time>2023-06-10T09:16:11Z</time>
      </trkpt>
      <trkpt lat="43.54119" lon="-1.48548">
        <ele>12.39999961853</ele>
        <time>2023-06-10T09:16:22Z</time>
      </trkpt>
      <trkpt lat="43.54149" lon="-1.48515">
        <ele>12.39999961853</ele>
        <time>2023-06-10T09:16:33Z</time>
      </trkpt>
      <trkpt lat="43.54148" lon="-1.48511">
        <ele>12.39999961853</ele>
        <time>2023-06-10T09:16:34Z</time>
      </trkpt>
      <trkpt lat="43.54146" lon="-1.48506">
        <ele>12.39999961853</ele>
        <time>2023-06-10T09:16:35Z</time>
      </trkpt>
      <trkpt lat="43.54144" lon="-1.48502">
        <ele>12.39999961853</ele>
        <time>2023-06-10T09:16:36Z</time>
      </trkpt>
      <trkpt lat="43.54142" lon="-1.48498">
        <ele>12.39999961853</ele>
        <time>2023-06-10T09:16:37Z</time>
      </trkpt>
      <trkpt lat="43.54122" lon="-1.48465">
        <ele>12.39999961853</ele>
        <time>2023-06-10T09:16:45Z</time>
      </trkpt>
      <trkpt lat="43.541" lon="-1.48427">
        <ele>12.199999809265</ele>
        <time>2023-06-10T09:16:55Z</time>
      </trkpt>
      <trkpt lat="43.54097" lon="-1.48422">
        <ele>12.199999809265</ele>
        <time>2023-06-10T09:17:01Z</time>
      </trkpt>
      <trkpt lat="43.54094" lon="-1.48419">
        <ele>12.199999809265</ele>
        <time>2023-06-10T09:17:13Z</time>
      </trkpt>
      <trkpt lat="43.54094" lon="-1.48416">
        <ele>12.199999809265</ele>
        <time>2023-06-10T09:17:14Z</time>
      </trkpt>
      <trkpt lat="43.54095" lon="-1.48413">
        <ele>12.199999809265</ele>
        <time>2023-06-10T09:17:15Z</time>
      </trkpt>
      <trkpt lat="43.54097" lon="-1.48409">
        <ele>12.199999809265</ele>
        <time>2023-06-10T09:17:16Z</time>
      </trkpt>
      <trkpt lat="43.54099" lon="-1.48406">
        <ele>12.199999809265</ele>
        <time>2023-06-10T09:17:17Z</time>
      </trkpt>
      <trkpt lat="43.54102" lon="-1.48404">
        <ele>12.199999809265</ele>
        <time>2023-06-10T09:17:18Z</time>
      </trkpt>
      <trkpt lat="43.54105" lon="-1.48402">
        <ele>12.199999809265</ele>
        <time>2023-06-10T09:17:19Z</time>
      </trkpt>
      <trkpt lat="43.54108" lon="-1.48401">
        <ele>12.199999809265</ele>
        <time>2023-06-10T09:17:20Z</time>
      </trkpt>
      <trkpt lat="43.54111" lon="-1.484">
        <ele>12.199999809265</ele>
        <time>2023-06-10T09:17:21Z</time>
      </trkpt>
      <trkpt lat="43.54114" lon="-1.48399">
        <ele>12.199999809265</ele>
        <time>2023-06-10T09:17:22Z</time>
      </trkpt>
      <trkpt lat="43.54118" lon="-1.48399">
        <ele>12.199999809265</ele>
        <time>2023-06-10T09:17:23Z</time>
      </trkpt>
      <trkpt lat="43.54159" lon="-1.48399">
        <ele>12.199999809265</ele>
        <time>2023-06-10T09:17:34Z</time>
      </trkpt>
      <trkpt lat="43.54203" lon="-1.48399">
        <ele>12.39999961853</ele>
        <time>2023-06-10T09:17:46Z</time>
      </trkpt>
      <trkpt lat="43.54233" lon="-1.48403">
        <ele>12.60000038147</ele>
        <time>2023-06-10T09:17:54Z</time>
      </trkpt>
      <trkpt lat="43.54263" lon="-1.48424">
        <ele>13.199999809265</ele>
        <time>2023-06-10T09:18:04Z</time>
      </trkpt>
      <trkpt lat="43.54304" lon="-1.48457">
        <ele>14</ele>
        <time>2023-06-10T09:18:17Z</time>
      </trkpt>
      <trkpt lat="43.54337" lon="-1.48484">
        <ele>14.199999809265</ele>
        <time>2023-06-10T09:18:27Z</time>
      </trkpt>
      <trkpt lat="43.54373" lon="-1.48514">
        <ele>13.800000190735</ele>
        <time>2023-06-10T09:18:38Z</time>
      </trkpt>
      <trkpt lat="43.54405" lon="-1.48541">
        <ele>13.39999961853</ele>
        <time>2023-06-10T09:18:47Z</time>
      </trkpt>
      <trkpt lat="43.54439" lon="-1.48567">
        <ele>13</ele>
        <time>2023-06-10T09:18:56Z</time>
      </trkpt>
      <trkpt lat="43.5448" lon="-1.48599">
        <ele>12.800000190735</ele>
        <time>2023-06-10T09:19:08Z</time>
      </trkpt>
      <trkpt lat="43.54511" lon="-1.48623">
        <ele>12.800000190735</ele>
        <time>2023-06-10T09:19:17Z</time>
      </trkpt>
      <trkpt lat="43.54553" lon="-1.48657">
        <ele>13.199999809265</ele>
        <time>2023-06-10T09:19:30Z</time>
      </trkpt>
      <trkpt lat="43.5459" lon="-1.48687">
        <ele>13.39999961853</ele>
        <time>2023-06-10T09:19:41Z</time>
      </trkpt>
      <trkpt lat="43.54594" lon="-1.4869">
        <ele>13.39999961853</ele>
        <time>2023-06-10T09:19:42Z</time>
      </trkpt>
      <trkpt lat="43.5464" lon="-1.48729">
        <ele>13.39999961853</ele>
        <time>2023-06-10T09:19:56Z</time>
      </trkpt>
      <trkpt lat="43.5468" lon="-1.48761">
        <ele>13.39999961853</ele>
        <time>2023-06-10T09:20:08Z</time>
      </trkpt>
      <trkpt lat="43.5472" lon="-1.48792">
        <ele>13.199999809265</ele>
        <time>2023-06-10T09:20:20Z</time>
      </trkpt>
      <trkpt lat="43.54745" lon="-1.48812">
        <ele>13.39999961853</ele>
        <time>2023-06-10T09:20:29Z</time>
      </trkpt>
      <trkpt lat="43.54745" lon="-1.48813">
        <ele>13.39999961853</ele>
        <time>2023-06-10T09:20:37Z</time>
      </trkpt>
      <trkpt lat="43.54745" lon="-1.48812">
        <ele>13.39999961853</ele>
        <time>2023-06-10T09:21:11Z</time>
      </trkpt>
      <trkpt lat="43.54756" lon="-1.48821">
        <ele>13</ele>
        <time>2023-06-10T09:21:17Z</time>
      </trkpt>
      <trkpt lat="43.54774" lon="-1.48838">
        <ele>12.800000190735</ele>
        <time>2023-06-10T09:21:24Z</time>
      </trkpt>
      <trkpt lat="43.54801" lon="-1.48861">
        <ele>13</ele>
        <time>2023-06-10T09:21:33Z</time>
      </trkpt>
      <trkpt lat="43.54818" lon="-1.48874">
        <ele>13.39999961853</ele>
        <time>2023-06-10T09:21:39Z</time>
      </trkpt>
      <trkpt lat="43.54842" lon="-1.48893">
        <ele>13.60000038147</ele>
        <time>2023-06-10T09:21:47Z</time>
      </trkpt>
      <trkpt lat="43.54872" lon="-1.48918">
        <ele>14.199999809265</ele>
        <time>2023-06-10T09:21:57Z</time>
      </trkpt>
      <trkpt lat="43.54898" lon="-1.48939">
        <ele>14.199999809265</ele>
        <time>2023-06-10T09:22:05Z</time>
      </trkpt>
      <trkpt lat="43.54924" lon="-1.4896">
        <ele>14.60000038147</ele>
        <time>2023-06-10T09:22:13Z</time>
      </trkpt>
      <trkpt lat="43.54954" lon="-1.48982">
        <ele>14.800000190735</ele>
        <time>2023-06-10T09:22:21Z</time>
      </trkpt>
      <trkpt lat="43.54985" lon="-1.49005">
        <ele>14.39999961853</ele>
        <time>2023-06-10T09:22:29Z</time>
      </trkpt>
      <trkpt lat="43.55017" lon="-1.49028">
        <ele>14.199999809265</ele>
        <time>2023-06-10T09:22:38Z</time>
      </trkpt>
      <trkpt lat="43.55054" lon="-1.49059">
        <ele>14.199999809265</ele>
        <time>2023-06-10T09:22:49Z</time>
      </trkpt>
      <trkpt lat="43.55083" lon="-1.49084">
        <ele>14.199999809265</ele>
        <time>2023-06-10T09:22:58Z</time>
      </trkpt>
      <trkpt lat="43.55108" lon="-1.49105">
        <ele>14.39999961853</ele>
        <time>2023-06-10T09:23:06Z</time>
      </trkpt>
      <trkpt lat="43.55137" lon="-1.49128">
        <ele>14.800000190735</ele>
        <time>2023-06-10T09:23:15Z</time>
      </trkpt>
      <trkpt lat="43.5516" lon="-1.49147">
        <ele>15.199999809265</ele>
        <time>2023-06-10T09:23:23Z</time>
      </trkpt>
      <trkpt lat="43.55187" lon="-1.49168">
        <ele>15.60000038147</ele>
        <time>2023-06-10T09:23:31Z</time>
      </trkpt>
      <trkpt lat="43.55219" lon="-1.49194">
        <ele>15.199999809265</ele>
        <time>2023-06-10T09:23:40Z</time>
      </trkpt>
      <trkpt lat="43.5525" lon="-1.49217">
        <ele>15.199999809265</ele>
        <time>2023-06-10T09:23:49Z</time>
      </trkpt>
      <trkpt lat="43.55279" lon="-1.49242">
        <ele>15.199999809265</ele>
        <time>2023-06-10T09:23:57Z</time>
      </trkpt>
      <trkpt lat="43.553" lon="-1.49264">
        <ele>14.800000190735</ele>
        <time>2023-06-10T09:24:04Z</time>
      </trkpt>
      <trkpt lat="43.55328" lon="-1.49287">
        <ele>15</ele>
        <time>2023-06-10T09:24:12Z</time>
      </trkpt>
      <trkpt lat="43.55352" lon="-1.49305">
        <ele>15.60000038147</ele>
        <time>2023-06-10T09:24:20Z</time>
      </trkpt>
      <trkpt lat="43.55376" lon="-1.49325">
        <ele>16.39999961853</ele>
        <time>2023-06-10T09:24:28Z</time>
      </trkpt>
      <trkpt lat="43.55407" lon="-1.49355">
        <ele>16.799999237061</ele>
        <time>2023-06-10T09:24:39Z</time>
      </trkpt>
      <trkpt lat="43.55426" lon="-1.49369">
        <ele>16.60000038147</ele>
        <time>2023-06-10T09:24:44Z</time>
      </trkpt>
      <trkpt lat="43.55465" lon="-1.49398">
        <ele>15.39999961853</ele>
        <time>2023-06-10T09:24:53Z</time>
      </trkpt>
      <trkpt lat="43.55499" lon="-1.49424">
        <ele>14.39999961853</ele>
        <time>2023-06-10T09:25:01Z</time>
      </trkpt>
      <trkpt lat="43.55535" lon="-1.49453">
        <ele>13.800000190735</ele>
        <time>2023-06-10T09:25:09Z</time>
      </trkpt>
      <trkpt lat="43.5556" lon="-1.49471">
        <ele>13</ele>
        <time>2023-06-10T09:25:15Z</time>
      </trkpt>
      <trkpt lat="43.55585" lon="-1.49492">
        <ele>12.60000038147</ele>
        <time>2023-06-10T09:25:22Z</time>
      </trkpt>
      <trkpt lat="43.55608" lon="-1.4951">
        <ele>12.39999961853</ele>
        <time>2023-06-10T09:25:29Z</time>
      </trkpt>
      <trkpt lat="43.55628" lon="-1.49533">
        <ele>12.39999961853</ele>
        <time>2023-06-10T09:25:36Z</time>
      </trkpt>
      <trkpt lat="43.55651" lon="-1.4955">
        <ele>12</ele>
        <time>2023-06-10T09:25:43Z</time>
      </trkpt>
      <trkpt lat="43.55682" lon="-1.49561">
        <ele>11.800000190735</ele>
        <time>2023-06-10T09:25:51Z</time>
      </trkpt>
      <trkpt lat="43.55708" lon="-1.49579">
        <ele>12</ele>
        <time>2023-06-10T09:25:59Z</time>
      </trkpt>
      <trkpt lat="43.55737" lon="-1.49611">
        <ele>12</ele>
        <time>2023-06-10T09:26:09Z</time>
      </trkpt>
      <trkpt lat="43.55763" lon="-1.49632">
        <ele>11.60000038147</ele>
        <time>2023-06-10T09:26:18Z</time>
      </trkpt>
      <trkpt lat="43.55777" lon="-1.49643">
        <ele>11.199999809265</ele>
        <time>2023-06-10T09:26:23Z</time>
      </trkpt>
      <trkpt lat="43.5578" lon="-1.49663">
        <ele>11.199999809265</ele>
        <time>2023-06-10T09:26:28Z</time>
      </trkpt>
      <trkpt lat="43.55781" lon="-1.49672">
        <ele>11.199999809265</ele>
        <time>2023-06-10T09:26:34Z</time>
      </trkpt>
      <trkpt lat="43.55783" lon="-1.49672">
        <ele>11.199999809265</ele>
        <time>2023-06-10T09:26:43Z</time>
      </trkpt>
      <trkpt lat="43.55784" lon="-1.49671">
        <ele>11.199999809265</ele>
        <time>2023-06-10T09:26:44Z</time>
      </trkpt>
      <trkpt lat="43.55786" lon="-1.4967">
        <ele>11.199999809265</ele>
        <time>2023-06-10T09:26:45Z</time>
      </trkpt>
      <trkpt lat="43.55787" lon="-1.49668">
        <ele>11.199999809265</ele>
        <time>2023-06-10T09:26:46Z</time>
      </trkpt>
      <trkpt lat="43.55789" lon="-1.49666">
        <ele>11.199999809265</ele>
        <time>2023-06-10T09:26:47Z</time>
      </trkpt>
      <trkpt lat="43.5579" lon="-1.49663">
        <ele>11.199999809265</ele>
        <time>2023-06-10T09:26:48Z</time>
      </trkpt>
      <trkpt lat="43.55792" lon="-1.4966">
        <ele>11.199999809265</ele>
        <time>2023-06-10T09:26:49Z</time>
      </trkpt>
      <trkpt lat="43.55794" lon="-1.49657">
        <ele>11</ele>
        <time>2023-06-10T09:26:50Z</time>
      </trkpt>
      <trkpt lat="43.55797" lon="-1.49655">
        <ele>11</ele>
        <time>2023-06-10T09:26:51Z</time>
      </trkpt>
      <trkpt lat="43.55821" lon="-1.49636">
        <ele>11</ele>
        <time>2023-06-10T09:27:00Z</time>
      </trkpt>
      <trkpt lat="43.55838" lon="-1.49627">
        <ele>11.39999961853</ele>
        <time>2023-06-10T09:27:07Z</time>
      </trkpt>
      <trkpt lat="43.55855" lon="-1.49613">
        <ele>11.39999961853</ele>
        <time>2023-06-10T09:27:14Z</time>
      </trkpt>
      <trkpt lat="43.55874" lon="-1.49594">
        <ele>11.39999961853</ele>
        <time>2023-06-10T09:27:21Z</time>
      </trkpt>
      <trkpt lat="43.55899" lon="-1.49572">
        <ele>11.39999961853</ele>
        <time>2023-06-10T09:27:29Z</time>
      </trkpt>
      <trkpt lat="43.55933" lon="-1.49549">
        <ele>11.199999809265</ele>
        <time>2023-06-10T09:27:38Z</time>
      </trkpt>
      <trkpt lat="43.5597" lon="-1.49527">
        <ele>10.800000190735</ele>
        <time>2023-06-10T09:27:48Z</time>
      </trkpt>
      <trkpt lat="43.55998" lon="-1.49511">
        <ele>10.800000190735</ele>
        <time>2023-06-10T09:27:56Z</time>
      </trkpt>
      <trkpt lat="43.56024" lon="-1.49491">
        <ele>10.60000038147</ele>
        <time>2023-06-10T09:28:04Z</time>
      </trkpt>
      <trkpt lat="43.56028" lon="-1.49465">
        <ele>10.39999961853</ele>
        <time>2023-06-10T09:28:09Z</time>
      </trkpt>
      <trkpt lat="43.56022" lon="-1.4942">
        <ele>10</ele>
        <time>2023-06-10T09:28:17Z</time>
      </trkpt>
      <trkpt lat="43.56021" lon="-1.49414">
        <ele>10</ele>
        <time>2023-06-10T09:28:18Z</time>
      </trkpt>
      <trkpt lat="43.5602" lon="-1.49409">
        <ele>10</ele>
        <time>2023-06-10T09:28:19Z</time>
      </trkpt>
      <trkpt lat="43.56019" lon="-1.49404">
        <ele>10</ele>
        <time>2023-06-10T09:28:20Z</time>
      </trkpt>
      <trkpt lat="43.56018" lon="-1.49399">
        <ele>10</ele>
        <time>2023-06-10T09:28:21Z</time>
      </trkpt>
      <trkpt lat="43.56016" lon="-1.49394">
        <ele>10</ele>
        <time>2023-06-10T09:28:22Z</time>
      </trkpt>
      <trkpt lat="43.56012" lon="-1.49391">
        <ele>10</ele>
        <time>2023-06-10T09:28:23Z</time>
      </trkpt>
      <trkpt lat="43.56009" lon="-1.49389">
        <ele>9.8000001907349</ele>
        <time>2023-06-10T09:28:24Z</time>
      </trkpt>
      <trkpt lat="43.56006" lon="-1.49386">
        <ele>9.8000001907349</ele>
        <time>2023-06-10T09:28:25Z</time>
      </trkpt>
      <trkpt lat="43.56002" lon="-1.49384">
        <ele>9.8000001907349</ele>
        <time>2023-06-10T09:28:26Z</time>
      </trkpt>
      <trkpt lat="43.55999" lon="-1.49382">
        <ele>9.8000001907349</ele>
        <time>2023-06-10T09:28:27Z</time>
      </trkpt>
      <trkpt lat="43.55971" lon="-1.49361">
        <ele>10</ele>
        <time>2023-06-10T09:28:36Z</time>
      </trkpt>
      <trkpt lat="43.55953" lon="-1.49327">
        <ele>10.199999809265</ele>
        <time>2023-06-10T09:28:44Z</time>
      </trkpt>
      <trkpt lat="43.55943" lon="-1.49295">
        <ele>10.199999809265</ele>
        <time>2023-06-10T09:28:51Z</time>
      </trkpt>
      <trkpt lat="43.55932" lon="-1.4926">
        <ele>10.199999809265</ele>
        <time>2023-06-10T09:28:58Z</time>
      </trkpt>
      <trkpt lat="43.55919" lon="-1.49229">
        <ele>10.39999961853</ele>
        <time>2023-06-10T09:29:05Z</time>
      </trkpt>
      <trkpt lat="43.5591" lon="-1.49201">
        <ele>10.39999961853</ele>
        <time>2023-06-10T09:29:11Z</time>
      </trkpt>
      <trkpt lat="43.55901" lon="-1.49169">
        <ele>10.60000038147</ele>
        <time>2023-06-10T09:29:17Z</time>
      </trkpt>
      <trkpt lat="43.55887" lon="-1.49123">
        <ele>10.60000038147</ele>
        <time>2023-06-10T09:29:26Z</time>
      </trkpt>
      <trkpt lat="43.55875" lon="-1.49089">
        <ele>10.60000038147</ele>
        <time>2023-06-10T09:29:33Z</time>
      </trkpt>
      <trkpt lat="43.55858" lon="-1.49042">
        <ele>10.60000038147</ele>
        <time>2023-06-10T09:29:43Z</time>
      </trkpt>
      <trkpt lat="43.55847" lon="-1.49013">
        <ele>10.800000190735</ele>
        <time>2023-06-10T09:29:49Z</time>
      </trkpt>
      <trkpt lat="43.55835" lon="-1.48978">
        <ele>11</ele>
        <time>2023-06-10T09:29:57Z</time>
      </trkpt>
      <trkpt lat="43.55832" lon="-1.48969">
        <ele>11</ele>
        <time>2023-06-10T09:30:02Z</time>
      </trkpt>
      <trkpt lat="43.55833" lon="-1.48967">
        <ele>11</ele>
        <time>2023-06-10T09:30:15Z</time>
      </trkpt>
      <trkpt lat="43.55834" lon="-1.48967">
        <ele>11</ele>
        <time>2023-06-10T09:31:23Z</time>
      </trkpt>
      <trkpt lat="43.55834" lon="-1.48965">
        <ele>11</ele>
        <time>2023-06-10T09:32:03Z</time>
      </trkpt>
      <trkpt lat="43.55834" lon="-1.48967">
        <ele>11</ele>
        <time>2023-06-10T09:33:03Z</time>
      </trkpt>
      <trkpt lat="43.55834" lon="-1.48966">
        <ele>11</ele>
        <time>2023-06-10T09:34:25Z</time>
      </trkpt>
      <trkpt lat="43.55832" lon="-1.48966">
        <ele>11</ele>
        <time>2023-06-10T09:35:35Z</time>
      </trkpt>
      <trkpt lat="43.55833" lon="-1.48966">
        <ele>11</ele>
        <time>2023-06-10T09:36:33Z</time>
      </trkpt>
      <trkpt lat="43.55834" lon="-1.48965">
        <ele>11</ele>
        <time>2023-06-10T09:36:55Z</time>
      </trkpt>
      <trkpt lat="43.55832" lon="-1.48962">
        <ele>11</ele>
        <time>2023-06-10T09:37:02Z</time>
      </trkpt>
      <trkpt lat="43.55831" lon="-1.4896">
        <ele>11</ele>
        <time>2023-06-10T09:37:03Z</time>
      </trkpt>
      <trkpt lat="43.5583" lon="-1.48958">
        <ele>11</ele>
        <time>2023-06-10T09:37:04Z</time>
      </trkpt>
      <trkpt lat="43.55829" lon="-1.48955">
        <ele>11</ele>
        <time>2023-06-10T09:37:05Z</time>
      </trkpt>
      <trkpt lat="43.55828" lon="-1.48952">
        <ele>11</ele>
        <time>2023-06-10T09:37:06Z</time>
      </trkpt>
      <trkpt lat="43.55816" lon="-1.48915">
        <ele>10</ele>
        <time>2023-06-10T09:37:15Z</time>
      </trkpt>
      <trkpt lat="43.55806" lon="-1.48883">
        <ele>10.39999961853</ele>
        <time>2023-06-10T09:37:23Z</time>
      </trkpt>
      <trkpt lat="43.55795" lon="-1.4885">
        <ele>10.60000038147</ele>
        <time>2023-06-10T09:37:31Z</time>
      </trkpt>
      <trkpt lat="43.55784" lon="-1.48818">
        <ele>10.60000038147</ele>
        <time>2023-06-10T09:37:39Z</time>
      </trkpt>
      <trkpt lat="43.55771" lon="-1.48782">
        <ele>11</ele>
        <time>2023-06-10T09:37:47Z</time>
      </trkpt>
      <trkpt lat="43.55762" lon="-1.48756">
        <ele>11.199999809265</ele>
        <time>2023-06-10T09:37:53Z</time>
      </trkpt>
      <trkpt lat="43.55749" lon="-1.48716">
        <ele>11.60000038147</ele>
        <time>2023-06-10T09:38:02Z</time>
      </trkpt>
      <trkpt lat="43.55745" lon="-1.48669">
        <ele>12</ele>
        <time>2023-06-10T09:38:12Z</time>
      </trkpt>
      <trkpt lat="43.55747" lon="-1.48643">
        <ele>12.199999809265</ele>
        <time>2023-06-10T09:38:19Z</time>
      </trkpt>
      <trkpt lat="43.55745" lon="-1.48637">
        <ele>12.199999809265</ele>
        <time>2023-06-10T09:38:21Z</time>
      </trkpt>
      <trkpt lat="43.55743" lon="-1.48635">
        <ele>12.199999809265</ele>
        <time>2023-06-10T09:38:22Z</time>
      </trkpt>
      <trkpt lat="43.55741" lon="-1.48633">
        <ele>12.199999809265</ele>
        <time>2023-06-10T09:38:23Z</time>
      </trkpt>
      <trkpt lat="43.55738" lon="-1.48631">
        <ele>12.199999809265</ele>
        <time>2023-06-10T09:38:24Z</time>
      </trkpt>
      <trkpt lat="43.55735" lon="-1.4863">
        <ele>12.199999809265</ele>
        <time>2023-06-10T09:38:25Z</time>
      </trkpt>
      <trkpt lat="43.55719" lon="-1.48617">
        <ele>12.39999961853</ele>
        <time>2023-06-10T09:38:31Z</time>
      </trkpt>
      <trkpt lat="43.55694" lon="-1.48596">
        <ele>12.800000190735</ele>
        <time>2023-06-10T09:38:40Z</time>
      </trkpt>
      <trkpt lat="43.55674" lon="-1.48583">
        <ele>13</ele>
        <time>2023-06-10T09:38:47Z</time>
      </trkpt>
      <trkpt lat="43.55654" lon="-1.48571">
        <ele>13.199999809265</ele>
        <time>2023-06-10T09:38:53Z</time>
      </trkpt>
      <trkpt lat="43.55635" lon="-1.48553">
        <ele>13.199999809265</ele>
        <time>2023-06-10T09:38:59Z</time>
      </trkpt>
      <trkpt lat="43.55626" lon="-1.48525">
        <ele>13</ele>
        <time>2023-06-10T09:39:05Z</time>
      </trkpt>
      <trkpt lat="43.55618" lon="-1.48495">
        <ele>13.199999809265</ele>
        <time>2023-06-10T09:39:12Z</time>
      </trkpt>
      <trkpt lat="43.55615" lon="-1.48462">
        <ele>13.60000038147</ele>
        <time>2023-06-10T09:39:18Z</time>
      </trkpt>
      <trkpt lat="43.55607" lon="-1.48431">
        <ele>13.60000038147</ele>
        <time>2023-06-10T09:39:25Z</time>
      </trkpt>
      <trkpt lat="43.55595" lon="-1.48405">
        <ele>13.60000038147</ele>
        <time>2023-06-10T09:39:31Z</time>
      </trkpt>
      <trkpt lat="43.55589" lon="-1.4839">
        <ele>13.800000190735</ele>
        <time>2023-06-10T09:39:35Z</time>
      </trkpt>
      <trkpt lat="43.55578" lon="-1.48371">
        <ele>14</ele>
        <time>2023-06-10T09:39:40Z</time>
      </trkpt>
      <trkpt lat="43.55566" lon="-1.48354">
        <ele>14.199999809265</ele>
        <time>2023-06-10T09:39:46Z</time>
      </trkpt>
      <trkpt lat="43.55556" lon="-1.48331">
        <ele>14.199999809265</ele>
        <time>2023-06-10T09:39:51Z</time>
      </trkpt>
      <trkpt lat="43.55552" lon="-1.48299">
        <ele>14.39999961853</ele>
        <time>2023-06-10T09:39:58Z</time>
      </trkpt>
      <trkpt lat="43.55546" lon="-1.48273">
        <ele>14.60000038147</ele>
        <time>2023-06-10T09:40:04Z</time>
      </trkpt>
      <trkpt lat="43.55544" lon="-1.48246">
        <ele>14.60000038147</ele>
        <time>2023-06-10T09:40:10Z</time>
      </trkpt>
      <trkpt lat="43.55539" lon="-1.48215">
        <ele>14.60000038147</ele>
        <time>2023-06-10T09:40:16Z</time>
      </trkpt>
      <trkpt lat="43.55528" lon="-1.48183">
        <ele>14.800000190735</ele>
        <time>2023-06-10T09:40:23Z</time>
      </trkpt>
      <trkpt lat="43.55521" lon="-1.48144">
        <ele>14.800000190735</ele>
        <time>2023-06-10T09:40:31Z</time>
      </trkpt>
      <trkpt lat="43.55512" lon="-1.48116">
        <ele>14.60000038147</ele>
        <time>2023-06-10T09:40:38Z</time>
      </trkpt>
      <trkpt lat="43.55502" lon="-1.4809">
        <ele>14.800000190735</ele>
        <time>2023-06-10T09:40:46Z</time>
      </trkpt>
      <trkpt lat="43.55493" lon="-1.48069">
        <ele>15</ele>
        <time>2023-06-10T09:40:52Z</time>
      </trkpt>
      <trkpt lat="43.55478" lon="-1.48035">
        <ele>15.199999809265</ele>
        <time>2023-06-10T09:40:59Z</time>
      </trkpt>
      <trkpt lat="43.55465" lon="-1.48009">
        <ele>15.199999809265</ele>
        <time>2023-06-10T09:41:05Z</time>
      </trkpt>
      <trkpt lat="43.55453" lon="-1.47981">
        <ele>15.199999809265</ele>
        <time>2023-06-10T09:41:11Z</time>
      </trkpt>
      <trkpt lat="43.55441" lon="-1.47948">
        <ele>15.199999809265</ele>
        <time>2023-06-10T09:41:18Z</time>
      </trkpt>
      <trkpt lat="43.55429" lon="-1.47926">
        <ele>15.199999809265</ele>
        <time>2023-06-10T09:41:24Z</time>
      </trkpt>
      <trkpt lat="43.55416" lon="-1.47898">
        <ele>15.199999809265</ele>
        <time>2023-06-10T09:41:31Z</time>
      </trkpt>
      <trkpt lat="43.55401" lon="-1.47867">
        <ele>15.199999809265</ele>
        <time>2023-06-10T09:41:37Z</time>
      </trkpt>
      <trkpt lat="43.55389" lon="-1.47839">
        <ele>15.199999809265</ele>
        <time>2023-06-10T09:41:43Z</time>
      </trkpt>
      <trkpt lat="43.55379" lon="-1.47818">
        <ele>15</ele>
        <time>2023-06-10T09:41:48Z</time>
      </trkpt>
      <trkpt lat="43.55369" lon="-1.47793">
        <ele>15</ele>
        <time>2023-06-10T09:41:54Z</time>
      </trkpt>
      <trkpt lat="43.55359" lon="-1.4776">
        <ele>15</ele>
        <time>2023-06-10T09:42:01Z</time>
      </trkpt>
      <trkpt lat="43.55348" lon="-1.47731">
        <ele>15</ele>
        <time>2023-06-10T09:42:08Z</time>
      </trkpt>
      <trkpt lat="43.55333" lon="-1.47705">
        <ele>15</ele>
        <time>2023-06-10T09:42:15Z</time>
      </trkpt>
      <trkpt lat="43.55316" lon="-1.47685">
        <ele>15</ele>
        <time>2023-06-10T09:42:22Z</time>
      </trkpt>
      <trkpt lat="43.55298" lon="-1.47666">
        <ele>15.199999809265</ele>
        <time>2023-06-10T09:42:29Z</time>
      </trkpt>
      <trkpt lat="43.55284" lon="-1.4765">
        <ele>15.199999809265</ele>
        <time>2023-06-10T09:42:35Z</time>
      </trkpt>
      <trkpt lat="43.55268" lon="-1.47635">
        <ele>15.199999809265</ele>
        <time>2023-06-10T09:42:42Z</time>
      </trkpt>
      <trkpt lat="43.55255" lon="-1.47622">
        <ele>15.199999809265</ele>
        <time>2023-06-10T09:42:49Z</time>
      </trkpt>
      <trkpt lat="43.55253" lon="-1.4762">
        <ele>15.199999809265</ele>
        <time>2023-06-10T09:42:56Z</time>
      </trkpt>
      <trkpt lat="43.55252" lon="-1.4762">
        <ele>15.199999809265</ele>
        <time>2023-06-10T09:43:24Z</time>
      </trkpt>
      <trkpt lat="43.55252" lon="-1.47617">
        <ele>15.199999809265</ele>
        <time>2023-06-10T09:43:40Z</time>
      </trkpt>
      <trkpt lat="43.55242" lon="-1.47606">
        <ele>15</ele>
        <time>2023-06-10T09:43:49Z</time>
      </trkpt>
      <trkpt lat="43.55239" lon="-1.47605">
        <ele>15.199999809265</ele>
        <time>2023-06-10T09:43:51Z</time>
      </trkpt>
      <trkpt lat="43.55238" lon="-1.47606">
        <ele>15.199999809265</ele>
        <time>2023-06-10T09:43:52Z</time>
      </trkpt>
      <trkpt lat="43.55237" lon="-1.47609">
        <ele>15.199999809265</ele>
        <time>2023-06-10T09:43:53Z</time>
      </trkpt>
      <trkpt lat="43.55236" lon="-1.47611">
        <ele>15.199999809265</ele>
        <time>2023-06-10T09:43:54Z</time>
      </trkpt>
      <trkpt lat="43.55235" lon="-1.47612">
        <ele>15.199999809265</ele>
        <time>2023-06-10T09:43:55Z</time>
      </trkpt>
      <trkpt lat="43.55233" lon="-1.47612">
        <ele>15.199999809265</ele>
        <time>2023-06-10T09:43:56Z</time>
      </trkpt>
      <trkpt lat="43.55231" lon="-1.47611">
        <ele>15.199999809265</ele>
        <time>2023-06-10T09:43:57Z</time>
      </trkpt>
      <trkpt lat="43.5523" lon="-1.47608">
        <ele>15.199999809265</ele>
        <time>2023-06-10T09:43:58Z</time>
      </trkpt>
      <trkpt lat="43.5523" lon="-1.47606">
        <ele>15.199999809265</ele>
        <time>2023-06-10T09:43:59Z</time>
      </trkpt>
      <trkpt lat="43.5523" lon="-1.47603">
        <ele>15.199999809265</ele>
        <time>2023-06-10T09:44:00Z</time>
      </trkpt>
      <trkpt lat="43.55231" lon="-1.476">
        <ele>15.199999809265</ele>
        <time>2023-06-10T09:44:01Z</time>
      </trkpt>
      <trkpt lat="43.55232" lon="-1.47596">
        <ele>15</ele>
        <time>2023-06-10T09:44:02Z</time>
      </trkpt>
      <trkpt lat="43.55236" lon="-1.4756">
        <ele>14.60000038147</ele>
        <time>2023-06-10T09:44:10Z</time>
      </trkpt>
      <trkpt lat="43.55241" lon="-1.47509">
        <ele>14.39999961853</ele>
        <time>2023-06-10T09:44:21Z</time>
      </trkpt>
      <trkpt lat="43.55244" lon="-1.47455">
        <ele>14.800000190735</ele>
        <time>2023-06-10T09:44:32Z</time>
      </trkpt>
      <trkpt lat="43.55247" lon="-1.47418">
        <ele>15.199999809265</ele>
        <time>2023-06-10T09:44:40Z</time>
      </trkpt>
      <trkpt lat="43.55248" lon="-1.47365">
        <ele>15.199999809265</ele>
        <time>2023-06-10T09:44:49Z</time>
      </trkpt>
      <trkpt lat="43.55258" lon="-1.47299">
        <ele>14</ele>
        <time>2023-06-10T09:44:58Z</time>
      </trkpt>
      <trkpt lat="43.55274" lon="-1.47258">
        <ele>13.199999809265</ele>
        <time>2023-06-10T09:45:04Z</time>
      </trkpt>
      <trkpt lat="43.5528" lon="-1.47247">
        <ele>13.199999809265</ele>
        <time>2023-06-10T09:45:06Z</time>
      </trkpt>
      <trkpt lat="43.55284" lon="-1.47242">
        <ele>13.199999809265</ele>
        <time>2023-06-10T09:45:07Z</time>
      </trkpt>
      <trkpt lat="43.55325" lon="-1.47201">
        <ele>12.60000038147</ele>
        <time>2023-06-10T09:45:17Z</time>
      </trkpt>
      <trkpt lat="43.55371" lon="-1.47157">
        <ele>12.199999809265</ele>
        <time>2023-06-10T09:45:28Z</time>
      </trkpt>
      <trkpt lat="43.55425" lon="-1.47105">
        <ele>12</ele>
        <time>2023-06-10T09:45:41Z</time>
      </trkpt>
      <trkpt lat="43.55475" lon="-1.47059">
        <ele>12.199999809265</ele>
        <time>2023-06-10T09:45:54Z</time>
      </trkpt>
      <trkpt lat="43.55518" lon="-1.47018">
        <ele>12</ele>
        <time>2023-06-10T09:46:05Z</time>
      </trkpt>
      <trkpt lat="43.55571" lon="-1.46967">
        <ele>12</ele>
        <time>2023-06-10T09:46:18Z</time>
      </trkpt>
      <trkpt lat="43.55623" lon="-1.46919">
        <ele>11.199999809265</ele>
        <time>2023-06-10T09:46:30Z</time>
      </trkpt>
      <trkpt lat="43.55665" lon="-1.46877">
        <ele>11.199999809265</ele>
        <time>2023-06-10T09:46:41Z</time>
      </trkpt>
      <trkpt lat="43.55713" lon="-1.46831">
        <ele>11.60000038147</ele>
        <time>2023-06-10T09:46:53Z</time>
      </trkpt>
      <trkpt lat="43.55762" lon="-1.46787">
        <ele>11.60000038147</ele>
        <time>2023-06-10T09:47:05Z</time>
      </trkpt>
      <trkpt lat="43.55803" lon="-1.46747">
        <ele>11.60000038147</ele>
        <time>2023-06-10T09:47:16Z</time>
      </trkpt>
      <trkpt lat="43.55853" lon="-1.46698">
        <ele>12.199999809265</ele>
        <time>2023-06-10T09:47:30Z</time>
      </trkpt>
      <trkpt lat="43.55904" lon="-1.46651">
        <ele>12.199999809265</ele>
        <time>2023-06-10T09:47:44Z</time>
      </trkpt>
      <trkpt lat="43.55944" lon="-1.46612">
        <ele>12</ele>
        <time>2023-06-10T09:47:56Z</time>
      </trkpt>
      <trkpt lat="43.55956" lon="-1.46602">
        <ele>12</ele>
        <time>2023-06-10T09:48:03Z</time>
      </trkpt>
      <trkpt lat="43.55961" lon="-1.46597">
        <ele>12.199999809265</ele>
        <time>2023-06-10T09:48:10Z</time>
      </trkpt>
      <trkpt lat="43.55962" lon="-1.46597">
        <ele>12.199999809265</ele>
        <time>2023-06-10T09:48:11Z</time>
      </trkpt>
      <trkpt lat="43.55964" lon="-1.46598">
        <ele>12.39999961853</ele>
        <time>2023-06-10T09:48:16Z</time>
      </trkpt>
      <trkpt lat="43.55964" lon="-1.46599">
        <ele>12.39999961853</ele>
        <time>2023-06-10T09:48:17Z</time>
      </trkpt>
      <trkpt lat="43.55965" lon="-1.46601">
        <ele>12.199999809265</ele>
        <time>2023-06-10T09:48:18Z</time>
      </trkpt>
      <trkpt lat="43.55966" lon="-1.46602">
        <ele>12.199999809265</ele>
        <time>2023-06-10T09:48:19Z</time>
      </trkpt>
      <trkpt lat="43.55968" lon="-1.46603">
        <ele>12.199999809265</ele>
        <time>2023-06-10T09:48:20Z</time>
      </trkpt>
      <trkpt lat="43.55969" lon="-1.46602">
        <ele>12.199999809265</ele>
        <time>2023-06-10T09:48:21Z</time>
      </trkpt>
      <trkpt lat="43.55971" lon="-1.46602">
        <ele>12.199999809265</ele>
        <time>2023-06-10T09:48:22Z</time>
      </trkpt>
      <trkpt lat="43.55973" lon="-1.46603">
        <ele>12.199999809265</ele>
        <time>2023-06-10T09:48:23Z</time>
      </trkpt>
      <trkpt lat="43.55973" lon="-1.46606">
        <ele>12.199999809265</ele>
        <time>2023-06-10T09:48:24Z</time>
      </trkpt>
      <trkpt lat="43.55974" lon="-1.46609">
        <ele>12.199999809265</ele>
        <time>2023-06-10T09:48:25Z</time>
      </trkpt>
      <trkpt lat="43.55974" lon="-1.46613">
        <ele>12.199999809265</ele>
        <time>2023-06-10T09:48:26Z</time>
      </trkpt>
      <trkpt lat="43.55983" lon="-1.46643">
        <ele>12.39999961853</ele>
        <time>2023-06-10T09:48:33Z</time>
      </trkpt>
      <trkpt lat="43.55996" lon="-1.46682">
        <ele>12.39999961853</ele>
        <time>2023-06-10T09:48:41Z</time>
      </trkpt>
      <trkpt lat="43.56005" lon="-1.46702">
        <ele>12.39999961853</ele>
        <time>2023-06-10T09:48:45Z</time>
      </trkpt>
      <trkpt lat="43.56008" lon="-1.46707">
        <ele>12.39999961853</ele>
        <time>2023-06-10T09:48:46Z</time>
      </trkpt>
      <trkpt lat="43.56011" lon="-1.46712">
        <ele>12.39999961853</ele>
        <time>2023-06-10T09:48:47Z</time>
      </trkpt>
      <trkpt lat="43.56015" lon="-1.46723">
        <ele>12.39999961853</ele>
        <time>2023-06-10T09:48:49Z</time>
      </trkpt>
      <trkpt lat="43.56031" lon="-1.46756">
        <ele>12</ele>
        <time>2023-06-10T09:48:55Z</time>
      </trkpt>
      <trkpt lat="43.56042" lon="-1.46785">
        <ele>12</ele>
        <time>2023-06-10T09:49:00Z</time>
      </trkpt>
      <trkpt lat="43.56044" lon="-1.4679">
        <ele>12</ele>
        <time>2023-06-10T09:49:01Z</time>
      </trkpt>
      <trkpt lat="43.56061" lon="-1.46814">
        <ele>12.199999809265</ele>
        <time>2023-06-10T09:49:07Z</time>
      </trkpt>
      <trkpt lat="43.56085" lon="-1.46809">
        <ele>12.199999809265</ele>
        <time>2023-06-10T09:49:13Z</time>
      </trkpt>
      <trkpt lat="43.56113" lon="-1.46794">
        <ele>12.199999809265</ele>
        <time>2023-06-10T09:49:20Z</time>
      </trkpt>
      <trkpt lat="43.56143" lon="-1.46773">
        <ele>12</ele>
        <time>2023-06-10T09:49:28Z</time>
      </trkpt>
      <trkpt lat="43.56184" lon="-1.46748">
        <ele>11.39999961853</ele>
        <time>2023-06-10T09:49:37Z</time>
      </trkpt>
      <trkpt lat="43.56222" lon="-1.46723">
        <ele>11.39999961853</ele>
        <time>2023-06-10T09:49:46Z</time>
      </trkpt>
      <trkpt lat="43.56267" lon="-1.46696">
        <ele>11.39999961853</ele>
        <time>2023-06-10T09:49:57Z</time>
      </trkpt>
      <trkpt lat="43.5632" lon="-1.46665">
        <ele>11.199999809265</ele>
        <time>2023-06-10T09:50:09Z</time>
      </trkpt>
      <trkpt lat="43.56369" lon="-1.46635">
        <ele>11.39999961853</ele>
        <time>2023-06-10T09:50:21Z</time>
      </trkpt>
      <trkpt lat="43.56415" lon="-1.46607">
        <ele>11.800000190735</ele>
        <time>2023-06-10T09:50:32Z</time>
      </trkpt>
      <trkpt lat="43.56463" lon="-1.46579">
        <ele>11.60000038147</ele>
        <time>2023-06-10T09:50:43Z</time>
      </trkpt>
      <trkpt lat="43.56475" lon="-1.46574">
        <ele>11.39999961853</ele>
        <time>2023-06-10T09:50:46Z</time>
      </trkpt>
      <trkpt lat="43.56479" lon="-1.46573">
        <ele>11.39999961853</ele>
        <time>2023-06-10T09:50:47Z</time>
      </trkpt>
      <trkpt lat="43.56483" lon="-1.46575">
        <ele>11.39999961853</ele>
        <time>2023-06-10T09:50:48Z</time>
      </trkpt>
      <trkpt lat="43.56487" lon="-1.46578">
        <ele>11.199999809265</ele>
        <time>2023-06-10T09:50:49Z</time>
      </trkpt>
      <trkpt lat="43.5649" lon="-1.46581">
        <ele>11.199999809265</ele>
        <time>2023-06-10T09:50:50Z</time>
      </trkpt>
      <trkpt lat="43.56493" lon="-1.46586">
        <ele>11.199999809265</ele>
        <time>2023-06-10T09:50:51Z</time>
      </trkpt>
      <trkpt lat="43.56496" lon="-1.46591">
        <ele>11.199999809265</ele>
        <time>2023-06-10T09:50:52Z</time>
      </trkpt>
      <trkpt lat="43.56498" lon="-1.46597">
        <ele>11.199999809265</ele>
        <time>2023-06-10T09:50:53Z</time>
      </trkpt>
      <trkpt lat="43.565" lon="-1.46602">
        <ele>11.199999809265</ele>
        <time>2023-06-10T09:50:54Z</time>
      </trkpt>
      <trkpt lat="43.56515" lon="-1.46649">
        <ele>11.199999809265</ele>
        <time>2023-06-10T09:51:02Z</time>
      </trkpt>
      <trkpt lat="43.56534" lon="-1.46689">
        <ele>11</ele>
        <time>2023-06-10T09:51:10Z</time>
      </trkpt>
      <trkpt lat="43.56546" lon="-1.4672">
        <ele>11</ele>
        <time>2023-06-10T09:51:16Z</time>
      </trkpt>
      <trkpt lat="43.56555" lon="-1.46739">
        <ele>10.800000190735</ele>
        <time>2023-06-10T09:51:20Z</time>
      </trkpt>
      <trkpt lat="43.5657" lon="-1.46766">
        <ele>10.800000190735</ele>
        <time>2023-06-10T09:51:26Z</time>
      </trkpt>
      <trkpt lat="43.56591" lon="-1.46796">
        <ele>10.800000190735</ele>
        <time>2023-06-10T09:51:33Z</time>
      </trkpt>
      <trkpt lat="43.56624" lon="-1.46842">
        <ele>10.60000038147</ele>
        <time>2023-06-10T09:51:44Z</time>
      </trkpt>
      <trkpt lat="43.56652" lon="-1.46885">
        <ele>10.60000038147</ele>
        <time>2023-06-10T09:51:54Z</time>
      </trkpt>
      <trkpt lat="43.56686" lon="-1.46933">
        <ele>10.60000038147</ele>
        <time>2023-06-10T09:52:05Z</time>
      </trkpt>
      <trkpt lat="43.56724" lon="-1.46989">
        <ele>10.39999961853</ele>
        <time>2023-06-10T09:52:17Z</time>
      </trkpt>
      <trkpt lat="43.56758" lon="-1.47034">
        <ele>10.39999961853</ele>
        <time>2023-06-10T09:52:27Z</time>
      </trkpt>
      <trkpt lat="43.56787" lon="-1.47066">
        <ele>10.60000038147</ele>
        <time>2023-06-10T09:52:35Z</time>
      </trkpt>
      <trkpt lat="43.56821" lon="-1.47108">
        <ele>10.800000190735</ele>
        <time>2023-06-10T09:52:45Z</time>
      </trkpt>
      <trkpt lat="43.56848" lon="-1.47145">
        <ele>10.60000038147</ele>
        <time>2023-06-10T09:52:53Z</time>
      </trkpt>
      <trkpt lat="43.56882" lon="-1.47186">
        <ele>10.60000038147</ele>
        <time>2023-06-10T09:53:03Z</time>
      </trkpt>
      <trkpt lat="43.56905" lon="-1.47214">
        <ele>10</ele>
        <time>2023-06-10T09:53:11Z</time>
      </trkpt>
      <trkpt lat="43.56908" lon="-1.47212">
        <ele>10</ele>
        <time>2023-06-10T09:53:12Z</time>
      </trkpt>
      <trkpt lat="43.5691" lon="-1.47209">
        <ele>10</ele>
        <time>2023-06-10T09:53:13Z</time>
      </trkpt>
      <trkpt lat="43.56913" lon="-1.47206">
        <ele>10</ele>
        <time>2023-06-10T09:53:14Z</time>
      </trkpt>
      <trkpt lat="43.56915" lon="-1.47202">
        <ele>10</ele>
        <time>2023-06-10T09:53:15Z</time>
      </trkpt>
      <trkpt lat="43.56942" lon="-1.47168">
        <ele>10</ele>
        <time>2023-06-10T09:53:24Z</time>
      </trkpt>
      <trkpt lat="43.5698" lon="-1.4712">
        <ele>10</ele>
        <time>2023-06-10T09:53:36Z</time>
      </trkpt>
      <trkpt lat="43.5699" lon="-1.47109">
        <ele>10</ele>
        <time>2023-06-10T09:53:39Z</time>
      </trkpt>
      <trkpt lat="43.56994" lon="-1.47107">
        <ele>10</ele>
        <time>2023-06-10T09:53:40Z</time>
      </trkpt>
      <trkpt lat="43.56999" lon="-1.47106">
        <ele>10</ele>
        <time>2023-06-10T09:53:41Z</time>
      </trkpt>
      <trkpt lat="43.57003" lon="-1.47106">
        <ele>10</ele>
        <time>2023-06-10T09:53:42Z</time>
      </trkpt>
      <trkpt lat="43.57008" lon="-1.47107">
        <ele>10</ele>
        <time>2023-06-10T09:53:43Z</time>
      </trkpt>
      <trkpt lat="43.57012" lon="-1.47109">
        <ele>10</ele>
        <time>2023-06-10T09:53:44Z</time>
      </trkpt>
      <trkpt lat="43.57017" lon="-1.47112">
        <ele>10</ele>
        <time>2023-06-10T09:53:45Z</time>
      </trkpt>
      <trkpt lat="43.57053" lon="-1.47138">
        <ele>10.199999809265</ele>
        <time>2023-06-10T09:53:54Z</time>
      </trkpt>
      <trkpt lat="43.57086" lon="-1.47166">
        <ele>10.199999809265</ele>
        <time>2023-06-10T09:54:03Z</time>
      </trkpt>
      <trkpt lat="43.57112" lon="-1.47186">
        <ele>10.39999961853</ele>
        <time>2023-06-10T09:54:11Z</time>
      </trkpt>
      <trkpt lat="43.57133" lon="-1.47209">
        <ele>10.39999961853</ele>
        <time>2023-06-10T09:54:18Z</time>
      </trkpt>
      <trkpt lat="43.5714" lon="-1.47216">
        <ele>10.39999961853</ele>
        <time>2023-06-10T09:54:20Z</time>
      </trkpt>
      <trkpt lat="43.57144" lon="-1.47217">
        <ele>10.39999961853</ele>
        <time>2023-06-10T09:54:21Z</time>
      </trkpt>
      <trkpt lat="43.57147" lon="-1.47217">
        <ele>10.39999961853</ele>
        <time>2023-06-10T09:54:22Z</time>
      </trkpt>
      <trkpt lat="43.57149" lon="-1.47215">
        <ele>10.39999961853</ele>
        <time>2023-06-10T09:54:23Z</time>
      </trkpt>
      <trkpt lat="43.57151" lon="-1.47212">
        <ele>10.39999961853</ele>
        <time>2023-06-10T09:54:24Z</time>
      </trkpt>
      <trkpt lat="43.57166" lon="-1.47198">
        <ele>11</ele>
        <time>2023-06-10T09:54:31Z</time>
      </trkpt>
      <trkpt lat="43.57186" lon="-1.47185">
        <ele>11.60000038147</ele>
        <time>2023-06-10T09:54:38Z</time>
      </trkpt>
      <trkpt lat="43.57201" lon="-1.47177">
        <ele>11.39999961853</ele>
        <time>2023-06-10T09:54:45Z</time>
      </trkpt>
      <trkpt lat="43.57202" lon="-1.47176">
        <ele>11.39999961853</ele>
        <time>2023-06-10T09:54:46Z</time>
      </trkpt>
      <trkpt lat="43.57203" lon="-1.47175">
        <ele>11.39999961853</ele>
        <time>2023-06-10T09:54:47Z</time>
      </trkpt>
      <trkpt lat="43.57203" lon="-1.47173">
        <ele>11.39999961853</ele>
        <time>2023-06-10T09:54:48Z</time>
      </trkpt>
      <trkpt lat="43.57203" lon="-1.47171">
        <ele>11.39999961853</ele>
        <time>2023-06-10T09:54:49Z</time>
      </trkpt>
      <trkpt lat="43.57205" lon="-1.47169">
        <ele>11.39999961853</ele>
        <time>2023-06-10T09:54:50Z</time>
      </trkpt>
      <trkpt lat="43.57206" lon="-1.47167">
        <ele>11.39999961853</ele>
        <time>2023-06-10T09:54:51Z</time>
      </trkpt>
      <trkpt lat="43.57208" lon="-1.47165">
        <ele>11.39999961853</ele>
        <time>2023-06-10T09:54:52Z</time>
      </trkpt>
      <trkpt lat="43.5721" lon="-1.47162">
        <ele>11.39999961853</ele>
        <time>2023-06-10T09:54:53Z</time>
      </trkpt>
      <trkpt lat="43.57211" lon="-1.47158">
        <ele>11.39999961853</ele>
        <time>2023-06-10T09:54:54Z</time>
      </trkpt>
      <trkpt lat="43.57211" lon="-1.47155">
        <ele>11.39999961853</ele>
        <time>2023-06-10T09:54:55Z</time>
      </trkpt>
      <trkpt lat="43.57211" lon="-1.47151">
        <ele>11.39999961853</ele>
        <time>2023-06-10T09:54:56Z</time>
      </trkpt>
      <trkpt lat="43.57212" lon="-1.47148">
        <ele>11.199999809265</ele>
        <time>2023-06-10T09:54:57Z</time>
      </trkpt>
      <trkpt lat="43.57211" lon="-1.47142">
        <ele>11.199999809265</ele>
        <time>2023-06-10T09:54:59Z</time>
      </trkpt>
      <trkpt lat="43.57202" lon="-1.47129">
        <ele>11</ele>
        <time>2023-06-10T09:55:07Z</time>
      </trkpt>
      <trkpt lat="43.572" lon="-1.47128">
        <ele>11</ele>
        <time>2023-06-10T09:55:14Z</time>
      </trkpt>
      <trkpt lat="43.572" lon="-1.47129">
        <ele>11</ele>
        <time>2023-06-10T09:55:33Z</time>
      </trkpt>
      <trkpt lat="43.57204" lon="-1.4713">
        <ele>10.800000190735</ele>
        <time>2023-06-10T09:55:44Z</time>
      </trkpt>
      <trkpt lat="43.57209" lon="-1.4713">
        <ele>10.800000190735</ele>
        <time>2023-06-10T09:55:58Z</time>
      </trkpt>
      <trkpt lat="43.57209" lon="-1.47132">
        <ele>10.800000190735</ele>
        <time>2023-06-10T09:56:02Z</time>
      </trkpt>
      <trkpt lat="43.57212" lon="-1.47151">
        <ele>10.60000038147</ele>
        <time>2023-06-10T09:56:10Z</time>
      </trkpt>
      <trkpt lat="43.57216" lon="-1.47176">
        <ele>10.60000038147</ele>
        <time>2023-06-10T09:56:16Z</time>
      </trkpt>
      <trkpt lat="43.57222" lon="-1.47208">
        <ele>10.60000038147</ele>
        <time>2023-06-10T09:56:22Z</time>
      </trkpt>
      <trkpt lat="43.57223" lon="-1.47214">
        <ele>10.60000038147</ele>
        <time>2023-06-10T09:56:23Z</time>
      </trkpt>
      <trkpt lat="43.57224" lon="-1.47219">
        <ele>10.60000038147</ele>
        <time>2023-06-10T09:56:24Z</time>
      </trkpt>
      <trkpt lat="43.57234" lon="-1.47245">
        <ele>10.60000038147</ele>
        <time>2023-06-10T09:56:29Z</time>
      </trkpt>
      <trkpt lat="43.57239" lon="-1.47256">
        <ele>10.60000038147</ele>
        <time>2023-06-10T09:56:31Z</time>
      </trkpt>
      <trkpt lat="43.57255" lon="-1.47307">
        <ele>10.39999961853</ele>
        <time>2023-06-10T09:56:40Z</time>
      </trkpt>
      <trkpt lat="43.57273" lon="-1.47357">
        <ele>10.199999809265</ele>
        <time>2023-06-10T09:56:49Z</time>
      </trkpt>
      <trkpt lat="43.57288" lon="-1.47396">
        <ele>10.39999961853</ele>
        <time>2023-06-10T09:56:57Z</time>
      </trkpt>
      <trkpt lat="43.57303" lon="-1.47433">
        <ele>10.60000038147</ele>
        <time>2023-06-10T09:57:05Z</time>
      </trkpt>
      <trkpt lat="43.57311" lon="-1.47465">
        <ele>10.60000038147</ele>
        <time>2023-06-10T09:57:11Z</time>
      </trkpt>
      <trkpt lat="43.57325" lon="-1.4751">
        <ele>10.199999809265</ele>
        <time>2023-06-10T09:57:19Z</time>
      </trkpt>
      <trkpt lat="43.57327" lon="-1.47515">
        <ele>10.199999809265</ele>
        <time>2023-06-10T09:57:20Z</time>
      </trkpt>
      <trkpt lat="43.57329" lon="-1.47521">
        <ele>10.199999809265</ele>
        <time>2023-06-10T09:57:21Z</time>
      </trkpt>
      <trkpt lat="43.57331" lon="-1.47526">
        <ele>10.199999809265</ele>
        <time>2023-06-10T09:57:22Z</time>
      </trkpt>
      <trkpt lat="43.57333" lon="-1.47532">
        <ele>10.199999809265</ele>
        <time>2023-06-10T09:57:23Z</time>
      </trkpt>
      <trkpt lat="43.57335" lon="-1.47537">
        <ele>10.199999809265</ele>
        <time>2023-06-10T09:57:24Z</time>
      </trkpt>
      <trkpt lat="43.57338" lon="-1.47542">
        <ele>10</ele>
        <time>2023-06-10T09:57:25Z</time>
      </trkpt>
      <trkpt lat="43.57339" lon="-1.47548">
        <ele>10</ele>
        <time>2023-06-10T09:57:26Z</time>
      </trkpt>
      <trkpt lat="43.57354" lon="-1.47591">
        <ele>10</ele>
        <time>2023-06-10T09:57:34Z</time>
      </trkpt>
      <trkpt lat="43.57364" lon="-1.47623">
        <ele>10</ele>
        <time>2023-06-10T09:57:40Z</time>
      </trkpt>
      <trkpt lat="43.57372" lon="-1.47644">
        <ele>9.8000001907349</ele>
        <time>2023-06-10T09:57:44Z</time>
      </trkpt>
      <trkpt lat="43.57383" lon="-1.47677">
        <ele>9.8000001907349</ele>
        <time>2023-06-10T09:57:50Z</time>
      </trkpt>
      <trkpt lat="43.57393" lon="-1.47712">
        <ele>9.8000001907349</ele>
        <time>2023-06-10T09:57:56Z</time>
      </trkpt>
      <trkpt lat="43.57403" lon="-1.47736">
        <ele>9.8000001907349</ele>
        <time>2023-06-10T09:58:01Z</time>
      </trkpt>
      <trkpt lat="43.57405" lon="-1.47742">
        <ele>9.8000001907349</ele>
        <time>2023-06-10T09:58:02Z</time>
      </trkpt>
      <trkpt lat="43.57406" lon="-1.47747">
        <ele>9.8000001907349</ele>
        <time>2023-06-10T09:58:03Z</time>
      </trkpt>
      <trkpt lat="43.57408" lon="-1.47752">
        <ele>9.8000001907349</ele>
        <time>2023-06-10T09:58:04Z</time>
      </trkpt>
      <trkpt lat="43.5741" lon="-1.47757">
        <ele>9.8000001907349</ele>
        <time>2023-06-10T09:58:05Z</time>
      </trkpt>
      <trkpt lat="43.57411" lon="-1.47763">
        <ele>9.8000001907349</ele>
        <time>2023-06-10T09:58:06Z</time>
      </trkpt>
      <trkpt lat="43.57413" lon="-1.47768">
        <ele>9.8000001907349</ele>
        <time>2023-06-10T09:58:07Z</time>
      </trkpt>
      <trkpt lat="43.57415" lon="-1.47773">
        <ele>9.8000001907349</ele>
        <time>2023-06-10T09:58:08Z</time>
      </trkpt>
      <trkpt lat="43.57427" lon="-1.47816">
        <ele>10.199999809265</ele>
        <time>2023-06-10T09:58:17Z</time>
      </trkpt>
      <trkpt lat="43.57444" lon="-1.47867">
        <ele>11</ele>
        <time>2023-06-10T09:58:28Z</time>
      </trkpt>
      <trkpt lat="43.57453" lon="-1.47892">
        <ele>11</ele>
        <time>2023-06-10T09:58:33Z</time>
      </trkpt>
      <trkpt lat="43.57459" lon="-1.47908">
        <ele>10.800000190735</ele>
        <time>2023-06-10T09:58:36Z</time>
      </trkpt>
      <trkpt lat="43.57461" lon="-1.47914">
        <ele>10.800000190735</ele>
        <time>2023-06-10T09:58:37Z</time>
      </trkpt>
      <trkpt lat="43.57463" lon="-1.47919">
        <ele>10.800000190735</ele>
        <time>2023-06-10T09:58:38Z</time>
      </trkpt>
      <trkpt lat="43.57474" lon="-1.47955">
        <ele>10.39999961853</ele>
        <time>2023-06-10T09:58:45Z</time>
      </trkpt>
      <trkpt lat="43.57477" lon="-1.4796">
        <ele>10.199999809265</ele>
        <time>2023-06-10T09:58:46Z</time>
      </trkpt>
      <trkpt lat="43.57479" lon="-1.47965">
        <ele>10.199999809265</ele>
        <time>2023-06-10T09:58:47Z</time>
      </trkpt>
      <trkpt lat="43.5749" lon="-1.47993">
        <ele>10</ele>
        <time>2023-06-10T09:58:52Z</time>
      </trkpt>
      <trkpt lat="43.57492" lon="-1.47998">
        <ele>9.8000001907349</ele>
        <time>2023-06-10T09:58:53Z</time>
      </trkpt>
      <trkpt lat="43.57494" lon="-1.48003">
        <ele>9.8000001907349</ele>
        <time>2023-06-10T09:58:54Z</time>
      </trkpt>
      <trkpt lat="43.57504" lon="-1.48048">
        <ele>9.8000001907349</ele>
        <time>2023-06-10T09:59:02Z</time>
      </trkpt>
      <trkpt lat="43.57515" lon="-1.48087">
        <ele>10</ele>
        <time>2023-06-10T09:59:10Z</time>
      </trkpt>
      <trkpt lat="43.57525" lon="-1.48122">
        <ele>10.60000038147</ele>
        <time>2023-06-10T09:59:19Z</time>
      </trkpt>
      <trkpt lat="43.57537" lon="-1.48155">
        <ele>11</ele>
        <time>2023-06-10T09:59:27Z</time>
      </trkpt>
      <trkpt lat="43.57542" lon="-1.48169">
        <ele>11</ele>
        <time>2023-06-10T09:59:30Z</time>
      </trkpt>
      <trkpt lat="43.57544" lon="-1.48175">
        <ele>10.800000190735</ele>
        <time>2023-06-10T09:59:31Z</time>
      </trkpt>
      <trkpt lat="43.57555" lon="-1.48197">
        <ele>10.60000038147</ele>
        <time>2023-06-10T09:59:35Z</time>
      </trkpt>
      <trkpt lat="43.57556" lon="-1.48204">
        <ele>10.39999961853</ele>
        <time>2023-06-10T09:59:36Z</time>
      </trkpt>
      <trkpt lat="43.57558" lon="-1.48209">
        <ele>10.39999961853</ele>
        <time>2023-06-10T09:59:37Z</time>
      </trkpt>
      <trkpt lat="43.57567" lon="-1.4825">
        <ele>9.6000003814697</ele>
        <time>2023-06-10T09:59:44Z</time>
      </trkpt>
      <trkpt lat="43.57574" lon="-1.48266">
        <ele>9.3999996185303</ele>
        <time>2023-06-10T09:59:47Z</time>
      </trkpt>
      <trkpt lat="43.57575" lon="-1.48272">
        <ele>9.3999996185303</ele>
        <time>2023-06-10T09:59:48Z</time>
      </trkpt>
      <trkpt lat="43.57577" lon="-1.48278">
        <ele>9.1999998092651</ele>
        <time>2023-06-10T09:59:49Z</time>
      </trkpt>
      <trkpt lat="43.57589" lon="-1.48329">
        <ele>9.3999996185303</ele>
        <time>2023-06-10T09:59:58Z</time>
      </trkpt>
      <trkpt lat="43.57599" lon="-1.48365">
        <ele>9.6000003814697</ele>
        <time>2023-06-10T10:00:06Z</time>
      </trkpt>
      <trkpt lat="43.57611" lon="-1.48403">
        <ele>10</ele>
        <time>2023-06-10T10:00:15Z</time>
      </trkpt>
      <trkpt lat="43.57626" lon="-1.48453">
        <ele>10.60000038147</ele>
        <time>2023-06-10T10:00:26Z</time>
      </trkpt>
      <trkpt lat="43.57644" lon="-1.48505">
        <ele>10.60000038147</ele>
        <time>2023-06-10T10:00:38Z</time>
      </trkpt>
      <trkpt lat="43.57656" lon="-1.48535">
        <ele>11.199999809265</ele>
        <time>2023-06-10T10:00:46Z</time>
      </trkpt>
      <trkpt lat="43.57667" lon="-1.48564">
        <ele>12</ele>
        <time>2023-06-10T10:00:54Z</time>
      </trkpt>
      <trkpt lat="43.57679" lon="-1.48607">
        <ele>13</ele>
        <time>2023-06-10T10:01:05Z</time>
      </trkpt>
      <trkpt lat="43.57693" lon="-1.48642">
        <ele>13.60000038147</ele>
        <time>2023-06-10T10:01:15Z</time>
      </trkpt>
      <trkpt lat="43.57708" lon="-1.48688">
        <ele>14.39999961853</ele>
        <time>2023-06-10T10:01:27Z</time>
      </trkpt>
      <trkpt lat="43.57718" lon="-1.48729">
        <ele>15</ele>
        <time>2023-06-10T10:01:37Z</time>
      </trkpt>
      <trkpt lat="43.57729" lon="-1.48752">
        <ele>15.199999809265</ele>
        <time>2023-06-10T10:01:45Z</time>
      </trkpt>
      <trkpt lat="43.57731" lon="-1.48757">
        <ele>15.39999961853</ele>
        <time>2023-06-10T10:01:47Z</time>
      </trkpt>
      <trkpt lat="43.57724" lon="-1.48766">
        <ele>15.39999961853</ele>
        <time>2023-06-10T10:01:54Z</time>
      </trkpt>
      <trkpt lat="43.57721" lon="-1.48769">
        <ele>15.39999961853</ele>
        <time>2023-06-10T10:01:56Z</time>
      </trkpt>
      <trkpt lat="43.5772" lon="-1.48771">
        <ele>15.39999961853</ele>
        <time>2023-06-10T10:02:04Z</time>
      </trkpt>
      <trkpt lat="43.57719" lon="-1.48771">
        <ele>15.199999809265</ele>
        <time>2023-06-10T10:02:17Z</time>
      </trkpt>
      <trkpt lat="43.57703" lon="-1.48779">
        <ele>15.199999809265</ele>
        <time>2023-06-10T10:02:26Z</time>
      </trkpt>
      <trkpt lat="43.57701" lon="-1.48781">
        <ele>15.199999809265</ele>
        <time>2023-06-10T10:02:27Z</time>
      </trkpt>
      <trkpt lat="43.57704" lon="-1.4879">
        <ele>15</ele>
        <time>2023-06-10T10:05:45Z</time>
      </trkpt>
      <trkpt lat="43.57702" lon="-1.48779">
        <ele>14.800000190735</ele>
        <time>2023-06-10T11:24:18Z</time>
      </trkpt>
      <trkpt lat="43.57707" lon="-1.48776">
        <ele>18.60000038147</ele>
        <time>2023-06-10T11:24:24Z</time>
      </trkpt>
      <trkpt lat="43.57719" lon="-1.4877">
        <ele>19.60000038147</ele>
        <time>2023-06-10T11:24:37Z</time>
      </trkpt>
      <trkpt lat="43.57727" lon="-1.4876">
        <ele>19.60000038147</ele>
        <time>2023-06-10T11:24:48Z</time>
      </trkpt>
      <trkpt lat="43.57727" lon="-1.48758">
        <ele>19.60000038147</ele>
        <time>2023-06-10T11:24:57Z</time>
      </trkpt>
      <trkpt lat="43.57725" lon="-1.48755">
        <ele>19.60000038147</ele>
        <time>2023-06-10T11:25:05Z</time>
      </trkpt>
      <trkpt lat="43.57716" lon="-1.48731">
        <ele>19.39999961853</ele>
        <time>2023-06-10T11:25:16Z</time>
      </trkpt>
      <trkpt lat="43.57711" lon="-1.48711">
        <ele>19.200000762939</ele>
        <time>2023-06-10T11:25:25Z</time>
      </trkpt>
      <trkpt lat="43.57704" lon="-1.48687">
        <ele>18.799999237061</ele>
        <time>2023-06-10T11:25:35Z</time>
      </trkpt>
      <trkpt lat="43.57696" lon="-1.48658">
        <ele>18.60000038147</ele>
        <time>2023-06-10T11:25:44Z</time>
      </trkpt>
      <trkpt lat="43.57685" lon="-1.48622">
        <ele>18.200000762939</ele>
        <time>2023-06-10T11:25:54Z</time>
      </trkpt>
      <trkpt lat="43.57675" lon="-1.48592">
        <ele>17.799999237061</ele>
        <time>2023-06-10T11:26:02Z</time>
      </trkpt>
      <trkpt lat="43.57663" lon="-1.48554">
        <ele>17</ele>
        <time>2023-06-10T11:26:12Z</time>
      </trkpt>
      <trkpt lat="43.57652" lon="-1.48531">
        <ele>16.39999961853</ele>
        <time>2023-06-10T11:26:20Z</time>
      </trkpt>
      <trkpt lat="43.57641" lon="-1.48505">
        <ele>15.800000190735</ele>
        <time>2023-06-10T11:26:27Z</time>
      </trkpt>
      <trkpt lat="43.5762" lon="-1.48443">
        <ele>14.800000190735</ele>
        <time>2023-06-10T11:26:38Z</time>
      </trkpt>
      <trkpt lat="43.57596" lon="-1.48369">
        <ele>14.39999961853</ele>
        <time>2023-06-10T11:26:51Z</time>
      </trkpt>
      <trkpt lat="43.5758" lon="-1.48315">
        <ele>14.199999809265</ele>
        <time>2023-06-10T11:27:00Z</time>
      </trkpt>
      <trkpt lat="43.57572" lon="-1.48302">
        <ele>13.800000190735</ele>
        <time>2023-06-10T11:27:04Z</time>
      </trkpt>
      <trkpt lat="43.57559" lon="-1.48299">
        <ele>13.60000038147</ele>
        <time>2023-06-10T11:27:10Z</time>
      </trkpt>
      <trkpt lat="43.57556" lon="-1.483">
        <ele>13.60000038147</ele>
        <time>2023-06-10T11:27:11Z</time>
      </trkpt>
      <trkpt lat="43.57554" lon="-1.48298">
        <ele>13.60000038147</ele>
        <time>2023-06-10T11:27:12Z</time>
      </trkpt>
      <trkpt lat="43.57552" lon="-1.48296">
        <ele>13.39999961853</ele>
        <time>2023-06-10T11:27:13Z</time>
      </trkpt>
      <trkpt lat="43.57551" lon="-1.48293">
        <ele>13.39999961853</ele>
        <time>2023-06-10T11:27:14Z</time>
      </trkpt>
      <trkpt lat="43.57551" lon="-1.48291">
        <ele>13.199999809265</ele>
        <time>2023-06-10T11:27:15Z</time>
      </trkpt>
      <trkpt lat="43.57551" lon="-1.48287">
        <ele>13.199999809265</ele>
        <time>2023-06-10T11:27:16Z</time>
      </trkpt>
      <trkpt lat="43.57552" lon="-1.48284">
        <ele>13.199999809265</ele>
        <time>2023-06-10T11:27:17Z</time>
      </trkpt>
      <trkpt lat="43.57552" lon="-1.48281">
        <ele>13.199999809265</ele>
        <time>2023-06-10T11:27:18Z</time>
      </trkpt>
      <trkpt lat="43.57553" lon="-1.48278">
        <ele>13.199999809265</ele>
        <time>2023-06-10T11:27:19Z</time>
      </trkpt>
      <trkpt lat="43.57558" lon="-1.48256">
        <ele>13.800000190735</ele>
        <time>2023-06-10T11:27:26Z</time>
      </trkpt>
      <trkpt lat="43.57562" lon="-1.48251">
        <ele>13.800000190735</ele>
        <time>2023-06-10T11:27:28Z</time>
      </trkpt>
      <trkpt lat="43.57562" lon="-1.48248">
        <ele>13.800000190735</ele>
        <time>2023-06-10T11:27:29Z</time>
      </trkpt>
      <trkpt lat="43.57562" lon="-1.48245">
        <ele>13.800000190735</ele>
        <time>2023-06-10T11:27:30Z</time>
      </trkpt>
      <trkpt lat="43.57555" lon="-1.48225">
        <ele>13.800000190735</ele>
        <time>2023-06-10T11:27:37Z</time>
      </trkpt>
      <trkpt lat="43.57547" lon="-1.48203">
        <ele>13.800000190735</ele>
        <time>2023-06-10T11:27:44Z</time>
      </trkpt>
      <trkpt lat="43.57538" lon="-1.48176">
        <ele>14.39999961853</ele>
        <time>2023-06-10T11:27:52Z</time>
      </trkpt>
      <trkpt lat="43.57529" lon="-1.48146">
        <ele>15.199999809265</ele>
        <time>2023-06-10T11:28:00Z</time>
      </trkpt>
      <trkpt lat="43.57519" lon="-1.48116">
        <ele>15.60000038147</ele>
        <time>2023-06-10T11:28:08Z</time>
      </trkpt>
      <trkpt lat="43.57505" lon="-1.48081">
        <ele>15.60000038147</ele>
        <time>2023-06-10T11:28:16Z</time>
      </trkpt>
      <trkpt lat="43.57503" lon="-1.48076">
        <ele>15.60000038147</ele>
        <time>2023-06-10T11:28:17Z</time>
      </trkpt>
      <trkpt lat="43.57491" lon="-1.48032">
        <ele>15</ele>
        <time>2023-06-10T11:28:25Z</time>
      </trkpt>
      <trkpt lat="43.57475" lon="-1.47992">
        <ele>14.800000190735</ele>
        <time>2023-06-10T11:28:34Z</time>
      </trkpt>
      <trkpt lat="43.57462" lon="-1.47959">
        <ele>14.800000190735</ele>
        <time>2023-06-10T11:28:42Z</time>
      </trkpt>
      <trkpt lat="43.5745" lon="-1.47931">
        <ele>15</ele>
        <time>2023-06-10T11:28:49Z</time>
      </trkpt>
      <trkpt lat="43.57439" lon="-1.47893">
        <ele>15.39999961853</ele>
        <time>2023-06-10T11:28:58Z</time>
      </trkpt>
      <trkpt lat="43.5743" lon="-1.47859">
        <ele>15.800000190735</ele>
        <time>2023-06-10T11:29:06Z</time>
      </trkpt>
      <trkpt lat="43.57417" lon="-1.4782">
        <ele>16</ele>
        <time>2023-06-10T11:29:15Z</time>
      </trkpt>
      <trkpt lat="43.57402" lon="-1.47773">
        <ele>15.800000190735</ele>
        <time>2023-06-10T11:29:24Z</time>
      </trkpt>
      <trkpt lat="43.57399" lon="-1.47762">
        <ele>15.60000038147</ele>
        <time>2023-06-10T11:29:26Z</time>
      </trkpt>
      <trkpt lat="43.57388" lon="-1.47725">
        <ele>15.199999809265</ele>
        <time>2023-06-10T11:29:33Z</time>
      </trkpt>
      <trkpt lat="43.57373" lon="-1.47684">
        <ele>15</ele>
        <time>2023-06-10T11:29:42Z</time>
      </trkpt>
      <trkpt lat="43.57364" lon="-1.47657">
        <ele>14.800000190735</ele>
        <time>2023-06-10T11:29:48Z</time>
      </trkpt>
      <trkpt lat="43.57355" lon="-1.47629">
        <ele>15</ele>
        <time>2023-06-10T11:29:54Z</time>
      </trkpt>
      <trkpt lat="43.5735" lon="-1.47606">
        <ele>15</ele>
        <time>2023-06-10T11:30:00Z</time>
      </trkpt>
      <trkpt lat="43.57341" lon="-1.47575">
        <ele>15</ele>
        <time>2023-06-10T11:30:07Z</time>
      </trkpt>
      <trkpt lat="43.57328" lon="-1.47535">
        <ele>15</ele>
        <time>2023-06-10T11:30:16Z</time>
      </trkpt>
      <trkpt lat="43.57315" lon="-1.47499">
        <ele>15</ele>
        <time>2023-06-10T11:30:24Z</time>
      </trkpt>
      <trkpt lat="43.57303" lon="-1.47465">
        <ele>15</ele>
        <time>2023-06-10T11:30:32Z</time>
      </trkpt>
      <trkpt lat="43.57288" lon="-1.47418">
        <ele>15.39999961853</ele>
        <time>2023-06-10T11:30:42Z</time>
      </trkpt>
      <trkpt lat="43.57276" lon="-1.47386">
        <ele>15.39999961853</ele>
        <time>2023-06-10T11:30:49Z</time>
      </trkpt>
      <trkpt lat="43.57257" lon="-1.4734">
        <ele>15.39999961853</ele>
        <time>2023-06-10T11:30:59Z</time>
      </trkpt>
      <trkpt lat="43.57243" lon="-1.47291">
        <ele>15.39999961853</ele>
        <time>2023-06-10T11:31:09Z</time>
      </trkpt>
      <trkpt lat="43.57229" lon="-1.47247">
        <ele>15.800000190735</ele>
        <time>2023-06-10T11:31:19Z</time>
      </trkpt>
      <trkpt lat="43.57217" lon="-1.47207">
        <ele>16</ele>
        <time>2023-06-10T11:31:28Z</time>
      </trkpt>
      <trkpt lat="43.57213" lon="-1.47178">
        <ele>16.60000038147</ele>
        <time>2023-06-10T11:31:35Z</time>
      </trkpt>
      <trkpt lat="43.57211" lon="-1.47165">
        <ele>16.60000038147</ele>
        <time>2023-06-10T11:31:38Z</time>
      </trkpt>
      <trkpt lat="43.57211" lon="-1.47161">
        <ele>16.60000038147</ele>
        <time>2023-06-10T11:31:39Z</time>
      </trkpt>
      <trkpt lat="43.57211" lon="-1.47157">
        <ele>16.799999237061</ele>
        <time>2023-06-10T11:31:40Z</time>
      </trkpt>
      <trkpt lat="43.57211" lon="-1.47154">
        <ele>16.799999237061</ele>
        <time>2023-06-10T11:31:41Z</time>
      </trkpt>
      <trkpt lat="43.5721" lon="-1.4715">
        <ele>16.799999237061</ele>
        <time>2023-06-10T11:31:42Z</time>
      </trkpt>
      <trkpt lat="43.5721" lon="-1.47146">
        <ele>16.799999237061</ele>
        <time>2023-06-10T11:31:43Z</time>
      </trkpt>
      <trkpt lat="43.57208" lon="-1.47142">
        <ele>16.799999237061</ele>
        <time>2023-06-10T11:31:44Z</time>
      </trkpt>
      <trkpt lat="43.57206" lon="-1.47138">
        <ele>16.799999237061</ele>
        <time>2023-06-10T11:31:45Z</time>
      </trkpt>
      <trkpt lat="43.57203" lon="-1.47136">
        <ele>16.799999237061</ele>
        <time>2023-06-10T11:31:46Z</time>
      </trkpt>
      <trkpt lat="43.57201" lon="-1.47135">
        <ele>16.799999237061</ele>
        <time>2023-06-10T11:31:47Z</time>
      </trkpt>
      <trkpt lat="43.57198" lon="-1.47133">
        <ele>16.799999237061</ele>
        <time>2023-06-10T11:31:48Z</time>
      </trkpt>
      <trkpt lat="43.57196" lon="-1.4713">
        <ele>16.799999237061</ele>
        <time>2023-06-10T11:31:49Z</time>
      </trkpt>
      <trkpt lat="43.57194" lon="-1.47127">
        <ele>16.799999237061</ele>
        <time>2023-06-10T11:31:50Z</time>
      </trkpt>
      <trkpt lat="43.57192" lon="-1.47124">
        <ele>16.799999237061</ele>
        <time>2023-06-10T11:31:51Z</time>
      </trkpt>
      <trkpt lat="43.57191" lon="-1.4712">
        <ele>17</ele>
        <time>2023-06-10T11:31:52Z</time>
      </trkpt>
      <trkpt lat="43.57189" lon="-1.47115">
        <ele>17</ele>
        <time>2023-06-10T11:31:53Z</time>
      </trkpt>
      <trkpt lat="43.57187" lon="-1.47111">
        <ele>17</ele>
        <time>2023-06-10T11:31:54Z</time>
      </trkpt>
      <trkpt lat="43.57173" lon="-1.47068">
        <ele>17</ele>
        <time>2023-06-10T11:32:03Z</time>
      </trkpt>
      <trkpt lat="43.57158" lon="-1.47026">
        <ele>16.799999237061</ele>
        <time>2023-06-10T11:32:13Z</time>
      </trkpt>
      <trkpt lat="43.57142" lon="-1.46975">
        <ele>16.60000038147</ele>
        <time>2023-06-10T11:32:23Z</time>
      </trkpt>
      <trkpt lat="43.57125" lon="-1.46921">
        <ele>16.60000038147</ele>
        <time>2023-06-10T11:32:34Z</time>
      </trkpt>
      <trkpt lat="43.57103" lon="-1.46864">
        <ele>16.39999961853</ele>
        <time>2023-06-10T11:32:46Z</time>
      </trkpt>
      <trkpt lat="43.57086" lon="-1.46811">
        <ele>16.39999961853</ele>
        <time>2023-06-10T11:32:57Z</time>
      </trkpt>
      <trkpt lat="43.57069" lon="-1.46758">
        <ele>16.39999961853</ele>
        <time>2023-06-10T11:33:08Z</time>
      </trkpt>
      <trkpt lat="43.57058" lon="-1.46727">
        <ele>16.39999961853</ele>
        <time>2023-06-10T11:33:15Z</time>
      </trkpt>
      <trkpt lat="43.57052" lon="-1.46706">
        <ele>16.60000038147</ele>
        <time>2023-06-10T11:33:20Z</time>
      </trkpt>
      <trkpt lat="43.57053" lon="-1.46702">
        <ele>16.60000038147</ele>
        <time>2023-06-10T11:33:21Z</time>
      </trkpt>
      <trkpt lat="43.57054" lon="-1.46698">
        <ele>16.60000038147</ele>
        <time>2023-06-10T11:33:22Z</time>
      </trkpt>
      <trkpt lat="43.57056" lon="-1.46694">
        <ele>16.60000038147</ele>
        <time>2023-06-10T11:33:23Z</time>
      </trkpt>
      <trkpt lat="43.57059" lon="-1.4669">
        <ele>16.60000038147</ele>
        <time>2023-06-10T11:33:24Z</time>
      </trkpt>
      <trkpt lat="43.5708" lon="-1.46668">
        <ele>16.39999961853</ele>
        <time>2023-06-10T11:33:31Z</time>
      </trkpt>
      <trkpt lat="43.57097" lon="-1.46646">
        <ele>16.39999961853</ele>
        <time>2023-06-10T11:33:38Z</time>
      </trkpt>
      <trkpt lat="43.57123" lon="-1.46615">
        <ele>16.39999961853</ele>
        <time>2023-06-10T11:33:46Z</time>
      </trkpt>
      <trkpt lat="43.57148" lon="-1.46592">
        <ele>16</ele>
        <time>2023-06-10T11:33:54Z</time>
      </trkpt>
      <trkpt lat="43.57167" lon="-1.46567">
        <ele>16.200000762939</ele>
        <time>2023-06-10T11:34:01Z</time>
      </trkpt>
      <trkpt lat="43.57182" lon="-1.46552">
        <ele>16.39999961853</ele>
        <time>2023-06-10T11:34:07Z</time>
      </trkpt>
      <trkpt lat="43.57194" lon="-1.46535">
        <ele>16.39999961853</ele>
        <time>2023-06-10T11:34:13Z</time>
      </trkpt>
      <trkpt lat="43.57204" lon="-1.46517">
        <ele>16.39999961853</ele>
        <time>2023-06-10T11:34:19Z</time>
      </trkpt>
      <trkpt lat="43.57224" lon="-1.46499">
        <ele>17.39999961853</ele>
        <time>2023-06-10T11:34:27Z</time>
      </trkpt>
      <trkpt lat="43.57241" lon="-1.46473">
        <ele>17.39999961853</ele>
        <time>2023-06-10T11:34:33Z</time>
      </trkpt>
      <trkpt lat="43.57245" lon="-1.46469">
        <ele>17.39999961853</ele>
        <time>2023-06-10T11:34:34Z</time>
      </trkpt>
      <trkpt lat="43.57248" lon="-1.46465">
        <ele>17.200000762939</ele>
        <time>2023-06-10T11:34:35Z</time>
      </trkpt>
      <trkpt lat="43.57249" lon="-1.46462">
        <ele>17.200000762939</ele>
        <time>2023-06-10T11:34:36Z</time>
      </trkpt>
      <trkpt lat="43.57252" lon="-1.46459">
        <ele>17.200000762939</ele>
        <time>2023-06-10T11:34:37Z</time>
      </trkpt>
      <trkpt lat="43.57254" lon="-1.46456">
        <ele>17.200000762939</ele>
        <time>2023-06-10T11:34:38Z</time>
      </trkpt>
      <trkpt lat="43.57273" lon="-1.46428">
        <ele>17.200000762939</ele>
        <time>2023-06-10T11:34:46Z</time>
      </trkpt>
      <trkpt lat="43.57291" lon="-1.46413">
        <ele>17</ele>
        <time>2023-06-10T11:34:51Z</time>
      </trkpt>
      <trkpt lat="43.57311" lon="-1.46391">
        <ele>17</ele>
        <time>2023-06-10T11:34:57Z</time>
      </trkpt>
      <trkpt lat="43.57325" lon="-1.4637">
        <ele>17</ele>
        <time>2023-06-10T11:35:03Z</time>
      </trkpt>
      <trkpt lat="43.57352" lon="-1.4634">
        <ele>16.60000038147</ele>
        <time>2023-06-10T11:35:11Z</time>
      </trkpt>
      <trkpt lat="43.57377" lon="-1.46314">
        <ele>16.200000762939</ele>
        <time>2023-06-10T11:35:19Z</time>
      </trkpt>
      <trkpt lat="43.57397" lon="-1.46291">
        <ele>16</ele>
        <time>2023-06-10T11:35:26Z</time>
      </trkpt>
      <trkpt lat="43.57425" lon="-1.46267">
        <ele>15.60000038147</ele>
        <time>2023-06-10T11:35:33Z</time>
      </trkpt>
      <trkpt lat="43.57459" lon="-1.46253">
        <ele>15.60000038147</ele>
        <time>2023-06-10T11:35:40Z</time>
      </trkpt>
      <trkpt lat="43.57489" lon="-1.46229">
        <ele>15.800000190735</ele>
        <time>2023-06-10T11:35:48Z</time>
      </trkpt>
      <trkpt lat="43.57519" lon="-1.46184">
        <ele>15.39999961853</ele>
        <time>2023-06-10T11:35:59Z</time>
      </trkpt>
      <trkpt lat="43.57537" lon="-1.46158">
        <ele>15.39999961853</ele>
        <time>2023-06-10T11:36:06Z</time>
      </trkpt>
      <trkpt lat="43.57557" lon="-1.46125">
        <ele>15.39999961853</ele>
        <time>2023-06-10T11:36:14Z</time>
      </trkpt>
      <trkpt lat="43.57569" lon="-1.46098">
        <ele>15.60000038147</ele>
        <time>2023-06-10T11:36:20Z</time>
      </trkpt>
      <trkpt lat="43.57577" lon="-1.46085">
        <ele>15.60000038147</ele>
        <time>2023-06-10T11:36:23Z</time>
      </trkpt>
      <trkpt lat="43.57582" lon="-1.46082">
        <ele>15.800000190735</ele>
        <time>2023-06-10T11:36:24Z</time>
      </trkpt>
      <trkpt lat="43.57586" lon="-1.46079">
        <ele>15.800000190735</ele>
        <time>2023-06-10T11:36:25Z</time>
      </trkpt>
      <trkpt lat="43.57625" lon="-1.46059">
        <ele>15.199999809265</ele>
        <time>2023-06-10T11:36:34Z</time>
      </trkpt>
      <trkpt lat="43.57629" lon="-1.46057">
        <ele>15.199999809265</ele>
        <time>2023-06-10T11:36:35Z</time>
      </trkpt>
      <trkpt lat="43.5767" lon="-1.46049">
        <ele>14.800000190735</ele>
        <time>2023-06-10T11:36:46Z</time>
      </trkpt>
      <trkpt lat="43.57699" lon="-1.46042">
        <ele>15</ele>
        <time>2023-06-10T11:36:54Z</time>
      </trkpt>
      <trkpt lat="43.57725" lon="-1.46027">
        <ele>14.60000038147</ele>
        <time>2023-06-10T11:37:02Z</time>
      </trkpt>
      <trkpt lat="43.57745" lon="-1.46007">
        <ele>14.60000038147</ele>
        <time>2023-06-10T11:37:09Z</time>
      </trkpt>
      <trkpt lat="43.57757" lon="-1.45977">
        <ele>14.800000190735</ele>
        <time>2023-06-10T11:37:16Z</time>
      </trkpt>
      <trkpt lat="43.57763" lon="-1.45944">
        <ele>14.800000190735</ele>
        <time>2023-06-10T11:37:23Z</time>
      </trkpt>
      <trkpt lat="43.57779" lon="-1.45921">
        <ele>14.800000190735</ele>
        <time>2023-06-10T11:37:29Z</time>
      </trkpt>
      <trkpt lat="43.57796" lon="-1.45888">
        <ele>14.800000190735</ele>
        <time>2023-06-10T11:37:36Z</time>
      </trkpt>
      <trkpt lat="43.57819" lon="-1.45841">
        <ele>14.800000190735</ele>
        <time>2023-06-10T11:37:46Z</time>
      </trkpt>
      <trkpt lat="43.57839" lon="-1.45809">
        <ele>14.800000190735</ele>
        <time>2023-06-10T11:37:54Z</time>
      </trkpt>
      <trkpt lat="43.57862" lon="-1.45779">
        <ele>14.800000190735</ele>
        <time>2023-06-10T11:38:02Z</time>
      </trkpt>
      <trkpt lat="43.57866" lon="-1.45776">
        <ele>14.800000190735</ele>
        <time>2023-06-10T11:38:03Z</time>
      </trkpt>
      <trkpt lat="43.57906" lon="-1.45752">
        <ele>14.60000038147</ele>
        <time>2023-06-10T11:38:14Z</time>
      </trkpt>
      <trkpt lat="43.57923" lon="-1.45731">
        <ele>14.60000038147</ele>
        <time>2023-06-10T11:38:20Z</time>
      </trkpt>
      <trkpt lat="43.57926" lon="-1.45728">
        <ele>14.60000038147</ele>
        <time>2023-06-10T11:38:21Z</time>
      </trkpt>
      <trkpt lat="43.57959" lon="-1.45707">
        <ele>14.60000038147</ele>
        <time>2023-06-10T11:38:30Z</time>
      </trkpt>
      <trkpt lat="43.57986" lon="-1.45701">
        <ele>15</ele>
        <time>2023-06-10T11:38:36Z</time>
      </trkpt>
      <trkpt lat="43.58037" lon="-1.45693">
        <ele>14.800000190735</ele>
        <time>2023-06-10T11:38:47Z</time>
      </trkpt>
      <trkpt lat="43.58072" lon="-1.45683">
        <ele>14.800000190735</ele>
        <time>2023-06-10T11:38:56Z</time>
      </trkpt>
      <trkpt lat="43.58106" lon="-1.45675">
        <ele>14.800000190735</ele>
        <time>2023-06-10T11:39:05Z</time>
      </trkpt>
      <trkpt lat="43.58128" lon="-1.4567">
        <ele>15</ele>
        <time>2023-06-10T11:39:12Z</time>
      </trkpt>
      <trkpt lat="43.5815" lon="-1.45666">
        <ele>15</ele>
        <time>2023-06-10T11:39:19Z</time>
      </trkpt>
      <trkpt lat="43.58172" lon="-1.45661">
        <ele>15</ele>
        <time>2023-06-10T11:39:25Z</time>
      </trkpt>
      <trkpt lat="43.58197" lon="-1.45656">
        <ele>15</ele>
        <time>2023-06-10T11:39:31Z</time>
      </trkpt>
      <trkpt lat="43.58244" lon="-1.45651">
        <ele>14.60000038147</ele>
        <time>2023-06-10T11:39:41Z</time>
      </trkpt>
      <trkpt lat="43.58292" lon="-1.45648">
        <ele>14.60000038147</ele>
        <time>2023-06-10T11:39:52Z</time>
      </trkpt>
      <trkpt lat="43.5834" lon="-1.45644">
        <ele>14.39999961853</ele>
        <time>2023-06-10T11:40:03Z</time>
      </trkpt>
      <trkpt lat="43.58384" lon="-1.45639">
        <ele>14.39999961853</ele>
        <time>2023-06-10T11:40:14Z</time>
      </trkpt>
      <trkpt lat="43.5842" lon="-1.45634">
        <ele>14.199999809265</ele>
        <time>2023-06-10T11:40:23Z</time>
      </trkpt>
      <trkpt lat="43.58462" lon="-1.45629">
        <ele>14.39999961853</ele>
        <time>2023-06-10T11:40:34Z</time>
      </trkpt>
      <trkpt lat="43.58504" lon="-1.45624">
        <ele>14.199999809265</ele>
        <time>2023-06-10T11:40:45Z</time>
      </trkpt>
      <trkpt lat="43.58525" lon="-1.45605">
        <ele>14.199999809265</ele>
        <time>2023-06-10T11:40:52Z</time>
      </trkpt>
      <trkpt lat="43.58534" lon="-1.45584">
        <ele>14.199999809265</ele>
        <time>2023-06-10T11:40:57Z</time>
      </trkpt>
      <trkpt lat="43.58553" lon="-1.45565">
        <ele>14.199999809265</ele>
        <time>2023-06-10T11:41:04Z</time>
      </trkpt>
      <trkpt lat="43.58555" lon="-1.45567">
        <ele>14.199999809265</ele>
        <time>2023-06-10T11:41:05Z</time>
      </trkpt>
      <trkpt lat="43.58555" lon="-1.45572">
        <ele>14.199999809265</ele>
        <time>2023-06-10T11:41:06Z</time>
      </trkpt>
      <trkpt lat="43.58556" lon="-1.45576">
        <ele>14.199999809265</ele>
        <time>2023-06-10T11:41:07Z</time>
      </trkpt>
      <trkpt lat="43.58558" lon="-1.4558">
        <ele>14.199999809265</ele>
        <time>2023-06-10T11:41:08Z</time>
      </trkpt>
      <trkpt lat="43.58559" lon="-1.45584">
        <ele>14.199999809265</ele>
        <time>2023-06-10T11:41:09Z</time>
      </trkpt>
      <trkpt lat="43.58571" lon="-1.45606">
        <ele>14</ele>
        <time>2023-06-10T11:41:17Z</time>
      </trkpt>
      <trkpt lat="43.58589" lon="-1.45635">
        <ele>14.800000190735</ele>
        <time>2023-06-10T11:41:25Z</time>
      </trkpt>
      <trkpt lat="43.58607" lon="-1.45659">
        <ele>15.199999809265</ele>
        <time>2023-06-10T11:41:32Z</time>
      </trkpt>
      <trkpt lat="43.58636" lon="-1.45695">
        <ele>15.39999961853</ele>
        <time>2023-06-10T11:41:41Z</time>
      </trkpt>
      <trkpt lat="43.5866" lon="-1.45721">
        <ele>15.39999961853</ele>
        <time>2023-06-10T11:41:48Z</time>
      </trkpt>
      <trkpt lat="43.58683" lon="-1.45747">
        <ele>15.39999961853</ele>
        <time>2023-06-10T11:41:55Z</time>
      </trkpt>
      <trkpt lat="43.58701" lon="-1.4577">
        <ele>15.39999961853</ele>
        <time>2023-06-10T11:42:01Z</time>
      </trkpt>
      <trkpt lat="43.58723" lon="-1.45798">
        <ele>15</ele>
        <time>2023-06-10T11:42:08Z</time>
      </trkpt>
      <trkpt lat="43.58745" lon="-1.45824">
        <ele>14.60000038147</ele>
        <time>2023-06-10T11:42:16Z</time>
      </trkpt>
      <trkpt lat="43.58765" lon="-1.45841">
        <ele>14.60000038147</ele>
        <time>2023-06-10T11:42:22Z</time>
      </trkpt>
      <trkpt lat="43.58784" lon="-1.45859">
        <ele>15</ele>
        <time>2023-06-10T11:42:29Z</time>
      </trkpt>
      <trkpt lat="43.58802" lon="-1.45873">
        <ele>15.199999809265</ele>
        <time>2023-06-10T11:42:34Z</time>
      </trkpt>
      <trkpt lat="43.58825" lon="-1.45896">
        <ele>15.39999961853</ele>
        <time>2023-06-10T11:42:42Z</time>
      </trkpt>
      <trkpt lat="43.58846" lon="-1.45913">
        <ele>15.39999961853</ele>
        <time>2023-06-10T11:42:48Z</time>
      </trkpt>
      <trkpt lat="43.5887" lon="-1.45928">
        <ele>15.39999961853</ele>
        <time>2023-06-10T11:42:54Z</time>
      </trkpt>
      <trkpt lat="43.58897" lon="-1.45944">
        <ele>15.39999961853</ele>
        <time>2023-06-10T11:43:01Z</time>
      </trkpt>
      <trkpt lat="43.58919" lon="-1.45959">
        <ele>15.39999961853</ele>
        <time>2023-06-10T11:43:07Z</time>
      </trkpt>
      <trkpt lat="43.58953" lon="-1.45975">
        <ele>15</ele>
        <time>2023-06-10T11:43:15Z</time>
      </trkpt>
      <trkpt lat="43.5898" lon="-1.45988">
        <ele>15</ele>
        <time>2023-06-10T11:43:21Z</time>
      </trkpt>
      <trkpt lat="43.59008" lon="-1.46">
        <ele>14.800000190735</ele>
        <time>2023-06-10T11:43:27Z</time>
      </trkpt>
      <trkpt lat="43.59048" lon="-1.46018">
        <ele>14.800000190735</ele>
        <time>2023-06-10T11:43:36Z</time>
      </trkpt>
      <trkpt lat="43.59073" lon="-1.46024">
        <ele>14.800000190735</ele>
        <time>2023-06-10T11:43:42Z</time>
      </trkpt>
      <trkpt lat="43.59113" lon="-1.46037">
        <ele>14.800000190735</ele>
        <time>2023-06-10T11:43:51Z</time>
      </trkpt>
      <trkpt lat="43.5915" lon="-1.46049">
        <ele>14.60000038147</ele>
        <time>2023-06-10T11:44:00Z</time>
      </trkpt>
      <trkpt lat="43.5919" lon="-1.46056">
        <ele>14.39999961853</ele>
        <time>2023-06-10T11:44:09Z</time>
      </trkpt>
      <trkpt lat="43.59238" lon="-1.4606">
        <ele>14.800000190735</ele>
        <time>2023-06-10T11:44:20Z</time>
      </trkpt>
      <trkpt lat="43.59276" lon="-1.46063">
        <ele>14.39999961853</ele>
        <time>2023-06-10T11:44:28Z</time>
      </trkpt>
      <trkpt lat="43.59315" lon="-1.46066">
        <ele>14.199999809265</ele>
        <time>2023-06-10T11:44:37Z</time>
      </trkpt>
      <trkpt lat="43.59366" lon="-1.46065">
        <ele>14.39999961853</ele>
        <time>2023-06-10T11:44:49Z</time>
      </trkpt>
      <trkpt lat="43.59415" lon="-1.46064">
        <ele>14</ele>
        <time>2023-06-10T11:45:01Z</time>
      </trkpt>
      <trkpt lat="43.59469" lon="-1.46059">
        <ele>13.800000190735</ele>
        <time>2023-06-10T11:45:14Z</time>
      </trkpt>
      <trkpt lat="43.5951" lon="-1.46052">
        <ele>13.800000190735</ele>
        <time>2023-06-10T11:45:24Z</time>
      </trkpt>
      <trkpt lat="43.59555" lon="-1.46048">
        <ele>13.39999961853</ele>
        <time>2023-06-10T11:45:34Z</time>
      </trkpt>
      <trkpt lat="43.59559" lon="-1.46047">
        <ele>13.39999961853</ele>
        <time>2023-06-10T11:45:35Z</time>
      </trkpt>
      <trkpt lat="43.59563" lon="-1.46046">
        <ele>13.199999809265</ele>
        <time>2023-06-10T11:45:36Z</time>
      </trkpt>
      <trkpt lat="43.59567" lon="-1.46043">
        <ele>13.199999809265</ele>
        <time>2023-06-10T11:45:37Z</time>
      </trkpt>
      <trkpt lat="43.59571" lon="-1.4604">
        <ele>13.199999809265</ele>
        <time>2023-06-10T11:45:38Z</time>
      </trkpt>
      <trkpt lat="43.59574" lon="-1.46037">
        <ele>13.199999809265</ele>
        <time>2023-06-10T11:45:39Z</time>
      </trkpt>
      <trkpt lat="43.59576" lon="-1.46033">
        <ele>13</ele>
        <time>2023-06-10T11:45:40Z</time>
      </trkpt>
      <trkpt lat="43.59578" lon="-1.46029">
        <ele>13</ele>
        <time>2023-06-10T11:45:41Z</time>
      </trkpt>
      <trkpt lat="43.59591" lon="-1.46016">
        <ele>12.800000190735</ele>
        <time>2023-06-10T11:45:47Z</time>
      </trkpt>
      <trkpt lat="43.59591" lon="-1.46016">
        <ele>12.60000038147</ele>
        <time>2023-06-10T11:45:54Z</time>
      </trkpt>
      <trkpt lat="43.59591" lon="-1.46016">
        <ele>12.60000038147</ele>
        <time>2023-06-10T11:46:15Z</time>
      </trkpt>
      <trkpt lat="43.59593" lon="-1.46019">
        <ele>12.60000038147</ele>
        <time>2023-06-10T11:46:43Z</time>
      </trkpt>
      <trkpt lat="43.59595" lon="-1.46022">
        <ele>12.60000038147</ele>
        <time>2023-06-10T11:46:45Z</time>
      </trkpt>
      <trkpt lat="43.59598" lon="-1.46026">
        <ele>12.60000038147</ele>
        <time>2023-06-10T11:46:48Z</time>
      </trkpt>
      <trkpt lat="43.596" lon="-1.46025">
        <ele>12.800000190735</ele>
        <time>2023-06-10T11:46:49Z</time>
      </trkpt>
      <trkpt lat="43.59602" lon="-1.46025">
        <ele>12.800000190735</ele>
        <time>2023-06-10T11:46:50Z</time>
      </trkpt>
      <trkpt lat="43.59621" lon="-1.46025">
        <ele>13</ele>
        <time>2023-06-10T11:46:57Z</time>
      </trkpt>
      <trkpt lat="43.59647" lon="-1.46021">
        <ele>13</ele>
        <time>2023-06-10T11:47:04Z</time>
      </trkpt>
      <trkpt lat="43.59673" lon="-1.46016">
        <ele>12.800000190735</ele>
        <time>2023-06-10T11:47:11Z</time>
      </trkpt>
      <trkpt lat="43.597" lon="-1.46017">
        <ele>12.60000038147</ele>
        <time>2023-06-10T11:47:18Z</time>
      </trkpt>
      <trkpt lat="43.59729" lon="-1.46017">
        <ele>12.60000038147</ele>
        <time>2023-06-10T11:47:26Z</time>
      </trkpt>
      <trkpt lat="43.59764" lon="-1.46017">
        <ele>12.800000190735</ele>
        <time>2023-06-10T11:47:35Z</time>
      </trkpt>
      <trkpt lat="43.59798" lon="-1.46018">
        <ele>13</ele>
        <time>2023-06-10T11:47:43Z</time>
      </trkpt>
      <trkpt lat="43.5984" lon="-1.46013">
        <ele>13.199999809265</ele>
        <time>2023-06-10T11:47:53Z</time>
      </trkpt>
      <trkpt lat="43.59882" lon="-1.46">
        <ele>13.199999809265</ele>
        <time>2023-06-10T11:48:03Z</time>
      </trkpt>
      <trkpt lat="43.59923" lon="-1.45985">
        <ele>12.800000190735</ele>
        <time>2023-06-10T11:48:13Z</time>
      </trkpt>
      <trkpt lat="43.5996" lon="-1.45969">
        <ele>12.60000038147</ele>
        <time>2023-06-10T11:48:22Z</time>
      </trkpt>
      <trkpt lat="43.60001" lon="-1.45943">
        <ele>12.199999809265</ele>
        <time>2023-06-10T11:48:32Z</time>
      </trkpt>
      <trkpt lat="43.6005" lon="-1.45909">
        <ele>11.800000190735</ele>
        <time>2023-06-10T11:48:44Z</time>
      </trkpt>
      <trkpt lat="43.60079" lon="-1.45889">
        <ele>12.199999809265</ele>
        <time>2023-06-10T11:48:52Z</time>
      </trkpt>
      <trkpt lat="43.60114" lon="-1.45865">
        <ele>12.60000038147</ele>
        <time>2023-06-10T11:49:01Z</time>
      </trkpt>
      <trkpt lat="43.60149" lon="-1.45829">
        <ele>12</ele>
        <time>2023-06-10T11:49:11Z</time>
      </trkpt>
      <trkpt lat="43.6016" lon="-1.45819">
        <ele>12</ele>
        <time>2023-06-10T11:49:14Z</time>
      </trkpt>
      <trkpt lat="43.60163" lon="-1.45815">
        <ele>12</ele>
        <time>2023-06-10T11:49:15Z</time>
      </trkpt>
      <trkpt lat="43.60194" lon="-1.45779">
        <ele>11.60000038147</ele>
        <time>2023-06-10T11:49:25Z</time>
      </trkpt>
      <trkpt lat="43.60237" lon="-1.45748">
        <ele>11.39999961853</ele>
        <time>2023-06-10T11:49:35Z</time>
      </trkpt>
      <trkpt lat="43.60262" lon="-1.45726">
        <ele>11.199999809265</ele>
        <time>2023-06-10T11:49:42Z</time>
      </trkpt>
      <trkpt lat="43.60294" lon="-1.45705">
        <ele>11.199999809265</ele>
        <time>2023-06-10T11:49:50Z</time>
      </trkpt>
      <trkpt lat="43.60328" lon="-1.45689">
        <ele>11</ele>
        <time>2023-06-10T11:49:58Z</time>
      </trkpt>
      <trkpt lat="43.60358" lon="-1.4568">
        <ele>11</ele>
        <time>2023-06-10T11:50:05Z</time>
      </trkpt>
      <trkpt lat="43.60381" lon="-1.45673">
        <ele>11</ele>
        <time>2023-06-10T11:50:11Z</time>
      </trkpt>
      <trkpt lat="43.60428" lon="-1.45662">
        <ele>11.39999961853</ele>
        <time>2023-06-10T11:50:22Z</time>
      </trkpt>
      <trkpt lat="43.60446" lon="-1.45657">
        <ele>11.39999961853</ele>
        <time>2023-06-10T11:50:26Z</time>
      </trkpt>
      <trkpt lat="43.60501" lon="-1.45628">
        <ele>11.39999961853</ele>
        <time>2023-06-10T11:50:39Z</time>
      </trkpt>
      <trkpt lat="43.60533" lon="-1.45598">
        <ele>11</ele>
        <time>2023-06-10T11:50:48Z</time>
      </trkpt>
      <trkpt lat="43.60562" lon="-1.45569">
        <ele>11</ele>
        <time>2023-06-10T11:50:56Z</time>
      </trkpt>
      <trkpt lat="43.6059" lon="-1.4553">
        <ele>10.800000190735</ele>
        <time>2023-06-10T11:51:06Z</time>
      </trkpt>
      <trkpt lat="43.60596" lon="-1.45522">
        <ele>10.800000190735</ele>
        <time>2023-06-10T11:51:08Z</time>
      </trkpt>
      <trkpt lat="43.60599" lon="-1.45518">
        <ele>10.800000190735</ele>
        <time>2023-06-10T11:51:09Z</time>
      </trkpt>
      <trkpt lat="43.60627" lon="-1.45489">
        <ele>10.800000190735</ele>
        <time>2023-06-10T11:51:17Z</time>
      </trkpt>
      <trkpt lat="43.60636" lon="-1.45484">
        <ele>10.800000190735</ele>
        <time>2023-06-10T11:51:19Z</time>
      </trkpt>
      <trkpt lat="43.60648" lon="-1.45478">
        <ele>10.60000038147</ele>
        <time>2023-06-10T11:51:22Z</time>
      </trkpt>
      <trkpt lat="43.60678" lon="-1.45469">
        <ele>10.39999961853</ele>
        <time>2023-06-10T11:51:29Z</time>
      </trkpt>
      <trkpt lat="43.60705" lon="-1.45465">
        <ele>10.199999809265</ele>
        <time>2023-06-10T11:51:36Z</time>
      </trkpt>
      <trkpt lat="43.60733" lon="-1.45467">
        <ele>10.39999961853</ele>
        <time>2023-06-10T11:51:44Z</time>
      </trkpt>
      <trkpt lat="43.60761" lon="-1.45461">
        <ele>11</ele>
        <time>2023-06-10T11:51:52Z</time>
      </trkpt>
      <trkpt lat="43.60783" lon="-1.45457">
        <ele>11.199999809265</ele>
        <time>2023-06-10T11:51:58Z</time>
      </trkpt>
      <trkpt lat="43.60819" lon="-1.45444">
        <ele>10.60000038147</ele>
        <time>2023-06-10T11:52:06Z</time>
      </trkpt>
      <trkpt lat="43.6085" lon="-1.45432">
        <ele>11</ele>
        <time>2023-06-10T11:52:13Z</time>
      </trkpt>
      <trkpt lat="43.60863" lon="-1.45428">
        <ele>11</ele>
        <time>2023-06-10T11:52:16Z</time>
      </trkpt>
      <trkpt lat="43.60877" lon="-1.45425">
        <ele>11</ele>
        <time>2023-06-10T11:52:19Z</time>
      </trkpt>
      <trkpt lat="43.60915" lon="-1.45424">
        <ele>10.800000190735</ele>
        <time>2023-06-10T11:52:27Z</time>
      </trkpt>
      <trkpt lat="43.60934" lon="-1.45427">
        <ele>10.60000038147</ele>
        <time>2023-06-10T11:52:31Z</time>
      </trkpt>
      <trkpt lat="43.60938" lon="-1.4543">
        <ele>10.60000038147</ele>
        <time>2023-06-10T11:52:32Z</time>
      </trkpt>
      <trkpt lat="43.60942" lon="-1.45432">
        <ele>10.60000038147</ele>
        <time>2023-06-10T11:52:33Z</time>
      </trkpt>
      <trkpt lat="43.60946" lon="-1.45435">
        <ele>10.60000038147</ele>
        <time>2023-06-10T11:52:34Z</time>
      </trkpt>
      <trkpt lat="43.60949" lon="-1.45437">
        <ele>10.60000038147</ele>
        <time>2023-06-10T11:52:35Z</time>
      </trkpt>
      <trkpt lat="43.60983" lon="-1.45461">
        <ele>10.60000038147</ele>
        <time>2023-06-10T11:52:44Z</time>
      </trkpt>
      <trkpt lat="43.61017" lon="-1.45464">
        <ele>10.800000190735</ele>
        <time>2023-06-10T11:52:52Z</time>
      </trkpt>
      <trkpt lat="43.61043" lon="-1.45466">
        <ele>10.60000038147</ele>
        <time>2023-06-10T11:52:58Z</time>
      </trkpt>
      <trkpt lat="43.6107" lon="-1.45461">
        <ele>11</ele>
        <time>2023-06-10T11:53:05Z</time>
      </trkpt>
      <trkpt lat="43.6109" lon="-1.45452">
        <ele>11.199999809265</ele>
        <time>2023-06-10T11:53:10Z</time>
      </trkpt>
      <trkpt lat="43.6112" lon="-1.4543">
        <ele>11.199999809265</ele>
        <time>2023-06-10T11:53:18Z</time>
      </trkpt>
      <trkpt lat="43.61128" lon="-1.45423">
        <ele>11.39999961853</ele>
        <time>2023-06-10T11:53:20Z</time>
      </trkpt>
      <trkpt lat="43.61137" lon="-1.45415">
        <ele>11.39999961853</ele>
        <time>2023-06-10T11:53:22Z</time>
      </trkpt>
      <trkpt lat="43.61142" lon="-1.45411">
        <ele>11.39999961853</ele>
        <time>2023-06-10T11:53:23Z</time>
      </trkpt>
      <trkpt lat="43.61147" lon="-1.45406">
        <ele>11.39999961853</ele>
        <time>2023-06-10T11:53:24Z</time>
      </trkpt>
      <trkpt lat="43.61151" lon="-1.45401">
        <ele>11.39999961853</ele>
        <time>2023-06-10T11:53:25Z</time>
      </trkpt>
      <trkpt lat="43.61155" lon="-1.45397">
        <ele>11.39999961853</ele>
        <time>2023-06-10T11:53:26Z</time>
      </trkpt>
      <trkpt lat="43.61191" lon="-1.45357">
        <ele>11</ele>
        <time>2023-06-10T11:53:35Z</time>
      </trkpt>
      <trkpt lat="43.61224" lon="-1.45318">
        <ele>10.800000190735</ele>
        <time>2023-06-10T11:53:44Z</time>
      </trkpt>
      <trkpt lat="43.61228" lon="-1.45314">
        <ele>10.800000190735</ele>
        <time>2023-06-10T11:53:45Z</time>
      </trkpt>
      <trkpt lat="43.61241" lon="-1.45299">
        <ele>10.60000038147</ele>
        <time>2023-06-10T11:53:49Z</time>
      </trkpt>
      <trkpt lat="43.61265" lon="-1.45276">
        <ele>10.800000190735</ele>
        <time>2023-06-10T11:53:56Z</time>
      </trkpt>
      <trkpt lat="43.61304" lon="-1.45234">
        <ele>10.800000190735</ele>
        <time>2023-06-10T11:54:07Z</time>
      </trkpt>
      <trkpt lat="43.61321" lon="-1.45213">
        <ele>10.60000038147</ele>
        <time>2023-06-10T11:54:12Z</time>
      </trkpt>
      <trkpt lat="43.61357" lon="-1.45179">
        <ele>10.39999961853</ele>
        <time>2023-06-10T11:54:21Z</time>
      </trkpt>
      <trkpt lat="43.61364" lon="-1.4517">
        <ele>10.39999961853</ele>
        <time>2023-06-10T11:54:23Z</time>
      </trkpt>
      <trkpt lat="43.61384" lon="-1.45144">
        <ele>10.39999961853</ele>
        <time>2023-06-10T11:54:29Z</time>
      </trkpt>
      <trkpt lat="43.61387" lon="-1.45139">
        <ele>10.39999961853</ele>
        <time>2023-06-10T11:54:30Z</time>
      </trkpt>
      <trkpt lat="43.61391" lon="-1.45135">
        <ele>10.199999809265</ele>
        <time>2023-06-10T11:54:31Z</time>
      </trkpt>
      <trkpt lat="43.61394" lon="-1.4513">
        <ele>10.199999809265</ele>
        <time>2023-06-10T11:54:32Z</time>
      </trkpt>
      <trkpt lat="43.61397" lon="-1.45126">
        <ele>10.199999809265</ele>
        <time>2023-06-10T11:54:33Z</time>
      </trkpt>
      <trkpt lat="43.614" lon="-1.45121">
        <ele>10.199999809265</ele>
        <time>2023-06-10T11:54:34Z</time>
      </trkpt>
      <trkpt lat="43.61427" lon="-1.45077">
        <ele>10.199999809265</ele>
        <time>2023-06-10T11:54:43Z</time>
      </trkpt>
      <trkpt lat="43.61445" lon="-1.45039">
        <ele>10</ele>
        <time>2023-06-10T11:54:51Z</time>
      </trkpt>
      <trkpt lat="43.61462" lon="-1.4501">
        <ele>9.8000001907349</ele>
        <time>2023-06-10T11:54:57Z</time>
      </trkpt>
      <trkpt lat="43.61469" lon="-1.44999">
        <ele>9.8000001907349</ele>
        <time>2023-06-10T11:54:59Z</time>
      </trkpt>
      <trkpt lat="43.61471" lon="-1.44994">
        <ele>9.6000003814697</ele>
        <time>2023-06-10T11:55:00Z</time>
      </trkpt>
      <trkpt lat="43.61504" lon="-1.44937">
        <ele>9.6000003814697</ele>
        <time>2023-06-10T11:55:11Z</time>
      </trkpt>
      <trkpt lat="43.61532" lon="-1.44881">
        <ele>9.1999998092651</ele>
        <time>2023-06-10T11:55:22Z</time>
      </trkpt>
      <trkpt lat="43.61552" lon="-1.44843">
        <ele>8.8000001907349</ele>
        <time>2023-06-10T11:55:30Z</time>
      </trkpt>
      <trkpt lat="43.61583" lon="-1.44782">
        <ele>8.8000001907349</ele>
        <time>2023-06-10T11:55:42Z</time>
      </trkpt>
      <trkpt lat="43.61606" lon="-1.44742">
        <ele>8.3999996185303</ele>
        <time>2023-06-10T11:55:50Z</time>
      </trkpt>
      <trkpt lat="43.6161" lon="-1.44737">
        <ele>8.3999996185303</ele>
        <time>2023-06-10T11:55:51Z</time>
      </trkpt>
      <trkpt lat="43.61614" lon="-1.44733">
        <ele>8.3999996185303</ele>
        <time>2023-06-10T11:55:52Z</time>
      </trkpt>
      <trkpt lat="43.61616" lon="-1.44727">
        <ele>8.3999996185303</ele>
        <time>2023-06-10T11:55:53Z</time>
      </trkpt>
      <trkpt lat="43.61627" lon="-1.44703">
        <ele>8</ele>
        <time>2023-06-10T11:55:57Z</time>
      </trkpt>
      <trkpt lat="43.61633" lon="-1.44687">
        <ele>8</ele>
        <time>2023-06-10T11:56:00Z</time>
      </trkpt>
      <trkpt lat="43.61637" lon="-1.44676">
        <ele>8</ele>
        <time>2023-06-10T11:56:02Z</time>
      </trkpt>
      <trkpt lat="43.6164" lon="-1.4467">
        <ele>8</ele>
        <time>2023-06-10T11:56:03Z</time>
      </trkpt>
      <trkpt lat="43.61659" lon="-1.44628">
        <ele>8</ele>
        <time>2023-06-10T11:56:11Z</time>
      </trkpt>
      <trkpt lat="43.61684" lon="-1.44572">
        <ele>7.5999999046326</ele>
        <time>2023-06-10T11:56:21Z</time>
      </trkpt>
      <trkpt lat="43.617" lon="-1.44544">
        <ele>7.5999999046326</ele>
        <time>2023-06-10T11:56:27Z</time>
      </trkpt>
      <trkpt lat="43.61732" lon="-1.44515">
        <ele>7.5999999046326</ele>
        <time>2023-06-10T11:56:35Z</time>
      </trkpt>
      <trkpt lat="43.61736" lon="-1.44513">
        <ele>7.5999999046326</ele>
        <time>2023-06-10T11:56:36Z</time>
      </trkpt>
      <trkpt lat="43.61741" lon="-1.44511">
        <ele>7.5999999046326</ele>
        <time>2023-06-10T11:56:37Z</time>
      </trkpt>
      <trkpt lat="43.6175" lon="-1.44509">
        <ele>7.5999999046326</ele>
        <time>2023-06-10T11:56:39Z</time>
      </trkpt>
      <trkpt lat="43.61754" lon="-1.44508">
        <ele>7.5999999046326</ele>
        <time>2023-06-10T11:56:40Z</time>
      </trkpt>
      <trkpt lat="43.61771" lon="-1.44505">
        <ele>7.4000000953674</ele>
        <time>2023-06-10T11:56:44Z</time>
      </trkpt>
      <trkpt lat="43.61799" lon="-1.4449">
        <ele>7.1999998092651</ele>
        <time>2023-06-10T11:56:51Z</time>
      </trkpt>
      <trkpt lat="43.61832" lon="-1.44468">
        <ele>7.5999999046326</ele>
        <time>2023-06-10T11:56:59Z</time>
      </trkpt>
      <trkpt lat="43.61854" lon="-1.44452">
        <ele>7.8000001907349</ele>
        <time>2023-06-10T11:57:05Z</time>
      </trkpt>
      <trkpt lat="43.61882" lon="-1.44425">
        <ele>7.8000001907349</ele>
        <time>2023-06-10T11:57:13Z</time>
      </trkpt>
      <trkpt lat="43.619" lon="-1.44412">
        <ele>7.8000001907349</ele>
        <time>2023-06-10T11:57:17Z</time>
      </trkpt>
      <trkpt lat="43.61905" lon="-1.4441">
        <ele>7.8000001907349</ele>
        <time>2023-06-10T11:57:18Z</time>
      </trkpt>
      <trkpt lat="43.6191" lon="-1.44407">
        <ele>7.8000001907349</ele>
        <time>2023-06-10T11:57:19Z</time>
      </trkpt>
      <trkpt lat="43.61965" lon="-1.44381">
        <ele>7.1999998092651</ele>
        <time>2023-06-10T11:57:31Z</time>
      </trkpt>
      <trkpt lat="43.61986" lon="-1.44368">
        <ele>7.1999998092651</ele>
        <time>2023-06-10T11:57:37Z</time>
      </trkpt>
      <trkpt lat="43.61999" lon="-1.44362">
        <ele>7.4000000953674</ele>
        <time>2023-06-10T11:57:40Z</time>
      </trkpt>
      <trkpt lat="43.62032" lon="-1.44345">
        <ele>7.5999999046326</ele>
        <time>2023-06-10T11:57:48Z</time>
      </trkpt>
      <trkpt lat="43.62062" lon="-1.44331">
        <ele>7.8000001907349</ele>
        <time>2023-06-10T11:57:55Z</time>
      </trkpt>
      <trkpt lat="43.62092" lon="-1.44316">
        <ele>7.8000001907349</ele>
        <time>2023-06-10T11:58:02Z</time>
      </trkpt>
      <trkpt lat="43.62115" lon="-1.44303">
        <ele>7.8000001907349</ele>
        <time>2023-06-10T11:58:08Z</time>
      </trkpt>
      <trkpt lat="43.6215" lon="-1.44294">
        <ele>7.8000001907349</ele>
        <time>2023-06-10T11:58:16Z</time>
      </trkpt>
      <trkpt lat="43.6217" lon="-1.44287">
        <ele>7.8000001907349</ele>
        <time>2023-06-10T11:58:23Z</time>
      </trkpt>
      <trkpt lat="43.62171" lon="-1.44284">
        <ele>7.8000001907349</ele>
        <time>2023-06-10T11:58:24Z</time>
      </trkpt>
      <trkpt lat="43.62171" lon="-1.44281">
        <ele>7.8000001907349</ele>
        <time>2023-06-10T11:58:25Z</time>
      </trkpt>
      <trkpt lat="43.62171" lon="-1.44278">
        <ele>8</ele>
        <time>2023-06-10T11:58:26Z</time>
      </trkpt>
      <trkpt lat="43.6217" lon="-1.44274">
        <ele>8</ele>
        <time>2023-06-10T11:58:27Z</time>
      </trkpt>
      <trkpt lat="43.6217" lon="-1.4427">
        <ele>8.1999998092651</ele>
        <time>2023-06-10T11:58:28Z</time>
      </trkpt>
      <trkpt lat="43.6217" lon="-1.44265">
        <ele>8.1999998092651</ele>
        <time>2023-06-10T11:58:29Z</time>
      </trkpt>
      <trkpt lat="43.6217" lon="-1.44261">
        <ele>8.3999996185303</ele>
        <time>2023-06-10T11:58:30Z</time>
      </trkpt>
      <trkpt lat="43.62167" lon="-1.44219">
        <ele>8.6000003814697</ele>
        <time>2023-06-10T11:58:38Z</time>
      </trkpt>
      <trkpt lat="43.62169" lon="-1.44162">
        <ele>8.1999998092651</ele>
        <time>2023-06-10T11:58:48Z</time>
      </trkpt>
      <trkpt lat="43.62176" lon="-1.44111">
        <ele>7.8000001907349</ele>
        <time>2023-06-10T11:58:57Z</time>
      </trkpt>
      <trkpt lat="43.62175" lon="-1.4408">
        <ele>7.8000001907349</ele>
        <time>2023-06-10T11:59:03Z</time>
      </trkpt>
      <trkpt lat="43.62169" lon="-1.44053">
        <ele>7.8000001907349</ele>
        <time>2023-06-10T11:59:09Z</time>
      </trkpt>
      <trkpt lat="43.62159" lon="-1.44018">
        <ele>7.5999999046326</ele>
        <time>2023-06-10T11:59:16Z</time>
      </trkpt>
      <trkpt lat="43.62151" lon="-1.43999">
        <ele>7.5999999046326</ele>
        <time>2023-06-10T11:59:21Z</time>
      </trkpt>
      <trkpt lat="43.62151" lon="-1.43994">
        <ele>7.5999999046326</ele>
        <time>2023-06-10T11:59:22Z</time>
      </trkpt>
      <trkpt lat="43.62153" lon="-1.43991">
        <ele>7.5999999046326</ele>
        <time>2023-06-10T11:59:23Z</time>
      </trkpt>
      <trkpt lat="43.62156" lon="-1.43988">
        <ele>7.5999999046326</ele>
        <time>2023-06-10T11:59:24Z</time>
      </trkpt>
      <trkpt lat="43.62159" lon="-1.43986">
        <ele>7.5999999046326</ele>
        <time>2023-06-10T11:59:25Z</time>
      </trkpt>
      <trkpt lat="43.62195" lon="-1.43959">
        <ele>8</ele>
        <time>2023-06-10T11:59:35Z</time>
      </trkpt>
      <trkpt lat="43.62222" lon="-1.4394">
        <ele>7.8000001907349</ele>
        <time>2023-06-10T11:59:42Z</time>
      </trkpt>
      <trkpt lat="43.62247" lon="-1.4392">
        <ele>7.4000000953674</ele>
        <time>2023-06-10T11:59:49Z</time>
      </trkpt>
      <trkpt lat="43.62287" lon="-1.43891">
        <ele>7.4000000953674</ele>
        <time>2023-06-10T12:00:00Z</time>
      </trkpt>
      <trkpt lat="43.62326" lon="-1.43863">
        <ele>7.1999998092651</ele>
        <time>2023-06-10T12:00:10Z</time>
      </trkpt>
      <trkpt lat="43.62361" lon="-1.43839">
        <ele>7.1999998092651</ele>
        <time>2023-06-10T12:00:19Z</time>
      </trkpt>
      <trkpt lat="43.62369" lon="-1.43834">
        <ele>7.1999998092651</ele>
        <time>2023-06-10T12:00:21Z</time>
      </trkpt>
      <trkpt lat="43.62372" lon="-1.43832">
        <ele>7.1999998092651</ele>
        <time>2023-06-10T12:00:22Z</time>
      </trkpt>
      <trkpt lat="43.62375" lon="-1.4383">
        <ele>7.1999998092651</ele>
        <time>2023-06-10T12:00:23Z</time>
      </trkpt>
      <trkpt lat="43.62409" lon="-1.43803">
        <ele>7.1999998092651</ele>
        <time>2023-06-10T12:00:32Z</time>
      </trkpt>
      <trkpt lat="43.62436" lon="-1.43783">
        <ele>6.8000001907349</ele>
        <time>2023-06-10T12:00:39Z</time>
      </trkpt>
      <trkpt lat="43.62472" lon="-1.43759">
        <ele>7</ele>
        <time>2023-06-10T12:00:48Z</time>
      </trkpt>
      <trkpt lat="43.62509" lon="-1.43733">
        <ele>7.1999998092651</ele>
        <time>2023-06-10T12:00:57Z</time>
      </trkpt>
      <trkpt lat="43.62557" lon="-1.43701">
        <ele>7.4000000953674</ele>
        <time>2023-06-10T12:01:09Z</time>
      </trkpt>
      <trkpt lat="43.62601" lon="-1.43671">
        <ele>7.4000000953674</ele>
        <time>2023-06-10T12:01:21Z</time>
      </trkpt>
      <trkpt lat="43.62642" lon="-1.43641">
        <ele>7.5999999046326</ele>
        <time>2023-06-10T12:01:32Z</time>
      </trkpt>
      <trkpt lat="43.62685" lon="-1.43611">
        <ele>8.1999998092651</ele>
        <time>2023-06-10T12:01:43Z</time>
      </trkpt>
      <trkpt lat="43.62716" lon="-1.43589">
        <ele>8.3999996185303</ele>
        <time>2023-06-10T12:01:52Z</time>
      </trkpt>
      <trkpt lat="43.62743" lon="-1.43569">
        <ele>8.3999996185303</ele>
        <time>2023-06-10T12:02:00Z</time>
      </trkpt>
      <trkpt lat="43.62748" lon="-1.43567">
        <ele>8.3999996185303</ele>
        <time>2023-06-10T12:02:01Z</time>
      </trkpt>
      <trkpt lat="43.62778" lon="-1.43543">
        <ele>8.6000003814697</ele>
        <time>2023-06-10T12:02:09Z</time>
      </trkpt>
      <trkpt lat="43.62782" lon="-1.43541">
        <ele>8.6000003814697</ele>
        <time>2023-06-10T12:02:10Z</time>
      </trkpt>
      <trkpt lat="43.62786" lon="-1.43538">
        <ele>8.6000003814697</ele>
        <time>2023-06-10T12:02:11Z</time>
      </trkpt>
      <trkpt lat="43.62813" lon="-1.43519">
        <ele>8.8000001907349</ele>
        <time>2023-06-10T12:02:18Z</time>
      </trkpt>
      <trkpt lat="43.6285" lon="-1.43492">
        <ele>8.6000003814697</ele>
        <time>2023-06-10T12:02:27Z</time>
      </trkpt>
      <trkpt lat="43.62883" lon="-1.43474">
        <ele>8.8000001907349</ele>
        <time>2023-06-10T12:02:36Z</time>
      </trkpt>
      <trkpt lat="43.62889" lon="-1.43482">
        <ele>8.8000001907349</ele>
        <time>2023-06-10T12:02:39Z</time>
      </trkpt>
      <trkpt lat="43.6289" lon="-1.43487">
        <ele>8.8000001907349</ele>
        <time>2023-06-10T12:02:40Z</time>
      </trkpt>
      <trkpt lat="43.6289" lon="-1.43492">
        <ele>8.8000001907349</ele>
        <time>2023-06-10T12:02:41Z</time>
      </trkpt>
      <trkpt lat="43.62891" lon="-1.43497">
        <ele>8.8000001907349</ele>
        <time>2023-06-10T12:02:42Z</time>
      </trkpt>
      <trkpt lat="43.62892" lon="-1.43502">
        <ele>8.8000001907349</ele>
        <time>2023-06-10T12:02:43Z</time>
      </trkpt>
      <trkpt lat="43.62894" lon="-1.43507">
        <ele>8.8000001907349</ele>
        <time>2023-06-10T12:02:44Z</time>
      </trkpt>
      <trkpt lat="43.62905" lon="-1.43534">
        <ele>9</ele>
        <time>2023-06-10T12:02:50Z</time>
      </trkpt>
      <trkpt lat="43.62926" lon="-1.43549">
        <ele>9.1999998092651</ele>
        <time>2023-06-10T12:02:56Z</time>
      </trkpt>
      <trkpt lat="43.6297" lon="-1.43575">
        <ele>8.8000001907349</ele>
        <time>2023-06-10T12:03:05Z</time>
      </trkpt>
      <trkpt lat="43.63022" lon="-1.43602">
        <ele>8.3999996185303</ele>
        <time>2023-06-10T12:03:15Z</time>
      </trkpt>
      <trkpt lat="43.63064" lon="-1.43625">
        <ele>7.5999999046326</ele>
        <time>2023-06-10T12:03:23Z</time>
      </trkpt>
      <trkpt lat="43.63079" lon="-1.43633">
        <ele>7.5999999046326</ele>
        <time>2023-06-10T12:03:26Z</time>
      </trkpt>
      <trkpt lat="43.63102" lon="-1.43648">
        <ele>7.5999999046326</ele>
        <time>2023-06-10T12:03:31Z</time>
      </trkpt>
      <trkpt lat="43.63135" lon="-1.43672">
        <ele>7.8000001907349</ele>
        <time>2023-06-10T12:03:38Z</time>
      </trkpt>
      <trkpt lat="43.63158" lon="-1.43692">
        <ele>7.8000001907349</ele>
        <time>2023-06-10T12:03:44Z</time>
      </trkpt>
      <trkpt lat="43.6319" lon="-1.43724">
        <ele>7.8000001907349</ele>
        <time>2023-06-10T12:03:53Z</time>
      </trkpt>
      <trkpt lat="43.63217" lon="-1.43753">
        <ele>7.8000001907349</ele>
        <time>2023-06-10T12:04:01Z</time>
      </trkpt>
      <trkpt lat="43.63241" lon="-1.43777">
        <ele>7.8000001907349</ele>
        <time>2023-06-10T12:04:08Z</time>
      </trkpt>
      <trkpt lat="43.63255" lon="-1.43797">
        <ele>7.5999999046326</ele>
        <time>2023-06-10T12:04:13Z</time>
      </trkpt>
      <trkpt lat="43.63271" lon="-1.4382">
        <ele>7.8000001907349</ele>
        <time>2023-06-10T12:04:21Z</time>
      </trkpt>
      <trkpt lat="43.63283" lon="-1.43834">
        <ele>8</ele>
        <time>2023-06-10T12:04:27Z</time>
      </trkpt>
      <trkpt lat="43.63302" lon="-1.43851">
        <ele>8</ele>
        <time>2023-06-10T12:04:33Z</time>
      </trkpt>
      <trkpt lat="43.63329" lon="-1.43877">
        <ele>7.5999999046326</ele>
        <time>2023-06-10T12:04:41Z</time>
      </trkpt>
      <trkpt lat="43.6336" lon="-1.43892">
        <ele>7.5999999046326</ele>
        <time>2023-06-10T12:04:49Z</time>
      </trkpt>
      <trkpt lat="43.63388" lon="-1.43902">
        <ele>7.8000001907349</ele>
        <time>2023-06-10T12:04:56Z</time>
      </trkpt>
      <trkpt lat="43.63415" lon="-1.43904">
        <ele>7.8000001907349</ele>
        <time>2023-06-10T12:05:03Z</time>
      </trkpt>
      <trkpt lat="43.63457" lon="-1.43903">
        <ele>7.8000001907349</ele>
        <time>2023-06-10T12:05:13Z</time>
      </trkpt>
      <trkpt lat="43.63489" lon="-1.43899">
        <ele>7.8000001907349</ele>
        <time>2023-06-10T12:05:20Z</time>
      </trkpt>
      <trkpt lat="43.63542" lon="-1.4389">
        <ele>8</ele>
        <time>2023-06-10T12:05:32Z</time>
      </trkpt>
      <trkpt lat="43.63564" lon="-1.43886">
        <ele>8</ele>
        <time>2023-06-10T12:05:37Z</time>
      </trkpt>
      <trkpt lat="43.63568" lon="-1.43885">
        <ele>8</ele>
        <time>2023-06-10T12:05:38Z</time>
      </trkpt>
      <trkpt lat="43.63613" lon="-1.4387">
        <ele>8</ele>
        <time>2023-06-10T12:05:48Z</time>
      </trkpt>
      <trkpt lat="43.63631" lon="-1.43863">
        <ele>8</ele>
        <time>2023-06-10T12:05:52Z</time>
      </trkpt>
      <trkpt lat="43.63667" lon="-1.43838">
        <ele>7.8000001907349</ele>
        <time>2023-06-10T12:06:01Z</time>
      </trkpt>
      <trkpt lat="43.63689" lon="-1.43823">
        <ele>7.8000001907349</ele>
        <time>2023-06-10T12:06:09Z</time>
      </trkpt>
      <trkpt lat="43.6369" lon="-1.43824">
        <ele>7.8000001907349</ele>
        <time>2023-06-10T12:06:10Z</time>
      </trkpt>
      <trkpt lat="43.63691" lon="-1.43826">
        <ele>7.8000001907349</ele>
        <time>2023-06-10T12:06:11Z</time>
      </trkpt>
      <trkpt lat="43.63694" lon="-1.43829">
        <ele>7.8000001907349</ele>
        <time>2023-06-10T12:06:12Z</time>
      </trkpt>
      <trkpt lat="43.63696" lon="-1.4383">
        <ele>7.8000001907349</ele>
        <time>2023-06-10T12:06:13Z</time>
      </trkpt>
      <trkpt lat="43.63699" lon="-1.43831">
        <ele>7.8000001907349</ele>
        <time>2023-06-10T12:06:14Z</time>
      </trkpt>
      <trkpt lat="43.63702" lon="-1.43832">
        <ele>7.8000001907349</ele>
        <time>2023-06-10T12:06:15Z</time>
      </trkpt>
      <trkpt lat="43.63705" lon="-1.43833">
        <ele>7.8000001907349</ele>
        <time>2023-06-10T12:06:16Z</time>
      </trkpt>
      <trkpt lat="43.63707" lon="-1.43835">
        <ele>7.8000001907349</ele>
        <time>2023-06-10T12:06:17Z</time>
      </trkpt>
      <trkpt lat="43.63709" lon="-1.43836">
        <ele>7.8000001907349</ele>
        <time>2023-06-10T12:06:18Z</time>
      </trkpt>
      <trkpt lat="43.63711" lon="-1.43836">
        <ele>8</ele>
        <time>2023-06-10T12:06:19Z</time>
      </trkpt>
      <trkpt lat="43.63714" lon="-1.43836">
        <ele>8</ele>
        <time>2023-06-10T12:06:20Z</time>
      </trkpt>
      <trkpt lat="43.63716" lon="-1.43835">
        <ele>8.1999998092651</ele>
        <time>2023-06-10T12:06:21Z</time>
      </trkpt>
      <trkpt lat="43.63719" lon="-1.43834">
        <ele>8.1999998092651</ele>
        <time>2023-06-10T12:06:22Z</time>
      </trkpt>
      <trkpt lat="43.63721" lon="-1.43832">
        <ele>8.1999998092651</ele>
        <time>2023-06-10T12:06:23Z</time>
      </trkpt>
      <trkpt lat="43.63724" lon="-1.43829">
        <ele>8.1999998092651</ele>
        <time>2023-06-10T12:06:24Z</time>
      </trkpt>
      <trkpt lat="43.63725" lon="-1.43826">
        <ele>8.1999998092651</ele>
        <time>2023-06-10T12:06:25Z</time>
      </trkpt>
      <trkpt lat="43.63727" lon="-1.43821">
        <ele>8.1999998092651</ele>
        <time>2023-06-10T12:06:26Z</time>
      </trkpt>
      <trkpt lat="43.63737" lon="-1.43795">
        <ele>8.1999998092651</ele>
        <time>2023-06-10T12:06:32Z</time>
      </trkpt>
      <trkpt lat="43.63758" lon="-1.43763">
        <ele>8.1999998092651</ele>
        <time>2023-06-10T12:06:40Z</time>
      </trkpt>
      <trkpt lat="43.6379" lon="-1.43725">
        <ele>7.4000000953674</ele>
        <time>2023-06-10T12:06:49Z</time>
      </trkpt>
      <trkpt lat="43.63823" lon="-1.43685">
        <ele>7.1999998092651</ele>
        <time>2023-06-10T12:06:59Z</time>
      </trkpt>
      <trkpt lat="43.63846" lon="-1.43666">
        <ele>7.4000000953674</ele>
        <time>2023-06-10T12:07:07Z</time>
      </trkpt>
      <trkpt lat="43.63846" lon="-1.43662">
        <ele>7.4000000953674</ele>
        <time>2023-06-10T12:07:08Z</time>
      </trkpt>
      <trkpt lat="43.63845" lon="-1.43658">
        <ele>7.4000000953674</ele>
        <time>2023-06-10T12:07:09Z</time>
      </trkpt>
      <trkpt lat="43.63843" lon="-1.43654">
        <ele>7.4000000953674</ele>
        <time>2023-06-10T12:07:10Z</time>
      </trkpt>
      <trkpt lat="43.63842" lon="-1.43649">
        <ele>7.4000000953674</ele>
        <time>2023-06-10T12:07:11Z</time>
      </trkpt>
      <trkpt lat="43.63842" lon="-1.43645">
        <ele>7.4000000953674</ele>
        <time>2023-06-10T12:07:12Z</time>
      </trkpt>
      <trkpt lat="43.63843" lon="-1.4364">
        <ele>7.4000000953674</ele>
        <time>2023-06-10T12:07:13Z</time>
      </trkpt>
      <trkpt lat="43.63845" lon="-1.43636">
        <ele>7.4000000953674</ele>
        <time>2023-06-10T12:07:14Z</time>
      </trkpt>
      <trkpt lat="43.63859" lon="-1.43599">
        <ele>7.8000001907349</ele>
        <time>2023-06-10T12:07:22Z</time>
      </trkpt>
      <trkpt lat="43.63884" lon="-1.43546">
        <ele>7.5999999046326</ele>
        <time>2023-06-10T12:07:32Z</time>
      </trkpt>
      <trkpt lat="43.63907" lon="-1.43491">
        <ele>7.1999998092651</ele>
        <time>2023-06-10T12:07:42Z</time>
      </trkpt>
      <trkpt lat="43.63909" lon="-1.43485">
        <ele>7.1999998092651</ele>
        <time>2023-06-10T12:07:43Z</time>
      </trkpt>
      <trkpt lat="43.63914" lon="-1.43434">
        <ele>6.8000001907349</ele>
        <time>2023-06-10T12:07:51Z</time>
      </trkpt>
      <trkpt lat="43.63916" lon="-1.43429">
        <ele>6.8000001907349</ele>
        <time>2023-06-10T12:07:52Z</time>
      </trkpt>
      <trkpt lat="43.63916" lon="-1.43424">
        <ele>6.8000001907349</ele>
        <time>2023-06-10T12:07:53Z</time>
      </trkpt>
      <trkpt lat="43.63917" lon="-1.43418">
        <ele>6.8000001907349</ele>
        <time>2023-06-10T12:07:54Z</time>
      </trkpt>
      <trkpt lat="43.6392" lon="-1.43408">
        <ele>6.8000001907349</ele>
        <time>2023-06-10T12:07:56Z</time>
      </trkpt>
      <trkpt lat="43.63941" lon="-1.43351">
        <ele>7</ele>
        <time>2023-06-10T12:08:06Z</time>
      </trkpt>
      <trkpt lat="43.63955" lon="-1.43316">
        <ele>6.8000001907349</ele>
        <time>2023-06-10T12:08:12Z</time>
      </trkpt>
      <trkpt lat="43.63962" lon="-1.43286">
        <ele>6.5999999046326</ele>
        <time>2023-06-10T12:08:17Z</time>
      </trkpt>
      <trkpt lat="43.63974" lon="-1.43253">
        <ele>6.4000000953674</ele>
        <time>2023-06-10T12:08:24Z</time>
      </trkpt>
      <trkpt lat="43.63976" lon="-1.4325">
        <ele>6.5999999046326</ele>
        <time>2023-06-10T12:08:25Z</time>
      </trkpt>
      <trkpt lat="43.63978" lon="-1.43249">
        <ele>6.5999999046326</ele>
        <time>2023-06-10T12:08:26Z</time>
      </trkpt>
      <trkpt lat="43.63981" lon="-1.43249">
        <ele>6.5999999046326</ele>
        <time>2023-06-10T12:08:27Z</time>
      </trkpt>
      <trkpt lat="43.63983" lon="-1.4325">
        <ele>6.5999999046326</ele>
        <time>2023-06-10T12:08:28Z</time>
      </trkpt>
      <trkpt lat="43.63984" lon="-1.43252">
        <ele>6.8000001907349</ele>
        <time>2023-06-10T12:08:29Z</time>
      </trkpt>
      <trkpt lat="43.63986" lon="-1.43254">
        <ele>6.8000001907349</ele>
        <time>2023-06-10T12:08:30Z</time>
      </trkpt>
      <trkpt lat="43.64009" lon="-1.43274">
        <ele>7</ele>
        <time>2023-06-10T12:08:38Z</time>
      </trkpt>
      <trkpt lat="43.64031" lon="-1.43294">
        <ele>6.8000001907349</ele>
        <time>2023-06-10T12:08:44Z</time>
      </trkpt>
      <trkpt lat="43.64056" lon="-1.43316">
        <ele>6.8000001907349</ele>
        <time>2023-06-10T12:08:52Z</time>
      </trkpt>
      <trkpt lat="43.64083" lon="-1.43335">
        <ele>6.8000001907349</ele>
        <time>2023-06-10T12:08:59Z</time>
      </trkpt>
      <trkpt lat="43.64122" lon="-1.43357">
        <ele>6.8000001907349</ele>
        <time>2023-06-10T12:09:08Z</time>
      </trkpt>
      <trkpt lat="43.64161" lon="-1.4337">
        <ele>7</ele>
        <time>2023-06-10T12:09:17Z</time>
      </trkpt>
      <trkpt lat="43.64186" lon="-1.43377">
        <ele>7.1999998092651</ele>
        <time>2023-06-10T12:09:23Z</time>
      </trkpt>
      <trkpt lat="43.64238" lon="-1.4338">
        <ele>7.1999998092651</ele>
        <time>2023-06-10T12:09:35Z</time>
      </trkpt>
      <trkpt lat="43.64284" lon="-1.4337">
        <ele>7.4000000953674</ele>
        <time>2023-06-10T12:09:45Z</time>
      </trkpt>
      <trkpt lat="43.64327" lon="-1.43358">
        <ele>7.5999999046326</ele>
        <time>2023-06-10T12:09:55Z</time>
      </trkpt>
      <trkpt lat="43.64375" lon="-1.43345">
        <ele>7.4000000953674</ele>
        <time>2023-06-10T12:10:05Z</time>
      </trkpt>
      <trkpt lat="43.64407" lon="-1.43337">
        <ele>7.5999999046326</ele>
        <time>2023-06-10T12:10:13Z</time>
      </trkpt>
      <trkpt lat="43.64421" lon="-1.43336">
        <ele>8.3999996185303</ele>
        <time>2023-06-10T12:10:19Z</time>
      </trkpt>
      <trkpt lat="43.64433" lon="-1.43332">
        <ele>8.8000001907349</ele>
        <time>2023-06-10T12:10:22Z</time>
      </trkpt>
      <trkpt lat="43.64471" lon="-1.4333">
        <ele>8.3999996185303</ele>
        <time>2023-06-10T12:10:29Z</time>
      </trkpt>
      <trkpt lat="43.64511" lon="-1.43334">
        <ele>7.4000000953674</ele>
        <time>2023-06-10T12:10:37Z</time>
      </trkpt>
      <trkpt lat="43.64551" lon="-1.43339">
        <ele>7.4000000953674</ele>
        <time>2023-06-10T12:10:46Z</time>
      </trkpt>
      <trkpt lat="43.64584" lon="-1.43345">
        <ele>7.4000000953674</ele>
        <time>2023-06-10T12:10:54Z</time>
      </trkpt>
      <trkpt lat="43.646" lon="-1.43348">
        <ele>7.5999999046326</ele>
        <time>2023-06-10T12:10:58Z</time>
      </trkpt>
      <trkpt lat="43.64604" lon="-1.4335">
        <ele>7.5999999046326</ele>
        <time>2023-06-10T12:10:59Z</time>
      </trkpt>
      <trkpt lat="43.64637" lon="-1.43371">
        <ele>7.5999999046326</ele>
        <time>2023-06-10T12:11:07Z</time>
      </trkpt>
      <trkpt lat="43.6466" lon="-1.434">
        <ele>7.4000000953674</ele>
        <time>2023-06-10T12:11:14Z</time>
      </trkpt>
      <trkpt lat="43.64681" lon="-1.43426">
        <ele>7.4000000953674</ele>
        <time>2023-06-10T12:11:21Z</time>
      </trkpt>
      <trkpt lat="43.6471" lon="-1.43467">
        <ele>7.5999999046326</ele>
        <time>2023-06-10T12:11:31Z</time>
      </trkpt>
      <trkpt lat="43.64713" lon="-1.43492">
        <ele>7.5999999046326</ele>
        <time>2023-06-10T12:11:36Z</time>
      </trkpt>
      <trkpt lat="43.64713" lon="-1.43498">
        <ele>7.5999999046326</ele>
        <time>2023-06-10T12:11:37Z</time>
      </trkpt>
      <trkpt lat="43.64715" lon="-1.43503">
        <ele>7.5999999046326</ele>
        <time>2023-06-10T12:11:38Z</time>
      </trkpt>
      <trkpt lat="43.64717" lon="-1.43508">
        <ele>7.5999999046326</ele>
        <time>2023-06-10T12:11:39Z</time>
      </trkpt>
      <trkpt lat="43.6472" lon="-1.43511">
        <ele>7.4000000953674</ele>
        <time>2023-06-10T12:11:40Z</time>
      </trkpt>
      <trkpt lat="43.64724" lon="-1.43513">
        <ele>7.4000000953674</ele>
        <time>2023-06-10T12:11:41Z</time>
      </trkpt>
      <trkpt lat="43.64766" lon="-1.43531">
        <ele>7.5999999046326</ele>
        <time>2023-06-10T12:11:52Z</time>
      </trkpt>
      <trkpt lat="43.64811" lon="-1.43546">
        <ele>7.8000001907349</ele>
        <time>2023-06-10T12:12:03Z</time>
      </trkpt>
      <trkpt lat="43.64858" lon="-1.43561">
        <ele>7.5999999046326</ele>
        <time>2023-06-10T12:12:15Z</time>
      </trkpt>
      <trkpt lat="43.64875" lon="-1.43557">
        <ele>7.5999999046326</ele>
        <time>2023-06-10T12:12:20Z</time>
      </trkpt>
      <trkpt lat="43.64885" lon="-1.43547">
        <ele>7.5999999046326</ele>
        <time>2023-06-10T12:12:24Z</time>
      </trkpt>
      <trkpt lat="43.64887" lon="-1.43548">
        <ele>7.5999999046326</ele>
        <time>2023-06-10T12:12:25Z</time>
      </trkpt>
      <trkpt lat="43.64889" lon="-1.43549">
        <ele>7.5999999046326</ele>
        <time>2023-06-10T12:12:26Z</time>
      </trkpt>
      <trkpt lat="43.64891" lon="-1.43548">
        <ele>7.5999999046326</ele>
        <time>2023-06-10T12:12:27Z</time>
      </trkpt>
      <trkpt lat="43.64892" lon="-1.43545">
        <ele>7.5999999046326</ele>
        <time>2023-06-10T12:12:28Z</time>
      </trkpt>
      <trkpt lat="43.64892" lon="-1.43542">
        <ele>7.5999999046326</ele>
        <time>2023-06-10T12:12:29Z</time>
      </trkpt>
      <trkpt lat="43.64892" lon="-1.43538">
        <ele>7.5999999046326</ele>
        <time>2023-06-10T12:12:30Z</time>
      </trkpt>
      <trkpt lat="43.64896" lon="-1.4352">
        <ele>7.5999999046326</ele>
        <time>2023-06-10T12:12:35Z</time>
      </trkpt>
      <trkpt lat="43.64898" lon="-1.43518">
        <ele>7.5999999046326</ele>
        <time>2023-06-10T12:12:36Z</time>
      </trkpt>
      <trkpt lat="43.64901" lon="-1.43517">
        <ele>7.5999999046326</ele>
        <time>2023-06-10T12:12:37Z</time>
      </trkpt>
      <trkpt lat="43.64905" lon="-1.43518">
        <ele>7.5999999046326</ele>
        <time>2023-06-10T12:12:38Z</time>
      </trkpt>
      <trkpt lat="43.64909" lon="-1.43519">
        <ele>7.4000000953674</ele>
        <time>2023-06-10T12:12:39Z</time>
      </trkpt>
      <trkpt lat="43.64932" lon="-1.43513">
        <ele>7.1999998092651</ele>
        <time>2023-06-10T12:12:45Z</time>
      </trkpt>
      <trkpt lat="43.64945" lon="-1.43494">
        <ele>7</ele>
        <time>2023-06-10T12:12:50Z</time>
      </trkpt>
      <trkpt lat="43.64964" lon="-1.43457">
        <ele>6.8000001907349</ele>
        <time>2023-06-10T12:12:59Z</time>
      </trkpt>
      <trkpt lat="43.64985" lon="-1.4343">
        <ele>6.8000001907349</ele>
        <time>2023-06-10T12:13:06Z</time>
      </trkpt>
      <trkpt lat="43.64989" lon="-1.43428">
        <ele>6.8000001907349</ele>
        <time>2023-06-10T12:13:07Z</time>
      </trkpt>
      <trkpt lat="43.64993" lon="-1.43426">
        <ele>6.8000001907349</ele>
        <time>2023-06-10T12:13:08Z</time>
      </trkpt>
      <trkpt lat="43.64998" lon="-1.43426">
        <ele>6.8000001907349</ele>
        <time>2023-06-10T12:13:09Z</time>
      </trkpt>
      <trkpt lat="43.65002" lon="-1.43427">
        <ele>6.8000001907349</ele>
        <time>2023-06-10T12:13:10Z</time>
      </trkpt>
      <trkpt lat="43.65007" lon="-1.43429">
        <ele>6.8000001907349</ele>
        <time>2023-06-10T12:13:11Z</time>
      </trkpt>
      <trkpt lat="43.6505" lon="-1.43448">
        <ele>7</ele>
        <time>2023-06-10T12:13:22Z</time>
      </trkpt>
      <trkpt lat="43.65091" lon="-1.43466">
        <ele>7.1999998092651</ele>
        <time>2023-06-10T12:13:33Z</time>
      </trkpt>
      <trkpt lat="43.65135" lon="-1.43486">
        <ele>7.4000000953674</ele>
        <time>2023-06-10T12:13:45Z</time>
      </trkpt>
      <trkpt lat="43.65157" lon="-1.43491">
        <ele>7.5999999046326</ele>
        <time>2023-06-10T12:13:51Z</time>
      </trkpt>
      <trkpt lat="43.6516" lon="-1.43488">
        <ele>7.5999999046326</ele>
        <time>2023-06-10T12:13:52Z</time>
      </trkpt>
      <trkpt lat="43.6518" lon="-1.43473">
        <ele>7.1999998092651</ele>
        <time>2023-06-10T12:13:58Z</time>
      </trkpt>
      <trkpt lat="43.65184" lon="-1.43474">
        <ele>7</ele>
        <time>2023-06-10T12:13:59Z</time>
      </trkpt>
      <trkpt lat="43.65203" lon="-1.43481">
        <ele>6.8000001907349</ele>
        <time>2023-06-10T12:14:04Z</time>
      </trkpt>
      <trkpt lat="43.65207" lon="-1.43479">
        <ele>6.8000001907349</ele>
        <time>2023-06-10T12:14:05Z</time>
      </trkpt>
      <trkpt lat="43.6521" lon="-1.43476">
        <ele>6.8000001907349</ele>
        <time>2023-06-10T12:14:06Z</time>
      </trkpt>
      <trkpt lat="43.65214" lon="-1.43472">
        <ele>6.8000001907349</ele>
        <time>2023-06-10T12:14:07Z</time>
      </trkpt>
      <trkpt lat="43.65217" lon="-1.43468">
        <ele>6.8000001907349</ele>
        <time>2023-06-10T12:14:08Z</time>
      </trkpt>
      <trkpt lat="43.65234" lon="-1.43443">
        <ele>6.8000001907349</ele>
        <time>2023-06-10T12:14:14Z</time>
      </trkpt>
      <trkpt lat="43.65235" lon="-1.43438">
        <ele>6.8000001907349</ele>
        <time>2023-06-10T12:14:15Z</time>
      </trkpt>
      <trkpt lat="43.65235" lon="-1.43433">
        <ele>6.8000001907349</ele>
        <time>2023-06-10T12:14:16Z</time>
      </trkpt>
      <trkpt lat="43.65233" lon="-1.43428">
        <ele>6.8000001907349</ele>
        <time>2023-06-10T12:14:17Z</time>
      </trkpt>
      <trkpt lat="43.6523" lon="-1.43423">
        <ele>6.8000001907349</ele>
        <time>2023-06-10T12:14:18Z</time>
      </trkpt>
      <trkpt lat="43.65227" lon="-1.43418">
        <ele>6.8000001907349</ele>
        <time>2023-06-10T12:14:19Z</time>
      </trkpt>
      <trkpt lat="43.65218" lon="-1.43405">
        <ele>6.8000001907349</ele>
        <time>2023-06-10T12:14:22Z</time>
      </trkpt>
      <trkpt lat="43.65216" lon="-1.43399">
        <ele>6.8000001907349</ele>
        <time>2023-06-10T12:14:23Z</time>
      </trkpt>
      <trkpt lat="43.65215" lon="-1.43393">
        <ele>6.8000001907349</ele>
        <time>2023-06-10T12:14:24Z</time>
      </trkpt>
      <trkpt lat="43.65216" lon="-1.43388">
        <ele>6.8000001907349</ele>
        <time>2023-06-10T12:14:25Z</time>
      </trkpt>
      <trkpt lat="43.65218" lon="-1.43382">
        <ele>6.5999999046326</ele>
        <time>2023-06-10T12:14:26Z</time>
      </trkpt>
      <trkpt lat="43.6522" lon="-1.43377">
        <ele>6.5999999046326</ele>
        <time>2023-06-10T12:14:27Z</time>
      </trkpt>
      <trkpt lat="43.65236" lon="-1.43335">
        <ele>6.1999998092651</ele>
        <time>2023-06-10T12:14:35Z</time>
      </trkpt>
      <trkpt lat="43.65257" lon="-1.43281">
        <ele>6</ele>
        <time>2023-06-10T12:14:46Z</time>
      </trkpt>
      <trkpt lat="43.65272" lon="-1.43236">
        <ele>6</ele>
        <time>2023-06-10T12:14:56Z</time>
      </trkpt>
      <trkpt lat="43.65281" lon="-1.43195">
        <ele>6</ele>
        <time>2023-06-10T12:15:03Z</time>
      </trkpt>
      <trkpt lat="43.65296" lon="-1.4313">
        <ele>5.5999999046326</ele>
        <time>2023-06-10T12:15:14Z</time>
      </trkpt>
      <trkpt lat="43.65307" lon="-1.43084">
        <ele>5.8000001907349</ele>
        <time>2023-06-10T12:15:22Z</time>
      </trkpt>
      <trkpt lat="43.65319" lon="-1.43055">
        <ele>5.8000001907349</ele>
        <time>2023-06-10T12:15:29Z</time>
      </trkpt>
      <trkpt lat="43.65348" lon="-1.43041">
        <ele>6</ele>
        <time>2023-06-10T12:15:37Z</time>
      </trkpt>
      <trkpt lat="43.6538" lon="-1.43021">
        <ele>6.1999998092651</ele>
        <time>2023-06-10T12:15:46Z</time>
      </trkpt>
      <trkpt lat="43.65418" lon="-1.4302">
        <ele>7.1999998092651</ele>
        <time>2023-06-10T12:15:56Z</time>
      </trkpt>
      <trkpt lat="43.65422" lon="-1.43023">
        <ele>7.4000000953674</ele>
        <time>2023-06-10T12:15:57Z</time>
      </trkpt>
      <trkpt lat="43.65424" lon="-1.43028">
        <ele>7.4000000953674</ele>
        <time>2023-06-10T12:15:58Z</time>
      </trkpt>
      <trkpt lat="43.65426" lon="-1.43034">
        <ele>7.4000000953674</ele>
        <time>2023-06-10T12:15:59Z</time>
      </trkpt>
      <trkpt lat="43.65427" lon="-1.4304">
        <ele>7.4000000953674</ele>
        <time>2023-06-10T12:16:00Z</time>
      </trkpt>
      <trkpt lat="43.65428" lon="-1.43048">
        <ele>7.4000000953674</ele>
        <time>2023-06-10T12:16:01Z</time>
      </trkpt>
      <trkpt lat="43.65429" lon="-1.43062">
        <ele>7.1999998092651</ele>
        <time>2023-06-10T12:16:03Z</time>
      </trkpt>
      <trkpt lat="43.65429" lon="-1.43069">
        <ele>7</ele>
        <time>2023-06-10T12:16:04Z</time>
      </trkpt>
      <trkpt lat="43.65428" lon="-1.43097">
        <ele>6.4000000953674</ele>
        <time>2023-06-10T12:16:08Z</time>
      </trkpt>
      <trkpt lat="43.65426" lon="-1.43103">
        <ele>6.4000000953674</ele>
        <time>2023-06-10T12:16:09Z</time>
      </trkpt>
      <trkpt lat="43.65425" lon="-1.43109">
        <ele>6.4000000953674</ele>
        <time>2023-06-10T12:16:10Z</time>
      </trkpt>
      <trkpt lat="43.65413" lon="-1.4315">
        <ele>6</ele>
        <time>2023-06-10T12:16:17Z</time>
      </trkpt>
      <trkpt lat="43.65411" lon="-1.43184">
        <ele>5.8000001907349</ele>
        <time>2023-06-10T12:16:24Z</time>
      </trkpt>
      <trkpt lat="43.6541" lon="-1.43185">
        <ele>5.8000001907349</ele>
        <time>2023-06-10T12:16:28Z</time>
      </trkpt>
      <trkpt lat="43.65409" lon="-1.43183">
        <ele>5.5999999046326</ele>
        <time>2023-06-10T12:16:30Z</time>
      </trkpt>
      <trkpt lat="43.65409" lon="-1.43181">
        <ele>5.5999999046326</ele>
        <time>2023-06-10T12:16:31Z</time>
      </trkpt>
      <trkpt lat="43.65409" lon="-1.4318">
        <ele>5.5999999046326</ele>
        <time>2023-06-10T12:16:32Z</time>
      </trkpt>
      <trkpt lat="43.65409" lon="-1.43178">
        <ele>5.4000000953674</ele>
        <time>2023-06-10T12:16:39Z</time>
      </trkpt>
      <trkpt lat="43.65409" lon="-1.43173">
        <ele>5.1999998092651</ele>
        <time>2023-06-10T12:16:59Z</time>
      </trkpt>
      <trkpt lat="43.65413" lon="-1.43147">
        <ele>5</ele>
        <time>2023-06-10T12:17:06Z</time>
      </trkpt>
      <trkpt lat="43.6542" lon="-1.43121">
        <ele>5.1999998092651</ele>
        <time>2023-06-10T12:17:12Z</time>
      </trkpt>
      <trkpt lat="43.65423" lon="-1.4312">
        <ele>5.1999998092651</ele>
        <time>2023-06-10T12:17:13Z</time>
      </trkpt>
      <trkpt lat="43.65427" lon="-1.43122">
        <ele>5.1999998092651</ele>
        <time>2023-06-10T12:17:14Z</time>
      </trkpt>
      <trkpt lat="43.65429" lon="-1.43125">
        <ele>5.1999998092651</ele>
        <time>2023-06-10T12:17:15Z</time>
      </trkpt>
      <trkpt lat="43.65432" lon="-1.43128">
        <ele>5.1999998092651</ele>
        <time>2023-06-10T12:17:16Z</time>
      </trkpt>
      <trkpt lat="43.65437" lon="-1.43135">
        <ele>5.4000000953674</ele>
        <time>2023-06-10T12:17:18Z</time>
      </trkpt>
      <trkpt lat="43.65438" lon="-1.43139">
        <ele>5.4000000953674</ele>
        <time>2023-06-10T12:17:19Z</time>
      </trkpt>
      <trkpt lat="43.65435" lon="-1.43166">
        <ele>5.5999999046326</ele>
        <time>2023-06-10T12:17:26Z</time>
      </trkpt>
      <trkpt lat="43.65437" lon="-1.43169">
        <ele>5.4000000953674</ele>
        <time>2023-06-10T12:17:29Z</time>
      </trkpt>
      <trkpt lat="43.65442" lon="-1.43173">
        <ele>5.4000000953674</ele>
        <time>2023-06-10T12:17:32Z</time>
      </trkpt>
      <trkpt lat="43.65445" lon="-1.43173">
        <ele>5.4000000953674</ele>
        <time>2023-06-10T12:17:33Z</time>
      </trkpt>
      <trkpt lat="43.65461" lon="-1.43178">
        <ele>5.4000000953674</ele>
        <time>2023-06-10T12:17:38Z</time>
      </trkpt>
      <trkpt lat="43.6547" lon="-1.432">
        <ele>5.5999999046326</ele>
        <time>2023-06-10T12:17:43Z</time>
      </trkpt>
      <trkpt lat="43.65488" lon="-1.43227">
        <ele>5.5999999046326</ele>
        <time>2023-06-10T12:17:50Z</time>
      </trkpt>
      <trkpt lat="43.65511" lon="-1.43244">
        <ele>5.5999999046326</ele>
        <time>2023-06-10T12:17:57Z</time>
      </trkpt>
      <trkpt lat="43.65527" lon="-1.43269">
        <ele>5.8000001907349</ele>
        <time>2023-06-10T12:18:04Z</time>
      </trkpt>
      <trkpt lat="43.6555" lon="-1.43296">
        <ele>6</ele>
        <time>2023-06-10T12:18:11Z</time>
      </trkpt>
      <trkpt lat="43.65577" lon="-1.43314">
        <ele>6.1999998092651</ele>
        <time>2023-06-10T12:18:18Z</time>
      </trkpt>
      <trkpt lat="43.65613" lon="-1.43325">
        <ele>6.4000000953674</ele>
        <time>2023-06-10T12:18:26Z</time>
      </trkpt>
      <trkpt lat="43.65658" lon="-1.4333">
        <ele>6.5999999046326</ele>
        <time>2023-06-10T12:18:36Z</time>
      </trkpt>
      <trkpt lat="43.65697" lon="-1.43321">
        <ele>6.8000001907349</ele>
        <time>2023-06-10T12:18:45Z</time>
      </trkpt>
      <trkpt lat="43.6574" lon="-1.43306">
        <ele>7.1999998092651</ele>
        <time>2023-06-10T12:18:55Z</time>
      </trkpt>
      <trkpt lat="43.65761" lon="-1.4329">
        <ele>7.1999998092651</ele>
        <time>2023-06-10T12:19:00Z</time>
      </trkpt>
      <trkpt lat="43.65765" lon="-1.43286">
        <ele>7.1999998092651</ele>
        <time>2023-06-10T12:19:01Z</time>
      </trkpt>
      <trkpt lat="43.65805" lon="-1.43237">
        <ele>6.8000001907349</ele>
        <time>2023-06-10T12:19:12Z</time>
      </trkpt>
      <trkpt lat="43.65834" lon="-1.43206">
        <ele>6.8000001907349</ele>
        <time>2023-06-10T12:19:20Z</time>
      </trkpt>
      <trkpt lat="43.65838" lon="-1.43203">
        <ele>6.8000001907349</ele>
        <time>2023-06-10T12:19:21Z</time>
      </trkpt>
      <trkpt lat="43.65842" lon="-1.43201">
        <ele>6.8000001907349</ele>
        <time>2023-06-10T12:19:22Z</time>
      </trkpt>
      <trkpt lat="43.65874" lon="-1.43181">
        <ele>6.8000001907349</ele>
        <time>2023-06-10T12:19:30Z</time>
      </trkpt>
      <trkpt lat="43.65913" lon="-1.43161">
        <ele>6.8000001907349</ele>
        <time>2023-06-10T12:19:39Z</time>
      </trkpt>
      <trkpt lat="43.65952" lon="-1.43139">
        <ele>7</ele>
        <time>2023-06-10T12:19:48Z</time>
      </trkpt>
      <trkpt lat="43.65986" lon="-1.43119">
        <ele>7.1999998092651</ele>
        <time>2023-06-10T12:19:57Z</time>
      </trkpt>
      <trkpt lat="43.66009" lon="-1.43116">
        <ele>7.8000001907349</ele>
        <time>2023-06-10T12:20:04Z</time>
      </trkpt>
      <trkpt lat="43.6602" lon="-1.43135">
        <ele>8.8000001907349</ele>
        <time>2023-06-10T12:20:10Z</time>
      </trkpt>
      <trkpt lat="43.6603" lon="-1.43153">
        <ele>10</ele>
        <time>2023-06-10T12:20:17Z</time>
      </trkpt>
      <trkpt lat="43.66032" lon="-1.43154">
        <ele>10.60000038147</ele>
        <time>2023-06-10T12:20:23Z</time>
      </trkpt>
      <trkpt lat="43.66033" lon="-1.43154">
        <ele>10.800000190735</ele>
        <time>2023-06-10T12:20:24Z</time>
      </trkpt>
      <trkpt lat="43.66035" lon="-1.43153">
        <ele>10.800000190735</ele>
        <time>2023-06-10T12:20:25Z</time>
      </trkpt>
      <trkpt lat="43.6604" lon="-1.43153">
        <ele>11</ele>
        <time>2023-06-10T12:20:29Z</time>
      </trkpt>
      <trkpt lat="43.66041" lon="-1.43154">
        <ele>11.199999809265</ele>
        <time>2023-06-10T12:20:30Z</time>
      </trkpt>
      <trkpt lat="43.66042" lon="-1.43156">
        <ele>11.199999809265</ele>
        <time>2023-06-10T12:20:31Z</time>
      </trkpt>
      <trkpt lat="43.66058" lon="-1.43182">
        <ele>11.199999809265</ele>
        <time>2023-06-10T12:20:42Z</time>
      </trkpt>
      <trkpt lat="43.66081" lon="-1.43215">
        <ele>11.60000038147</ele>
        <time>2023-06-10T12:20:54Z</time>
      </trkpt>
      <trkpt lat="43.66105" lon="-1.43257">
        <ele>11.800000190735</ele>
        <time>2023-06-10T12:21:05Z</time>
      </trkpt>
      <trkpt lat="43.66118" lon="-1.43275">
        <ele>11.60000038147</ele>
        <time>2023-06-10T12:21:11Z</time>
      </trkpt>
      <trkpt lat="43.66136" lon="-1.4327">
        <ele>11.39999961853</ele>
        <time>2023-06-10T12:21:16Z</time>
      </trkpt>
      <trkpt lat="43.66171" lon="-1.43268">
        <ele>11.199999809265</ele>
        <time>2023-06-10T12:21:24Z</time>
      </trkpt>
      <trkpt lat="43.66207" lon="-1.43268">
        <ele>11</ele>
        <time>2023-06-10T12:21:32Z</time>
      </trkpt>
      <trkpt lat="43.66228" lon="-1.43264">
        <ele>10.39999961853</ele>
        <time>2023-06-10T12:21:39Z</time>
      </trkpt>
      <trkpt lat="43.66231" lon="-1.43262">
        <ele>9.8000001907349</ele>
        <time>2023-06-10T12:21:44Z</time>
      </trkpt>
      <trkpt lat="43.66232" lon="-1.43261">
        <ele>9.1999998092651</ele>
        <time>2023-06-10T12:22:01Z</time>
      </trkpt>
      <trkpt lat="43.66233" lon="-1.43259">
        <ele>9.3999996185303</ele>
        <time>2023-06-10T12:22:41Z</time>
      </trkpt>
      <trkpt lat="43.66235" lon="-1.43262">
        <ele>9.3999996185303</ele>
        <time>2023-06-10T12:23:19Z</time>
      </trkpt>
      <trkpt lat="43.66232" lon="-1.43262">
        <ele>9.3999996185303</ele>
        <time>2023-06-10T12:23:48Z</time>
      </trkpt>
      <trkpt lat="43.6623" lon="-1.43261">
        <ele>9.3999996185303</ele>
        <time>2023-06-10T12:24:21Z</time>
      </trkpt>
      <trkpt lat="43.66232" lon="-1.43261">
        <ele>9.3999996185303</ele>
        <time>2023-06-10T12:24:54Z</time>
      </trkpt>
      <trkpt lat="43.66231" lon="-1.43265">
        <ele>9.3999996185303</ele>
        <time>2023-06-10T12:25:30Z</time>
      </trkpt>
      <trkpt lat="43.6623" lon="-1.43266">
        <ele>9.3999996185303</ele>
        <time>2023-06-10T12:26:02Z</time>
      </trkpt>
      <trkpt lat="43.66231" lon="-1.43266">
        <ele>9.3999996185303</ele>
        <time>2023-06-10T12:26:22Z</time>
      </trkpt>
      <trkpt lat="43.66231" lon="-1.43265">
        <ele>9.3999996185303</ele>
        <time>2023-06-10T12:26:48Z</time>
      </trkpt>
      <trkpt lat="43.6623" lon="-1.43266">
        <ele>9.3999996185303</ele>
        <time>2023-06-10T12:27:34Z</time>
      </trkpt>
      <trkpt lat="43.6623" lon="-1.43263">
        <ele>9.3999996185303</ele>
        <time>2023-06-10T12:28:07Z</time>
      </trkpt>
      <trkpt lat="43.6623" lon="-1.43263">
        <ele>9.3999996185303</ele>
        <time>2023-06-10T12:28:28Z</time>
      </trkpt>
      <trkpt lat="43.6623" lon="-1.43263">
        <ele>9.3999996185303</ele>
        <time>2023-06-10T12:28:45Z</time>
      </trkpt>
      <trkpt lat="43.66229" lon="-1.43265">
        <ele>9.3999996185303</ele>
        <time>2023-06-10T12:29:06Z</time>
      </trkpt>
      <trkpt lat="43.66229" lon="-1.43264">
        <ele>9.3999996185303</ele>
        <time>2023-06-10T12:29:36Z</time>
      </trkpt>
      <trkpt lat="43.6623" lon="-1.43263">
        <ele>9.3999996185303</ele>
        <time>2023-06-10T12:29:51Z</time>
      </trkpt>
      <trkpt lat="43.66234" lon="-1.43264">
        <ele>9.3999996185303</ele>
        <time>2023-06-10T12:30:09Z</time>
      </trkpt>
      <trkpt lat="43.66236" lon="-1.43266">
        <ele>9.3999996185303</ele>
        <time>2023-06-10T12:30:10Z</time>
      </trkpt>
      <trkpt lat="43.66251" lon="-1.43288">
        <ele>10.800000190735</ele>
        <time>2023-06-10T12:30:18Z</time>
      </trkpt>
      <trkpt lat="43.66263" lon="-1.43312">
        <ele>11</ele>
        <time>2023-06-10T12:30:26Z</time>
      </trkpt>
      <trkpt lat="43.6627" lon="-1.43331">
        <ele>11</ele>
        <time>2023-06-10T12:30:31Z</time>
      </trkpt>
      <trkpt lat="43.66282" lon="-1.43364">
        <ele>11.199999809265</ele>
        <time>2023-06-10T12:30:39Z</time>
      </trkpt>
      <trkpt lat="43.66293" lon="-1.43388">
        <ele>11.800000190735</ele>
        <time>2023-06-10T12:30:46Z</time>
      </trkpt>
      <trkpt lat="43.66309" lon="-1.43411">
        <ele>12.800000190735</ele>
        <time>2023-06-10T12:30:53Z</time>
      </trkpt>
      <trkpt lat="43.66325" lon="-1.43425">
        <ele>13.60000038147</ele>
        <time>2023-06-10T12:30:59Z</time>
      </trkpt>
      <trkpt lat="43.66335" lon="-1.43443">
        <ele>14.60000038147</ele>
        <time>2023-06-10T12:31:05Z</time>
      </trkpt>
      <trkpt lat="43.6634" lon="-1.43469">
        <ele>15.60000038147</ele>
        <time>2023-06-10T12:31:12Z</time>
      </trkpt>
      <trkpt lat="43.6634" lon="-1.43501">
        <ele>16.60000038147</ele>
        <time>2023-06-10T12:31:20Z</time>
      </trkpt>
      <trkpt lat="43.66342" lon="-1.4354">
        <ele>16.39999961853</ele>
        <time>2023-06-10T12:31:27Z</time>
      </trkpt>
      <trkpt lat="43.66343" lon="-1.43547">
        <ele>16.39999961853</ele>
        <time>2023-06-10T12:31:28Z</time>
      </trkpt>
      <trkpt lat="43.66344" lon="-1.43555">
        <ele>16.200000762939</ele>
        <time>2023-06-10T12:31:29Z</time>
      </trkpt>
      <trkpt lat="43.66346" lon="-1.43563">
        <ele>16</ele>
        <time>2023-06-10T12:31:30Z</time>
      </trkpt>
      <trkpt lat="43.66348" lon="-1.43572">
        <ele>16</ele>
        <time>2023-06-10T12:31:31Z</time>
      </trkpt>
      <trkpt lat="43.66351" lon="-1.43582">
        <ele>15.800000190735</ele>
        <time>2023-06-10T12:31:32Z</time>
      </trkpt>
      <trkpt lat="43.66362" lon="-1.43624">
        <ele>14.800000190735</ele>
        <time>2023-06-10T12:31:36Z</time>
      </trkpt>
      <trkpt lat="43.66367" lon="-1.43634">
        <ele>14.39999961853</ele>
        <time>2023-06-10T12:31:37Z</time>
      </trkpt>
      <trkpt lat="43.664" lon="-1.43685">
        <ele>11.60000038147</ele>
        <time>2023-06-10T12:31:43Z</time>
      </trkpt>
      <trkpt lat="43.66437" lon="-1.43735">
        <ele>10</ele>
        <time>2023-06-10T12:31:50Z</time>
      </trkpt>
      <trkpt lat="43.66455" lon="-1.43777">
        <ele>9.8000001907349</ele>
        <time>2023-06-10T12:31:57Z</time>
      </trkpt>
      <trkpt lat="43.66457" lon="-1.43803">
        <ele>9.8000001907349</ele>
        <time>2023-06-10T12:32:02Z</time>
      </trkpt>
      <trkpt lat="43.66454" lon="-1.43837">
        <ele>9.6000003814697</ele>
        <time>2023-06-10T12:32:08Z</time>
      </trkpt>
      <trkpt lat="43.66444" lon="-1.43899">
        <ele>9.1999998092651</ele>
        <time>2023-06-10T12:32:18Z</time>
      </trkpt>
      <trkpt lat="43.66443" lon="-1.43937">
        <ele>9.1999998092651</ele>
        <time>2023-06-10T12:32:25Z</time>
      </trkpt>
      <trkpt lat="43.66448" lon="-1.4397">
        <ele>9.6000003814697</ele>
        <time>2023-06-10T12:32:32Z</time>
      </trkpt>
      <trkpt lat="43.66458" lon="-1.44001">
        <ele>10</ele>
        <time>2023-06-10T12:32:39Z</time>
      </trkpt>
      <trkpt lat="43.66477" lon="-1.44011">
        <ele>10.800000190735</ele>
        <time>2023-06-10T12:32:46Z</time>
      </trkpt>
      <trkpt lat="43.66509" lon="-1.44008">
        <ele>11.60000038147</ele>
        <time>2023-06-10T12:32:54Z</time>
      </trkpt>
      <trkpt lat="43.66561" lon="-1.43999">
        <ele>11.199999809265</ele>
        <time>2023-06-10T12:33:05Z</time>
      </trkpt>
      <trkpt lat="43.66617" lon="-1.43989">
        <ele>10.60000038147</ele>
        <time>2023-06-10T12:33:18Z</time>
      </trkpt>
      <trkpt lat="43.66658" lon="-1.43983">
        <ele>10.800000190735</ele>
        <time>2023-06-10T12:33:28Z</time>
      </trkpt>
      <trkpt lat="43.66697" lon="-1.43976">
        <ele>11.199999809265</ele>
        <time>2023-06-10T12:33:39Z</time>
      </trkpt>
      <trkpt lat="43.66726" lon="-1.43971">
        <ele>11.800000190735</ele>
        <time>2023-06-10T12:33:47Z</time>
      </trkpt>
      <trkpt lat="43.66767" lon="-1.43968">
        <ele>12.199999809265</ele>
        <time>2023-06-10T12:33:57Z</time>
      </trkpt>
      <trkpt lat="43.66829" lon="-1.4396">
        <ele>11.199999809265</ele>
        <time>2023-06-10T12:34:11Z</time>
      </trkpt>
      <trkpt lat="43.6688" lon="-1.43954">
        <ele>11.199999809265</ele>
        <time>2023-06-10T12:34:24Z</time>
      </trkpt>
      <trkpt lat="43.66916" lon="-1.43949">
        <ele>11.39999961853</ele>
        <time>2023-06-10T12:34:33Z</time>
      </trkpt>
      <trkpt lat="43.66956" lon="-1.43944">
        <ele>11.39999961853</ele>
        <time>2023-06-10T12:34:43Z</time>
      </trkpt>
      <trkpt lat="43.66988" lon="-1.4394">
        <ele>11.60000038147</ele>
        <time>2023-06-10T12:34:51Z</time>
      </trkpt>
      <trkpt lat="43.67028" lon="-1.4393">
        <ele>12.199999809265</ele>
        <time>2023-06-10T12:35:02Z</time>
      </trkpt>
      <trkpt lat="43.67051" lon="-1.43913">
        <ele>12.199999809265</ele>
        <time>2023-06-10T12:35:08Z</time>
      </trkpt>
      <trkpt lat="43.67055" lon="-1.43911">
        <ele>12.199999809265</ele>
        <time>2023-06-10T12:35:09Z</time>
      </trkpt>
      <trkpt lat="43.67059" lon="-1.43911">
        <ele>12.199999809265</ele>
        <time>2023-06-10T12:35:10Z</time>
      </trkpt>
      <trkpt lat="43.67064" lon="-1.43912">
        <ele>12</ele>
        <time>2023-06-10T12:35:11Z</time>
      </trkpt>
      <trkpt lat="43.67068" lon="-1.43914">
        <ele>12</ele>
        <time>2023-06-10T12:35:12Z</time>
      </trkpt>
      <trkpt lat="43.67072" lon="-1.43917">
        <ele>11.800000190735</ele>
        <time>2023-06-10T12:35:13Z</time>
      </trkpt>
      <trkpt lat="43.67076" lon="-1.4392">
        <ele>11.800000190735</ele>
        <time>2023-06-10T12:35:14Z</time>
      </trkpt>
      <trkpt lat="43.67079" lon="-1.43924">
        <ele>11.800000190735</ele>
        <time>2023-06-10T12:35:15Z</time>
      </trkpt>
      <trkpt lat="43.67082" lon="-1.43927">
        <ele>11.60000038147</ele>
        <time>2023-06-10T12:35:16Z</time>
      </trkpt>
      <trkpt lat="43.67085" lon="-1.43931">
        <ele>11.60000038147</ele>
        <time>2023-06-10T12:35:17Z</time>
      </trkpt>
      <trkpt lat="43.67088" lon="-1.43935">
        <ele>11.60000038147</ele>
        <time>2023-06-10T12:35:18Z</time>
      </trkpt>
      <trkpt lat="43.67104" lon="-1.43944">
        <ele>11.60000038147</ele>
        <time>2023-06-10T12:35:23Z</time>
      </trkpt>
      <trkpt lat="43.67124" lon="-1.4394">
        <ele>12</ele>
        <time>2023-06-10T12:35:28Z</time>
      </trkpt>
      <trkpt lat="43.67128" lon="-1.43938">
        <ele>12</ele>
        <time>2023-06-10T12:35:29Z</time>
      </trkpt>
      <trkpt lat="43.67167" lon="-1.43928">
        <ele>11.39999961853</ele>
        <time>2023-06-10T12:35:38Z</time>
      </trkpt>
      <trkpt lat="43.67217" lon="-1.4392">
        <ele>11.199999809265</ele>
        <time>2023-06-10T12:35:50Z</time>
      </trkpt>
      <trkpt lat="43.67264" lon="-1.43913">
        <ele>11.199999809265</ele>
        <time>2023-06-10T12:36:02Z</time>
      </trkpt>
      <trkpt lat="43.67305" lon="-1.43908">
        <ele>11.199999809265</ele>
        <time>2023-06-10T12:36:12Z</time>
      </trkpt>
      <trkpt lat="43.67352" lon="-1.43902">
        <ele>10.800000190735</ele>
        <time>2023-06-10T12:36:23Z</time>
      </trkpt>
      <trkpt lat="43.6739" lon="-1.43893">
        <ele>10.60000038147</ele>
        <time>2023-06-10T12:36:32Z</time>
      </trkpt>
      <trkpt lat="43.67394" lon="-1.43891">
        <ele>10.60000038147</ele>
        <time>2023-06-10T12:36:33Z</time>
      </trkpt>
      <trkpt lat="43.67435" lon="-1.43868">
        <ele>10.39999961853</ele>
        <time>2023-06-10T12:36:43Z</time>
      </trkpt>
      <trkpt lat="43.6747" lon="-1.43833">
        <ele>10.39999961853</ele>
        <time>2023-06-10T12:36:53Z</time>
      </trkpt>
      <trkpt lat="43.675" lon="-1.438">
        <ele>10.39999961853</ele>
        <time>2023-06-10T12:37:02Z</time>
      </trkpt>
      <trkpt lat="43.67524" lon="-1.43766">
        <ele>10.800000190735</ele>
        <time>2023-06-10T12:37:11Z</time>
      </trkpt>
      <trkpt lat="43.67533" lon="-1.43764">
        <ele>11</ele>
        <time>2023-06-10T12:37:13Z</time>
      </trkpt>
      <trkpt lat="43.67537" lon="-1.43763">
        <ele>11</ele>
        <time>2023-06-10T12:37:14Z</time>
      </trkpt>
      <trkpt lat="43.67541" lon="-1.43764">
        <ele>11</ele>
        <time>2023-06-10T12:37:15Z</time>
      </trkpt>
      <trkpt lat="43.67545" lon="-1.43764">
        <ele>11.199999809265</ele>
        <time>2023-06-10T12:37:16Z</time>
      </trkpt>
      <trkpt lat="43.67549" lon="-1.43764">
        <ele>11.199999809265</ele>
        <time>2023-06-10T12:37:17Z</time>
      </trkpt>
      <trkpt lat="43.67553" lon="-1.43763">
        <ele>11.39999961853</ele>
        <time>2023-06-10T12:37:18Z</time>
      </trkpt>
      <trkpt lat="43.67597" lon="-1.43752">
        <ele>12.39999961853</ele>
        <time>2023-06-10T12:37:29Z</time>
      </trkpt>
      <trkpt lat="43.67605" lon="-1.43753">
        <ele>12.60000038147</ele>
        <time>2023-06-10T12:37:31Z</time>
      </trkpt>
      <trkpt lat="43.6761" lon="-1.43755">
        <ele>12.60000038147</ele>
        <time>2023-06-10T12:37:32Z</time>
      </trkpt>
      <trkpt lat="43.67657" lon="-1.43774">
        <ele>12.199999809265</ele>
        <time>2023-06-10T12:37:42Z</time>
      </trkpt>
      <trkpt lat="43.677" lon="-1.43791">
        <ele>11.199999809265</ele>
        <time>2023-06-10T12:37:52Z</time>
      </trkpt>
      <trkpt lat="43.67738" lon="-1.43803">
        <ele>11</ele>
        <time>2023-06-10T12:38:02Z</time>
      </trkpt>
      <trkpt lat="43.67784" lon="-1.43819">
        <ele>11.199999809265</ele>
        <time>2023-06-10T12:38:14Z</time>
      </trkpt>
      <trkpt lat="43.67827" lon="-1.43835">
        <ele>11</ele>
        <time>2023-06-10T12:38:25Z</time>
      </trkpt>
      <trkpt lat="43.67865" lon="-1.43849">
        <ele>11</ele>
        <time>2023-06-10T12:38:35Z</time>
      </trkpt>
      <trkpt lat="43.67894" lon="-1.43855">
        <ele>11.199999809265</ele>
        <time>2023-06-10T12:38:44Z</time>
      </trkpt>
      <trkpt lat="43.67926" lon="-1.43857">
        <ele>12.39999961853</ele>
        <time>2023-06-10T12:38:55Z</time>
      </trkpt>
      <trkpt lat="43.67954" lon="-1.43855">
        <ele>13.800000190735</ele>
        <time>2023-06-10T12:39:05Z</time>
      </trkpt>
      <trkpt lat="43.67978" lon="-1.43847">
        <ele>15</ele>
        <time>2023-06-10T12:39:14Z</time>
      </trkpt>
      <trkpt lat="43.68011" lon="-1.43835">
        <ele>15</ele>
        <time>2023-06-10T12:39:25Z</time>
      </trkpt>
      <trkpt lat="43.68042" lon="-1.43823">
        <ele>15.199999809265</ele>
        <time>2023-06-10T12:39:33Z</time>
      </trkpt>
      <trkpt lat="43.68082" lon="-1.43797">
        <ele>14</ele>
        <time>2023-06-10T12:39:40Z</time>
      </trkpt>
      <trkpt lat="43.68128" lon="-1.43758">
        <ele>11.199999809265</ele>
        <time>2023-06-10T12:39:49Z</time>
      </trkpt>
      <trkpt lat="43.68169" lon="-1.43708">
        <ele>10.199999809265</ele>
        <time>2023-06-10T12:40:00Z</time>
      </trkpt>
      <trkpt lat="43.68184" lon="-1.43686">
        <ele>10</ele>
        <time>2023-06-10T12:40:05Z</time>
      </trkpt>
      <trkpt lat="43.68192" lon="-1.43669">
        <ele>10</ele>
        <time>2023-06-10T12:40:10Z</time>
      </trkpt>
      <trkpt lat="43.68194" lon="-1.43668">
        <ele>10</ele>
        <time>2023-06-10T12:40:11Z</time>
      </trkpt>
      <trkpt lat="43.68196" lon="-1.43669">
        <ele>10</ele>
        <time>2023-06-10T12:40:12Z</time>
      </trkpt>
      <trkpt lat="43.68197" lon="-1.4367">
        <ele>10</ele>
        <time>2023-06-10T12:40:13Z</time>
      </trkpt>
      <trkpt lat="43.68199" lon="-1.43672">
        <ele>10</ele>
        <time>2023-06-10T12:40:14Z</time>
      </trkpt>
      <trkpt lat="43.68201" lon="-1.43673">
        <ele>10</ele>
        <time>2023-06-10T12:40:15Z</time>
      </trkpt>
      <trkpt lat="43.68203" lon="-1.43676">
        <ele>10</ele>
        <time>2023-06-10T12:40:16Z</time>
      </trkpt>
      <trkpt lat="43.68205" lon="-1.43678">
        <ele>10</ele>
        <time>2023-06-10T12:40:17Z</time>
      </trkpt>
      <trkpt lat="43.68207" lon="-1.4368">
        <ele>10.199999809265</ele>
        <time>2023-06-10T12:40:18Z</time>
      </trkpt>
      <trkpt lat="43.68209" lon="-1.43682">
        <ele>10.199999809265</ele>
        <time>2023-06-10T12:40:19Z</time>
      </trkpt>
      <trkpt lat="43.68212" lon="-1.43681">
        <ele>10.199999809265</ele>
        <time>2023-06-10T12:40:20Z</time>
      </trkpt>
      <trkpt lat="43.68215" lon="-1.4368">
        <ele>10.199999809265</ele>
        <time>2023-06-10T12:40:21Z</time>
      </trkpt>
      <trkpt lat="43.68218" lon="-1.43678">
        <ele>10.199999809265</ele>
        <time>2023-06-10T12:40:22Z</time>
      </trkpt>
      <trkpt lat="43.68221" lon="-1.43676">
        <ele>10.199999809265</ele>
        <time>2023-06-10T12:40:23Z</time>
      </trkpt>
      <trkpt lat="43.68225" lon="-1.43674">
        <ele>10.199999809265</ele>
        <time>2023-06-10T12:40:24Z</time>
      </trkpt>
      <trkpt lat="43.68229" lon="-1.43673">
        <ele>10.199999809265</ele>
        <time>2023-06-10T12:40:25Z</time>
      </trkpt>
      <trkpt lat="43.6826" lon="-1.43658">
        <ele>10.199999809265</ele>
        <time>2023-06-10T12:40:33Z</time>
      </trkpt>
      <trkpt lat="43.68302" lon="-1.43649">
        <ele>10.199999809265</ele>
        <time>2023-06-10T12:40:43Z</time>
      </trkpt>
      <trkpt lat="43.68341" lon="-1.43657">
        <ele>10</ele>
        <time>2023-06-10T12:40:53Z</time>
      </trkpt>
      <trkpt lat="43.6838" lon="-1.43667">
        <ele>10.60000038147</ele>
        <time>2023-06-10T12:41:04Z</time>
      </trkpt>
      <trkpt lat="43.68428" lon="-1.43678">
        <ele>10.800000190735</ele>
        <time>2023-06-10T12:41:17Z</time>
      </trkpt>
      <trkpt lat="43.6846" lon="-1.43683">
        <ele>11</ele>
        <time>2023-06-10T12:41:26Z</time>
      </trkpt>
      <trkpt lat="43.68505" lon="-1.43692">
        <ele>11</ele>
        <time>2023-06-10T12:41:38Z</time>
      </trkpt>
      <trkpt lat="43.68549" lon="-1.43702">
        <ele>11.199999809265</ele>
        <time>2023-06-10T12:41:49Z</time>
      </trkpt>
      <trkpt lat="43.6858" lon="-1.43701">
        <ele>11.39999961853</ele>
        <time>2023-06-10T12:41:57Z</time>
      </trkpt>
      <trkpt lat="43.68616" lon="-1.43689">
        <ele>12</ele>
        <time>2023-06-10T12:42:07Z</time>
      </trkpt>
      <trkpt lat="43.68658" lon="-1.43677">
        <ele>11.800000190735</ele>
        <time>2023-06-10T12:42:17Z</time>
      </trkpt>
      <trkpt lat="43.68679" lon="-1.43673">
        <ele>11.60000038147</ele>
        <time>2023-06-10T12:42:22Z</time>
      </trkpt>
      <trkpt lat="43.68701" lon="-1.4368">
        <ele>11.39999961853</ele>
        <time>2023-06-10T12:42:28Z</time>
      </trkpt>
      <trkpt lat="43.68719" lon="-1.43686">
        <ele>11.60000038147</ele>
        <time>2023-06-10T12:42:34Z</time>
      </trkpt>
      <trkpt lat="43.68735" lon="-1.43685">
        <ele>11.60000038147</ele>
        <time>2023-06-10T12:42:38Z</time>
      </trkpt>
      <trkpt lat="43.68739" lon="-1.43685">
        <ele>11.60000038147</ele>
        <time>2023-06-10T12:42:39Z</time>
      </trkpt>
      <trkpt lat="43.68776" lon="-1.43689">
        <ele>11.800000190735</ele>
        <time>2023-06-10T12:42:49Z</time>
      </trkpt>
      <trkpt lat="43.68807" lon="-1.43685">
        <ele>12.800000190735</ele>
        <time>2023-06-10T12:42:58Z</time>
      </trkpt>
      <trkpt lat="43.68849" lon="-1.43677">
        <ele>13.199999809265</ele>
        <time>2023-06-10T12:43:09Z</time>
      </trkpt>
      <trkpt lat="43.68896" lon="-1.43666">
        <ele>13.39999961853</ele>
        <time>2023-06-10T12:43:21Z</time>
      </trkpt>
      <trkpt lat="43.68951" lon="-1.43652">
        <ele>13.800000190735</ele>
        <time>2023-06-10T12:43:36Z</time>
      </trkpt>
      <trkpt lat="43.68987" lon="-1.43642">
        <ele>14.199999809265</ele>
        <time>2023-06-10T12:43:46Z</time>
      </trkpt>
      <trkpt lat="43.69041" lon="-1.43629">
        <ele>14.39999961853</ele>
        <time>2023-06-10T12:43:59Z</time>
      </trkpt>
      <trkpt lat="43.69045" lon="-1.43627">
        <ele>14.39999961853</ele>
        <time>2023-06-10T12:44:00Z</time>
      </trkpt>
      <trkpt lat="43.69061" lon="-1.43621">
        <ele>14.199999809265</ele>
        <time>2023-06-10T12:44:04Z</time>
      </trkpt>
      <trkpt lat="43.69065" lon="-1.43621">
        <ele>14.199999809265</ele>
        <time>2023-06-10T12:44:05Z</time>
      </trkpt>
      <trkpt lat="43.69069" lon="-1.43621">
        <ele>14</ele>
        <time>2023-06-10T12:44:06Z</time>
      </trkpt>
      <trkpt lat="43.69072" lon="-1.43623">
        <ele>14</ele>
        <time>2023-06-10T12:44:07Z</time>
      </trkpt>
      <trkpt lat="43.69075" lon="-1.43626">
        <ele>14</ele>
        <time>2023-06-10T12:44:08Z</time>
      </trkpt>
      <trkpt lat="43.69078" lon="-1.43629">
        <ele>14</ele>
        <time>2023-06-10T12:44:09Z</time>
      </trkpt>
      <trkpt lat="43.69081" lon="-1.4363">
        <ele>14</ele>
        <time>2023-06-10T12:44:10Z</time>
      </trkpt>
      <trkpt lat="43.69084" lon="-1.43629">
        <ele>14</ele>
        <time>2023-06-10T12:44:11Z</time>
      </trkpt>
      <trkpt lat="43.69087" lon="-1.43627">
        <ele>14</ele>
        <time>2023-06-10T12:44:12Z</time>
      </trkpt>
      <trkpt lat="43.69114" lon="-1.43618">
        <ele>14</ele>
        <time>2023-06-10T12:44:19Z</time>
      </trkpt>
      <trkpt lat="43.69155" lon="-1.43608">
        <ele>14.199999809265</ele>
        <time>2023-06-10T12:44:30Z</time>
      </trkpt>
      <trkpt lat="43.69158" lon="-1.43604">
        <ele>14.199999809265</ele>
        <time>2023-06-10T12:44:31Z</time>
      </trkpt>
      <trkpt lat="43.69164" lon="-1.43595">
        <ele>14.199999809265</ele>
        <time>2023-06-10T12:44:33Z</time>
      </trkpt>
      <trkpt lat="43.69167" lon="-1.43592">
        <ele>14.199999809265</ele>
        <time>2023-06-10T12:44:34Z</time>
      </trkpt>
      <trkpt lat="43.69171" lon="-1.4359">
        <ele>14.199999809265</ele>
        <time>2023-06-10T12:44:35Z</time>
      </trkpt>
      <trkpt lat="43.69175" lon="-1.43589">
        <ele>14.199999809265</ele>
        <time>2023-06-10T12:44:36Z</time>
      </trkpt>
      <trkpt lat="43.6918" lon="-1.43589">
        <ele>14.199999809265</ele>
        <time>2023-06-10T12:44:37Z</time>
      </trkpt>
      <trkpt lat="43.69184" lon="-1.43589">
        <ele>14.199999809265</ele>
        <time>2023-06-10T12:44:38Z</time>
      </trkpt>
      <trkpt lat="43.69228" lon="-1.436">
        <ele>14.39999961853</ele>
        <time>2023-06-10T12:44:49Z</time>
      </trkpt>
      <trkpt lat="43.6927" lon="-1.43608">
        <ele>15.199999809265</ele>
        <time>2023-06-10T12:45:01Z</time>
      </trkpt>
      <trkpt lat="43.69306" lon="-1.43603">
        <ele>16.200000762939</ele>
        <time>2023-06-10T12:45:11Z</time>
      </trkpt>
      <trkpt lat="43.69343" lon="-1.43591">
        <ele>15.800000190735</ele>
        <time>2023-06-10T12:45:19Z</time>
      </trkpt>
      <trkpt lat="43.6939" lon="-1.43586">
        <ele>14.60000038147</ele>
        <time>2023-06-10T12:45:27Z</time>
      </trkpt>
      <trkpt lat="43.69429" lon="-1.43599">
        <ele>13</ele>
        <time>2023-06-10T12:45:34Z</time>
      </trkpt>
      <trkpt lat="43.69449" lon="-1.43611">
        <ele>13</ele>
        <time>2023-06-10T12:45:40Z</time>
      </trkpt>
      <trkpt lat="43.69476" lon="-1.43624">
        <ele>14.800000190735</ele>
        <time>2023-06-10T12:45:49Z</time>
      </trkpt>
      <trkpt lat="43.69511" lon="-1.43629">
        <ele>16</ele>
        <time>2023-06-10T12:46:00Z</time>
      </trkpt>
      <trkpt lat="43.6954" lon="-1.43623">
        <ele>17.39999961853</ele>
        <time>2023-06-10T12:46:10Z</time>
      </trkpt>
      <trkpt lat="43.69567" lon="-1.43606">
        <ele>18.200000762939</ele>
        <time>2023-06-10T12:46:20Z</time>
      </trkpt>
      <trkpt lat="43.69576" lon="-1.43597">
        <ele>18.39999961853</ele>
        <time>2023-06-10T12:46:24Z</time>
      </trkpt>
      <trkpt lat="43.69575" lon="-1.43593">
        <ele>18.39999961853</ele>
        <time>2023-06-10T12:46:25Z</time>
      </trkpt>
      <trkpt lat="43.69572" lon="-1.4359">
        <ele>18.39999961853</ele>
        <time>2023-06-10T12:46:26Z</time>
      </trkpt>
      <trkpt lat="43.6957" lon="-1.43586">
        <ele>18.39999961853</ele>
        <time>2023-06-10T12:46:27Z</time>
      </trkpt>
      <trkpt lat="43.69567" lon="-1.43582">
        <ele>18.39999961853</ele>
        <time>2023-06-10T12:46:28Z</time>
      </trkpt>
      <trkpt lat="43.69563" lon="-1.43574">
        <ele>18.39999961853</ele>
        <time>2023-06-10T12:46:30Z</time>
      </trkpt>
      <trkpt lat="43.69564" lon="-1.43568">
        <ele>18.200000762939</ele>
        <time>2023-06-10T12:46:31Z</time>
      </trkpt>
      <trkpt lat="43.69566" lon="-1.43564">
        <ele>18.200000762939</ele>
        <time>2023-06-10T12:46:32Z</time>
      </trkpt>
      <trkpt lat="43.69573" lon="-1.4355">
        <ele>17.799999237061</ele>
        <time>2023-06-10T12:46:35Z</time>
      </trkpt>
      <trkpt lat="43.69575" lon="-1.43544">
        <ele>17.60000038147</ele>
        <time>2023-06-10T12:46:36Z</time>
      </trkpt>
      <trkpt lat="43.69591" lon="-1.43487">
        <ele>16.60000038147</ele>
        <time>2023-06-10T12:46:46Z</time>
      </trkpt>
      <trkpt lat="43.69608" lon="-1.43431">
        <ele>15.800000190735</ele>
        <time>2023-06-10T12:46:54Z</time>
      </trkpt>
      <trkpt lat="43.69612" lon="-1.43424">
        <ele>15.39999961853</ele>
        <time>2023-06-10T12:46:55Z</time>
      </trkpt>
      <trkpt lat="43.69617" lon="-1.43417">
        <ele>15.199999809265</ele>
        <time>2023-06-10T12:46:56Z</time>
      </trkpt>
      <trkpt lat="43.69622" lon="-1.43411">
        <ele>15</ele>
        <time>2023-06-10T12:46:57Z</time>
      </trkpt>
      <trkpt lat="43.69627" lon="-1.43406">
        <ele>14.800000190735</ele>
        <time>2023-06-10T12:46:58Z</time>
      </trkpt>
      <trkpt lat="43.69632" lon="-1.43401">
        <ele>14.60000038147</ele>
        <time>2023-06-10T12:46:59Z</time>
      </trkpt>
      <trkpt lat="43.69638" lon="-1.43397">
        <ele>14.39999961853</ele>
        <time>2023-06-10T12:47:00Z</time>
      </trkpt>
      <trkpt lat="43.69643" lon="-1.43393">
        <ele>14.199999809265</ele>
        <time>2023-06-10T12:47:01Z</time>
      </trkpt>
      <trkpt lat="43.69681" lon="-1.43382">
        <ele>13.800000190735</ele>
        <time>2023-06-10T12:47:08Z</time>
      </trkpt>
      <trkpt lat="43.69746" lon="-1.43378">
        <ele>13.60000038147</ele>
        <time>2023-06-10T12:47:21Z</time>
      </trkpt>
      <trkpt lat="43.69785" lon="-1.43373">
        <ele>13.199999809265</ele>
        <time>2023-06-10T12:47:31Z</time>
      </trkpt>
      <trkpt lat="43.69787" lon="-1.4337">
        <ele>13</ele>
        <time>2023-06-10T12:47:32Z</time>
      </trkpt>
      <trkpt lat="43.69787" lon="-1.43366">
        <ele>12.800000190735</ele>
        <time>2023-06-10T12:47:33Z</time>
      </trkpt>
      <trkpt lat="43.6979" lon="-1.43348">
        <ele>12.199999809265</ele>
        <time>2023-06-10T12:47:37Z</time>
      </trkpt>
      <trkpt lat="43.69793" lon="-1.43344">
        <ele>12</ele>
        <time>2023-06-10T12:47:38Z</time>
      </trkpt>
      <trkpt lat="43.69797" lon="-1.43343">
        <ele>11.800000190735</ele>
        <time>2023-06-10T12:47:39Z</time>
      </trkpt>
      <trkpt lat="43.69802" lon="-1.43341">
        <ele>11.800000190735</ele>
        <time>2023-06-10T12:47:40Z</time>
      </trkpt>
      <trkpt lat="43.69806" lon="-1.43341">
        <ele>11.60000038147</ele>
        <time>2023-06-10T12:47:41Z</time>
      </trkpt>
      <trkpt lat="43.69835" lon="-1.4334">
        <ele>11</ele>
        <time>2023-06-10T12:47:49Z</time>
      </trkpt>
      <trkpt lat="43.69844" lon="-1.43357">
        <ele>10.800000190735</ele>
        <time>2023-06-10T12:47:53Z</time>
      </trkpt>
      <trkpt lat="43.69851" lon="-1.43368">
        <ele>10.60000038147</ele>
        <time>2023-06-10T12:47:56Z</time>
      </trkpt>
      <trkpt lat="43.69854" lon="-1.4337">
        <ele>10.60000038147</ele>
        <time>2023-06-10T12:47:57Z</time>
      </trkpt>
      <trkpt lat="43.69858" lon="-1.4337">
        <ele>10.39999961853</ele>
        <time>2023-06-10T12:47:58Z</time>
      </trkpt>
      <trkpt lat="43.69883" lon="-1.43364">
        <ele>10.199999809265</ele>
        <time>2023-06-10T12:48:05Z</time>
      </trkpt>
      <trkpt lat="43.69907" lon="-1.43365">
        <ele>10.39999961853</ele>
        <time>2023-06-10T12:48:12Z</time>
      </trkpt>
      <trkpt lat="43.6994" lon="-1.43362">
        <ele>11</ele>
        <time>2023-06-10T12:48:23Z</time>
      </trkpt>
      <trkpt lat="43.69953" lon="-1.4336">
        <ele>12</ele>
        <time>2023-06-10T12:48:29Z</time>
      </trkpt>
      <trkpt lat="43.69955" lon="-1.43358">
        <ele>12.199999809265</ele>
        <time>2023-06-10T12:48:30Z</time>
      </trkpt>
      <trkpt lat="43.69972" lon="-1.43338">
        <ele>13.39999961853</ele>
        <time>2023-06-10T12:48:38Z</time>
      </trkpt>
      <trkpt lat="43.69987" lon="-1.43339">
        <ele>14.199999809265</ele>
        <time>2023-06-10T12:48:45Z</time>
      </trkpt>
      <trkpt lat="43.69996" lon="-1.43343">
        <ele>14.60000038147</ele>
        <time>2023-06-10T12:48:49Z</time>
      </trkpt>
      <trkpt lat="43.69997" lon="-1.43345">
        <ele>14.60000038147</ele>
        <time>2023-06-10T12:48:50Z</time>
      </trkpt>
      <trkpt lat="43.70012" lon="-1.43357">
        <ele>15.199999809265</ele>
        <time>2023-06-10T12:48:58Z</time>
      </trkpt>
      <trkpt lat="43.70042" lon="-1.43354">
        <ele>15.60000038147</ele>
        <time>2023-06-10T12:49:08Z</time>
      </trkpt>
      <trkpt lat="43.70084" lon="-1.43352">
        <ele>15.39999961853</ele>
        <time>2023-06-10T12:49:20Z</time>
      </trkpt>
      <trkpt lat="43.70134" lon="-1.4335">
        <ele>15.199999809265</ele>
        <time>2023-06-10T12:49:33Z</time>
      </trkpt>
      <trkpt lat="43.70185" lon="-1.43348">
        <ele>14.60000038147</ele>
        <time>2023-06-10T12:49:45Z</time>
      </trkpt>
      <trkpt lat="43.70228" lon="-1.43348">
        <ele>13.39999961853</ele>
        <time>2023-06-10T12:49:53Z</time>
      </trkpt>
      <trkpt lat="43.70283" lon="-1.4334">
        <ele>11.800000190735</ele>
        <time>2023-06-10T12:50:03Z</time>
      </trkpt>
      <trkpt lat="43.70287" lon="-1.43339">
        <ele>11.60000038147</ele>
        <time>2023-06-10T12:50:04Z</time>
      </trkpt>
      <trkpt lat="43.7029" lon="-1.43336">
        <ele>11.39999961853</ele>
        <time>2023-06-10T12:50:05Z</time>
      </trkpt>
      <trkpt lat="43.70293" lon="-1.43332">
        <ele>11.39999961853</ele>
        <time>2023-06-10T12:50:06Z</time>
      </trkpt>
      <trkpt lat="43.70295" lon="-1.43327">
        <ele>11.39999961853</ele>
        <time>2023-06-10T12:50:07Z</time>
      </trkpt>
      <trkpt lat="43.70297" lon="-1.43324">
        <ele>11.39999961853</ele>
        <time>2023-06-10T12:50:08Z</time>
      </trkpt>
      <trkpt lat="43.70301" lon="-1.43321">
        <ele>11.39999961853</ele>
        <time>2023-06-10T12:50:09Z</time>
      </trkpt>
      <trkpt lat="43.70304" lon="-1.4332">
        <ele>11.39999961853</ele>
        <time>2023-06-10T12:50:10Z</time>
      </trkpt>
      <trkpt lat="43.70307" lon="-1.43319">
        <ele>11.39999961853</ele>
        <time>2023-06-10T12:50:11Z</time>
      </trkpt>
      <trkpt lat="43.7031" lon="-1.43319">
        <ele>11.39999961853</ele>
        <time>2023-06-10T12:50:12Z</time>
      </trkpt>
      <trkpt lat="43.70313" lon="-1.43319">
        <ele>11.39999961853</ele>
        <time>2023-06-10T12:50:13Z</time>
      </trkpt>
      <trkpt lat="43.70316" lon="-1.4332">
        <ele>11.60000038147</ele>
        <time>2023-06-10T12:50:14Z</time>
      </trkpt>
      <trkpt lat="43.70332" lon="-1.43324">
        <ele>13</ele>
        <time>2023-06-10T12:50:21Z</time>
      </trkpt>
      <trkpt lat="43.70346" lon="-1.4332">
        <ele>13.800000190735</ele>
        <time>2023-06-10T12:50:27Z</time>
      </trkpt>
      <trkpt lat="43.70371" lon="-1.43308">
        <ele>15.199999809265</ele>
        <time>2023-06-10T12:50:37Z</time>
      </trkpt>
      <trkpt lat="43.70401" lon="-1.43292">
        <ele>16.200000762939</ele>
        <time>2023-06-10T12:50:47Z</time>
      </trkpt>
      <trkpt lat="43.70435" lon="-1.43267">
        <ele>16.60000038147</ele>
        <time>2023-06-10T12:50:58Z</time>
      </trkpt>
      <trkpt lat="43.70477" lon="-1.43238">
        <ele>16.200000762939</ele>
        <time>2023-06-10T12:51:09Z</time>
      </trkpt>
      <trkpt lat="43.70519" lon="-1.43206">
        <ele>15</ele>
        <time>2023-06-10T12:51:17Z</time>
      </trkpt>
      <trkpt lat="43.70523" lon="-1.432">
        <ele>14.800000190735</ele>
        <time>2023-06-10T12:51:18Z</time>
      </trkpt>
      <trkpt lat="43.70526" lon="-1.43192">
        <ele>14.60000038147</ele>
        <time>2023-06-10T12:51:19Z</time>
      </trkpt>
      <trkpt lat="43.70531" lon="-1.43176">
        <ele>14</ele>
        <time>2023-06-10T12:51:21Z</time>
      </trkpt>
      <trkpt lat="43.70535" lon="-1.4317">
        <ele>13.800000190735</ele>
        <time>2023-06-10T12:51:22Z</time>
      </trkpt>
      <trkpt lat="43.7054" lon="-1.43166">
        <ele>13.39999961853</ele>
        <time>2023-06-10T12:51:23Z</time>
      </trkpt>
      <trkpt lat="43.70546" lon="-1.43165">
        <ele>13</ele>
        <time>2023-06-10T12:51:24Z</time>
      </trkpt>
      <trkpt lat="43.70551" lon="-1.43165">
        <ele>12.800000190735</ele>
        <time>2023-06-10T12:51:25Z</time>
      </trkpt>
      <trkpt lat="43.70555" lon="-1.43167">
        <ele>12.60000038147</ele>
        <time>2023-06-10T12:51:26Z</time>
      </trkpt>
      <trkpt lat="43.70559" lon="-1.43169">
        <ele>12.39999961853</ele>
        <time>2023-06-10T12:51:27Z</time>
      </trkpt>
      <trkpt lat="43.70563" lon="-1.43167">
        <ele>12.39999961853</ele>
        <time>2023-06-10T12:51:28Z</time>
      </trkpt>
      <trkpt lat="43.70566" lon="-1.43164">
        <ele>12.199999809265</ele>
        <time>2023-06-10T12:51:29Z</time>
      </trkpt>
      <trkpt lat="43.70607" lon="-1.43125">
        <ele>12.60000038147</ele>
        <time>2023-06-10T12:51:41Z</time>
      </trkpt>
      <trkpt lat="43.70637" lon="-1.43098">
        <ele>12.199999809265</ele>
        <time>2023-06-10T12:51:49Z</time>
      </trkpt>
      <trkpt lat="43.70676" lon="-1.43067">
        <ele>11.60000038147</ele>
        <time>2023-06-10T12:51:58Z</time>
      </trkpt>
      <trkpt lat="43.70706" lon="-1.43047">
        <ele>11.199999809265</ele>
        <time>2023-06-10T12:52:06Z</time>
      </trkpt>
      <trkpt lat="43.70718" lon="-1.43023">
        <ele>11.60000038147</ele>
        <time>2023-06-10T12:52:12Z</time>
      </trkpt>
      <trkpt lat="43.70727" lon="-1.42988">
        <ele>12.60000038147</ele>
        <time>2023-06-10T12:52:20Z</time>
      </trkpt>
      <trkpt lat="43.70736" lon="-1.4295">
        <ele>13</ele>
        <time>2023-06-10T12:52:28Z</time>
      </trkpt>
      <trkpt lat="43.7074" lon="-1.42913">
        <ele>12.800000190735</ele>
        <time>2023-06-10T12:52:35Z</time>
      </trkpt>
      <trkpt lat="43.70743" lon="-1.42896">
        <ele>12.60000038147</ele>
        <time>2023-06-10T12:52:38Z</time>
      </trkpt>
      <trkpt lat="43.70744" lon="-1.4289">
        <ele>12.39999961853</ele>
        <time>2023-06-10T12:52:39Z</time>
      </trkpt>
      <trkpt lat="43.70748" lon="-1.42851">
        <ele>12.199999809265</ele>
        <time>2023-06-10T12:52:46Z</time>
      </trkpt>
      <trkpt lat="43.70753" lon="-1.42814">
        <ele>12.39999961853</ele>
        <time>2023-06-10T12:52:53Z</time>
      </trkpt>
      <trkpt lat="43.70759" lon="-1.42788">
        <ele>12.39999961853</ele>
        <time>2023-06-10T12:52:59Z</time>
      </trkpt>
      <trkpt lat="43.7077" lon="-1.42767">
        <ele>13</ele>
        <time>2023-06-10T12:53:05Z</time>
      </trkpt>
      <trkpt lat="43.70781" lon="-1.42731">
        <ele>14</ele>
        <time>2023-06-10T12:53:13Z</time>
      </trkpt>
      <trkpt lat="43.70792" lon="-1.42692">
        <ele>14.60000038147</ele>
        <time>2023-06-10T12:53:22Z</time>
      </trkpt>
      <trkpt lat="43.70805" lon="-1.42664">
        <ele>15.39999961853</ele>
        <time>2023-06-10T12:53:30Z</time>
      </trkpt>
      <trkpt lat="43.70813" lon="-1.42631">
        <ele>16</ele>
        <time>2023-06-10T12:53:38Z</time>
      </trkpt>
      <trkpt lat="43.70822" lon="-1.42599">
        <ele>16.799999237061</ele>
        <time>2023-06-10T12:53:46Z</time>
      </trkpt>
      <trkpt lat="43.7083" lon="-1.4257">
        <ele>17</ele>
        <time>2023-06-10T12:53:53Z</time>
      </trkpt>
      <trkpt lat="43.7084" lon="-1.42533">
        <ele>17</ele>
        <time>2023-06-10T12:54:01Z</time>
      </trkpt>
      <trkpt lat="43.70848" lon="-1.42502">
        <ele>17</ele>
        <time>2023-06-10T12:54:07Z</time>
      </trkpt>
      <trkpt lat="43.7085" lon="-1.4249">
        <ele>17</ele>
        <time>2023-06-10T12:54:09Z</time>
      </trkpt>
      <trkpt lat="43.70851" lon="-1.42484">
        <ele>17</ele>
        <time>2023-06-10T12:54:10Z</time>
      </trkpt>
      <trkpt lat="43.70857" lon="-1.42427">
        <ele>16.39999961853</ele>
        <time>2023-06-10T12:54:18Z</time>
      </trkpt>
      <trkpt lat="43.70855" lon="-1.42396">
        <ele>16</ele>
        <time>2023-06-10T12:54:22Z</time>
      </trkpt>
      <trkpt lat="43.70849" lon="-1.42358">
        <ele>15.800000190735</ele>
        <time>2023-06-10T12:54:28Z</time>
      </trkpt>
      <trkpt lat="43.70832" lon="-1.42316">
        <ele>15.39999961853</ele>
        <time>2023-06-10T12:54:36Z</time>
      </trkpt>
      <trkpt lat="43.70817" lon="-1.42291">
        <ele>15.39999961853</ele>
        <time>2023-06-10T12:54:42Z</time>
      </trkpt>
      <trkpt lat="43.70795" lon="-1.42256">
        <ele>15.60000038147</ele>
        <time>2023-06-10T12:54:50Z</time>
      </trkpt>
      <trkpt lat="43.70777" lon="-1.42233">
        <ele>16.39999961853</ele>
        <time>2023-06-10T12:54:57Z</time>
      </trkpt>
      <trkpt lat="43.70762" lon="-1.42207">
        <ele>17.39999961853</ele>
        <time>2023-06-10T12:55:04Z</time>
      </trkpt>
      <trkpt lat="43.7075" lon="-1.42181">
        <ele>18</ele>
        <time>2023-06-10T12:55:10Z</time>
      </trkpt>
      <trkpt lat="43.70735" lon="-1.42154">
        <ele>18</ele>
        <time>2023-06-10T12:55:16Z</time>
      </trkpt>
      <trkpt lat="43.70718" lon="-1.42125">
        <ele>18</ele>
        <time>2023-06-10T12:55:23Z</time>
      </trkpt>
      <trkpt lat="43.70695" lon="-1.42092">
        <ele>18.200000762939</ele>
        <time>2023-06-10T12:55:31Z</time>
      </trkpt>
      <trkpt lat="43.70678" lon="-1.42078">
        <ele>18</ele>
        <time>2023-06-10T12:55:36Z</time>
      </trkpt>
      <trkpt lat="43.7067" lon="-1.42073">
        <ele>17.799999237061</ele>
        <time>2023-06-10T12:55:38Z</time>
      </trkpt>
      <trkpt lat="43.70644" lon="-1.42063">
        <ele>17.39999961853</ele>
        <time>2023-06-10T12:55:44Z</time>
      </trkpt>
      <trkpt lat="43.70639" lon="-1.42063">
        <ele>17.39999961853</ele>
        <time>2023-06-10T12:55:45Z</time>
      </trkpt>
      <trkpt lat="43.70633" lon="-1.42062">
        <ele>17.200000762939</ele>
        <time>2023-06-10T12:55:46Z</time>
      </trkpt>
      <trkpt lat="43.70627" lon="-1.42061">
        <ele>17.200000762939</ele>
        <time>2023-06-10T12:55:47Z</time>
      </trkpt>
      <trkpt lat="43.70622" lon="-1.42058">
        <ele>17</ele>
        <time>2023-06-10T12:55:48Z</time>
      </trkpt>
      <trkpt lat="43.70618" lon="-1.42053">
        <ele>16.60000038147</ele>
        <time>2023-06-10T12:55:49Z</time>
      </trkpt>
      <trkpt lat="43.70615" lon="-1.42046">
        <ele>16.60000038147</ele>
        <time>2023-06-10T12:55:50Z</time>
      </trkpt>
      <trkpt lat="43.70615" lon="-1.42038">
        <ele>16</ele>
        <time>2023-06-10T12:55:51Z</time>
      </trkpt>
      <trkpt lat="43.70614" lon="-1.42031">
        <ele>16</ele>
        <time>2023-06-10T12:55:52Z</time>
      </trkpt>
      <trkpt lat="43.70614" lon="-1.42025">
        <ele>15.800000190735</ele>
        <time>2023-06-10T12:55:53Z</time>
      </trkpt>
      <trkpt lat="43.70613" lon="-1.4202">
        <ele>15.60000038147</ele>
        <time>2023-06-10T12:55:54Z</time>
      </trkpt>
      <trkpt lat="43.70611" lon="-1.42015">
        <ele>15.60000038147</ele>
        <time>2023-06-10T12:55:55Z</time>
      </trkpt>
      <trkpt lat="43.70609" lon="-1.4201">
        <ele>15.39999961853</ele>
        <time>2023-06-10T12:55:56Z</time>
      </trkpt>
      <trkpt lat="43.70605" lon="-1.42005">
        <ele>15.39999961853</ele>
        <time>2023-06-10T12:55:57Z</time>
      </trkpt>
      <trkpt lat="43.706" lon="-1.42">
        <ele>15.39999961853</ele>
        <time>2023-06-10T12:55:58Z</time>
      </trkpt>
      <trkpt lat="43.70596" lon="-1.41994">
        <ele>15.199999809265</ele>
        <time>2023-06-10T12:55:59Z</time>
      </trkpt>
      <trkpt lat="43.7059" lon="-1.41983">
        <ele>15</ele>
        <time>2023-06-10T12:56:01Z</time>
      </trkpt>
      <trkpt lat="43.70589" lon="-1.41976">
        <ele>15</ele>
        <time>2023-06-10T12:56:02Z</time>
      </trkpt>
      <trkpt lat="43.7059" lon="-1.41969">
        <ele>14.800000190735</ele>
        <time>2023-06-10T12:56:03Z</time>
      </trkpt>
      <trkpt lat="43.70591" lon="-1.41962">
        <ele>14.60000038147</ele>
        <time>2023-06-10T12:56:04Z</time>
      </trkpt>
      <trkpt lat="43.70593" lon="-1.41955">
        <ele>14.60000038147</ele>
        <time>2023-06-10T12:56:05Z</time>
      </trkpt>
      <trkpt lat="43.70595" lon="-1.41948">
        <ele>14.60000038147</ele>
        <time>2023-06-10T12:56:06Z</time>
      </trkpt>
      <trkpt lat="43.70596" lon="-1.41941">
        <ele>14.39999961853</ele>
        <time>2023-06-10T12:56:07Z</time>
      </trkpt>
      <trkpt lat="43.70596" lon="-1.41934">
        <ele>14.39999961853</ele>
        <time>2023-06-10T12:56:08Z</time>
      </trkpt>
      <trkpt lat="43.70603" lon="-1.41889">
        <ele>14.199999809265</ele>
        <time>2023-06-10T12:56:16Z</time>
      </trkpt>
      <trkpt lat="43.70608" lon="-1.41876">
        <ele>14.199999809265</ele>
        <time>2023-06-10T12:56:20Z</time>
      </trkpt>
      <trkpt lat="43.70608" lon="-1.41873">
        <ele>14.199999809265</ele>
        <time>2023-06-10T12:56:21Z</time>
      </trkpt>
      <trkpt lat="43.70606" lon="-1.41871">
        <ele>14.199999809265</ele>
        <time>2023-06-10T12:56:22Z</time>
      </trkpt>
      <trkpt lat="43.70605" lon="-1.41869">
        <ele>14.39999961853</ele>
        <time>2023-06-10T12:56:23Z</time>
      </trkpt>
      <trkpt lat="43.70603" lon="-1.41867">
        <ele>14.39999961853</ele>
        <time>2023-06-10T12:56:24Z</time>
      </trkpt>
      <trkpt lat="43.706" lon="-1.41866">
        <ele>14.39999961853</ele>
        <time>2023-06-10T12:56:25Z</time>
      </trkpt>
      <trkpt lat="43.70598" lon="-1.41863">
        <ele>14.39999961853</ele>
        <time>2023-06-10T12:56:26Z</time>
      </trkpt>
      <trkpt lat="43.70597" lon="-1.4186">
        <ele>14.60000038147</ele>
        <time>2023-06-10T12:56:27Z</time>
      </trkpt>
      <trkpt lat="43.70597" lon="-1.41856">
        <ele>14.60000038147</ele>
        <time>2023-06-10T12:56:28Z</time>
      </trkpt>
      <trkpt lat="43.70599" lon="-1.41852">
        <ele>14.60000038147</ele>
        <time>2023-06-10T12:56:29Z</time>
      </trkpt>
      <trkpt lat="43.70601" lon="-1.41849">
        <ele>14.60000038147</ele>
        <time>2023-06-10T12:56:30Z</time>
      </trkpt>
      <trkpt lat="43.70608" lon="-1.41835">
        <ele>14.60000038147</ele>
        <time>2023-06-10T12:56:37Z</time>
      </trkpt>
      <trkpt lat="43.70608" lon="-1.41836">
        <ele>14.60000038147</ele>
        <time>2023-06-10T12:56:58Z</time>
      </trkpt>
      <trkpt lat="43.70608" lon="-1.41835">
        <ele>15.199999809265</ele>
        <time>2023-06-10T12:57:21Z</time>
      </trkpt>
      <trkpt lat="43.70607" lon="-1.41837">
        <ele>15.60000038147</ele>
        <time>2023-06-10T12:57:49Z</time>
      </trkpt>
      <trkpt lat="43.70607" lon="-1.41837">
        <ele>15.60000038147</ele>
        <time>2023-06-10T12:58:18Z</time>
      </trkpt>
      <trkpt lat="43.70607" lon="-1.41837">
        <ele>15.60000038147</ele>
        <time>2023-06-10T12:58:53Z</time>
      </trkpt>
      <trkpt lat="43.70607" lon="-1.41836">
        <ele>15.60000038147</ele>
        <time>2023-06-10T12:59:17Z</time>
      </trkpt>
      <trkpt lat="43.70607" lon="-1.41836">
        <ele>15.60000038147</ele>
        <time>2023-06-10T12:59:46Z</time>
      </trkpt>
      <trkpt lat="43.70609" lon="-1.41826">
        <ele>15.60000038147</ele>
        <time>2023-06-10T12:59:51Z</time>
      </trkpt>
      <trkpt lat="43.70611" lon="-1.41823">
        <ele>15.60000038147</ele>
        <time>2023-06-10T12:59:52Z</time>
      </trkpt>
      <trkpt lat="43.70612" lon="-1.4182">
        <ele>15.60000038147</ele>
        <time>2023-06-10T12:59:53Z</time>
      </trkpt>
      <trkpt lat="43.70613" lon="-1.41817">
        <ele>15.60000038147</ele>
        <time>2023-06-10T12:59:54Z</time>
      </trkpt>
      <trkpt lat="43.70614" lon="-1.41814">
        <ele>15.60000038147</ele>
        <time>2023-06-10T12:59:55Z</time>
      </trkpt>
      <trkpt lat="43.70615" lon="-1.4181">
        <ele>15.800000190735</ele>
        <time>2023-06-10T12:59:56Z</time>
      </trkpt>
      <trkpt lat="43.70616" lon="-1.41807">
        <ele>15.800000190735</ele>
        <time>2023-06-10T12:59:57Z</time>
      </trkpt>
      <trkpt lat="43.70622" lon="-1.41783">
        <ele>15.800000190735</ele>
        <time>2023-06-10T13:00:04Z</time>
      </trkpt>
      <trkpt lat="43.70624" lon="-1.41781">
        <ele>16</ele>
        <time>2023-06-10T13:00:05Z</time>
      </trkpt>
      <trkpt lat="43.70632" lon="-1.41778">
        <ele>16.200000762939</ele>
        <time>2023-06-10T13:00:10Z</time>
      </trkpt>
      <trkpt lat="43.70638" lon="-1.41778">
        <ele>16.200000762939</ele>
        <time>2023-06-10T13:00:13Z</time>
      </trkpt>
      <trkpt lat="43.7064" lon="-1.4178">
        <ele>16.39999961853</ele>
        <time>2023-06-10T13:00:14Z</time>
      </trkpt>
      <trkpt lat="43.70658" lon="-1.41785">
        <ele>16.200000762939</ele>
        <time>2023-06-10T13:00:21Z</time>
      </trkpt>
      <trkpt lat="43.70673" lon="-1.41774">
        <ele>16</ele>
        <time>2023-06-10T13:00:27Z</time>
      </trkpt>
      <trkpt lat="43.70699" lon="-1.41755">
        <ele>16.39999961853</ele>
        <time>2023-06-10T13:00:35Z</time>
      </trkpt>
      <trkpt lat="43.70725" lon="-1.41734">
        <ele>17</ele>
        <time>2023-06-10T13:00:43Z</time>
      </trkpt>
      <trkpt lat="43.70756" lon="-1.41715">
        <ele>17.200000762939</ele>
        <time>2023-06-10T13:00:52Z</time>
      </trkpt>
      <trkpt lat="43.70778" lon="-1.41704">
        <ele>17.60000038147</ele>
        <time>2023-06-10T13:00:59Z</time>
      </trkpt>
      <trkpt lat="43.708" lon="-1.41702">
        <ele>18.39999961853</ele>
        <time>2023-06-10T13:01:06Z</time>
      </trkpt>
      <trkpt lat="43.70812" lon="-1.41704">
        <ele>18.799999237061</ele>
        <time>2023-06-10T13:01:11Z</time>
      </trkpt>
      <trkpt lat="43.7083" lon="-1.41713">
        <ele>19.200000762939</ele>
        <time>2023-06-10T13:01:18Z</time>
      </trkpt>
      <trkpt lat="43.70848" lon="-1.41729">
        <ele>19.60000038147</ele>
        <time>2023-06-10T13:01:25Z</time>
      </trkpt>
      <trkpt lat="43.70871" lon="-1.41757">
        <ele>20</ele>
        <time>2023-06-10T13:01:34Z</time>
      </trkpt>
      <trkpt lat="43.70893" lon="-1.41798">
        <ele>20.200000762939</ele>
        <time>2023-06-10T13:01:44Z</time>
      </trkpt>
      <trkpt lat="43.70922" lon="-1.41846">
        <ele>20.39999961853</ele>
        <time>2023-06-10T13:01:56Z</time>
      </trkpt>
      <trkpt lat="43.70947" lon="-1.41875">
        <ele>20</ele>
        <time>2023-06-10T13:02:04Z</time>
      </trkpt>
      <trkpt lat="43.70964" lon="-1.41889">
        <ele>19.60000038147</ele>
        <time>2023-06-10T13:02:08Z</time>
      </trkpt>
      <trkpt lat="43.70969" lon="-1.41892">
        <ele>19.39999961853</ele>
        <time>2023-06-10T13:02:09Z</time>
      </trkpt>
      <trkpt lat="43.70975" lon="-1.41894">
        <ele>19.39999961853</ele>
        <time>2023-06-10T13:02:10Z</time>
      </trkpt>
      <trkpt lat="43.71007" lon="-1.41909">
        <ele>18.200000762939</ele>
        <time>2023-06-10T13:02:16Z</time>
      </trkpt>
      <trkpt lat="43.71013" lon="-1.4191">
        <ele>18</ele>
        <time>2023-06-10T13:02:17Z</time>
      </trkpt>
      <trkpt lat="43.71029" lon="-1.41912">
        <ele>17.60000038147</ele>
        <time>2023-06-10T13:02:20Z</time>
      </trkpt>
      <trkpt lat="43.71066" lon="-1.41903">
        <ele>16.799999237061</ele>
        <time>2023-06-10T13:02:27Z</time>
      </trkpt>
      <trkpt lat="43.71091" lon="-1.419">
        <ele>16.60000038147</ele>
        <time>2023-06-10T13:02:32Z</time>
      </trkpt>
      <trkpt lat="43.71133" lon="-1.41888">
        <ele>16.39999961853</ele>
        <time>2023-06-10T13:02:40Z</time>
      </trkpt>
      <trkpt lat="43.71176" lon="-1.41878">
        <ele>16.60000038147</ele>
        <time>2023-06-10T13:02:49Z</time>
      </trkpt>
      <trkpt lat="43.71211" lon="-1.41882">
        <ele>17</ele>
        <time>2023-06-10T13:02:58Z</time>
      </trkpt>
      <trkpt lat="43.71245" lon="-1.41903">
        <ele>18.60000038147</ele>
        <time>2023-06-10T13:03:08Z</time>
      </trkpt>
      <trkpt lat="43.71257" lon="-1.4192">
        <ele>18.799999237061</ele>
        <time>2023-06-10T13:03:13Z</time>
      </trkpt>
      <trkpt lat="43.71272" lon="-1.41932">
        <ele>18.799999237061</ele>
        <time>2023-06-10T13:03:18Z</time>
      </trkpt>
      <trkpt lat="43.7129" lon="-1.41938">
        <ele>18.799999237061</ele>
        <time>2023-06-10T13:03:22Z</time>
      </trkpt>
      <trkpt lat="43.71293" lon="-1.41941">
        <ele>18.60000038147</ele>
        <time>2023-06-10T13:03:23Z</time>
      </trkpt>
      <trkpt lat="43.71301" lon="-1.4195">
        <ele>18.39999961853</ele>
        <time>2023-06-10T13:03:25Z</time>
      </trkpt>
      <trkpt lat="43.71304" lon="-1.41957">
        <ele>18.39999961853</ele>
        <time>2023-06-10T13:03:26Z</time>
      </trkpt>
      <trkpt lat="43.71321" lon="-1.41987">
        <ele>17.60000038147</ele>
        <time>2023-06-10T13:03:30Z</time>
      </trkpt>
      <trkpt lat="43.71338" lon="-1.42007">
        <ele>16.799999237061</ele>
        <time>2023-06-10T13:03:33Z</time>
      </trkpt>
      <trkpt lat="43.71343" lon="-1.42012">
        <ele>16.39999961853</ele>
        <time>2023-06-10T13:03:34Z</time>
      </trkpt>
      <trkpt lat="43.71348" lon="-1.42018">
        <ele>16.200000762939</ele>
        <time>2023-06-10T13:03:35Z</time>
      </trkpt>
      <trkpt lat="43.71353" lon="-1.42022">
        <ele>16</ele>
        <time>2023-06-10T13:03:36Z</time>
      </trkpt>
      <trkpt lat="43.71359" lon="-1.42028">
        <ele>15.60000038147</ele>
        <time>2023-06-10T13:03:37Z</time>
      </trkpt>
      <trkpt lat="43.71385" lon="-1.42053">
        <ele>15.39999961853</ele>
        <time>2023-06-10T13:03:43Z</time>
      </trkpt>
      <trkpt lat="43.71389" lon="-1.42056">
        <ele>15.39999961853</ele>
        <time>2023-06-10T13:03:44Z</time>
      </trkpt>
      <trkpt lat="43.71406" lon="-1.42073">
        <ele>15.800000190735</ele>
        <time>2023-06-10T13:03:50Z</time>
      </trkpt>
      <trkpt lat="43.71431" lon="-1.42091">
        <ele>16.39999961853</ele>
        <time>2023-06-10T13:03:57Z</time>
      </trkpt>
      <trkpt lat="43.71456" lon="-1.42102">
        <ele>16.39999961853</ele>
        <time>2023-06-10T13:04:03Z</time>
      </trkpt>
      <trkpt lat="43.71489" lon="-1.42113">
        <ele>16.200000762939</ele>
        <time>2023-06-10T13:04:10Z</time>
      </trkpt>
      <trkpt lat="43.71527" lon="-1.42113">
        <ele>16.200000762939</ele>
        <time>2023-06-10T13:04:17Z</time>
      </trkpt>
      <trkpt lat="43.71563" lon="-1.42107">
        <ele>16</ele>
        <time>2023-06-10T13:04:25Z</time>
      </trkpt>
      <trkpt lat="43.71593" lon="-1.42092">
        <ele>16.39999961853</ele>
        <time>2023-06-10T13:04:33Z</time>
      </trkpt>
      <trkpt lat="43.7162" lon="-1.42072">
        <ele>16.39999961853</ele>
        <time>2023-06-10T13:04:41Z</time>
      </trkpt>
      <trkpt lat="43.71646" lon="-1.42041">
        <ele>17</ele>
        <time>2023-06-10T13:04:49Z</time>
      </trkpt>
      <trkpt lat="43.71661" lon="-1.42016">
        <ele>17.39999961853</ele>
        <time>2023-06-10T13:04:55Z</time>
      </trkpt>
      <trkpt lat="43.71676" lon="-1.41988">
        <ele>18.200000762939</ele>
        <time>2023-06-10T13:05:03Z</time>
      </trkpt>
      <trkpt lat="43.71693" lon="-1.41961">
        <ele>19</ele>
        <time>2023-06-10T13:05:12Z</time>
      </trkpt>
      <trkpt lat="43.71713" lon="-1.41927">
        <ele>20.60000038147</ele>
        <time>2023-06-10T13:05:24Z</time>
      </trkpt>
      <trkpt lat="43.71733" lon="-1.41898">
        <ele>22.799999237061</ele>
        <time>2023-06-10T13:05:35Z</time>
      </trkpt>
      <trkpt lat="43.71746" lon="-1.41878">
        <ele>23.39999961853</ele>
        <time>2023-06-10T13:05:42Z</time>
      </trkpt>
      <trkpt lat="43.71765" lon="-1.41851">
        <ele>23.799999237061</ele>
        <time>2023-06-10T13:05:51Z</time>
      </trkpt>
      <trkpt lat="43.71792" lon="-1.41818">
        <ele>23.799999237061</ele>
        <time>2023-06-10T13:05:59Z</time>
      </trkpt>
      <trkpt lat="43.71828" lon="-1.41772">
        <ele>23.200000762939</ele>
        <time>2023-06-10T13:06:08Z</time>
      </trkpt>
      <trkpt lat="43.71846" lon="-1.41754">
        <ele>22.60000038147</ele>
        <time>2023-06-10T13:06:12Z</time>
      </trkpt>
      <trkpt lat="43.71878" lon="-1.41718">
        <ele>21.200000762939</ele>
        <time>2023-06-10T13:06:19Z</time>
      </trkpt>
      <trkpt lat="43.71924" lon="-1.41675">
        <ele>19.200000762939</ele>
        <time>2023-06-10T13:06:27Z</time>
      </trkpt>
      <trkpt lat="43.71951" lon="-1.41653">
        <ele>17.60000038147</ele>
        <time>2023-06-10T13:06:32Z</time>
      </trkpt>
      <trkpt lat="43.71957" lon="-1.4165">
        <ele>17.39999961853</ele>
        <time>2023-06-10T13:06:33Z</time>
      </trkpt>
      <trkpt lat="43.71981" lon="-1.41627">
        <ele>16.799999237061</ele>
        <time>2023-06-10T13:06:38Z</time>
      </trkpt>
      <trkpt lat="43.71986" lon="-1.41623">
        <ele>16.60000038147</ele>
        <time>2023-06-10T13:06:39Z</time>
      </trkpt>
      <trkpt lat="43.7199" lon="-1.4162">
        <ele>16.60000038147</ele>
        <time>2023-06-10T13:06:40Z</time>
      </trkpt>
      <trkpt lat="43.7203" lon="-1.41595">
        <ele>16.200000762939</ele>
        <time>2023-06-10T13:06:48Z</time>
      </trkpt>
      <trkpt lat="43.72068" lon="-1.41572">
        <ele>16.200000762939</ele>
        <time>2023-06-10T13:06:56Z</time>
      </trkpt>
      <trkpt lat="43.72113" lon="-1.41547">
        <ele>16.799999237061</ele>
        <time>2023-06-10T13:07:06Z</time>
      </trkpt>
      <trkpt lat="43.72144" lon="-1.41527">
        <ele>17.39999961853</ele>
        <time>2023-06-10T13:07:15Z</time>
      </trkpt>
      <trkpt lat="43.72177" lon="-1.41511">
        <ele>18</ele>
        <time>2023-06-10T13:07:24Z</time>
      </trkpt>
      <trkpt lat="43.7221" lon="-1.41486">
        <ele>18.200000762939</ele>
        <time>2023-06-10T13:07:33Z</time>
      </trkpt>
      <trkpt lat="43.72225" lon="-1.41474">
        <ele>17.799999237061</ele>
        <time>2023-06-10T13:07:37Z</time>
      </trkpt>
      <trkpt lat="43.72261" lon="-1.41455">
        <ele>17.39999961853</ele>
        <time>2023-06-10T13:07:44Z</time>
      </trkpt>
      <trkpt lat="43.72306" lon="-1.41427">
        <ele>16.799999237061</ele>
        <time>2023-06-10T13:07:53Z</time>
      </trkpt>
      <trkpt lat="43.7233" lon="-1.41407">
        <ele>16.60000038147</ele>
        <time>2023-06-10T13:07:58Z</time>
      </trkpt>
      <trkpt lat="43.72366" lon="-1.41384">
        <ele>16.799999237061</ele>
        <time>2023-06-10T13:08:06Z</time>
      </trkpt>
      <trkpt lat="43.7241" lon="-1.41361">
        <ele>17.200000762939</ele>
        <time>2023-06-10T13:08:16Z</time>
      </trkpt>
      <trkpt lat="43.72425" lon="-1.41352">
        <ele>17.200000762939</ele>
        <time>2023-06-10T13:08:20Z</time>
      </trkpt>
      <trkpt lat="43.72429" lon="-1.41349">
        <ele>17.200000762939</ele>
        <time>2023-06-10T13:08:21Z</time>
      </trkpt>
      <trkpt lat="43.72453" lon="-1.41334">
        <ele>17.200000762939</ele>
        <time>2023-06-10T13:08:27Z</time>
      </trkpt>
      <trkpt lat="43.72486" lon="-1.41312">
        <ele>17.200000762939</ele>
        <time>2023-06-10T13:08:36Z</time>
      </trkpt>
      <trkpt lat="43.72509" lon="-1.41294">
        <ele>17.60000038147</ele>
        <time>2023-06-10T13:08:45Z</time>
      </trkpt>
      <trkpt lat="43.72533" lon="-1.41279">
        <ele>18.200000762939</ele>
        <time>2023-06-10T13:08:52Z</time>
      </trkpt>
      <trkpt lat="43.72571" lon="-1.41257">
        <ele>18</ele>
        <time>2023-06-10T13:09:01Z</time>
      </trkpt>
      <trkpt lat="43.72583" lon="-1.41249">
        <ele>18</ele>
        <time>2023-06-10T13:09:04Z</time>
      </trkpt>
      <trkpt lat="43.72615" lon="-1.41227">
        <ele>17.39999961853</ele>
        <time>2023-06-10T13:09:12Z</time>
      </trkpt>
      <trkpt lat="43.72638" lon="-1.41213">
        <ele>17.39999961853</ele>
        <time>2023-06-10T13:09:19Z</time>
      </trkpt>
      <trkpt lat="43.72659" lon="-1.41199">
        <ele>18.39999961853</ele>
        <time>2023-06-10T13:09:28Z</time>
      </trkpt>
      <trkpt lat="43.72675" lon="-1.4118">
        <ele>19.39999961853</ele>
        <time>2023-06-10T13:09:36Z</time>
      </trkpt>
      <trkpt lat="43.72696" lon="-1.41171">
        <ele>20.200000762939</ele>
        <time>2023-06-10T13:09:44Z</time>
      </trkpt>
      <trkpt lat="43.7271" lon="-1.41167">
        <ele>20.60000038147</ele>
        <time>2023-06-10T13:09:50Z</time>
      </trkpt>
      <trkpt lat="43.72727" lon="-1.41164">
        <ele>20.799999237061</ele>
        <time>2023-06-10T13:09:55Z</time>
      </trkpt>
      <trkpt lat="43.72764" lon="-1.41156">
        <ele>20.39999961853</ele>
        <time>2023-06-10T13:10:03Z</time>
      </trkpt>
      <trkpt lat="43.72817" lon="-1.41154">
        <ele>18.60000038147</ele>
        <time>2023-06-10T13:10:12Z</time>
      </trkpt>
      <trkpt lat="43.72859" lon="-1.41158">
        <ele>17.200000762939</ele>
        <time>2023-06-10T13:10:21Z</time>
      </trkpt>
      <trkpt lat="43.72896" lon="-1.41174">
        <ele>16.799999237061</ele>
        <time>2023-06-10T13:10:30Z</time>
      </trkpt>
      <trkpt lat="43.7294" lon="-1.41196">
        <ele>16.799999237061</ele>
        <time>2023-06-10T13:10:42Z</time>
      </trkpt>
      <trkpt lat="43.72981" lon="-1.41224">
        <ele>16.60000038147</ele>
        <time>2023-06-10T13:10:53Z</time>
      </trkpt>
      <trkpt lat="43.73012" lon="-1.4125">
        <ele>16.39999961853</ele>
        <time>2023-06-10T13:11:02Z</time>
      </trkpt>
      <trkpt lat="43.73039" lon="-1.41277">
        <ele>16.200000762939</ele>
        <time>2023-06-10T13:11:10Z</time>
      </trkpt>
      <trkpt lat="43.73073" lon="-1.41302">
        <ele>16</ele>
        <time>2023-06-10T13:11:20Z</time>
      </trkpt>
      <trkpt lat="43.73109" lon="-1.41303">
        <ele>16.200000762939</ele>
        <time>2023-06-10T13:11:30Z</time>
      </trkpt>
      <trkpt lat="43.73143" lon="-1.41288">
        <ele>16.200000762939</ele>
        <time>2023-06-10T13:11:39Z</time>
      </trkpt>
      <trkpt lat="43.73181" lon="-1.4127">
        <ele>16.799999237061</ele>
        <time>2023-06-10T13:11:49Z</time>
      </trkpt>
      <trkpt lat="43.73219" lon="-1.41252">
        <ele>17.799999237061</ele>
        <time>2023-06-10T13:12:00Z</time>
      </trkpt>
      <trkpt lat="43.73265" lon="-1.41228">
        <ele>18.799999237061</ele>
        <time>2023-06-10T13:12:13Z</time>
      </trkpt>
      <trkpt lat="43.73308" lon="-1.41207">
        <ele>19</ele>
        <time>2023-06-10T13:12:24Z</time>
      </trkpt>
      <trkpt lat="43.73362" lon="-1.4118">
        <ele>18.200000762939</ele>
        <time>2023-06-10T13:12:35Z</time>
      </trkpt>
      <trkpt lat="43.73398" lon="-1.41164">
        <ele>17.39999961853</ele>
        <time>2023-06-10T13:12:43Z</time>
      </trkpt>
      <trkpt lat="43.73432" lon="-1.41147">
        <ele>17</ele>
        <time>2023-06-10T13:12:50Z</time>
      </trkpt>
      <trkpt lat="43.73451" lon="-1.4114">
        <ele>16.799999237061</ele>
        <time>2023-06-10T13:12:54Z</time>
      </trkpt>
      <trkpt lat="43.73456" lon="-1.4114">
        <ele>16.799999237061</ele>
        <time>2023-06-10T13:12:55Z</time>
      </trkpt>
      <trkpt lat="43.73461" lon="-1.4114">
        <ele>16.799999237061</ele>
        <time>2023-06-10T13:12:56Z</time>
      </trkpt>
      <trkpt lat="43.73494" lon="-1.41145">
        <ele>16.799999237061</ele>
        <time>2023-06-10T13:13:04Z</time>
      </trkpt>
      <trkpt lat="43.73503" lon="-1.41149">
        <ele>16.799999237061</ele>
        <time>2023-06-10T13:13:06Z</time>
      </trkpt>
      <trkpt lat="43.73507" lon="-1.41152">
        <ele>16.60000038147</ele>
        <time>2023-06-10T13:13:07Z</time>
      </trkpt>
      <trkpt lat="43.73511" lon="-1.41155">
        <ele>16.60000038147</ele>
        <time>2023-06-10T13:13:08Z</time>
      </trkpt>
      <trkpt lat="43.73514" lon="-1.41159">
        <ele>16.60000038147</ele>
        <time>2023-06-10T13:13:09Z</time>
      </trkpt>
      <trkpt lat="43.73517" lon="-1.41162">
        <ele>16.60000038147</ele>
        <time>2023-06-10T13:13:10Z</time>
      </trkpt>
      <trkpt lat="43.73521" lon="-1.41164">
        <ele>16.60000038147</ele>
        <time>2023-06-10T13:13:11Z</time>
      </trkpt>
      <trkpt lat="43.73535" lon="-1.41176">
        <ele>16.39999961853</ele>
        <time>2023-06-10T13:13:15Z</time>
      </trkpt>
      <trkpt lat="43.7354" lon="-1.41179">
        <ele>16.200000762939</ele>
        <time>2023-06-10T13:13:16Z</time>
      </trkpt>
      <trkpt lat="43.73584" lon="-1.41208">
        <ele>15.800000190735</ele>
        <time>2023-06-10T13:13:26Z</time>
      </trkpt>
      <trkpt lat="43.736" lon="-1.41218">
        <ele>15.800000190735</ele>
        <time>2023-06-10T13:13:30Z</time>
      </trkpt>
      <trkpt lat="43.73626" lon="-1.41228">
        <ele>15.60000038147</ele>
        <time>2023-06-10T13:13:36Z</time>
      </trkpt>
      <trkpt lat="43.7363" lon="-1.41229">
        <ele>15.39999961853</ele>
        <time>2023-06-10T13:13:37Z</time>
      </trkpt>
      <trkpt lat="43.73635" lon="-1.41229">
        <ele>15.39999961853</ele>
        <time>2023-06-10T13:13:38Z</time>
      </trkpt>
      <trkpt lat="43.7364" lon="-1.41229">
        <ele>15.39999961853</ele>
        <time>2023-06-10T13:13:39Z</time>
      </trkpt>
      <trkpt lat="43.73644" lon="-1.41228">
        <ele>15.39999961853</ele>
        <time>2023-06-10T13:13:40Z</time>
      </trkpt>
      <trkpt lat="43.73649" lon="-1.41227">
        <ele>15.199999809265</ele>
        <time>2023-06-10T13:13:41Z</time>
      </trkpt>
      <trkpt lat="43.73675" lon="-1.41213">
        <ele>15.60000038147</ele>
        <time>2023-06-10T13:13:48Z</time>
      </trkpt>
      <trkpt lat="43.73685" lon="-1.41203">
        <ele>16</ele>
        <time>2023-06-10T13:13:51Z</time>
      </trkpt>
      <trkpt lat="43.73719" lon="-1.41176">
        <ele>16.799999237061</ele>
        <time>2023-06-10T13:14:00Z</time>
      </trkpt>
      <trkpt lat="43.73731" lon="-1.41165">
        <ele>16.799999237061</ele>
        <time>2023-06-10T13:14:03Z</time>
      </trkpt>
      <trkpt lat="43.73736" lon="-1.41162">
        <ele>16.799999237061</ele>
        <time>2023-06-10T13:14:04Z</time>
      </trkpt>
      <trkpt lat="43.73771" lon="-1.41139">
        <ele>16.200000762939</ele>
        <time>2023-06-10T13:14:12Z</time>
      </trkpt>
      <trkpt lat="43.73803" lon="-1.41108">
        <ele>16</ele>
        <time>2023-06-10T13:14:21Z</time>
      </trkpt>
      <trkpt lat="43.73829" lon="-1.41085">
        <ele>16</ele>
        <time>2023-06-10T13:14:28Z</time>
      </trkpt>
      <trkpt lat="43.73858" lon="-1.41063">
        <ele>16.200000762939</ele>
        <time>2023-06-10T13:14:35Z</time>
      </trkpt>
      <trkpt lat="43.73883" lon="-1.41043">
        <ele>16.200000762939</ele>
        <time>2023-06-10T13:14:41Z</time>
      </trkpt>
      <trkpt lat="43.73915" lon="-1.41018">
        <ele>16.200000762939</ele>
        <time>2023-06-10T13:14:49Z</time>
      </trkpt>
      <trkpt lat="43.73944" lon="-1.40996">
        <ele>16.60000038147</ele>
        <time>2023-06-10T13:14:56Z</time>
      </trkpt>
      <trkpt lat="43.73948" lon="-1.40993">
        <ele>16.60000038147</ele>
        <time>2023-06-10T13:14:57Z</time>
      </trkpt>
      <trkpt lat="43.73979" lon="-1.40965">
        <ele>16.799999237061</ele>
        <time>2023-06-10T13:15:05Z</time>
      </trkpt>
      <trkpt lat="43.74015" lon="-1.40937">
        <ele>16.60000038147</ele>
        <time>2023-06-10T13:15:14Z</time>
      </trkpt>
      <trkpt lat="43.7404" lon="-1.40918">
        <ele>16.799999237061</ele>
        <time>2023-06-10T13:15:20Z</time>
      </trkpt>
      <trkpt lat="43.7408" lon="-1.40887">
        <ele>16.799999237061</ele>
        <time>2023-06-10T13:15:29Z</time>
      </trkpt>
      <trkpt lat="43.74118" lon="-1.40854">
        <ele>16.799999237061</ele>
        <time>2023-06-10T13:15:38Z</time>
      </trkpt>
      <trkpt lat="43.7413" lon="-1.40843">
        <ele>16.799999237061</ele>
        <time>2023-06-10T13:15:41Z</time>
      </trkpt>
      <trkpt lat="43.74137" lon="-1.40836">
        <ele>16.799999237061</ele>
        <time>2023-06-10T13:15:43Z</time>
      </trkpt>
      <trkpt lat="43.74157" lon="-1.40821">
        <ele>17</ele>
        <time>2023-06-10T13:15:48Z</time>
      </trkpt>
      <trkpt lat="43.74174" lon="-1.40808">
        <ele>17.200000762939</ele>
        <time>2023-06-10T13:15:52Z</time>
      </trkpt>
      <trkpt lat="43.74205" lon="-1.40781">
        <ele>17.39999961853</ele>
        <time>2023-06-10T13:15:59Z</time>
      </trkpt>
      <trkpt lat="43.74209" lon="-1.40777">
        <ele>17.39999961853</ele>
        <time>2023-06-10T13:16:00Z</time>
      </trkpt>
      <trkpt lat="43.74217" lon="-1.4077">
        <ele>17.39999961853</ele>
        <time>2023-06-10T13:16:02Z</time>
      </trkpt>
      <trkpt lat="43.74241" lon="-1.40753">
        <ele>17.39999961853</ele>
        <time>2023-06-10T13:16:07Z</time>
      </trkpt>
      <trkpt lat="43.74278" lon="-1.40726">
        <ele>17.200000762939</ele>
        <time>2023-06-10T13:16:15Z</time>
      </trkpt>
      <trkpt lat="43.74327" lon="-1.40686">
        <ele>17.39999961853</ele>
        <time>2023-06-10T13:16:26Z</time>
      </trkpt>
      <trkpt lat="43.74372" lon="-1.4065">
        <ele>17</ele>
        <time>2023-06-10T13:16:36Z</time>
      </trkpt>
      <trkpt lat="43.74418" lon="-1.40615">
        <ele>17</ele>
        <time>2023-06-10T13:16:46Z</time>
      </trkpt>
      <trkpt lat="43.74455" lon="-1.40586">
        <ele>17.60000038147</ele>
        <time>2023-06-10T13:16:55Z</time>
      </trkpt>
      <trkpt lat="43.74495" lon="-1.40553">
        <ele>17.39999961853</ele>
        <time>2023-06-10T13:17:05Z</time>
      </trkpt>
      <trkpt lat="43.74532" lon="-1.40521">
        <ele>17.60000038147</ele>
        <time>2023-06-10T13:17:15Z</time>
      </trkpt>
      <trkpt lat="43.74573" lon="-1.40488">
        <ele>17.60000038147</ele>
        <time>2023-06-10T13:17:26Z</time>
      </trkpt>
      <trkpt lat="43.74594" lon="-1.4047">
        <ele>17.60000038147</ele>
        <time>2023-06-10T13:17:32Z</time>
      </trkpt>
      <trkpt lat="43.7462" lon="-1.40449">
        <ele>17.60000038147</ele>
        <time>2023-06-10T13:17:38Z</time>
      </trkpt>
      <trkpt lat="43.74648" lon="-1.40426">
        <ele>17.39999961853</ele>
        <time>2023-06-10T13:17:45Z</time>
      </trkpt>
      <trkpt lat="43.74675" lon="-1.40404">
        <ele>17.39999961853</ele>
        <time>2023-06-10T13:17:52Z</time>
      </trkpt>
      <trkpt lat="43.74715" lon="-1.40371">
        <ele>17.60000038147</ele>
        <time>2023-06-10T13:18:02Z</time>
      </trkpt>
      <trkpt lat="43.74753" lon="-1.4034">
        <ele>17.60000038147</ele>
        <time>2023-06-10T13:18:12Z</time>
      </trkpt>
      <trkpt lat="43.74798" lon="-1.40303">
        <ele>17.799999237061</ele>
        <time>2023-06-10T13:18:24Z</time>
      </trkpt>
      <trkpt lat="43.74839" lon="-1.40271">
        <ele>17.799999237061</ele>
        <time>2023-06-10T13:18:35Z</time>
      </trkpt>
      <trkpt lat="43.74854" lon="-1.40259">
        <ele>17.799999237061</ele>
        <time>2023-06-10T13:18:39Z</time>
      </trkpt>
      <trkpt lat="43.74858" lon="-1.40256">
        <ele>17.799999237061</ele>
        <time>2023-06-10T13:18:40Z</time>
      </trkpt>
      <trkpt lat="43.74906" lon="-1.40217">
        <ele>17.799999237061</ele>
        <time>2023-06-10T13:18:52Z</time>
      </trkpt>
      <trkpt lat="43.74954" lon="-1.40178">
        <ele>17.799999237061</ele>
        <time>2023-06-10T13:19:04Z</time>
      </trkpt>
      <trkpt lat="43.74995" lon="-1.40148">
        <ele>17.799999237061</ele>
        <time>2023-06-10T13:19:14Z</time>
      </trkpt>
      <trkpt lat="43.75042" lon="-1.40109">
        <ele>17.799999237061</ele>
        <time>2023-06-10T13:19:25Z</time>
      </trkpt>
      <trkpt lat="43.75075" lon="-1.4008">
        <ele>18</ele>
        <time>2023-06-10T13:19:34Z</time>
      </trkpt>
      <trkpt lat="43.75101" lon="-1.40058">
        <ele>18.200000762939</ele>
        <time>2023-06-10T13:19:41Z</time>
      </trkpt>
      <trkpt lat="43.75119" lon="-1.40044">
        <ele>18</ele>
        <time>2023-06-10T13:19:45Z</time>
      </trkpt>
      <trkpt lat="43.75124" lon="-1.4004">
        <ele>18</ele>
        <time>2023-06-10T13:19:46Z</time>
      </trkpt>
      <trkpt lat="43.75128" lon="-1.40036">
        <ele>18</ele>
        <time>2023-06-10T13:19:47Z</time>
      </trkpt>
      <trkpt lat="43.75164" lon="-1.40007">
        <ele>17.799999237061</ele>
        <time>2023-06-10T13:19:56Z</time>
      </trkpt>
      <trkpt lat="43.7518" lon="-1.39994">
        <ele>17.799999237061</ele>
        <time>2023-06-10T13:20:00Z</time>
      </trkpt>
      <trkpt lat="43.75183" lon="-1.3999">
        <ele>17.799999237061</ele>
        <time>2023-06-10T13:20:01Z</time>
      </trkpt>
      <trkpt lat="43.75213" lon="-1.39968">
        <ele>17.39999961853</ele>
        <time>2023-06-10T13:20:09Z</time>
      </trkpt>
      <trkpt lat="43.75221" lon="-1.39962">
        <ele>17.200000762939</ele>
        <time>2023-06-10T13:20:11Z</time>
      </trkpt>
      <trkpt lat="43.75258" lon="-1.39932">
        <ele>17.39999961853</ele>
        <time>2023-06-10T13:20:21Z</time>
      </trkpt>
      <trkpt lat="43.75292" lon="-1.39905">
        <ele>17.60000038147</ele>
        <time>2023-06-10T13:20:30Z</time>
      </trkpt>
      <trkpt lat="43.75325" lon="-1.39879">
        <ele>17.60000038147</ele>
        <time>2023-06-10T13:20:38Z</time>
      </trkpt>
      <trkpt lat="43.75346" lon="-1.3986">
        <ele>17.60000038147</ele>
        <time>2023-06-10T13:20:44Z</time>
      </trkpt>
      <trkpt lat="43.75371" lon="-1.39841">
        <ele>17.60000038147</ele>
        <time>2023-06-10T13:20:51Z</time>
      </trkpt>
      <trkpt lat="43.75403" lon="-1.39815">
        <ele>17.60000038147</ele>
        <time>2023-06-10T13:20:59Z</time>
      </trkpt>
      <trkpt lat="43.75433" lon="-1.39793">
        <ele>17.799999237061</ele>
        <time>2023-06-10T13:21:07Z</time>
      </trkpt>
      <trkpt lat="43.75436" lon="-1.3979">
        <ele>17.799999237061</ele>
        <time>2023-06-10T13:21:08Z</time>
      </trkpt>
      <trkpt lat="43.7547" lon="-1.39762">
        <ele>18.200000762939</ele>
        <time>2023-06-10T13:21:17Z</time>
      </trkpt>
      <trkpt lat="43.75509" lon="-1.39728">
        <ele>18.39999961853</ele>
        <time>2023-06-10T13:21:27Z</time>
      </trkpt>
      <trkpt lat="43.7552" lon="-1.39719">
        <ele>18.200000762939</ele>
        <time>2023-06-10T13:21:30Z</time>
      </trkpt>
      <trkpt lat="43.75523" lon="-1.39715">
        <ele>18.200000762939</ele>
        <time>2023-06-10T13:21:31Z</time>
      </trkpt>
      <trkpt lat="43.75556" lon="-1.3969">
        <ele>18.200000762939</ele>
        <time>2023-06-10T13:21:39Z</time>
      </trkpt>
      <trkpt lat="43.75594" lon="-1.39659">
        <ele>18.39999961853</ele>
        <time>2023-06-10T13:21:48Z</time>
      </trkpt>
      <trkpt lat="43.75638" lon="-1.39626">
        <ele>18.39999961853</ele>
        <time>2023-06-10T13:21:59Z</time>
      </trkpt>
      <trkpt lat="43.75679" lon="-1.39594">
        <ele>18.799999237061</ele>
        <time>2023-06-10T13:22:09Z</time>
      </trkpt>
      <trkpt lat="43.75715" lon="-1.39566">
        <ele>18.39999961853</ele>
        <time>2023-06-10T13:22:18Z</time>
      </trkpt>
      <trkpt lat="43.75747" lon="-1.39537">
        <ele>18.60000038147</ele>
        <time>2023-06-10T13:22:26Z</time>
      </trkpt>
      <trkpt lat="43.75785" lon="-1.39506">
        <ele>19</ele>
        <time>2023-06-10T13:22:36Z</time>
      </trkpt>
      <trkpt lat="43.75817" lon="-1.39479">
        <ele>19</ele>
        <time>2023-06-10T13:22:45Z</time>
      </trkpt>
      <trkpt lat="43.75857" lon="-1.39447">
        <ele>18.60000038147</ele>
        <time>2023-06-10T13:22:55Z</time>
      </trkpt>
      <trkpt lat="43.75902" lon="-1.39412">
        <ele>18.799999237061</ele>
        <time>2023-06-10T13:23:07Z</time>
      </trkpt>
      <trkpt lat="43.75928" lon="-1.3939">
        <ele>18.799999237061</ele>
        <time>2023-06-10T13:23:15Z</time>
      </trkpt>
      <trkpt lat="43.75951" lon="-1.39371">
        <ele>18.799999237061</ele>
        <time>2023-06-10T13:23:22Z</time>
      </trkpt>
      <trkpt lat="43.75974" lon="-1.39351">
        <ele>18.60000038147</ele>
        <time>2023-06-10T13:23:28Z</time>
      </trkpt>
      <trkpt lat="43.75997" lon="-1.39333">
        <ele>18.60000038147</ele>
        <time>2023-06-10T13:23:34Z</time>
      </trkpt>
      <trkpt lat="43.76025" lon="-1.3931">
        <ele>18.799999237061</ele>
        <time>2023-06-10T13:23:41Z</time>
      </trkpt>
      <trkpt lat="43.7605" lon="-1.39291">
        <ele>18.799999237061</ele>
        <time>2023-06-10T13:23:48Z</time>
      </trkpt>
      <trkpt lat="43.76076" lon="-1.39269">
        <ele>18.799999237061</ele>
        <time>2023-06-10T13:23:55Z</time>
      </trkpt>
      <trkpt lat="43.76118" lon="-1.39238">
        <ele>18.60000038147</ele>
        <time>2023-06-10T13:24:05Z</time>
      </trkpt>
      <trkpt lat="43.76154" lon="-1.3921">
        <ele>18.60000038147</ele>
        <time>2023-06-10T13:24:14Z</time>
      </trkpt>
      <trkpt lat="43.76185" lon="-1.39183">
        <ele>18.39999961853</ele>
        <time>2023-06-10T13:24:22Z</time>
      </trkpt>
      <trkpt lat="43.76223" lon="-1.39151">
        <ele>18.200000762939</ele>
        <time>2023-06-10T13:24:32Z</time>
      </trkpt>
      <trkpt lat="43.76259" lon="-1.39121">
        <ele>18.200000762939</ele>
        <time>2023-06-10T13:24:42Z</time>
      </trkpt>
      <trkpt lat="43.76274" lon="-1.39107">
        <ele>18.200000762939</ele>
        <time>2023-06-10T13:24:47Z</time>
      </trkpt>
      <trkpt lat="43.76277" lon="-1.39108">
        <ele>18.200000762939</ele>
        <time>2023-06-10T13:24:48Z</time>
      </trkpt>
      <trkpt lat="43.76279" lon="-1.39109">
        <ele>18.200000762939</ele>
        <time>2023-06-10T13:24:49Z</time>
      </trkpt>
      <trkpt lat="43.76281" lon="-1.39111">
        <ele>18.200000762939</ele>
        <time>2023-06-10T13:24:50Z</time>
      </trkpt>
      <trkpt lat="43.76282" lon="-1.39113">
        <ele>18.200000762939</ele>
        <time>2023-06-10T13:24:51Z</time>
      </trkpt>
      <trkpt lat="43.76292" lon="-1.39125">
        <ele>18.200000762939</ele>
        <time>2023-06-10T13:24:57Z</time>
      </trkpt>
      <trkpt lat="43.76307" lon="-1.39132">
        <ele>18</ele>
        <time>2023-06-10T13:25:04Z</time>
      </trkpt>
      <trkpt lat="43.76308" lon="-1.39132">
        <ele>17.799999237061</ele>
        <time>2023-06-10T13:25:11Z</time>
      </trkpt>
      <trkpt lat="43.76309" lon="-1.39131">
        <ele>17.799999237061</ele>
        <time>2023-06-10T13:25:27Z</time>
      </trkpt>
      <trkpt lat="43.76309" lon="-1.39131">
        <ele>17.60000038147</ele>
        <time>2023-06-10T13:25:56Z</time>
      </trkpt>
      <trkpt lat="43.7631" lon="-1.39132">
        <ele>17.39999961853</ele>
        <time>2023-06-10T13:26:14Z</time>
      </trkpt>
      <trkpt lat="43.76309" lon="-1.39132">
        <ele>17.39999961853</ele>
        <time>2023-06-10T13:26:43Z</time>
      </trkpt>
      <trkpt lat="43.76308" lon="-1.39132">
        <ele>17.39999961853</ele>
        <time>2023-06-10T13:27:04Z</time>
      </trkpt>
      <trkpt lat="43.76308" lon="-1.39137">
        <ele>17.39999961853</ele>
        <time>2023-06-10T13:35:13Z</time>
      </trkpt>
      <trkpt lat="43.76312" lon="-1.39138">
        <ele>17.39999961853</ele>
        <time>2023-06-10T13:35:25Z</time>
      </trkpt>
      <trkpt lat="43.76323" lon="-1.39145">
        <ele>17</ele>
        <time>2023-06-10T13:35:31Z</time>
      </trkpt>
      <trkpt lat="43.76344" lon="-1.39153">
        <ele>16.799999237061</ele>
        <time>2023-06-10T13:35:39Z</time>
      </trkpt>
      <trkpt lat="43.76374" lon="-1.39168">
        <ele>17</ele>
        <time>2023-06-10T13:35:49Z</time>
      </trkpt>
      <trkpt lat="43.76407" lon="-1.39185">
        <ele>17</ele>
        <time>2023-06-10T13:35:59Z</time>
      </trkpt>
      <trkpt lat="43.76425" lon="-1.39195">
        <ele>17</ele>
        <time>2023-06-10T13:36:05Z</time>
      </trkpt>
      <trkpt lat="43.76446" lon="-1.39207">
        <ele>17</ele>
        <time>2023-06-10T13:36:12Z</time>
      </trkpt>
      <trkpt lat="43.76473" lon="-1.39223">
        <ele>16.799999237061</ele>
        <time>2023-06-10T13:36:19Z</time>
      </trkpt>
      <trkpt lat="43.76511" lon="-1.39242">
        <ele>16.60000038147</ele>
        <time>2023-06-10T13:36:28Z</time>
      </trkpt>
      <trkpt lat="43.76525" lon="-1.39252">
        <ele>16.60000038147</ele>
        <time>2023-06-10T13:36:31Z</time>
      </trkpt>
      <trkpt lat="43.76555" lon="-1.39269">
        <ele>16.200000762939</ele>
        <time>2023-06-10T13:36:38Z</time>
      </trkpt>
      <trkpt lat="43.76587" lon="-1.39281">
        <ele>16.200000762939</ele>
        <time>2023-06-10T13:36:45Z</time>
      </trkpt>
      <trkpt lat="43.76625" lon="-1.39296">
        <ele>15.800000190735</ele>
        <time>2023-06-10T13:36:53Z</time>
      </trkpt>
      <trkpt lat="43.76648" lon="-1.39309">
        <ele>15.60000038147</ele>
        <time>2023-06-10T13:36:59Z</time>
      </trkpt>
      <trkpt lat="43.76666" lon="-1.39319">
        <ele>15.60000038147</ele>
        <time>2023-06-10T13:37:04Z</time>
      </trkpt>
      <trkpt lat="43.76685" lon="-1.39329">
        <ele>15.800000190735</ele>
        <time>2023-06-10T13:37:10Z</time>
      </trkpt>
      <trkpt lat="43.76703" lon="-1.39336">
        <ele>16</ele>
        <time>2023-06-10T13:37:15Z</time>
      </trkpt>
      <trkpt lat="43.76721" lon="-1.39344">
        <ele>16</ele>
        <time>2023-06-10T13:37:20Z</time>
      </trkpt>
      <trkpt lat="43.76744" lon="-1.39351">
        <ele>16</ele>
        <time>2023-06-10T13:37:25Z</time>
      </trkpt>
      <trkpt lat="43.76767" lon="-1.39356">
        <ele>16.200000762939</ele>
        <time>2023-06-10T13:37:30Z</time>
      </trkpt>
      <trkpt lat="43.76792" lon="-1.39359">
        <ele>16.39999961853</ele>
        <time>2023-06-10T13:37:36Z</time>
      </trkpt>
      <trkpt lat="43.76815" lon="-1.39362">
        <ele>16.39999961853</ele>
        <time>2023-06-10T13:37:41Z</time>
      </trkpt>
      <trkpt lat="43.76846" lon="-1.39359">
        <ele>16.60000038147</ele>
        <time>2023-06-10T13:37:48Z</time>
      </trkpt>
      <trkpt lat="43.76887" lon="-1.39351">
        <ele>16.799999237061</ele>
        <time>2023-06-10T13:37:57Z</time>
      </trkpt>
      <trkpt lat="43.76915" lon="-1.39341">
        <ele>16.799999237061</ele>
        <time>2023-06-10T13:38:04Z</time>
      </trkpt>
      <trkpt lat="43.76934" lon="-1.39331">
        <ele>16.799999237061</ele>
        <time>2023-06-10T13:38:09Z</time>
      </trkpt>
      <trkpt lat="43.76974" lon="-1.39311">
        <ele>16.39999961853</ele>
        <time>2023-06-10T13:38:17Z</time>
      </trkpt>
      <trkpt lat="43.77022" lon="-1.39285">
        <ele>16.60000038147</ele>
        <time>2023-06-10T13:38:27Z</time>
      </trkpt>
      <trkpt lat="43.77027" lon="-1.39284">
        <ele>16.60000038147</ele>
        <time>2023-06-10T13:38:28Z</time>
      </trkpt>
      <trkpt lat="43.77033" lon="-1.39283">
        <ele>16.60000038147</ele>
        <time>2023-06-10T13:38:29Z</time>
      </trkpt>
      <trkpt lat="43.77037" lon="-1.39285">
        <ele>16.60000038147</ele>
        <time>2023-06-10T13:38:30Z</time>
      </trkpt>
      <trkpt lat="43.77041" lon="-1.39288">
        <ele>16.60000038147</ele>
        <time>2023-06-10T13:38:31Z</time>
      </trkpt>
      <trkpt lat="43.77044" lon="-1.39292">
        <ele>16.60000038147</ele>
        <time>2023-06-10T13:38:32Z</time>
      </trkpt>
      <trkpt lat="43.77047" lon="-1.39295">
        <ele>16.60000038147</ele>
        <time>2023-06-10T13:38:33Z</time>
      </trkpt>
      <trkpt lat="43.77051" lon="-1.39298">
        <ele>16.60000038147</ele>
        <time>2023-06-10T13:38:34Z</time>
      </trkpt>
      <trkpt lat="43.77055" lon="-1.393">
        <ele>16.60000038147</ele>
        <time>2023-06-10T13:38:35Z</time>
      </trkpt>
      <trkpt lat="43.77077" lon="-1.39315">
        <ele>16.60000038147</ele>
        <time>2023-06-10T13:38:41Z</time>
      </trkpt>
      <trkpt lat="43.77108" lon="-1.39331">
        <ele>16.799999237061</ele>
        <time>2023-06-10T13:38:48Z</time>
      </trkpt>
      <trkpt lat="43.77129" lon="-1.39336">
        <ele>16.799999237061</ele>
        <time>2023-06-10T13:38:54Z</time>
      </trkpt>
      <trkpt lat="43.77152" lon="-1.39348">
        <ele>16.799999237061</ele>
        <time>2023-06-10T13:39:00Z</time>
      </trkpt>
      <trkpt lat="43.77174" lon="-1.39361">
        <ele>16.799999237061</ele>
        <time>2023-06-10T13:39:06Z</time>
      </trkpt>
      <trkpt lat="43.77201" lon="-1.39384">
        <ele>17</ele>
        <time>2023-06-10T13:39:13Z</time>
      </trkpt>
      <trkpt lat="43.7723" lon="-1.39403">
        <ele>17</ele>
        <time>2023-06-10T13:39:19Z</time>
      </trkpt>
      <trkpt lat="43.77244" lon="-1.39411">
        <ele>16.799999237061</ele>
        <time>2023-06-10T13:39:22Z</time>
      </trkpt>
      <trkpt lat="43.77249" lon="-1.39414">
        <ele>16.799999237061</ele>
        <time>2023-06-10T13:39:23Z</time>
      </trkpt>
      <trkpt lat="43.77276" lon="-1.39428">
        <ele>16.60000038147</ele>
        <time>2023-06-10T13:39:29Z</time>
      </trkpt>
      <trkpt lat="43.77304" lon="-1.39437">
        <ele>16.39999961853</ele>
        <time>2023-06-10T13:39:35Z</time>
      </trkpt>
      <trkpt lat="43.77309" lon="-1.3944">
        <ele>16.39999961853</ele>
        <time>2023-06-10T13:39:36Z</time>
      </trkpt>
      <trkpt lat="43.77331" lon="-1.39457">
        <ele>16.200000762939</ele>
        <time>2023-06-10T13:39:42Z</time>
      </trkpt>
      <trkpt lat="43.77335" lon="-1.39459">
        <ele>16.200000762939</ele>
        <time>2023-06-10T13:39:43Z</time>
      </trkpt>
      <trkpt lat="43.77339" lon="-1.39461">
        <ele>16.200000762939</ele>
        <time>2023-06-10T13:39:44Z</time>
      </trkpt>
      <trkpt lat="43.77343" lon="-1.39463">
        <ele>16.200000762939</ele>
        <time>2023-06-10T13:39:45Z</time>
      </trkpt>
      <trkpt lat="43.77369" lon="-1.39477">
        <ele>16</ele>
        <time>2023-06-10T13:39:52Z</time>
      </trkpt>
      <trkpt lat="43.77388" lon="-1.39494">
        <ele>16.200000762939</ele>
        <time>2023-06-10T13:39:57Z</time>
      </trkpt>
      <trkpt lat="43.77392" lon="-1.39496">
        <ele>16.200000762939</ele>
        <time>2023-06-10T13:39:58Z</time>
      </trkpt>
      <trkpt lat="43.77396" lon="-1.39495">
        <ele>16.200000762939</ele>
        <time>2023-06-10T13:39:59Z</time>
      </trkpt>
      <trkpt lat="43.774" lon="-1.39492">
        <ele>16.200000762939</ele>
        <time>2023-06-10T13:40:00Z</time>
      </trkpt>
      <trkpt lat="43.77403" lon="-1.39489">
        <ele>16.200000762939</ele>
        <time>2023-06-10T13:40:01Z</time>
      </trkpt>
      <trkpt lat="43.77416" lon="-1.39478">
        <ele>16.200000762939</ele>
        <time>2023-06-10T13:40:06Z</time>
      </trkpt>
      <trkpt lat="43.77417" lon="-1.39476">
        <ele>16.39999961853</ele>
        <time>2023-06-10T13:40:11Z</time>
      </trkpt>
      <trkpt lat="43.77416" lon="-1.39461">
        <ele>16.39999961853</ele>
        <time>2023-06-10T13:40:17Z</time>
      </trkpt>
      <trkpt lat="43.77417" lon="-1.39457">
        <ele>16.39999961853</ele>
        <time>2023-06-10T13:40:18Z</time>
      </trkpt>
      <trkpt lat="43.7742" lon="-1.39455">
        <ele>16.39999961853</ele>
        <time>2023-06-10T13:40:19Z</time>
      </trkpt>
      <trkpt lat="43.77422" lon="-1.39452">
        <ele>16.39999961853</ele>
        <time>2023-06-10T13:40:20Z</time>
      </trkpt>
      <trkpt lat="43.77424" lon="-1.39449">
        <ele>16.200000762939</ele>
        <time>2023-06-10T13:40:21Z</time>
      </trkpt>
      <trkpt lat="43.77425" lon="-1.39444">
        <ele>16.200000762939</ele>
        <time>2023-06-10T13:40:22Z</time>
      </trkpt>
      <trkpt lat="43.77426" lon="-1.3944">
        <ele>16.200000762939</ele>
        <time>2023-06-10T13:40:23Z</time>
      </trkpt>
      <trkpt lat="43.77434" lon="-1.39411">
        <ele>16</ele>
        <time>2023-06-10T13:40:29Z</time>
      </trkpt>
      <trkpt lat="43.77443" lon="-1.39381">
        <ele>16.200000762939</ele>
        <time>2023-06-10T13:40:36Z</time>
      </trkpt>
      <trkpt lat="43.77449" lon="-1.3937">
        <ele>16.39999961853</ele>
        <time>2023-06-10T13:40:39Z</time>
      </trkpt>
      <trkpt lat="43.77453" lon="-1.39368">
        <ele>16.39999961853</ele>
        <time>2023-06-10T13:40:40Z</time>
      </trkpt>
      <trkpt lat="43.77456" lon="-1.39367">
        <ele>16.39999961853</ele>
        <time>2023-06-10T13:40:41Z</time>
      </trkpt>
      <trkpt lat="43.7746" lon="-1.39368">
        <ele>16.60000038147</ele>
        <time>2023-06-10T13:40:42Z</time>
      </trkpt>
      <trkpt lat="43.77464" lon="-1.39369">
        <ele>16.60000038147</ele>
        <time>2023-06-10T13:40:43Z</time>
      </trkpt>
      <trkpt lat="43.77467" lon="-1.39371">
        <ele>16.60000038147</ele>
        <time>2023-06-10T13:40:44Z</time>
      </trkpt>
      <trkpt lat="43.7747" lon="-1.39373">
        <ele>16.60000038147</ele>
        <time>2023-06-10T13:40:45Z</time>
      </trkpt>
      <trkpt lat="43.77474" lon="-1.39374">
        <ele>16.60000038147</ele>
        <time>2023-06-10T13:40:46Z</time>
      </trkpt>
      <trkpt lat="43.77495" lon="-1.39384">
        <ele>16.60000038147</ele>
        <time>2023-06-10T13:40:52Z</time>
      </trkpt>
      <trkpt lat="43.77513" lon="-1.39394">
        <ele>16.799999237061</ele>
        <time>2023-06-10T13:40:57Z</time>
      </trkpt>
      <trkpt lat="43.77536" lon="-1.39407">
        <ele>16.60000038147</ele>
        <time>2023-06-10T13:41:03Z</time>
      </trkpt>
      <trkpt lat="43.77564" lon="-1.39422">
        <ele>16.799999237061</ele>
        <time>2023-06-10T13:41:10Z</time>
      </trkpt>
      <trkpt lat="43.77598" lon="-1.3944">
        <ele>16.799999237061</ele>
        <time>2023-06-10T13:41:18Z</time>
      </trkpt>
      <trkpt lat="43.77626" lon="-1.39456">
        <ele>16.799999237061</ele>
        <time>2023-06-10T13:41:25Z</time>
      </trkpt>
      <trkpt lat="43.77648" lon="-1.39468">
        <ele>16.799999237061</ele>
        <time>2023-06-10T13:41:31Z</time>
      </trkpt>
      <trkpt lat="43.77667" lon="-1.39478">
        <ele>16.799999237061</ele>
        <time>2023-06-10T13:41:36Z</time>
      </trkpt>
      <trkpt lat="43.77692" lon="-1.39492">
        <ele>17</ele>
        <time>2023-06-10T13:41:43Z</time>
      </trkpt>
      <trkpt lat="43.77726" lon="-1.39511">
        <ele>17</ele>
        <time>2023-06-10T13:41:52Z</time>
      </trkpt>
      <trkpt lat="43.77759" lon="-1.39528">
        <ele>17.200000762939</ele>
        <time>2023-06-10T13:42:01Z</time>
      </trkpt>
      <trkpt lat="43.77791" lon="-1.39545">
        <ele>17.39999961853</ele>
        <time>2023-06-10T13:42:10Z</time>
      </trkpt>
      <trkpt lat="43.77818" lon="-1.39559">
        <ele>17.39999961853</ele>
        <time>2023-06-10T13:42:17Z</time>
      </trkpt>
      <trkpt lat="43.77848" lon="-1.39575">
        <ele>17.200000762939</ele>
        <time>2023-06-10T13:42:25Z</time>
      </trkpt>
      <trkpt lat="43.77884" lon="-1.39593">
        <ele>17</ele>
        <time>2023-06-10T13:42:34Z</time>
      </trkpt>
      <trkpt lat="43.77923" lon="-1.39611">
        <ele>16.799999237061</ele>
        <time>2023-06-10T13:42:44Z</time>
      </trkpt>
      <trkpt lat="43.77937" lon="-1.39618">
        <ele>16.799999237061</ele>
        <time>2023-06-10T13:42:49Z</time>
      </trkpt>
      <trkpt lat="43.77938" lon="-1.39621">
        <ele>16.799999237061</ele>
        <time>2023-06-10T13:42:50Z</time>
      </trkpt>
      <trkpt lat="43.77942" lon="-1.39653">
        <ele>17</ele>
        <time>2023-06-10T13:42:57Z</time>
      </trkpt>
      <trkpt lat="43.77945" lon="-1.39702">
        <ele>17</ele>
        <time>2023-06-10T13:43:06Z</time>
      </trkpt>
      <trkpt lat="43.77944" lon="-1.39708">
        <ele>17</ele>
        <time>2023-06-10T13:43:07Z</time>
      </trkpt>
      <trkpt lat="43.77943" lon="-1.39714">
        <ele>17</ele>
        <time>2023-06-10T13:43:08Z</time>
      </trkpt>
      <trkpt lat="43.77941" lon="-1.39719">
        <ele>17</ele>
        <time>2023-06-10T13:43:09Z</time>
      </trkpt>
      <trkpt lat="43.77939" lon="-1.39724">
        <ele>17</ele>
        <time>2023-06-10T13:43:10Z</time>
      </trkpt>
      <trkpt lat="43.77939" lon="-1.39729">
        <ele>17</ele>
        <time>2023-06-10T13:43:11Z</time>
      </trkpt>
      <trkpt lat="43.77938" lon="-1.39734">
        <ele>17</ele>
        <time>2023-06-10T13:43:12Z</time>
      </trkpt>
      <trkpt lat="43.77938" lon="-1.39739">
        <ele>17</ele>
        <time>2023-06-10T13:43:13Z</time>
      </trkpt>
      <trkpt lat="43.77938" lon="-1.39751">
        <ele>17</ele>
        <time>2023-06-10T13:43:15Z</time>
      </trkpt>
      <trkpt lat="43.77939" lon="-1.39756">
        <ele>16.799999237061</ele>
        <time>2023-06-10T13:43:16Z</time>
      </trkpt>
      <trkpt lat="43.77941" lon="-1.39762">
        <ele>16.799999237061</ele>
        <time>2023-06-10T13:43:17Z</time>
      </trkpt>
      <trkpt lat="43.77955" lon="-1.39785">
        <ele>16.799999237061</ele>
        <time>2023-06-10T13:43:23Z</time>
      </trkpt>
      <trkpt lat="43.77962" lon="-1.39791">
        <ele>16.799999237061</ele>
        <time>2023-06-10T13:43:25Z</time>
      </trkpt>
      <trkpt lat="43.77966" lon="-1.39793">
        <ele>16.799999237061</ele>
        <time>2023-06-10T13:43:26Z</time>
      </trkpt>
      <trkpt lat="43.77996" lon="-1.39812">
        <ele>16.60000038147</ele>
        <time>2023-06-10T13:43:34Z</time>
      </trkpt>
      <trkpt lat="43.78024" lon="-1.39827">
        <ele>16.39999961853</ele>
        <time>2023-06-10T13:43:41Z</time>
      </trkpt>
      <trkpt lat="43.78028" lon="-1.3983">
        <ele>16.39999961853</ele>
        <time>2023-06-10T13:43:42Z</time>
      </trkpt>
      <trkpt lat="43.78032" lon="-1.39832">
        <ele>16.200000762939</ele>
        <time>2023-06-10T13:43:43Z</time>
      </trkpt>
      <trkpt lat="43.78059" lon="-1.39849">
        <ele>15.800000190735</ele>
        <time>2023-06-10T13:43:49Z</time>
      </trkpt>
      <trkpt lat="43.781" lon="-1.39858">
        <ele>15.39999961853</ele>
        <time>2023-06-10T13:43:57Z</time>
      </trkpt>
      <trkpt lat="43.78145" lon="-1.39855">
        <ele>15.199999809265</ele>
        <time>2023-06-10T13:44:06Z</time>
      </trkpt>
      <trkpt lat="43.78184" lon="-1.39852">
        <ele>15.199999809265</ele>
        <time>2023-06-10T13:44:15Z</time>
      </trkpt>
      <trkpt lat="43.782" lon="-1.3985">
        <ele>15.199999809265</ele>
        <time>2023-06-10T13:44:19Z</time>
      </trkpt>
      <trkpt lat="43.7824" lon="-1.39847">
        <ele>15.199999809265</ele>
        <time>2023-06-10T13:44:27Z</time>
      </trkpt>
      <trkpt lat="43.78283" lon="-1.39839">
        <ele>15.199999809265</ele>
        <time>2023-06-10T13:44:36Z</time>
      </trkpt>
      <trkpt lat="43.78339" lon="-1.39832">
        <ele>15.39999961853</ele>
        <time>2023-06-10T13:44:48Z</time>
      </trkpt>
      <trkpt lat="43.78382" lon="-1.39826">
        <ele>15.39999961853</ele>
        <time>2023-06-10T13:44:58Z</time>
      </trkpt>
      <trkpt lat="43.78415" lon="-1.39823">
        <ele>15.60000038147</ele>
        <time>2023-06-10T13:45:06Z</time>
      </trkpt>
      <trkpt lat="43.78457" lon="-1.39817">
        <ele>15.800000190735</ele>
        <time>2023-06-10T13:45:16Z</time>
      </trkpt>
      <trkpt lat="43.78498" lon="-1.39813">
        <ele>15.800000190735</ele>
        <time>2023-06-10T13:45:26Z</time>
      </trkpt>
      <trkpt lat="43.78538" lon="-1.39805">
        <ele>15.800000190735</ele>
        <time>2023-06-10T13:45:36Z</time>
      </trkpt>
      <trkpt lat="43.78566" lon="-1.39794">
        <ele>15.60000038147</ele>
        <time>2023-06-10T13:45:43Z</time>
      </trkpt>
      <trkpt lat="43.78587" lon="-1.39786">
        <ele>15.60000038147</ele>
        <time>2023-06-10T13:45:49Z</time>
      </trkpt>
      <trkpt lat="43.78619" lon="-1.39775">
        <ele>15.39999961853</ele>
        <time>2023-06-10T13:45:57Z</time>
      </trkpt>
      <trkpt lat="43.7865" lon="-1.39761">
        <ele>15.199999809265</ele>
        <time>2023-06-10T13:46:04Z</time>
      </trkpt>
      <trkpt lat="43.78706" lon="-1.39739">
        <ele>14.800000190735</ele>
        <time>2023-06-10T13:46:17Z</time>
      </trkpt>
      <trkpt lat="43.78724" lon="-1.39731">
        <ele>14.800000190735</ele>
        <time>2023-06-10T13:46:23Z</time>
      </trkpt>
      <trkpt lat="43.78754" lon="-1.39719">
        <ele>14.800000190735</ele>
        <time>2023-06-10T13:46:30Z</time>
      </trkpt>
      <trkpt lat="43.78796" lon="-1.39692">
        <ele>15</ele>
        <time>2023-06-10T13:46:40Z</time>
      </trkpt>
      <trkpt lat="43.78826" lon="-1.39662">
        <ele>15.199999809265</ele>
        <time>2023-06-10T13:46:49Z</time>
      </trkpt>
      <trkpt lat="43.78844" lon="-1.39631">
        <ele>15.39999961853</ele>
        <time>2023-06-10T13:46:57Z</time>
      </trkpt>
      <trkpt lat="43.78847" lon="-1.39629">
        <ele>15.199999809265</ele>
        <time>2023-06-10T13:46:58Z</time>
      </trkpt>
      <trkpt lat="43.78851" lon="-1.39629">
        <ele>15.199999809265</ele>
        <time>2023-06-10T13:46:59Z</time>
      </trkpt>
      <trkpt lat="43.78854" lon="-1.39631">
        <ele>15.199999809265</ele>
        <time>2023-06-10T13:47:00Z</time>
      </trkpt>
      <trkpt lat="43.78856" lon="-1.39634">
        <ele>15.199999809265</ele>
        <time>2023-06-10T13:47:01Z</time>
      </trkpt>
      <trkpt lat="43.78858" lon="-1.39638">
        <ele>15.199999809265</ele>
        <time>2023-06-10T13:47:02Z</time>
      </trkpt>
      <trkpt lat="43.7886" lon="-1.39642">
        <ele>15.199999809265</ele>
        <time>2023-06-10T13:47:03Z</time>
      </trkpt>
      <trkpt lat="43.78861" lon="-1.39646">
        <ele>15.199999809265</ele>
        <time>2023-06-10T13:47:04Z</time>
      </trkpt>
      <trkpt lat="43.78861" lon="-1.39651">
        <ele>15.199999809265</ele>
        <time>2023-06-10T13:47:05Z</time>
      </trkpt>
      <trkpt lat="43.78861" lon="-1.39656">
        <ele>15.199999809265</ele>
        <time>2023-06-10T13:47:06Z</time>
      </trkpt>
      <trkpt lat="43.78868" lon="-1.39677">
        <ele>15</ele>
        <time>2023-06-10T13:47:12Z</time>
      </trkpt>
      <trkpt lat="43.78873" lon="-1.39688">
        <ele>14.800000190735</ele>
        <time>2023-06-10T13:47:18Z</time>
      </trkpt>
      <trkpt lat="43.78873" lon="-1.39689">
        <ele>14.800000190735</ele>
        <time>2023-06-10T13:47:32Z</time>
      </trkpt>
      <trkpt lat="43.78873" lon="-1.39706">
        <ele>14.800000190735</ele>
        <time>2023-06-10T13:47:39Z</time>
      </trkpt>
      <trkpt lat="43.78883" lon="-1.39737">
        <ele>14.60000038147</ele>
        <time>2023-06-10T13:47:46Z</time>
      </trkpt>
      <trkpt lat="43.78899" lon="-1.39794">
        <ele>14.199999809265</ele>
        <time>2023-06-10T13:47:58Z</time>
      </trkpt>
      <trkpt lat="43.78908" lon="-1.39815">
        <ele>14.199999809265</ele>
        <time>2023-06-10T13:48:05Z</time>
      </trkpt>
      <trkpt lat="43.7891" lon="-1.3982">
        <ele>14.199999809265</ele>
        <time>2023-06-10T13:48:07Z</time>
      </trkpt>
      <trkpt lat="43.7891" lon="-1.39823">
        <ele>14.199999809265</ele>
        <time>2023-06-10T13:48:08Z</time>
      </trkpt>
      <trkpt lat="43.78909" lon="-1.39827">
        <ele>14.199999809265</ele>
        <time>2023-06-10T13:48:09Z</time>
      </trkpt>
      <trkpt lat="43.78908" lon="-1.39831">
        <ele>14.199999809265</ele>
        <time>2023-06-10T13:48:10Z</time>
      </trkpt>
      <trkpt lat="43.78908" lon="-1.39836">
        <ele>14</ele>
        <time>2023-06-10T13:48:11Z</time>
      </trkpt>
      <trkpt lat="43.78909" lon="-1.39841">
        <ele>14</ele>
        <time>2023-06-10T13:48:12Z</time>
      </trkpt>
      <trkpt lat="43.7891" lon="-1.39846">
        <ele>14</ele>
        <time>2023-06-10T13:48:13Z</time>
      </trkpt>
      <trkpt lat="43.78911" lon="-1.39851">
        <ele>14</ele>
        <time>2023-06-10T13:48:14Z</time>
      </trkpt>
      <trkpt lat="43.78923" lon="-1.39904">
        <ele>14</ele>
        <time>2023-06-10T13:48:24Z</time>
      </trkpt>
      <trkpt lat="43.7893" lon="-1.39937">
        <ele>14</ele>
        <time>2023-06-10T13:48:30Z</time>
      </trkpt>
      <trkpt lat="43.78941" lon="-1.39998">
        <ele>14.199999809265</ele>
        <time>2023-06-10T13:48:41Z</time>
      </trkpt>
      <trkpt lat="43.78954" lon="-1.40056">
        <ele>14.39999961853</ele>
        <time>2023-06-10T13:48:51Z</time>
      </trkpt>
      <trkpt lat="43.78961" lon="-1.40098">
        <ele>15</ele>
        <time>2023-06-10T13:48:59Z</time>
      </trkpt>
      <trkpt lat="43.78966" lon="-1.40114">
        <ele>15</ele>
        <time>2023-06-10T13:49:02Z</time>
      </trkpt>
      <trkpt lat="43.78974" lon="-1.40136">
        <ele>15</ele>
        <time>2023-06-10T13:49:06Z</time>
      </trkpt>
      <trkpt lat="43.78976" lon="-1.40141">
        <ele>15</ele>
        <time>2023-06-10T13:49:07Z</time>
      </trkpt>
      <trkpt lat="43.78988" lon="-1.40199">
        <ele>14.39999961853</ele>
        <time>2023-06-10T13:49:17Z</time>
      </trkpt>
      <trkpt lat="43.79004" lon="-1.40265">
        <ele>14.39999961853</ele>
        <time>2023-06-10T13:49:28Z</time>
      </trkpt>
      <trkpt lat="43.79024" lon="-1.40307">
        <ele>14.199999809265</ele>
        <time>2023-06-10T13:49:37Z</time>
      </trkpt>
      <trkpt lat="43.79052" lon="-1.40344">
        <ele>14.39999961853</ele>
        <time>2023-06-10T13:49:46Z</time>
      </trkpt>
      <trkpt lat="43.79072" lon="-1.40376">
        <ele>14.39999961853</ele>
        <time>2023-06-10T13:49:53Z</time>
      </trkpt>
      <trkpt lat="43.79073" lon="-1.40381">
        <ele>14.39999961853</ele>
        <time>2023-06-10T13:49:54Z</time>
      </trkpt>
      <trkpt lat="43.79087" lon="-1.40432">
        <ele>14.39999961853</ele>
        <time>2023-06-10T13:50:03Z</time>
      </trkpt>
      <trkpt lat="43.79103" lon="-1.40498">
        <ele>13.800000190735</ele>
        <time>2023-06-10T13:50:14Z</time>
      </trkpt>
      <trkpt lat="43.7911" lon="-1.40514">
        <ele>13.60000038147</ele>
        <time>2023-06-10T13:50:17Z</time>
      </trkpt>
      <trkpt lat="43.79113" lon="-1.40518">
        <ele>13.60000038147</ele>
        <time>2023-06-10T13:50:18Z</time>
      </trkpt>
      <trkpt lat="43.79136" lon="-1.40542">
        <ele>13.800000190735</ele>
        <time>2023-06-10T13:50:25Z</time>
      </trkpt>
      <trkpt lat="43.7917" lon="-1.4057">
        <ele>14</ele>
        <time>2023-06-10T13:50:35Z</time>
      </trkpt>
      <trkpt lat="43.7921" lon="-1.40594">
        <ele>14</ele>
        <time>2023-06-10T13:50:46Z</time>
      </trkpt>
      <trkpt lat="43.79248" lon="-1.40611">
        <ele>14.199999809265</ele>
        <time>2023-06-10T13:50:56Z</time>
      </trkpt>
      <trkpt lat="43.79281" lon="-1.40614">
        <ele>14.199999809265</ele>
        <time>2023-06-10T13:51:05Z</time>
      </trkpt>
      <trkpt lat="43.79305" lon="-1.40614">
        <ele>14</ele>
        <time>2023-06-10T13:51:13Z</time>
      </trkpt>
      <trkpt lat="43.79319" lon="-1.40631">
        <ele>13.800000190735</ele>
        <time>2023-06-10T13:51:20Z</time>
      </trkpt>
      <trkpt lat="43.7932" lon="-1.40631">
        <ele>13.800000190735</ele>
        <time>2023-06-10T13:51:21Z</time>
      </trkpt>
      <trkpt lat="43.79321" lon="-1.4063">
        <ele>13.60000038147</ele>
        <time>2023-06-10T13:51:28Z</time>
      </trkpt>
      <trkpt lat="43.79321" lon="-1.40629">
        <ele>13.60000038147</ele>
        <time>2023-06-10T13:51:39Z</time>
      </trkpt>
      <trkpt lat="43.79321" lon="-1.4063">
        <ele>13.39999961853</ele>
        <time>2023-06-10T13:52:00Z</time>
      </trkpt>
      <trkpt lat="43.7932" lon="-1.40629">
        <ele>13.199999809265</ele>
        <time>2023-06-10T13:52:30Z</time>
      </trkpt>
      <trkpt lat="43.7932" lon="-1.40629">
        <ele>13.199999809265</ele>
        <time>2023-06-10T13:52:56Z</time>
      </trkpt>
      <trkpt lat="43.7932" lon="-1.40629">
        <ele>13.199999809265</ele>
        <time>2023-06-10T13:53:34Z</time>
      </trkpt>
      <trkpt lat="43.7932" lon="-1.40629">
        <ele>13.199999809265</ele>
        <time>2023-06-10T13:53:36Z</time>
      </trkpt>
    </trkseg>
  </trk>
</gpx>